SondeTracker

Meteorological Radiosondes Database

Operations
Statistics for the Launch Site: Ljubljana (SI)

2460

194

33959.00 m / 20607.00 m / 20721.00 m

4.40 m/s / 4.44 m/s

9.07 m/s / 9.13 m/s

960

139

61

Radiosondes Table with Launch Site: Ljubljana (SI) (2460)
Number Type Last Frame [UTC] φ λ Course Speed Altitude Climbing Frequency Nearest City Distance from QTH Status
MEB004829 M20 2024-07-17 06:01:19 46.2426 15.0312 254 ° 15 km/h 846 m -6.3 m/s 403.001 MHz Tabor (SI) 0.00 km UNKNOWN
MEB004834 M20 2024-07-16 05:02:16 46.1108 14.6382 73 ° 39 km/h 9981 m -1.2 m/s 403.005 MHz Dol (SI) 0.00 km UNKNOWN
MEB004824 M20 2024-07-15 05:58:13 46.1086 15.3636 241 ° 19 km/h 831 m -9.7 m/s 403.001 MHz Dobje (SI) 0.00 km FOUND
MEB004831 M20 2024-07-14 06:06:51 46.4355 15.1721 68 ° 15 km/h 1543 m -12.9 m/s 403.000 MHz Mislinja (SI) 0.00 km UNKNOWN
MEB004837 M20 2024-07-13 06:19:47 46.6351 15.6024 166 ° 11 km/h 568 m -7.5 m/s 403.005 MHz Zgornja Kungota (SI) 0.00 km UNKNOWN
MEB004828 M20 2024-07-12 06:30:41 46.2418 15.0632 254 ° 4 km/h 852 m -8.8 m/s 403.001 MHz Prebold (SI) 0.00 km FOUND
MEB004826 M20 2024-07-11 06:15:18 45.9711 15.1836 271 ° 9 km/h 1309 m -12.6 m/s 403.001 MHz Mokronog (SI) 0.00 km FOUND
MEB100618 M20 2024-07-10 06:27:17 46.199 14.6966 331 ° 52 km/h 2394 m -10.1 m/s 403.001 MHz Lukovica (SI) 0.00 km UNKNOWN
MEB100617 M20 2024-07-09 05:33:42 46.1901 14.6412 207 ° 15 km/h 1560 m -12.5 m/s 403.000 MHz Kamnik (SI) 0.00 km FOUND
MEB100623 M20 2024-07-08 06:22:24 46.2724 15.2991 172 ° 6 km/h 315 m -6.1 m/s 403.001 MHz Vojnik (SI) 0.00 km FOUND
MEB100625 M20 2024-07-07 06:16:54 46.4821 15.3735 353 ° 7 km/h 1522 m -9.1 m/s 403.001 MHz Lovrenc na Pohorju (SI) 0.00 km UNKNOWN
MEB100627 M20 2024-07-06 06:30:48 46.441 15.1735 54 ° 56 km/h 1324 m -11.1 m/s 403.000 MHz Mislinja (SI) 0.00 km UNKNOWN
MEB100616 M20 2024-07-05 05:44:24 45.706 15.4226 30 ° 11 km/h 960 m -11.6 m/s 403.001 MHz Žumberak (HR) 0.00 km UNKNOWN
MEB100621 M20 2024-07-04 06:09:04 45.462 14.7551 220 ° 11 km/h 1279 m -11.7 m/s 403.005 MHz Delnice (HR) 0.00 km UNKNOWN
MEB100624 M20 2024-07-03 06:01:13 46.049 14.9124 269 ° 17 km/h 1536 m -7.5 m/s 403.002 MHz Litija (SI) 0.00 km UNKNOWN
MEB100620 M20 2024-07-02 06:29:35 46.0471 14.7715 200 ° 31 km/h 1587 m -9.6 m/s 403.002 MHz Litija (SI) 0.00 km UNKNOWN
MEB100597 M20 2024-07-01 05:46:29 46.368 15.509 212 ° 15 km/h 461 m -8.9 m/s 403.001 MHz Oplotnica (SI) 0.00 km FOUND
MEB100604 M20 2024-06-30 06:28:49 46.4256 15.0963 37 ° 35 km/h 1332 m -10.5 m/s 403.000 MHz Šoštanj (SI) 0.00 km UNKNOWN
MEB100600 M20 2024-06-29 06:02:16 45.8533 14.98 271 ° 6 km/h 1648 m -8.1 m/s 403.002 MHz Žužemberk (SI) 0.00 km UNKNOWN
MEB100606 M20 2024-06-28 06:21:01 45.7733 14.7356 177 ° 13 km/h 1612 m -11.2 m/s 403.001 MHz Sodražica (SI) 0.00 km UNKNOWN
MEB100612 M20 2024-06-27 06:02:11 45.9678 14.3598 226 ° 9 km/h 949 m -6.7 m/s 403.001 MHz Vrhnika (SI) 0.00 km UNKNOWN
MEB100613 M20 2024-06-26 06:22:31 46.4036 14.0785 312 ° 11 km/h 1832 m -11.6 m/s 403.001 MHz Zgornje Gorje (SI) 0.00 km UNKNOWN
MEB100614 M20 2024-06-25 06:14:10 46.2579 13.6965 287 ° 26 km/h 1999 m -8.7 m/s 403.001 MHz Tolmin (SI) 0.00 km UNKNOWN
MEB100607 M20 2024-06-24 06:29:36 46.3295 13.8345 251 ° 22 km/h 2445 m -12.2 m/s 403.001 MHz Bohinjska Bistrica (SI) 0.00 km UNKNOWN
MEB100609 M20 2024-06-23 05:59:46 46.3927 14.652 294 ° 13 km/h 1971 m -7.7 m/s 403.001 MHz Solčava (SI) 0.00 km UNKNOWN
MEB100591 M20 2024-06-22 06:32:03 46.747 15.2451 109 ° 7 km/h 498 m -10.6 m/s 403.001 MHz Wies (AT) 0.00 km FOUND
MEB100590 M20 2024-06-21 06:20:18 46.4573 15.1199 68 ° 17 km/h 1310 m -10.1 m/s 403.001 MHz Mislinja (SI) 0.00 km FOUND
MEB100592 M20 2024-06-20 06:19:47 45.9797 15.2156 254 ° 20 km/h 933 m -8.5 m/s 403.000 MHz Sevnica (SI) 0.00 km FOUND
MEB100586 M20 2024-06-19 05:51:38 46.1201 15.2572 87 ° 43 km/h 10638 m -10.6 m/s 403.000 MHz Laško (SI) 0.00 km FOUND
MEB100602 M20 2024-06-18 06:20:18 45.9823 15.3748 178 ° 4 km/h 435 m -9.2 m/s 403.000 MHz Sevnica (SI) 0.00 km FOUND
MEB100596 M20 2024-06-17 06:03:37 46.0792 15.4735 354 ° 4 km/h 730 m -8.4 m/s 403.002 MHz Kozje (SI) 0.00 km FOUND
MEB100601 M20 2024-06-16 06:24:06 46.161 15.5255 241 ° 13 km/h 668 m -10.8 m/s 403.000 MHz Podčetrtek (SI) 0.00 km FOUND
MEB100599 M20 2024-06-15 05:57:27 46.1918 15.2515 18 ° 9 km/h 775 m -9.8 m/s 403.002 MHz Laško (SI) 0.00 km UNKNOWN
MEB100594 M20 2024-06-14 06:15:03 45.7845 15.1438 319 ° 11 km/h 1396 m -9.9 m/s 403.001 MHz Novo Mesto (SI) 0.00 km UNKNOWN
MEB100595 M20 2024-06-13 06:12:49 46.5641 15.4009 200 ° 4 km/h 817 m -11.9 m/s 403.000 MHz Lovrenc na Pohorju (SI) 0.00 km UNKNOWN
MEB100567 M20 2024-06-12 06:33:35 46.694 15.3597 265 ° 6 km/h 586 m -12.2 m/s 403.001 MHz Gleinstätten (AT) 0.00 km FOUND
MEB100574 M20 2024-06-11 06:09:40 46.381 15.3462 259 ° 17 km/h 811 m -8.1 m/s 403.002 MHz Zreče (SI) 0.00 km FOUND
MEB100575 M20 2024-06-10 06:23:13 46.3806 15.1097 4 ° 15 km/h 1163 m -10.3 m/s 403.001 MHz Velenje (SI) 0.00 km UNKNOWN
MEB100571 M20 2024-06-09 06:50:33 46.2804 16.7284 292 ° 4 km/h 257 m -1.8 m/s 403.000 MHz Mali Bukovec (HR) 0.00 km FOUND
MEB100570 M20 2024-06-08 06:22:17 45.9017 15.5436 76 ° 9 km/h 371 m -12.0 m/s 403.000 MHz Brežice (SI) 0.00 km FOUND
MEB100573 M20 2024-06-07 06:29:40 46.0529 15.442 227 ° 11 km/h 918 m -9.8 m/s 403.002 MHz Kozje (SI) 0.00 km FOUND
MEB100583 M20 2024-06-06 06:25:33 46.0714 15.1242 186 ° 11 km/h 1212 m -10.6 m/s 403.001 MHz Radeče (SI) 0.00 km FOUND
MEB100579 M20 2024-06-05 05:53:29 46.0611 14.7957 118 ° 24 km/h 1684 m -9.6 m/s 403.002 MHz Litija (SI) 0.00 km UNKNOWN
MEB100578 M20 2024-06-04 06:21:34 46.059 14.5944 282 ° 7 km/h 1774 m -11.6 m/s 403.000 MHz Dol (SI) 0.00 km UNKNOWN
MEB100577 M20 2024-06-03 06:00:38 46.4366 14.3389 350 ° 13 km/h 2332 m -9.9 m/s 403.000 MHz Tržič (SI) 0.00 km UNKNOWN
MEB100576 M20 2024-06-02 06:19:13 46.2308 14.681 56 ° 13 km/h 3806 m -11.2 m/s 403.000 MHz Kamnik (SI) 0.00 km UNKNOWN
MEB100585 M20 2024-06-01 06:17:22 46.3109 15.0512 69 ° 20 km/h 1125 m -11.4 m/s 403.202 MHz Braslovče (SI) 0.00 km UNKNOWN
MEB100581 M20 2024-05-31 07:08:40 46.6123 14.9456 258 ° 28 km/h 1400 m -11.8 m/s 403.002 MHz Lavamünd (AT) 0.00 km UNKNOWN
MEB100582 M20 2024-05-30 06:14:34 45.8577 14.9894 10 ° 6 km/h 1576 m -8.1 m/s 403.002 MHz Žužemberk (SI) 0.00 km FOUND
MEB100593 M20 2024-05-29 06:03:49 45.8848 14.6564 329 ° 13 km/h 2051 m -7.5 m/s 403.002 MHz Videm (SI) 0.00 km UNKNOWN
MEB100588 M20 2024-05-28 06:09:38 45.9909 14.7437 200 ° 4 km/h 2156 m -8.4 m/s 403.000 MHz Ivančna Gorica (SI) 0.00 km FOUND
MEB100584 M20 2024-05-27 06:09:46 45.9077 14.6878 294 ° 22 km/h 2133 m -9.8 m/s 403.000 MHz Grosuplje (SI) 0.00 km FOUND
MEB100589 M20 2024-05-26 06:27:18 46.1286 14.4768 221 ° 17 km/h 1884 m -9.6 m/s 403.002 MHz Medvode (SI) 0.00 km UNKNOWN
MEB100587 M20 2024-05-25 06:04:27 46.4539 14.9338 77 ° 4 km/h 1744 m -9.3 m/s 403.000 MHz Črna na Koroškem (SI) 0.00 km UNKNOWN
MEB100580 M20 2024-05-24 06:11:07 46.247 14.8761 53 ° 2 km/h 1068 m -9.0 m/s 403.000 MHz Vransko (SI) 0.00 km UNKNOWN
MEB001134 M20 2024-05-23 06:15:00 46.1628 14.6159 228 ° 9 km/h 1519 m -11.6 m/s 403.002 MHz Mengeš (SI) 0.00 km FOUND
MEB001136 M20 2024-05-22 06:09:29 46.3437 14.668 119 ° 4 km/h 2197 m -8.3 m/s 403.002 MHz Luče (SI) 0.00 km UNKNOWN
MEB001139 M20 2024-05-21 05:58:45 46.5505 14.6623 322 ° 22 km/h 1432 m -9.0 m/s 403.000 MHz Eberndorf (AT) 0.00 km FOUND
MEB001141 M20 2024-05-20 06:26:57 46.3067 15.7432 196 ° 13 km/h 661 m -10.8 m/s 403.000 MHz Majšperk (SI) 0.00 km FOUND
MEB001147 M20 2024-05-19 06:18:08 46.2674 16.0617 75 ° 33 km/h 543 m -9.3 m/s 403.005 MHz Klenovnik (HR) 0.00 km UNKNOWN
MEB001144 M20 2024-05-18 05:59:13 46.1671 15.7884 39 ° 26 km/h 808 m -8.7 m/s 403.000 MHz Pregrada (HR) 0.00 km FOUND
MEB001142 M20 2024-05-17 06:19:52 46.3838 15.5296 58 ° 9 km/h 561 m -11.0 m/s 403.001 MHz Slovenska Bistrica (SI) 0.00 km FOUND
MEB001140 M20 2024-05-16 06:01:19 46.3878 15.2209 294 ° 26 km/h 1307 m -8.6 m/s 403.202 MHz Dobrna (SI) 0.00 km UNKNOWN
MEB001138 M20 2024-05-15 06:16:07 45.8889 15.0581 285 ° 15 km/h 1106 m -6.8 m/s 403.001 MHz Mirna Peč (SI) 0.00 km FOUND
MEB001143 M20 2024-05-14 06:24:29 45.7863 14.8514 131 ° 17 km/h 5173 m -9.4 m/s 403.202 MHz Žužemberk (SI) 0.00 km FOUND
MEB001145 M20 2024-05-14 05:57:43 45.811 14.8365 268 ° 4 km/h 1894 m -8.8 m/s 403.000 MHz Žužemberk (SI) 0.00 km FOUND
MEB001149 M20 2024-05-13 06:36:31 45.5959 15.3501 244 ° 17 km/h 595 m -10.1 m/s 403.000 MHz Žakanje (HR) 0.00 km FOUND
MEB001152 M20 2024-05-12 06:12:40 45.4758 14.9022 267 ° 17 km/h 1130 m -11.2 m/s 403.001 MHz Kostel (SI) 0.00 km FOUND
MEB001151 M20 2024-05-11 06:15:10 45.5123 14.1732 273 ° 22 km/h 1458 m -8.9 m/s 403.000 MHz Ilirska Bistrica (SI) 0.00 km FOUND
MEB001154 M20 2024-05-10 06:19:29 45.4381 14.1828 259 ° 37 km/h 1323 m -5.0 m/s 403.005 MHz Lanišće (HR) 0.00 km UNKNOWN
MEB001146 M20 2024-05-09 06:07:04 45.9356 14.7934 239 ° 31 km/h 1257 m -9.7 m/s 403.001 MHz Ivančna Gorica (SI) 0.00 km FOUND
MEB001150 M20 2024-05-08 06:34:36 46.2732 14.2377 262 ° 20 km/h 2215 m -2.6 m/s 403.000 MHz Naklo (SI) 0.00 km FOUND
MEB001148 M20 2024-05-07 06:10:54 46.1806 15.2994 91 ° 30 km/h 1089 m -10.6 m/s 403.000 MHz Štore (SI) 0.00 km FOUND
MEB001153 M20 2024-05-06 06:25:29 46.0014 15.476 82 ° 30 km/h 577 m -9.9 m/s 403.000 MHz Krško (SI) 0.00 km FOUND
MEB001157 M20 2024-05-05 06:11:26 45.7938 15.1501 56 ° 26 km/h 1364 m -8.5 m/s 403.000 MHz Novo Mesto (SI) 0.00 km FOUND
MEB001155 M20 2024-05-04 05:53:04 46.2107 14.1587 266 ° 31 km/h 2348 m -7.1 m/s 403.001 MHz Železniki (SI) 0.00 km UNKNOWN
MEB001156 M20 2024-05-03 06:07:34 46.1271 14.0923 133 ° 7 km/h 1532 m -4.0 m/s 403.001 MHz Gorenja Vas (SI) 0.00 km UNKNOWN
MEB001161 M20 2024-05-02 06:21:22 46.461 14.3833 1 ° 19 km/h 1934 m -10.3 m/s 403.000 MHz Ferlach (AT) 0.00 km UNKNOWN
MEB001160 M20 2024-05-01 05:59:28 46.4259 14.3725 343 ° 20 km/h 2178 m -10.8 m/s 403.000 MHz Tržič (SI) 0.00 km UNKNOWN
MEB001167 M20 2024-04-30 06:29:46 46.5029 14.7586 297 ° 17 km/h 2106 m -11.4 m/s 403.001 MHz Bistrica nad Pliberkom (AT) 0.00 km UNKNOWN
MEB001164 M20 2024-04-29 06:05:38 46.4757 14.8302 3 ° 24 km/h 1657 m -11.0 m/s 403.000 MHz Črna na Koroškem (SI) 0.00 km UNKNOWN
MEB001163 M20 2024-04-28 06:24:09 46.2663 15.587 61 ° 31 km/h 879 m -2.6 m/s 403.001 MHz Poljčane (SI) 0.00 km FOUND
MEB001162 M20 2024-04-27 06:04:43 46.2009 15.3468 78 ° 13 km/h 538 m -10.2 m/s 403.000 MHz Štore (SI) 0.00 km UNKNOWN
MEB001159 M20 2024-04-26 05:45:49 46.2268 14.932 67 ° 24 km/h 1180 m -10.3 m/s 403.001 MHz Vransko (SI) 0.00 km UNKNOWN
MEB001166 M20 2024-04-25 06:06:03 46.1583 15.0278 240 ° 30 km/h 1406 m -4.3 m/s 403.000 MHz Trbovlje (SI) 0.00 km FOUND
MEB001165 M20 2024-04-24 05:59:45 46.3317 14.5552 248 ° 20 km/h 2351 m -10.6 m/s 403.000 MHz Zgornje Jezersko (SI) 0.00 km UNKNOWN
MEB001168 M20 2024-04-23 05:56:23 46.9626 15.072 241 ° 22 km/h 1169 m -8.0 m/s 403.000 MHz Ligist (AT) 0.00 km FOUND
MEB001169 M20 2024-04-22 06:09:39 46.3104 15.1178 200 ° 6 km/h 1031 m -12.0 m/s 403.000 MHz Polzela (SI) 0.00 km UNKNOWN
MEB001170 M20 2024-04-21 07:04:51 46.0852 15.2854 196 ° 9 km/h 1313 m -2.2 m/s 403.001 MHz Sevnica (SI) 0.00 km FOUND
MEB001174 M20 2024-04-20 05:59:26 45.9498 15.2829 183 ° 13 km/h 764 m -6.0 m/s 403.001 MHz Škocjan (SI) 0.00 km NEED ATTENTION
MEB001172 M20 2024-04-19 06:00:41 45.6662 14.9162 218 ° 44 km/h 2400 m -8.1 m/s 403.000 MHz Kočevje (SI) 0.00 km FOUND
MEB001171 M20 2024-04-18 05:53:33 46.0331 15.0408 207 ° 9 km/h 1322 m -8.5 m/s 403.000 MHz Šentrupert (SI) 0.00 km FOUND
MEB001173 M20 2024-04-17 05:59:19 46.2674 15.2193 129 ° 22 km/h 559 m -7.6 m/s 403.001 MHz Žalec (SI) 0.00 km FOUND
MEB001187 M20 2024-04-16 06:13:54 46.5279 16.2247 255 ° 39 km/h 273 m -14.1 m/s 403.001 MHz Ljutomer (SI) 0.00 km FOUND
MEB001183 M20 2024-04-15 06:20:20 46.2264 16.0057 74 ° 61 km/h 706 m -10.9 m/s 403.001 MHz Bednja (HR) 0.00 km UNKNOWN
MEB001181 M20 2024-04-14 06:09:28 45.6952 15.1765 69 ° 19 km/h 1655 m -4.1 m/s 403.001 MHz Semič (SI) 0.00 km FOUND
MEB001182 M20 2024-04-13 06:04:50 45.4426 14.6322 280 ° 13 km/h 1378 m -10.0 m/s 403.000 MHz Osilnica (SI) 0.00 km UNKNOWN
MEB001184 M20 2024-04-12 06:20:48 45.9141 14.6351 289 ° 28 km/h 1689 m -2.8 m/s 403.000 MHz Grosuplje (SI) 0.00 km UNKNOWN
MEB001179 M20 2024-04-11 06:20:30 46.2826 14.1636 311 ° 35 km/h 2371 m -9.1 m/s 403.000 MHz Železniki (SI) 0.00 km UNKNOWN
MEB001180 M20 2024-04-10 06:04:27 46.713 14.7737 242 ° 15 km/h 1121 m -7.6 m/s 403.000 MHz Griffen (AT) 0.00 km UNKNOWN
MEB001178 M20 2024-04-09 06:00:47 46.362 15.1305 62 ° 24 km/h 1160 m -11.2 m/s 403.000 MHz Velenje (SI) 0.00 km UNKNOWN
MEB001177 M20 2024-04-08 06:14:59 46.2621 14.9912 22 ° 4 km/h 658 m -10.1 m/s 403.000 MHz Tabor (SI) 0.00 km FOUND
MEB001176 M20 2024-04-07 06:06:02 45.8072 14.8857 313 ° 13 km/h 1712 m -7.0 m/s 403.002 MHz Žužemberk (SI) 0.00 km FOUND
MEB000977 M20 2024-04-06 06:55:56 45.3178 15.4011 81 ° 6 km/h 392 m -2.3 m/s 403.001 MHz Generalski Stol (HR) 0.00 km UNKNOWN
MEB000979 M20 2024-04-05 06:16:13 45.7154 15.5023 127 ° 24 km/h 730 m -9.6 m/s 403.001 MHz Žumberak (HR) 0.00 km FOUND
MEB000978 M20 2024-04-04 06:30:01 45.6497 15.6119 53 ° 4 km/h 224 m -7.8 m/s 403.001 MHz Jastrebarsko (HR) 0.00 km FOUND
MEB000983 M20 2024-04-03 06:07:58 45.853 16.1325 344 ° 2 km/h 197 m -11.0 m/s 403.000 MHz Dugo Selo (HR) 0.00 km FOUND
MEB000976 M20 2024-04-02 06:16:06 46.1349 15.7125 301 ° 2 km/h 352 m -8.2 m/s 403.005 MHz Desinić (HR) 0.00 km UNKNOWN
MEB000984 M20 2024-04-01 06:24:24 47.1076 16.7834 344 ° 28 km/h 254 m -3.7 m/s 403.000 MHz Vasvár (HU) 0.00 km UNKNOWN
MEB000982 M20 2024-03-31 06:04:54 46.5896 15.3731 57 ° 50 km/h 1225 m -15.8 m/s 403.001 MHz Podvelka (SI) 0.00 km FOUND
MEB000975 M20 2024-03-30 06:34:00 46.7928 15.4633 43 ° 24 km/h 554 m -11.4 m/s 403.000 MHz Sankt Nikolai im Sausal (AT) 0.00 km UNKNOWN
MEB000980 M20 2024-03-29 06:10:54 46.1783 16.2331 358 ° 24 km/h 580 m -11.7 m/s 403.001 MHz Budinšćina (HR) 0.00 km UNKNOWN
MEB000981 M20 2024-03-28 06:13:58 46.3272 15.8924 45 ° 41 km/h 660 m -5.8 m/s 403.002 MHz Podlehnik (SI) 0.00 km LOST
MEB001035 M20 2024-03-27 05:56:27 46.6273 15.1124 31 ° 28 km/h 1151 m -7.0 m/s 403.002 MHz Muta (SI) 0.00 km UNKNOWN
MEB001034 M20 2024-03-26 06:07:13 46.2877 15.3 289 ° 2 km/h 367 m -3.2 m/s 403.002 MHz Vojnik (SI) 0.00 km UNKNOWN
MEB001031 M20 2024-03-25 06:01:13 45.1979 15.9159 93 ° 11 km/h 440 m -3.6 m/s 403.002 MHz Velika Kladuša (BA) 0.00 km UNKNOWN
MEB001032 M20 2024-03-24 06:03:08 46.1127 15.771 173 ° 6 km/h 268 m -2.5 m/s 403.002 MHz Tuhelj (HR) 0.00 km FOUND
MEB001030 M20 2024-03-23 06:14:14 46.016 15.1682 84 ° 54 km/h 991 m -7.6 m/s 403.000 MHz Radeče (SI) 0.00 km FOUND
MEA402430 M20 2024-03-22 06:05:33 45.21 13.7641 285 ° 7 km/h 1222 m -7.2 m/s 403.002 MHz Sveti Lovreč Pazenatički (HR) 0.00 km UNKNOWN
MEA402429 M20 2024-03-21 06:02:12 45.5999 15.2 339 ° 2 km/h 545 m -7.5 m/s 403.002 MHz Črnomelj (SI) 0.00 km FOUND
MEA402431 M20 2024-03-20 05:53:14 45.5075 14.7317 199 ° 30 km/h 1806 m -9.7 m/s 403.002 MHz Osilnica (SI) 0.00 km UNKNOWN
MEA402433 M20 2024-03-19 05:53:23 45.3957 14.8811 279 ° 28 km/h 1272 m -8.4 m/s 403.000 MHz Skrad (HR) 0.00 km UNKNOWN
MEA402432 M20 2024-03-18 06:18:12 45.2804 15.5904 156 ° 7 km/h 424 m -8.9 m/s 403.003 MHz Krnjak (HR) 0.00 km UNKNOWN
MEA402439 M20 2024-03-17 06:32:51 44.9722 15.1531 270 ° 7 km/h 1259 m -1.8 m/s 403.002 MHz Brinje (HR) 0.00 km UNKNOWN
MEA402435 M20 2024-03-16 06:00:10 45.999 15.1631 296 ° 6 km/h 1031 m -11.3 m/s 403.002 MHz Šentrupert (SI) 0.00 km FOUND
MEA402436 M20 2024-03-15 06:07:21 45.5891 15.1368 106 ° 26 km/h 867 m -7.5 m/s 403.002 MHz Črnomelj (SI) 0.00 km FOUND
MEA402437 M20 2024-03-14 07:11:21 44.5452 14.8831 103 ° 9 km/h 836 m -2.4 m/s 403.003 MHz Novalja (HR) 0.00 km FOUND
MEA402434 M20 2024-03-13 05:41:27 45.6988 14.6857 188 ° 7 km/h 1781 m -7.8 m/s 403.003 MHz Hrib-Loški Potok (SI) 0.00 km UNKNOWN
MEA402420 M20 2024-03-12 06:32:12 45.8552 14.668 149 ° 33 km/h 1830 m -3.8 m/s 403.002 MHz Videm (SI) 0.00 km UNKNOWN
MEA402419 M20 2024-03-11 05:49:16 46.706 14.8194 160 ° 7 km/h 1098 m -7.1 m/s 403.002 MHz Sankt Paul im Levanttal (AT) 0.00 km FOUND
MEA402415 M20 2024-03-10 06:02:19 46.5092 15.443 43 ° 24 km/h 1137 m -7.1 m/s 403.000 MHz Lovrenc na Pohorju (SI) 0.00 km UNKNOWN
MEA402422 M20 2024-03-09 05:27:29 46.2932 14.9707 23 ° 39 km/h 1807 m -10.8 m/s 403.002 MHz Nazarje (SI) 0.00 km UNKNOWN
MEA402424 M20 2024-03-08 06:47:50 45.5113 15.4594 217 ° 4 km/h 290 m -2.2 m/s 403.001 MHz Netretić (HR) 0.00 km FOUND
MEA402421 M20 2024-03-07 06:00:46 45.7857 14.3247 281 ° 24 km/h 822 m -9.2 m/s 403.000 MHz Cerknica (SI) 0.00 km UNKNOWN
MEA402423 M20 2024-03-06 06:04:29 46.3875 14.4061 325 ° 31 km/h 2067 m -11.4 m/s 403.001 MHz Zgornje Jezersko (SI) 0.00 km UNKNOWN
MEA402425 M20 2024-03-05 05:50:48 45.9103 14.6265 160 ° 11 km/h 1905 m -7.1 m/s 403.005 MHz Grosuplje (SI) 0.00 km UNKNOWN
MEA402426 M20 2024-03-04 05:42:28 46.2641 14.4029 25 ° 22 km/h 1690 m -11.3 m/s 403.001 MHz Šenčur (SI) 0.00 km FOUND
MEA402427 M20 2024-03-03 06:03:39 46.242 15.2473 65 ° 22 km/h 424 m -6.7 m/s 403.000 MHz Celje (SI) 0.00 km FOUND
MEA402411 M20 2024-03-02 06:18:46 46.4166 14.4433 12 ° 22 km/h 2121 m -6.2 m/s 403.000 MHz Zgornje Jezersko (SI) 0.00 km UNKNOWN
MEA402414 M20 2024-03-01 08:10:16 46.2826 13.9169 267 ° 13 km/h 1839 m -2.6 m/s 403.000 MHz Bohinjska Bistrica (SI) 0.00 km UNKNOWN
MEA402417 M20 2024-02-29 07:14:35 46.5183 14.4113 271 ° 6 km/h 1359 m -4.5 m/s 403.005 MHz Ferlach (AT) 0.00 km UNKNOWN
MEA402416 M20 2024-02-28 05:46:12 46.3341 14.6733 75 ° 13 km/h 2177 m -10.8 m/s 403.000 MHz Luče (SI) 0.00 km UNKNOWN
MEA402418 M20 2024-02-27 05:43:50 46.4168 14.8498 6 ° 28 km/h 1823 m -11.1 m/s 403.000 MHz Črna na Koroškem (SI) 0.00 km UNKNOWN
MEA402410 M20 2024-02-26 07:09:30 46.3314 15.9518 27 ° 11 km/h 322 m -2.4 m/s 403.000 MHz Cirkulane (SI) 0.00 km FOUND
MEA402412 M20 2024-02-25 05:49:48 46.6795 15.2319 40 ° 17 km/h 504 m -6.6 m/s 403.000 MHz Eibiswald (AT) 0.00 km FOUND
MEA402413 M20 2024-02-24 06:19:06 47.6963 16.0424 349 ° 6 km/h 495 m -7.6 m/s 403.000 MHz Ternitz (AT) 0.00 km FOUND
MEA402401 M20 2024-02-23 05:55:00 46.7075 15.8377 33 ° 20 km/h 351 m -9.2 m/s 403.002 MHz Mureck (AT) 0.00 km FOUND
MEA402397 M20 2024-02-22 06:09:13 45.5708 15.5526 52 ° 19 km/h 273 m -7.7 m/s 403.000 MHz Draganići (HR) 0.00 km UNKNOWN
MEA402399 M20 2024-02-21 06:14:48 45.4574 14.8499 333 ° 17 km/h 1135 m -10.4 m/s 403.000 MHz Skrad (HR) 0.00 km UNKNOWN
MEA402400 M20 2024-02-20 05:49:14 45.8168 14.6267 220 ° 20 km/h 1895 m -9.0 m/s 403.000 MHz Velike Lašče (SI) 0.00 km FOUND
MEA402402 M20 2024-02-19 05:54:37 45.998 15.2068 60 ° 2 km/h 694 m -8.6 m/s 403.001 MHz Sevnica (SI) 0.00 km FOUND
MEA402409 M20 2024-02-18 06:11:28 45.6051 14.9841 168 ° 4 km/h 1970 m -7.3 m/s 403.001 MHz Kočevje (SI) 0.00 km FOUND
MEA402407 M20 2024-02-17 06:10:04 45.7487 14.676 220 ° 19 km/h 1689 m -9.6 m/s 403.001 MHz Sodražica (SI) 0.00 km FOUND
MEA402406 M20 2024-02-16 06:17:59 45.6521 14.8081 64 ° 22 km/h 1617 m -11.3 m/s 403.002 MHz Kočevje (SI) 0.00 km UNKNOWN
MEA402404 M20 2024-02-15 07:08:37 44.1229 15.0965 201 ° 11 km/h 1443 m -3.2 m/s 403.002 MHz Preko (HR) 0.00 km UNKNOWN
MEA402405 M20 2024-02-14 05:39:37 45.5728 14.7823 172 ° 24 km/h 2156 m -11.3 m/s 403.002 MHz Osilnica (SI) 0.00 km UNKNOWN
MEA402403 M20 2024-02-13 06:01:13 45.6382 15.0423 213 ° 33 km/h 1601 m -7.7 m/s 403.000 MHz Semič (SI) 0.00 km FOUND
MEA402393 M20 2024-02-12 05:44:58 46.0949 14.7137 217 ° 20 km/h 1607 m -9.8 m/s 403.001 MHz Moravče (SI) 0.00 km UNKNOWN
MEA402394 M20 2024-02-11 07:37:33 47.0207 14.9108 13 ° 7 km/h 1519 m -4.0 m/s 403.001 MHz Bad Sankt Leonhard im Lavanttal (AT) 0.00 km FOUND
MEA402395 M20 2024-02-10 05:59:45 46.3546 16.0846 51 ° 17 km/h 346 m -11.7 m/s 403.001 MHz Cestica (HR) 0.00 km UNKNOWN
MEA402396 M20 2024-02-09 05:42:30 46.1763 15.704 71 ° 37 km/h 618 m -10.7 m/s 403.001 MHz Pregrada (HR) 0.00 km UNKNOWN
MEA402398 M20 2024-02-08 06:59:25 45.4429 16.7654 64 ° 33 km/h 295 m -2.2 m/s 403.002 MHz Kutina (HR) 0.00 km FOUND
MEA402392 M20 2024-02-07 06:20:58 46.0325 16.299 65 ° 20 km/h 337 m -6.2 m/s 403.001 MHz Bedenica (HR) 0.00 km FOUND
MEA402391 M20 2024-02-06 07:40:21 45.5084 17.9317 50 ° 11 km/h 450 m -3.9 m/s 403.002 MHz Feričanci (HR) 0.00 km FOUND
MEA402390 M20 2024-02-05 07:50:52 44.3397 17.6036 157 ° 128 km/h 12139 m -1.6 m/s 403.002 MHz Travnik (BA) 0.00 km UNKNOWN
MEA402389 M20 2024-02-04 06:19:02 45.0538 15.8962 115 ° 13 km/h 860 m -6.5 m/s 403.000 MHz Bužim (BA) 0.00 km UNKNOWN
MEA402388 M20 2024-02-03 08:25:58 43.6587 14.6987 165 ° 39 km/h 2849 m -3.3 m/s 403.000 MHz Sali (HR) 0.00 km LOST
MEA500611 M20 2024-02-02 06:11:40 44.9127 14.5558 149 ° 26 km/h 1881 m -13.0 m/s 403.001 MHz Punat (HR) 0.00 km LOST
MEA500612 M20 2024-02-01 05:32:35 45.616 14.4533 147 ° 11 km/h 1873 m -12.6 m/s 403.002 MHz Stari Trg (SI) 0.00 km UNKNOWN
MEA500610 M20 2024-01-31 07:35:08 45.5514 15.4143 65 ° 2 km/h 321 m -3.2 m/s 403.003 MHz Netretić (HR) 0.00 km FOUND
MEA500613 M20 2024-01-30 05:41:54 45.7777 14.5053 338 ° 4 km/h 2307 m -11.1 m/s 403.002 MHz Nova Vas (SI) 0.00 km UNKNOWN
MEA500614 M20 2024-01-29 05:29:51 45.4751 14.2079 216 ° 6 km/h 2802 m -9.9 m/s 403.002 MHz Lanišće (HR) 0.00 km UNKNOWN
MEA500609 M20 2024-01-28 06:19:19 44.9586 14.8208 235 ° 35 km/h 223 m -6.1 m/s 403.000 MHz Baška (HR) 0.00 km LOST
MEA500606 M20 2024-01-27 06:37:18 44.7749 16.1345 256 ° 24 km/h 1049 m -5.4 m/s 403.002 MHz Bosanska Krupa (BA) 0.00 km UNKNOWN
MEA500608 M20 2024-01-26 06:04:07 44.8501 15.623 136 ° 30 km/h 1661 m -10.5 m/s 403.000 MHz Korenica (HR) 0.00 km UNKNOWN
MEA500607 M20 2024-01-25 05:50:33 45.0561 15.8326 315 ° 9 km/h 842 m -8.3 m/s 403.003 MHz Velika Kladuša (BA) 0.00 km UNKNOWN
MEA500605 M20 2024-01-24 08:00:30 43.4811 16.0299 151 ° 11 km/h 363 m -2.5 m/s 403.002 MHz Rogoznica (HR) 0.00 km LOST
MEA500617 M20 2024-01-23 06:52:31 45.6404 15.8322 66 ° 17 km/h 264 m -2.1 m/s 403.005 MHz Pisarovina (HR) 0.00 km FOUND
MEA500615 M20 2024-01-23 06:37:01 45.7131 15.353 194 ° 31 km/h 1587 m -10.2 m/s 403.203 MHz Žumberak (HR) 0.00 km FOUND
MEA500618 M20 2024-01-22 05:35:25 45.5938 14.6649 39 ° 35 km/h 2644 m -12.3 m/s 403.003 MHz Čabar (HR) 0.00 km UNKNOWN
MEA500616 M20 2024-01-21 05:40:00 45.6655 14.7918 240 ° 20 km/h 2149 m -12.8 m/s 403.003 MHz Kočevje (SI) 0.00 km UNKNOWN
MEA500625 M20 2024-01-20 06:50:17 45.4266 15.565 315 ° 4 km/h 260 m -8.7 m/s 403.003 MHz Barilović (HR) 0.00 km UNKNOWN
MEA500619 M20 2024-01-18 07:11:01 46.6477 16.7981 10 ° 20 km/h 276 m -2.4 m/s 403.002 MHz Lenti (HU) 0.00 km LOST
MEA500620 M20 2024-01-17 05:54:24 45.7327 16.2861 83 ° 9 km/h 158 m -11.2 m/s 403.000 MHz Rugvica (HR) 0.00 km FOUND
MEA500621 M20 2024-01-16 05:58:23 45.3637 16.5302 118 ° 2 km/h 228 m -10.0 m/s 403.002 MHz Sunja (HR) 0.00 km UNKNOWN
MEA500624 M20 2024-01-15 05:48:23 45.8305 15.7259 175 ° 9 km/h 185 m -10.4 m/s 403.001 MHz Samobor (HR) 0.00 km FOUND
MEA500626 M20 2024-01-14 06:03:59 45.4016 15.7717 63 ° 9 km/h 393 m -10.1 m/s 403.000 MHz Gvozd (HR) 0.00 km UNKNOWN
MEA500628 M20 2024-01-13 06:12:51 45.4038 14.717 173 ° 22 km/h 1425 m -9.2 m/s 403.003 MHz Lokve (HR) 0.00 km UNKNOWN
MEA500629 M20 2024-01-12 06:06:51 45.2214 14.513 226 ° 54 km/h 752 m -9.7 m/s 403.002 MHz Omišalj (HR) 0.00 km LOST
MEA500627 M20 2024-01-11 06:03:23 45.8062 14.5795 291 ° 35 km/h 1726 m -11.2 m/s 403.005 MHz Velike Lašče (SI) 0.00 km UNKNOWN
MEA500635 M20 2024-01-10 06:12:43 46.0146 14.7891 295 ° 31 km/h 1349 m -5.5 m/s 403.000 MHz Litija (SI) 0.00 km FOUND
MEA500632 M20 2024-01-09 05:48:30 45.8469 14.523 261 ° 57 km/h 1337 m -10.7 m/s 403.000 MHz Nova Vas (SI) 0.00 km UNKNOWN
MEA500633 M20 2024-01-08 06:17:11 45.8312 14.377 268 ° 41 km/h 1022 m -7.5 m/s 403.002 MHz Cerknica (SI) 0.00 km UNKNOWN
MEA500630 M20 2024-01-07 05:45:06 46.2214 14.3648 248 ° 39 km/h 1769 m -8.0 m/s 403.002 MHz Kranj (SI) 0.00 km FOUND
MEA500634 M20 2024-01-06 05:51:03 46.6225 15.1667 64 ° 6 km/h 1017 m -6.4 m/s 403.001 MHz Muta (SI) 0.00 km UNKNOWN
MEA500636 M20 2024-01-05 06:08:41 46.0536 16.1753 68 ° 19 km/h 420 m -12.2 m/s 403.002 MHz Konjšćina (HR) 0.00 km UNKNOWN
MEA500631 M20 2024-01-04 06:39:22 45.7422 16.7191 70 ° 26 km/h 272 m -3.5 m/s 403.002 MHz Štefanje (HR) 0.00 km UNKNOWN
MEA500638 M20 2024-01-03 07:34:54 45.4971 18.2429 87 ° 9 km/h 263 m -2.5 m/s 403.001 MHz Podgorač (HR) 0.00 km UNKNOWN
MEA500640 M20 2024-01-02 05:52:57 45.2994 15.719 13 ° 13 km/h 504 m -10.4 m/s 403.002 MHz Vojnić (HR) 0.00 km UNKNOWN
MEA500641 M20 2024-01-01 05:41:17 46.23 15.7935 164 ° 46 km/h 743 m -10.2 m/s 403.001 MHz Žetale (SI) 0.00 km UNKNOWN
MEA500643 M20 2023-12-31 06:05:27 46.1107 15.7275 13 ° 11 km/h 287 m -13.3 m/s 403.002 MHz Tuhelj (HR) 0.00 km UNKNOWN
MEA500642 M20 2023-12-30 06:13:21 46.0532 15.752 108 ° 7 km/h 367 m -9.6 m/s 403.000 MHz Tuhelj (HR) 0.00 km FOUND
MEA500646 M20 2023-12-29 06:06:15 45.9881 16.0371 73 ° 57 km/h 646 m -10.4 m/s 403.001 MHz Gornja Stubica (HR) 0.00 km UNKNOWN
MEA500637 M20 2023-12-28 06:17:33 46.4177 16.1353 35 ° 17 km/h 354 m -11.0 m/s 403.002 MHz Ormož (SI) 0.00 km FOUND
MEA500639 M20 2023-12-27 05:59:32 45.5515 15.8087 235 ° 9 km/h 183 m -10.4 m/s 403.001 MHz Lasinja (HR) 0.00 km FOUND
MEA500649 M20 2023-12-26 06:06:42 46.2186 15.5507 85 ° 56 km/h 812 m -8.8 m/s 403.000 MHz Šmarje (SI) 0.00 km FOUND
MEA500645 M20 2023-12-25 08:21:59 44.7271 18.6297 111 ° 48 km/h 3315 m -4.0 m/s 403.002 MHz Srebrenik (BA) 0.00 km UNKNOWN
MEA500644 M20 2023-12-24 05:49:48 45.2974 15.7772 53 ° 26 km/h 528 m -11.5 m/s 403.000 MHz Vojnić (HR) 0.00 km UNKNOWN
MEA500651 M20 2023-12-23 06:01:37 44.7434 16.6461 132 ° 57 km/h 1232 m -11.7 m/s 403.001 MHz Sanski Most (BA) 0.00 km UNKNOWN
MEA500650 M20 2023-12-22 05:42:52 44.9716 15.7669 86 ° 20 km/h 757 m -11.0 m/s 403.005 MHz Rakovica (HR) 0.00 km UNKNOWN
MEA500653 M20 2023-12-21 07:18:06 44.4393 15.7682 140 ° 11 km/h 1895 m -3.0 m/s 403.003 MHz Lovinac (HR) 0.00 km UNKNOWN
MEA500655 M20 2023-12-20 06:20:27 46.1425 15.4541 91 ° 52 km/h 1115 m -10.6 m/s 403.002 MHz Dobje (SI) 0.00 km FOUND
MEA500652 M20 2023-12-19 06:06:17 45.8224 14.6151 102 ° 20 km/h 1694 m -5.9 m/s 403.001 MHz Velike Lašče (SI) 0.00 km UNKNOWN
MEA500647 M20 2023-12-18 06:10:52 45.7715 14.5556 133 ° 7 km/h 1528 m -10.4 m/s 403.003 MHz Nova Vas (SI) 0.00 km FOUND
MEA500648 M20 2023-12-17 07:24:10 44.8832 13.5449 192 ° 39 km/h 390 m -1.7 m/s 403.000 MHz Fažana (HR) 0.00 km LOST
MEA500340 M20 2023-12-16 06:35:33 44.5827 12.9369 232 ° 37 km/h 1044 m -4.0 m/s 403.001 MHz Cervia (IT) 0.00 km LOST
MEA500341 M20 2023-12-15 05:53:10 45.5459 14.5159 202 ° 63 km/h 2663 m -7.4 m/s 403.000 MHz Čabar (HR) 0.00 km UNKNOWN
MEA500343 M20 2023-12-14 06:19:55 46.0673 15.689 60 ° 7 km/h 240 m -4.3 m/s 403.000 MHz Kumrovec (HR) 0.00 km FOUND
MEA500345 M20 2023-12-13 05:55:04 46.0322 16.7512 74 ° 22 km/h 426 m -10.8 m/s 403.001 MHz Zrinski Topolovac (HR) 0.00 km UNKNOWN
MEA500344 M20 2023-12-12 06:09:32 45.19 16.9211 31 ° 6 km/h 600 m -11.1 m/s 403.001 MHz Kozarska Dubica (BA) 0.00 km UNKNOWN
MEA500351 M20 2023-12-11 05:37:08 45.5095 15.9945 105 ° 9 km/h 272 m -10.4 m/s 403.001 MHz Pokupsko (HR) 0.00 km FOUND
MEA500352 M20 2023-12-10 05:42:58 46.079 15.1767 82 ° 48 km/h 1240 m -9.9 m/s 403.001 MHz Radeče (SI) 0.00 km FOUND
MEA500350 M20 2023-12-09 05:57:16 46.154 15.2325 156 ° 15 km/h 807 m -14.8 m/s 403.001 MHz Laško (SI) 0.00 km FOUND
MEA500346 M20 2023-12-08 06:18:30 45.3354 15.6646 103 ° 6 km/h 338 m -11.3 m/s 403.001 MHz Vojnić (HR) 0.00 km UNKNOWN
MEA500347 M20 2023-12-07 05:59:41 45.6703 15.2083 204 ° 33 km/h 1603 m -10.2 m/s 403.000 MHz Semič (SI) 0.00 km FOUND
MEA500328 M20 2023-12-06 05:58:32 46.0659 14.9856 219 ° 35 km/h 1529 m -9.8 m/s 403.001 MHz Zagorje (SI) 0.00 km UNKNOWN
MEA500333 M20 2023-12-05 06:26:00 46.3754 15.9075 182 ° 7 km/h 263 m -7.1 m/s 403.000 MHz Videm pri Ptuju (SI) 0.00 km FOUND
MEA500332 M20 2023-12-04 06:02:24 45.6676 15.6789 148 ° 4 km/h 212 m -9.3 m/s 403.001 MHz Jastrebarsko (HR) 0.00 km FOUND
MEA500334 M20 2023-12-03 05:59:57 46.0459 15.3125 308 ° 19 km/h 654 m -2.1 m/s 403.001 MHz Sevnica (SI) 0.00 km FOUND
MEA500331 M20 2023-12-02 06:03:29 46.8168 16.2676 250 ° 15 km/h 360 m -8.7 m/s 403.001 MHz Šalovci (SI) 0.00 km NEED ATTENTION
MEA500338 M20 2023-12-01 06:16:19 46.251 16.3684 236 ° 13 km/h 721 m -10.7 m/s 403.202 MHz Gornji Kneginec (HR) 0.00 km FOUND
MEA500339 M20 2023-12-01 06:08:56 46.283 16.9031 200 ° 15 km/h 472 m -1.6 m/s 403.000 MHz Legrad (HR) 0.00 km UNKNOWN
MEA500337 M20 2023-11-30 06:56:00 45.7224 17.6413 311 ° 9 km/h 193 m -6.0 m/s 403.001 MHz Slatina (HR) 0.00 km FOUND
MEA500335 M20 2023-11-29 06:29:59 45.6785 16.877 247 ° 13 km/h 384 m -4.8 m/s 403.003 MHz Velika Trnovitica (HR) 0.00 km FOUND
MEA500336 M20 2023-11-28 05:51:10 46.1801 15.415 73 ° 31 km/h 805 m -9.1 m/s 403.001 MHz Dobje (SI) 0.00 km FOUND
MEA500319 M20 2023-11-27 07:17:51 44.7691 16.9562 63 ° 46 km/h 995 m -2.9 m/s 403.001 MHz Banja Luka (BA) 0.00 km UNKNOWN
MEA500321 M20 2023-11-26 06:07:56 45.2222 15.2506 133 ° 13 km/h 609 m -11.7 m/s 403.003 MHz Josipdol (HR) 0.00 km FOUND
MEA500322 M20 2023-11-25 05:57:58 45.6935 15.4622 249 ° 17 km/h 776 m -8.9 m/s 403.003 MHz Krašić (HR) 0.00 km NEED ATTENTION
MEA500323 M20 2023-11-24 06:10:13 45.6119 15.8736 115 ° 6 km/h 224 m -8.6 m/s 403.001 MHz Pisarovina (HR) 0.00 km FOUND
MEA500324 M20 2023-11-23 05:39:02 45.6171 13.9956 249 ° 15 km/h 2133 m -10.3 m/s 403.003 MHz Kozina (SI) 0.00 km FOUND
MEA500330 M20 2023-11-22 05:57:44 45.8968 14.5393 222 ° 81 km/h 2192 m -7.5 m/s 403.001 MHz Ig (SI) 0.00 km UNKNOWN
MEA500329 M20 2023-11-21 06:32:32 46.2349 16.0144 267 ° 57 km/h 736 m -10.0 m/s 403.202 MHz Bednja (HR) 0.00 km UNKNOWN
MEA500325 M20 2023-11-20 06:14:18 45.311 16.6057 41 ° 6 km/h 280 m -9.4 m/s 403.002 MHz Sunja (HR) 0.00 km UNKNOWN
MEA500326 M20 2023-11-19 05:49:17 45.2044 15.8618 63 ° 19 km/h 775 m -11.9 m/s 403.003 MHz Velika Kladuša (BA) 0.00 km UNKNOWN
MEA500312 M20 2023-11-18 06:08:35 44.7666 15.5167 208 ° 26 km/h 1323 m -10.0 m/s 403.003 MHz Vrhovine (HR) 0.00 km UNKNOWN
MEA500310 M20 2023-11-17 06:03:27 45.8786 15.7372 157 ° 9 km/h 211 m -10.2 m/s 403.001 MHz Brdovec (HR) 0.00 km FOUND
MEA500311 M20 2023-11-16 06:50:33 44.739 17.2186 320 ° 13 km/h 1418 m -2.3 m/s 403.003 MHz Banja Luka (BA) 0.00 km UNKNOWN
MEA500314 M20 2023-11-15 05:51:23 45.8443 16.5565 224 ° 9 km/h 203 m -14.7 m/s 403.002 MHz Dubrava (HR) 0.00 km FOUND
MEA500320 M20 2023-11-14 06:46:07 45.2337 17.061 59 ° 44 km/h 548 m -10.3 m/s 403.002 MHz Okučani (HR) 0.00 km UNKNOWN
MEA500318 M20 2023-11-13 07:34:32 42.93 17.7531 146 ° 157 km/h 8235 m -1.9 m/s 403.002 MHz Neum (BA) 0.00 km UNKNOWN
MEA500313 M20 2023-11-12 06:21:38 45.4222 16.5457 310 ° 7 km/h 242 m -8.6 m/s 403.003 MHz Sunja (HR) 0.00 km UNKNOWN
MEA500317 M20 2023-11-11 05:57:05 45.9065 15.2772 145 ° 19 km/h 665 m -12.9 m/s 403.001 MHz Škocjan (SI) 0.00 km FOUND
MEA500316 M20 2023-11-10 06:25:00 46.7891 15.7635 345 ° 22 km/h 469 m -9.4 m/s 403.001 MHz Sankt Peter am Ottersbach (AT) 0.00 km FOUND
MEA500315 M20 2023-11-09 06:07:42 45.9196 15.5066 71 ° 15 km/h 607 m -4.8 m/s 403.000 MHz Krško (SI) 0.00 km FOUND
MEA500300 M20 2023-11-08 06:20:41 46.4075 16.3444 135 ° 15 km/h 335 m -6.0 m/s 403.002 MHz Gornji Mihaljevec (HR) 0.00 km LOST
MEA500304 M20 2023-11-07 05:51:30 46.605 16.1945 108 ° 4 km/h 269 m -11.8 m/s 403.000 MHz Veržej (SI) 0.00 km FOUND
MEA500305 M20 2023-11-06 05:58:50 46.3612 16.516 339 ° 9 km/h 234 m -10.5 m/s 403.000 MHz Mala Subotica (HR) 0.00 km FOUND
MEA500303 M20 2023-11-05 05:39:54 46.672 16.1684 53 ° 122 km/h 14661 m 3.3 m/s 403.001 MHz Murska Sobota (SI) 0.00 km LOST
MEA500302 M20 2023-11-04 05:47:35 46.1696 15.333 210 ° 13 km/h 763 m -8.4 m/s 403.001 MHz Štore (SI) 0.00 km UNKNOWN
MEA500308 M20 2023-11-03 05:57:23 47.1741 15.3373 318 ° 20 km/h 825 m -6.2 m/s 403.000 MHz Deutschfeistritz (AT) 0.00 km FOUND
MEA500309 M20 2023-11-02 06:28:52 45.6138 16.3282 336 ° 13 km/h 171 m -5.0 m/s 403.002 MHz Martinska Ves (HR) 0.00 km NEED ATTENTION
MEA500307 M20 2023-11-01 06:03:59 45.862 15.9876 77 ° 4 km/h 330 m -14.0 m/s 403.002 MHz Zagreb (HR) 0.00 km NEED ATTENTION
MEA500306 M20 2023-10-31 05:54:00 46.8537 15.4812 300 ° 17 km/h 471 m -8.8 m/s 403.000 MHz Sankt Nikolai im Sausal (AT) 0.00 km FOUND
MEA500301 M20 2023-10-30 06:26:00 46.5266 15.898 343 ° 17 km/h 325 m -8.7 m/s 403.001 MHz Trnovska Vas (SI) 0.00 km FOUND
MEA500064 M20 2023-10-29 05:54:43 46.0315 15.7782 14 ° 6 km/h 319 m -8.9 m/s 403.001 MHz Klanjec (HR) 0.00 km LOST
MEA500065 M20 2023-10-28 06:26:00 46.545 16.6753 20 ° 26 km/h 456 m -4.9 m/s 403.000 MHz Dekanovec (HR) 0.00 km FOUND
MEA500063 M20 2023-10-27 06:08:00 46.6137 16.687 337 ° 24 km/h 278 m -8.3 m/s 403.001 MHz Lenti (HU) 0.00 km FOUND
MEA500066 M20 2023-10-26 06:14:58 45.9491 16.1265 50 ° 6 km/h 476 m -7.1 m/s 403.002 MHz Marija Bistrica (HR) 0.00 km FOUND
MEA500067 M20 2023-10-25 06:00:37 46.2979 15.7673 53 ° 2 km/h 454 m -2.4 m/s 403.001 MHz Žetale (SI) 0.00 km FOUND
MEA500072 M20 2023-10-24 06:13:34 46.4811 16.3971 35 ° 19 km/h 350 m -9.5 m/s 403.001 MHz Selnica (HR) 0.00 km FOUND
MEA500071 M20 2023-10-23 06:22:00 46.0342 16.2639 32 ° 6 km/h 293 m -8.4 m/s 403.001 MHz Bedenica (HR) 0.00 km FOUND
MEA500070 M20 2023-10-22 05:56:28 46.3634 15.4676 81 ° 30 km/h 603 m -9.2 m/s 403.002 MHz Oplotnica (SI) 0.00 km FOUND
MEA500069 M20 2023-10-21 06:18:30 47.5392 15.7479 101 ° 15 km/h 1423 m -7.0 m/s 403.000 MHz Mürzzuschlag (AT) 0.00 km FOUND
MEA500068 M20 2023-10-20 06:08:39 46.3019 15.9301 28 ° 7 km/h 432 m -9.9 m/s 403.001 MHz Podlehnik (SI) 0.00 km FOUND
MEA500054 M20 2023-10-19 06:50:27 46.0993 15.9839 40 ° 28 km/h 519 m -5.2 m/s 403.001 MHz Mihovljan (HR) 0.00 km UNKNOWN
MEA500053 M20 2023-10-18 06:09:32 45.5672 15.621 2 ° 4 km/h 233 m -9.5 m/s 403.000 MHz Draganići (HR) 0.00 km UNKNOWN
MEA500055 M20 2023-10-17 06:13:32 45.7626 15.5512 252 ° 6 km/h 801 m -10.3 m/s 403.001 MHz Žumberak (HR) 0.00 km FOUND
MEA500056 M20 2023-10-16 06:00:52 45.7072 15.7732 83 ° 6 km/h 269 m -10.1 m/s 403.000 MHz Klinča Sela (HR) 0.00 km FOUND
MEA500057 M20 2023-10-15 06:03:00 46.1879 15.9175 224 ° 46 km/h 864 m -4.5 m/s 403.001 MHz Gornje Jesenje (HR) 0.00 km UNKNOWN
MEA500062 M20 2023-10-14 06:16:00 46.296 15.6586 105 ° 6 km/h 490 m -12.5 m/s 403.001 MHz Makole (SI) 0.00 km UNKNOWN
MEA500061 M20 2023-10-13 05:59:58 45.673 15.1265 80 ° 4 km/h 1559 m -12.8 m/s 403.000 MHz Semič (SI) 0.00 km FOUND
MEA500060 M20 2023-10-12 06:11:02 45.887 15.2766 96 ° 35 km/h 802 m -9.9 m/s 403.005 MHz Škocjan (SI) 0.00 km FOUND
MEA500059 M20 2023-10-11 06:12:46 45.5944 14.7761 356 ° 19 km/h 1525 m -12.5 m/s 403.001 MHz Kočevje (SI) 0.00 km UNKNOWN
MEA500058 M20 2023-10-10 06:24:57 45.1774 15.4435 141 ° 7 km/h 554 m -6.7 m/s 403.000 MHz Plaški (HR) 0.00 km UNKNOWN
MEA500044 M20 2023-10-09 06:05:26 45.377 15.3842 79 ° 28 km/h 1160 m -6.7 m/s 403.001 MHz Generalski Stol (HR) 0.00 km UNKNOWN
MEA500045 M20 2023-10-08 07:07:55 45.0715 15.2254 122 ° 19 km/h 1145 m -2.2 m/s 403.000 MHz Brinje (HR) 0.00 km UNKNOWN
MEA500052 M20 2023-10-06 06:26:55 45.1681 15.2478 190 ° 9 km/h 714 m -8.6 m/s 403.000 MHz Josipdol (HR) 0.00 km UNKNOWN
MEA500042 M20 2023-10-05 06:14:47 45.4793 15.1165 295 ° 15 km/h 1131 m -8.6 m/s 403.000 MHz Brod Moravice (HR) 0.00 km FOUND
MEA500049 M20 2023-10-04 06:56:55 46.1446 16.4015 238 ° 35 km/h 467 m -1.6 m/s 403.000 MHz Ljubešćica (HR) 0.00 km UNKNOWN
MEA500050 M20 2023-10-03 06:08:35 45.6154 15.096 98 ° 44 km/h 1505 m -10.4 m/s 403.000 MHz Semič (SI) 0.00 km FOUND
MEA500046 M20 2023-10-02 06:04:38 45.4476 14.8493 241 ° 15 km/h 1295 m -19.1 m/s 403.000 MHz Skrad (HR) 0.00 km UNKNOWN
MEA500048 M20 2023-10-01 06:16:15 45.3045 14.8841 293 ° 20 km/h 1350 m -7.0 m/s 403.006 MHz Mrkopalj (HR) 0.00 km UNKNOWN
MEA500047 M20 2023-09-30 06:07:06 45.5617 14.7376 251 ° 28 km/h 1511 m -9.7 m/s 403.001 MHz Osilnica (SI) 0.00 km UNKNOWN
MEA500349 M20 2023-09-29 06:09:16 45.5694 14.2768 325 ° 35 km/h 1475 m -11.3 m/s 403.001 MHz Ilirska Bistrica (SI) 0.00 km UNKNOWN
MEA500353 M20 2023-09-28 06:06:23 45.8357 14.3154 243 ° 19 km/h 789 m -10.7 m/s 403.000 MHz Cerknica (SI) 0.00 km FOUND
MEA500348 M20 2023-09-27 06:24:38 45.7858 14.1745 258 ° 61 km/h 1335 m -11.7 m/s 403.010 MHz Postojna (SI) 0.00 km FOUND
MEA500354 M20 2023-09-26 06:26:33 45.7718 13.9214 296 ° 13 km/h 900 m -13.8 m/s 403.000 MHz Vipava (SI) 0.00 km FOUND
MEA500342 M20 2023-09-25 06:32:56 45.7363 13.6065 147 ° 13 km/h 162 m -10.2 m/s 403.001 MHz Ronchi dei Legionari (IT) 0.00 km LOST
MEA500358 M20 2023-09-24 06:09:47 45.8357 14.1452 208 ° 50 km/h 1188 m -2.8 m/s 403.000 MHz Postojna (SI) 0.00 km FOUND
MEA500357 M20 2023-09-23 06:21:00 47.029 15.057 147 ° 19 km/h 1598 m -9.6 m/s 403.201 MHz Maria Lankowitz (AT) 0.00 km FOUND
MEA500355 M20 2023-09-23 05:53:27 46.9916 15.0687 160 ° 2 km/h 985 m -5.3 m/s 403.000 MHz Maria Lankowitz (AT) 0.00 km FOUND
MEA500359 M20 2023-09-22 07:15:10 46.9883 16.5368 31 ° 31 km/h 271 m -2.2 m/s 403.000 MHz Körmend (HU) 0.00 km FOUND
MEA500356 M20 2023-09-21 06:20:40 46.3997 14.9117 63 ° 46 km/h 2401 m -12.9 m/s 403.001 MHz Mozirje (SI) 0.00 km UNKNOWN
MEA500073 M20 2023-09-20 06:08:22 46.0663 14.9999 150 ° 9 km/h 1120 m -9.0 m/s 403.000 MHz Zagorje (SI) 0.00 km FOUND
MEA500074 M20 2023-09-19 06:15:30 46.4584 15.6636 197 ° 9 km/h 326 m -6.0 m/s 403.005 MHz Rače (SI) 0.00 km FOUND
MEA500075 M20 2023-09-18 06:31:09 45.846 15.7406 300 ° 13 km/h 293 m -9.5 m/s 403.001 MHz Brdovec (HR) 0.00 km FOUND
MEA500076 M20 2023-09-17 06:05:41 45.8337 15.2639 96 ° 31 km/h 1061 m -8.7 m/s 403.001 MHz Šmarješke Toplice (SI) 0.00 km FOUND
MEA500077 M20 2023-09-16 06:20:14 45.7612 15.2627 324 ° 19 km/h 1151 m -3.0 m/s 403.001 MHz Novo Mesto (SI) 0.00 km FOUND
MEA500081 M20 2023-09-15 06:04:24 46.0354 14.8081 286 ° 20 km/h 1551 m -11.0 m/s 403.001 MHz Litija (SI) 0.00 km UNKNOWN
MEA500082 M20 2023-09-14 05:32:37 46.1047 14.7556 219 ° 9 km/h 1228 m -10.1 m/s 403.001 MHz Moravče (SI) 0.00 km UNKNOWN
MEA500080 M20 2023-09-13 06:44:13 46.0722 15.7214 83 ° 6 km/h 280 m -3.1 m/s 403.000 MHz Tuhelj (HR) 0.00 km LOST
MEA500078 M20 2023-09-12 06:05:43 45.9931 14.9269 135 ° 22 km/h 717 m -9.8 m/s 403.001 MHz Litija (SI) 0.00 km FOUND
MEA500079 M20 2023-09-11 06:08:53 45.9427 14.7575 296 ° 13 km/h 1062 m -12.0 m/s 403.000 MHz Ivančna Gorica (SI) 0.00 km FOUND
MEA500083 M20 2023-09-10 06:04:57 45.9006 14.3727 277 ° 26 km/h 1381 m -11.4 m/s 403.000 MHz Borovnica (SI) 0.00 km UNKNOWN
MEA500090 M20 2023-09-09 06:03:13 45.7728 14.0385 244 ° 50 km/h 1028 m -15.6 m/s 403.000 MHz Vipava (SI) 0.00 km FOUND
MEA500089 M20 2023-09-08 06:48:29 45.3666 13.393 198 ° 22 km/h 90 m -2.9 m/s 403.010 MHz Umag (HR) 0.00 km LOST
MEA500091 M20 2023-09-07 06:04:11 45.789 13.8939 248 ° 13 km/h 533 m -12.0 m/s 403.000 MHz Vipava (SI) 0.00 km FOUND
MEA500092 M20 2023-09-06 06:15:58 45.649 13.6704 236 ° 11 km/h 1491 m -10.5 m/s 403.001 MHz Trieste (IT) 0.00 km LOST
MEA500088 M20 2023-09-05 06:30:15 45.0471 13.1394 245 ° 52 km/h 852 m -7.2 m/s 403.001 MHz Vrsar (HR) 0.00 km LOST
MEA500087 M20 2023-09-04 06:00:31 45.1432 13.9685 200 ° 52 km/h 1339 m -7.3 m/s 403.005 MHz Žminj (HR) 0.00 km NEED ATTENTION
MEA500085 M20 2023-09-03 05:59:37 45.6132 15.0407 181 ° 4 km/h 1535 m -6.9 m/s 403.000 MHz Semič (SI) 0.00 km FOUND
MEA500086 M20 2023-09-02 06:17:59 46.0036 15.3775 128 ° 15 km/h 445 m -8.0 m/s 403.001 MHz Sevnica (SI) 0.00 km FOUND
MEA500084 M20 2023-09-01 06:32:37 45.8819 15.3364 86 ° 7 km/h 380 m -9.3 m/s 403.000 MHz Škocjan (SI) 0.00 km FOUND
MEA500362 M20 2023-08-31 06:25:36 45.9506 15.179 178 ° 11 km/h 760 m -7.8 m/s 403.000 MHz Mokronog (SI) 0.00 km FOUND
MEA500360 M20 2023-08-30 06:00:58 46.2587 14.4559 186 ° 22 km/h 1364 m -3.0 m/s 403.000 MHz Cerklje na Gorenjskem (SI) 0.00 km FOUND
MEA500363 M20 2023-08-29 06:25:17 46.5911 14.2304 12 ° 2 km/h 790 m -11.1 m/s 403.000 MHz Keutschach am See (AT) 0.00 km FOUND
MEA500364 M20 2023-08-28 06:11:39 46.7179 14.8359 291 ° 9 km/h 955 m -11.7 m/s 403.001 MHz Sankt Paul im Levanttal (AT) 0.00 km UNKNOWN
MEA500367 M20 2023-08-27 06:20:00 46.5272 15.4091 234 ° 11 km/h 871 m -10.6 m/s 403.000 MHz Lovrenc na Pohorju (SI) 0.00 km UNKNOWN
MEA500369 M20 2023-08-26 06:14:26 46.4634 15.3416 43 ° 35 km/h 1579 m -11.2 m/s 403.001 MHz Zreče (SI) 0.00 km UNKNOWN
MEA500368 M20 2023-08-25 06:24:13 45.9613 15.0999 227 ° 4 km/h 1015 m -11.3 m/s 403.001 MHz Šentrupert (SI) 0.00 km FOUND
MEA500365 M20 2023-08-24 06:14:59 45.5371 15.0364 285 ° 9 km/h 981 m -8.6 m/s 403.000 MHz Brod Moravice (HR) 0.00 km FOUND
MEA500366 M20 2023-08-23 06:28:39 45.8367 14.8524 265 ° 17 km/h 2031 m -9.7 m/s 403.000 MHz Žužemberk (SI) 0.00 km FOUND
MEA500370 M20 2023-08-22 06:29:25 45.6236 14.5811 282 ° 30 km/h 1599 m -5.5 m/s 403.001 MHz Čabar (HR) 0.00 km UNKNOWN
MEA500371 M20 2023-08-21 06:23:06 45.5865 14.1079 269 ° 35 km/h 1367 m -10.8 m/s 403.000 MHz Ilirska Bistrica (SI) 0.00 km UNKNOWN
MEA500372 M20 2023-08-20 06:04:05 45.4898 14.2958 259 ° 44 km/h 2017 m -8.1 m/s 403.001 MHz Klana (HR) 0.00 km UNKNOWN
MEA500373 M20 2023-08-19 06:04:29 45.7379 14.4203 270 ° 17 km/h 1127 m -12.3 m/s 403.001 MHz Stari Trg (SI) 0.00 km UNKNOWN
MEA500375 M20 2023-08-18 06:10:30 46.305 14.5125 154 ° 6 km/h 1916 m -12.0 m/s 403.000 MHz Cerklje na Gorenjskem (SI) 0.00 km UNKNOWN
MEA500378 M20 2023-08-17 06:46:49 46.1206 14.8927 298 ° 9 km/h 1514 m -1.8 m/s 403.000 MHz Zagorje (SI) 0.00 km UNKNOWN
MEA500379 M20 2023-08-16 05:54:57 45.7489 14.4899 263 ° 30 km/h 1382 m -3.0 m/s 403.001 MHz Nova Vas (SI) 0.00 km UNKNOWN
MEA500376 M20 2023-08-15 06:11:19 46.1123 14.412 280 ° 22 km/h 1269 m -11.7 m/s 403.001 MHz Medvode (SI) 0.00 km FOUND
MEA500377 M20 2023-08-14 06:23:26 45.9671 14.3894 234 ° 15 km/h 900 m -3.0 m/s 403.000 MHz Log (SI) 0.00 km FOUND
MEA500374 M20 2023-08-13 06:07:53 46.0779 14.8076 214 ° 30 km/h 1527 m -5.1 m/s 403.005 MHz Litija (SI) 0.00 km UNKNOWN
MEA500380 M20 2023-08-12 05:59:00 45.701 14.4175 252 ° 20 km/h 1490 m -10.3 m/s 403.005 MHz Stari Trg (SI) 0.00 km FOUND
MEA500381 M20 2023-08-11 06:08:07 45.5934 14.7403 258 ° 7 km/h 1552 m -7.9 m/s 403.000 MHz Čabar (HR) 0.00 km UNKNOWN
MEA500382 M20 2023-08-10 06:17:30 44.9506 15.0256 271 ° 22 km/h 1635 m -10.8 m/s 403.001 MHz Brinje (HR) 0.00 km UNKNOWN
MEA500383 M20 2023-08-09 06:14:27 45.9056 15.1309 42 ° 9 km/h 1140 m -6.4 m/s 403.000 MHz Mokronog (SI) 0.00 km FOUND
MEA500385 M20 2023-08-08 05:40:22 45.6804 15.3645 6 ° 17 km/h 1170 m -9.6 m/s 403.001 MHz Metlika (SI) 0.00 km FOUND
MEA500389 M20 2023-08-07 06:06:29 46.1573 15.3279 57 ° 30 km/h 1169 m -10.0 m/s 403.000 MHz Dobje (SI) 0.00 km FOUND
MEA500388 M20 2023-08-06 06:15:25 46.0998 14.8775 129 ° 13 km/h 1516 m -11.7 m/s 403.005 MHz Litija (SI) 0.00 km FOUND
MEA500386 M20 2023-08-05 06:06:12 47.0152 14.1803 235 ° 22 km/h 2702 m -10.2 m/s 403.000 MHz Murau (AT) 0.00 km UNKNOWN
MEA500387 M20 2023-08-04 06:06:30 46.8967 15.4144 55 ° 6 km/h 438 m -8.2 m/s 403.000 MHz Werndorf (AT) 0.00 km FOUND
MEA500384 M20 2023-08-03 06:27:00 46.6365 15.9892 28 ° 9 km/h 329 m -8.0 m/s 403.000 MHz Radenci (SI) 0.00 km FOUND
MEA500390 M20 2023-08-02 05:47:34 45.5136 15.4984 139 ° 124 km/h 11156 m -6.7 m/s 403.000 MHz Karlovac (HR) 0.00 km UNKNOWN
MEA500391 M20 2023-08-01 06:34:44 45.9458 15.9351 323 ° 7 km/h 505 m -3.5 m/s 403.000 MHz Stubičke Toplice (HR) 0.00 km UNKNOWN
MEA500392 M20 2023-07-31 06:16:04 45.7004 15.2347 280 ° 35 km/h 1160 m -11.6 m/s 403.000 MHz Semič (SI) 0.00 km FOUND
MEA500393 M20 2023-07-30 07:07:49 46.1927 15.821 297 ° 15 km/h 584 m -7.8 m/s 403.000 MHz Ðurmanec (HR) 0.00 km UNKNOWN
MEA500399 M20 2023-07-29 06:26:03 45.8202 15.3577 64 ° 11 km/h 488 m -7.3 m/s 403.001 MHz Šentjernej (SI) 0.00 km FOUND
MEA500398 M20 2023-07-28 06:43:20 46.1802 15.5621 85 ° 39 km/h 869 m -10.6 m/s 403.001 MHz Podčetrtek (SI) 0.00 km FOUND
MEA500397 M20 2023-07-27 05:54:54 45.1952 15.6532 213 ° 19 km/h 1241 m -4.4 m/s 403.001 MHz Cetingrad (HR) 0.00 km UNKNOWN
MEA500396 M20 2023-07-26 06:23:00 46.6476 15.8194 51 ° 7 km/h 383 m -9.1 m/s 403.001 MHz Sveta Ana (SI) 0.00 km FOUND
MEA500395 M20 2023-07-25 06:15:57 46.7682 16.4288 256 ° 4 km/h 305 m -8.6 m/s 403.001 MHz Hodoš (SI) 0.00 km NEED ATTENTION
MEA500037 M20 2023-07-24 06:21:32 46.0234 15.7077 89 ° 7 km/h 308 m -11.3 m/s 403.003 MHz Klanjec (HR) 0.00 km FOUND
MEA500039 M20 2023-07-23 06:06:28 46.0956 15.5772 330 ° 7 km/h 414 m -10.0 m/s 403.003 MHz Kozje (SI) 0.00 km FOUND
MEA500040 M20 2023-07-22 06:12:30 46.3784 15.9657 342 ° 2 km/h 283 m -10.4 m/s 403.003 MHz Markovci (SI) 0.00 km FOUND
MEA500041 M20 2023-07-21 12:14:27 46.4407 16.036 100 ° 2 km/h 397 m -6.4 m/s 403.003 MHz Gorišnica (SI) 0.00 km FOUND
MEA500043 M20 2023-07-21 06:12:31 46.2836 15.8221 253 ° 11 km/h 592 m -8.5 m/s 403.003 MHz Žetale (SI) 0.00 km UNKNOWN
MEA500038 M20 2023-07-20 06:12:53 46.0149 15.8788 92 ° 6 km/h 313 m -7.9 m/s 403.003 MHz Veliko Trgovišće (HR) 0.00 km UNKNOWN
MEA500036 M20 2023-07-19 12:23:08 46.0537 16.2206 181 ° 6 km/h 522 m -2.5 m/s 403.003 MHz Konjšćina (HR) 0.00 km NEED ATTENTION
MEA500035 M20 2023-07-19 06:20:51 46.0045 16.1996 79 ° 19 km/h 493 m -5.6 m/s 403.003 MHz Bedenica (HR) 0.00 km UNKNOWN
MEA500033 M20 2023-07-18 06:24:36 45.87 15.7995 222 ° 17 km/h 544 m -9.6 m/s 403.003 MHz Zaprešić (HR) 0.00 km FOUND
MEA500032 M20 2023-07-17 06:04:30 46.2684 15.9093 56 ° 7 km/h 570 m -9.4 m/s 403.000 MHz Gornje Jesenje (HR) 0.00 km UNKNOWN
MEA500023 M20 2023-07-16 06:34:13 46.2718 15.6746 89 ° 48 km/h 839 m -7.0 m/s 403.203 MHz Rogaška Slatina (SI) 0.00 km FOUND
MEA500025 M20 2023-07-16 06:09:30 46.2524 15.71 88 ° 26 km/h 567 m -6.8 m/s 403.000 MHz Rogatec (SI) 0.00 km FOUND
MEA500026 M20 2023-07-15 06:02:00 46.0498 15.5023 82 ° 17 km/h 778 m -9.5 m/s 403.000 MHz Kozje (SI) 0.00 km UNKNOWN
MEA500027 M20 2023-07-14 06:33:01 45.9939 15.3483 88 ° 2 km/h 472 m -10.6 m/s 403.001 MHz Sevnica (SI) 0.00 km FOUND
MEA500029 M20 2023-07-13 12:30:26 46.6323 16.1862 17 ° 9 km/h 259 m -1.7 m/s 403.002 MHz Murska Sobota (SI) 0.00 km FOUND
MEA500030 M20 2023-07-13 06:14:00 46.5461 15.7391 89 ° 2 km/h 430 m -10.5 m/s 403.002 MHz Spodnji Duplek (SI) 0.00 km FOUND
MEA500031 M20 2023-07-12 08:53:26 45.5223 18.0204 23 ° 2 km/h 160 m -3.7 m/s 403.001 MHz Donja Motičina (HR) 0.00 km LOST
MEA500024 M20 2023-07-11 06:31:06 45.5575 15.4093 146 ° 4 km/h 391 m -8.2 m/s 403.001 MHz Ribnik (HR) 0.00 km FOUND
MEA500028 M20 2023-07-10 06:09:40 45.6194 15.1614 104 ° 7 km/h 1505 m -10.6 m/s 403.000 MHz Semič (SI) 0.00 km FOUND
MEA500012 M20 2023-07-09 06:22:17 45.5984 15.4754 296 ° 2 km/h 338 m -7.9 m/s 403.000 MHz Ozalj (HR) 0.00 km NEED ATTENTION
MEA500015 M20 2023-07-08 06:10:14 45.8884 15.354 103 ° 9 km/h 506 m -7.6 m/s 403.000 MHz Škocjan (SI) 0.00 km UNKNOWN
MEA500014 M20 2023-07-07 06:19:57 46.0288 15.2157 213 ° 19 km/h 1022 m -11.8 m/s 403.002 MHz Radeče (SI) 0.00 km FOUND
MEA500016 M20 2023-07-06 06:06:05 46.1598 15.3512 224 ° 13 km/h 723 m -7.9 m/s 403.001 MHz Dobje (SI) 0.00 km FOUND
MEA500017 M20 2023-07-05 06:01:14 46.195 14.9628 332 ° 15 km/h 1291 m -8.6 m/s 403.001 MHz Vransko (SI) 0.00 km NEED ATTENTION
MEA500022 M20 2023-07-04 06:17:06 46.3866 15.3082 243 ° 9 km/h 1343 m -7.8 m/s 403.001 MHz Vitanje (SI) 0.00 km FOUND
MEA500021 M20 2023-07-03 06:14:57 46.1789 15.7452 275 ° 6 km/h 520 m -2.0 m/s 403.003 MHz Pregrada (HR) 0.00 km UNKNOWN
MEA500020 M20 2023-07-02 06:27:10 45.4957 14.6903 196 ° 35 km/h 2272 m -13.9 m/s 403.003 MHz Osilnica (SI) 0.00 km UNKNOWN
MEA500019 M20 2023-07-01 06:10:29 46.2044 14.5804 108 ° 11 km/h 1819 m -9.3 m/s 403.003 MHz Komenda (SI) 0.00 km FOUND
MEA500018 M20 2023-06-30 06:20:14 46.1455 15.0625 53 ° 17 km/h 1552 m -11.1 m/s 403.003 MHz Trbovlje (SI) 0.00 km UNKNOWN
MEA402641 M20 2023-06-29 06:12:27 45.4608 14.9366 264 ° 24 km/h 1501 m -9.9 m/s 403.003 MHz Brod Moravice (HR) 0.00 km UNKNOWN
MEA402643 M20 2023-06-28 06:07:50 45.6969 15.8919 174 ° 7 km/h 181 m -11.5 m/s 403.003 MHz Gornji Stupnik (HR) 0.00 km FOUND
MEA402645 M20 2023-06-27 09:17:24 45.6068 16.5959 241 ° 9 km/h 296 m -2.9 m/s 403.003 MHz Velika Ludina (HR) 0.00 km FOUND
MEA402644 M20 2023-06-26 06:00:48 45.7094 14.7026 251 ° 19 km/h 1528 m -10.1 m/s 403.003 MHz Sodražica (SI) 0.00 km UNKNOWN
MEA402650 M20 2023-06-25 06:28:25 45.5951 14.5956 257 ° 28 km/h 1595 m -9.0 m/s 403.003 MHz Čabar (HR) 0.00 km UNKNOWN
MEA402647 M20 2023-06-24 06:27:02 45.8165 14.2954 276 ° 37 km/h 773 m -5.5 m/s 403.001 MHz Cerknica (SI) 0.00 km FOUND
MEA402646 M20 2023-06-23 06:02:29 46.4952 14.9125 302 ° 6 km/h 1317 m -8.6 m/s 403.003 MHz Mežica (SI) 0.00 km UNKNOWN
MEA500002 M20 2023-06-22 05:55:43 45.9876 15.1294 60 ° 19 km/h 1518 m -8.3 m/s 403.000 MHz Šentrupert (SI) 0.00 km FOUND
MEA402649 M20 2023-06-21 06:50:46 45.8497 15.201 106 ° 43 km/h 1102 m -5.6 m/s 403.003 MHz Šmarješke Toplice (SI) 0.00 km FOUND
MEA500001 M20 2023-06-20 06:20:31 45.819 14.9719 88 ° 31 km/h 1577 m -12.3 m/s 403.003 MHz Žužemberk (SI) 0.00 km FOUND
MEA500003 M20 2023-06-19 06:52:50 45.6716 15.52 56 ° 13 km/h 413 m -3.4 m/s 403.001 MHz Krašić (HR) 0.00 km FOUND
MEA500004 M20 2023-06-18 06:12:59 45.5806 15.1782 41 ° 2 km/h 698 m -8.4 m/s 403.003 MHz Črnomelj (SI) 0.00 km FOUND
MEA500006 M20 2023-06-17 06:06:22 45.5827 14.844 153 ° 35 km/h 1810 m -3.6 m/s 403.001 MHz Kočevje (SI) 0.00 km UNKNOWN
MEA500005 M20 2023-06-16 06:06:09 45.958 14.8745 220 ° 33 km/h 1587 m -10.8 m/s 403.001 MHz Ivančna Gorica (SI) 0.00 km UNKNOWN
MEA500007 M20 2023-06-15 08:16:11 46.5192 16.0729 230 ° 7 km/h 324 m -4.5 m/s 403.001 MHz Tomaž pri Ormožu (SI) 0.00 km FOUND
MEA500008 M20 2023-06-14 06:17:50 46.029 15.1989 337 ° 28 km/h 1127 m -10.6 m/s 403.001 MHz Radeče (SI) 0.00 km UNKNOWN
MEA500009 M20 2023-06-13 06:05:07 45.8004 15.0537 319 ° 19 km/h 1487 m -12.8 m/s 403.001 MHz Straža (SI) 0.00 km FOUND
MEA500010 M20 2023-06-12 06:10:43 45.69 14.4451 268 ° 33 km/h 1244 m -8.8 m/s 403.001 MHz Stari Trg (SI) 0.00 km UNKNOWN
MEA500011 M20 2023-06-11 06:09:15 45.8098 14.2425 250 ° 35 km/h 1059 m -3.1 m/s 403.003 MHz Postojna (SI) 0.00 km FOUND
MEA500013 M20 2023-06-10 05:51:20 45.9114 15.0139 199 ° 4 km/h 1602 m -10.5 m/s 403.003 MHz Trebnje (SI) 0.00 km FOUND
MEA500890 M20 2023-06-09 06:09:52 45.769 15.6615 245 ° 7 km/h 644 m -10.2 m/s 403.003 MHz Samobor (HR) 0.00 km UNKNOWN
MEA500891 M20 2023-06-08 05:39:20 46.0298 14.8671 285 ° 9 km/h 1272 m -11.0 m/s 403.003 MHz Litija (SI) 0.00 km FOUND
MEA500892 M20 2023-06-07 06:01:36 46.0362 14.7921 228 ° 6 km/h 1517 m -9.0 m/s 403.003 MHz Litija (SI) 0.00 km FOUND
MEA500897 M20 2023-06-06 06:04:16 46.3349 14.8032 3 ° 13 km/h 1991 m -11.0 m/s 403.003 MHz Ljubno (SI) 0.00 km UNKNOWN
MEA500894 M20 2023-06-05 06:02:08 46.3454 14.7115 306 ° 22 km/h 2088 m -1.9 m/s 403.003 MHz Luče (SI) 0.00 km UNKNOWN
MEA500896 M20 2023-06-04 06:35:29 46.2197 15.1 360 ° 19 km/h 1678 m -10.7 m/s 403.003 MHz Prebold (SI) 0.00 km UNKNOWN
MEA500895 M20 2023-06-03 06:14:40 46.0841 14.7096 299 ° 13 km/h 1514 m -10.1 m/s 403.003 MHz Moravče (SI) 0.00 km UNKNOWN
MEA500893 M20 2023-06-02 06:12:34 46.0035 14.4566 188 ° 9 km/h 1141 m -10.3 m/s 403.003 MHz Brezovica (SI) 0.00 km FOUND
MEA500878 M20 2023-06-01 06:04:17 46.0694 14.3856 247 ° 22 km/h 980 m -5.8 m/s 403.003 MHz Dobrova (SI) 0.00 km FOUND
MEA500879 M20 2023-05-31 06:16:57 46.0814 14.0737 269 ° 20 km/h 1019 m -8.7 m/s 403.003 MHz Žiri (SI) 0.00 km FOUND
MEA500881 M20 2023-05-30 06:23:13 45.8576 14.0755 252 ° 61 km/h 1319 m -10.3 m/s 403.003 MHz Vipava (SI) 0.00 km UNKNOWN
MEA500888 M20 2023-05-29 07:07:43 45.9627 14.2798 294 ° 19 km/h 698 m -3.5 m/s 403.003 MHz Vrhnika (SI) 0.00 km FOUND
MEA500880 M20 2023-05-28 06:04:14 45.9649 14.5738 290 ° 19 km/h 1826 m -7.9 m/s 403.003 MHz Škofljica (SI) 0.00 km UNKNOWN
MEA500882 M20 2023-05-27 06:16:05 45.7295 14.5724 242 ° 46 km/h 1704 m -8.0 m/s 403.003 MHz Hrib-Loški Potok (SI) 0.00 km UNKNOWN
MEA500886 M20 2023-05-26 06:20:23 45.9093 14.2112 212 ° 11 km/h 737 m -10.9 m/s 403.003 MHz Logatec (SI) 0.00 km FOUND
MEA500885 M20 2023-05-25 06:29:07 46.3851 14.1215 300 ° 17 km/h 1714 m -8.8 m/s 403.003 MHz Bled (SI) 0.00 km FOUND
MEA500884 M20 2023-05-24 06:26:46 46.1364 14.7261 334 ° 11 km/h 1583 m -6.6 m/s 403.003 MHz Moravče (SI) 0.00 km UNKNOWN
MEA500883 M20 2023-05-23 06:15:51 45.956 14.264 254 ° 4 km/h 821 m -9.6 m/s 403.001 MHz Vrhnika (SI) 0.00 km FOUND
MEA500898 M20 2023-05-22 06:47:46 45.9445 13.6215 284 ° 26 km/h 1271 m -7.1 m/s 403.003 MHz Gorizia (IT) 0.00 km UNKNOWN
MEA500899 M20 2023-05-21 05:46:11 46.0333 14.1148 246 ° 26 km/h 1033 m -8.7 m/s 403.003 MHz Žiri (SI) 0.00 km FOUND
MEA500901 M20 2023-05-20 06:15:05 46.4467 14.4963 290 ° 33 km/h 1830 m -7.1 m/s 403.003 MHz Zgornje Jezersko (SI) 0.00 km UNKNOWN
MEA500900 M20 2023-05-19 06:24:02 46.3986 14.4553 351 ° 7 km/h 2068 m -3.7 m/s 403.003 MHz Zgornje Jezersko (SI) 0.00 km UNKNOWN
MEA500902 M20 2023-05-18 06:06:15 46.3001 14.4643 249 ° 30 km/h 2048 m -9.5 m/s 403.003 MHz Preddvor (SI) 0.00 km FOUND
MEA500903 M20 2023-05-17 05:47:03 46.1669 14.1091 210 ° 54 km/h 1886 m -8.6 m/s 403.003 MHz Gorenja Vas (SI) 0.00 km FOUND
MEA500904 M20 2023-05-16 08:23:05 47.5766 13.2983 234 ° 31 km/h 2107 m -1.8 m/s 403.003 MHz Abtenau (AT) 0.00 km UNKNOWN
MEA500908 M20 2023-05-14 06:03:38 46.5842 15.0214 242 ° 31 km/h 1344 m -7.8 m/s 403.003 MHz Dravograd (SI) 0.00 km UNKNOWN
MEA500906 M20 2023-05-13 06:27:22 46.3328 14.7494 355 ° 7 km/h 1920 m -2.1 m/s 403.003 MHz Luče (SI) 0.00 km UNKNOWN
MEA500905 M20 2023-05-12 05:55:05 46.2463 14.3324 268 ° 7 km/h 1740 m -5.6 m/s 403.003 MHz Kranj (SI) 0.00 km FOUND
MEA500910 M20 2023-05-11 06:01:04 46.4583 14.3168 262 ° 26 km/h 1510 m -8.3 m/s 403.003 MHz Ferlach (AT) 0.00 km UNKNOWN
MEA500911 M20 2023-05-10 06:01:03 45.9281 14.9215 298 ° 24 km/h 1423 m -10.2 m/s 403.003 MHz Trebnje (SI) 0.00 km FOUND
MEA500909 M20 2023-05-09 06:18:00 45.5531 14.9455 284 ° 31 km/h 1520 m -7.7 m/s 403.003 MHz Kostel (SI) 0.00 km FOUND
MEA500912 M20 2023-05-08 05:53:47 45.9439 14.8221 34 ° 6 km/h 1649 m -6.6 m/s 403.003 MHz Ivančna Gorica (SI) 0.00 km FOUND
MEA500917 M20 2023-05-07 07:01:25 45.689 15.7127 228 ° 7 km/h 272 m -3.0 m/s 403.003 MHz Klinča Sela (HR) 0.00 km FOUND
MEA500919 M20 2023-05-06 06:07:50 45.8738 15.0681 174 ° 4 km/h 1501 m -7.3 m/s 403.003 MHz Mirna Peč (SI) 0.00 km FOUND
MEA500915 M20 2023-05-05 05:57:10 45.8615 14.8475 130 ° 9 km/h 1706 m -8.3 m/s 403.002 MHz Žužemberk (SI) 0.00 km FOUND
MEA500914 M20 2023-05-04 06:49:33 44.9426 13.9412 219 ° 17 km/h 2765 m -1.8 m/s 403.003 MHz Marčana (HR) 0.00 km UNKNOWN
MEA500913 M20 2023-05-03 05:44:49 46.0288 14.5144 225 ° 46 km/h 1266 m -9.4 m/s 403.003 MHz Ljubljana (SI) 0.00 km FOUND
MEA500868 M20 2023-05-02 06:03:50 46.3838 14.5944 203 ° 9 km/h 1855 m -2.2 m/s 403.001 MHz Solčava (SI) 0.00 km UNKNOWN
MEA500870 M20 2023-05-01 06:08:31 46.0725 14.8328 288 ° 26 km/h 1825 m -9.5 m/s 403.003 MHz Litija (SI) 0.00 km UNKNOWN
MEA500871 M20 2023-04-30 05:57:17 45.7163 15.0962 297 ° 11 km/h 1449 m -10.4 m/s 403.001 MHz Dolenjske Toplice (SI) 0.00 km FOUND
MEA500869 M20 2023-04-29 06:11:59 45.2168 16.0671 60 ° 19 km/h 918 m -4.9 m/s 403.003 MHz Topusko (HR) 0.00 km UNKNOWN
MEA500872 M20 2023-04-28 05:58:59 45.3965 15.4265 157 ° 4 km/h 493 m -10.1 m/s 403.003 MHz Generalski Stol (HR) 0.00 km FOUND
MEA500877 M20 2023-04-27 06:01:34 45.4309 15.3617 273 ° 13 km/h 653 m -8.8 m/s 403.001 MHz Bosiljevo (HR) 0.00 km UNKNOWN
MEA500876 M20 2023-04-26 06:10:50 45.0883 15.4462 233 ° 33 km/h 1505 m -4.8 m/s 403.001 MHz Plaški (HR) 0.00 km UNKNOWN
MEA500875 M20 2023-04-25 06:02:21 45.9457 15.3945 348 ° 4 km/h 848 m -6.5 m/s 403.003 MHz Krško (SI) 0.00 km FOUND
MEA500874 M20 2023-04-24 06:05:59 46.2985 15.1875 63 ° 20 km/h 669 m -5.1 m/s 403.001 MHz Dobrna (SI) 0.00 km UNKNOWN
MEA500873 M20 2023-04-23 06:11:23 45.913 15.0235 77 ° 17 km/h 1384 m -7.6 m/s 403.001 MHz Trebnje (SI) 0.00 km FOUND
ME9900778 M20 2023-04-22 06:13:36 45.2277 15.0991 327 ° 11 km/h 1540 m -5.8 m/s 403.003 MHz Ogulin (HR) 0.00 km UNKNOWN
ME9900777 M20 2023-04-21 06:14:53 46.1217 14.7524 323 ° 22 km/h 1513 m -9.5 m/s 403.003 MHz Moravče (SI) 0.00 km UNKNOWN
ME9900783 M20 2023-04-20 05:53:57 46.1139 14.8577 336 ° 28 km/h 1554 m -5.8 m/s 403.003 MHz Litija (SI) 0.00 km FOUND
ME9900785 M20 2023-04-19 06:01:14 45.8227 14.5248 237 ° 26 km/h 1917 m -7.7 m/s 403.003 MHz Nova Vas (SI) 0.00 km UNKNOWN
ME9900789 M20 2023-04-18 06:16:39 46.098 13.9652 227 ° 41 km/h 1458 m -3.8 m/s 403.003 MHz Cerkno (SI) 0.00 km UNKNOWN
ME9900788 M20 2023-04-17 06:38:46 45.9719 14.0184 221 ° 44 km/h 1423 m -5.9 m/s 403.003 MHz Idrija (SI) 0.00 km UNKNOWN
ME9900780 M20 2023-04-16 05:36:50 46.0613 14.5012 243 ° 35 km/h 1332 m -9.3 m/s 403.003 MHz Ljubljana (SI) 0.00 km FOUND
ME9900781 M20 2023-04-15 06:17:56 45.8558 15.2247 70 ° 28 km/h 1013 m -3.1 m/s 403.003 MHz Šmarješke Toplice (SI) 0.00 km NEED ATTENTION
ME9900784 M20 2023-04-14 06:05:25 46.4809 14.0449 184 ° 43 km/h 1621 m -5.9 m/s 403.003 MHz Jesenice (SI) 0.00 km UNKNOWN
ME9900782 M20 2023-04-13 05:50:00 46.4537 15.7263 176 ° 15 km/h 460 m -9.4 m/s 403.004 MHz Starše (SI) 0.00 km FOUND
ME9900769 M20 2023-04-12 06:16:41 45.2719 15.7248 335 ° 13 km/h 797 m -10.8 m/s 403.004 MHz Vojnić (HR) 0.00 km UNKNOWN
ME9900770 M20 2023-04-11 05:56:12 45.2956 15.1316 121 ° 19 km/h 1584 m -10.0 m/s 403.004 MHz Ogulin (HR) 0.00 km UNKNOWN
ME9900767 M20 2023-04-10 06:18:24 45.6103 14.3301 222 ° 17 km/h 1973 m -10.9 m/s 403.003 MHz Ilirska Bistrica (SI) 0.00 km UNKNOWN
ME9900773 M20 2023-04-09 06:07:23 45.6751 14.5072 230 ° 39 km/h 1921 m -1.9 m/s 403.003 MHz Stari Trg (SI) 0.00 km UNKNOWN
ME9900779 M20 2023-04-08 06:12:32 45.8787 14.6874 98 ° 4 km/h 2009 m -10.6 m/s 403.002 MHz Videm (SI) 0.00 km FOUND
ME9900772 M20 2023-04-07 06:09:10 45.9308 14.773 135 ° 19 km/h 1662 m -5.4 m/s 403.003 MHz Ivančna Gorica (SI) 0.00 km NEED ATTENTION
ME9900771 M20 2023-04-06 06:03:04 45.9231 14.6359 192 ° 41 km/h 2026 m -11.2 m/s 403.004 MHz Grosuplje (SI) 0.00 km UNKNOWN
ME9900776 M20 2023-04-05 06:04:57 46.053 14.5533 234 ° 41 km/h 1711 m -10.5 m/s 403.003 MHz Ljubljana (SI) 0.00 km NEED ATTENTION
ME9900774 M20 2023-04-04 06:27:08 46.2975 14.4532 218 ° 9 km/h 1822 m -4.3 m/s 403.004 MHz Preddvor (SI) 0.00 km UNKNOWN
ME9900775 M20 2023-04-03 06:08:00 45.8215 14.5649 219 ° 63 km/h 1896 m -11.2 m/s 403.004 MHz Velike Lašče (SI) 0.00 km UNKNOWN
MEA500933 M20 2023-04-02 05:47:16 45.9943 14.6307 240 ° 19 km/h 1656 m -8.4 m/s 403.004 MHz Škofljica (SI) 0.00 km UNKNOWN
MEA500934 M20 2023-04-01 05:44:24 45.9902 15.1205 180 ° 13 km/h 1365 m -8.8 m/s 403.004 MHz Šentrupert (SI) 0.00 km FOUND
MEA500936 M20 2023-03-31 06:21:30 45.6648 16.0251 20 ° 11 km/h 181 m -5.3 m/s 403.004 MHz Velika Gorica (HR) 0.00 km FOUND
MEA500935 M20 2023-03-30 06:11:46 45.4668 15.5244 218 ° 13 km/h 265 m -14.0 m/s 403.004 MHz Duga Resa (HR) 0.00 km UNKNOWN
MEA500938 M20 2023-03-29 06:24:03 44.6111 16.2396 94 ° 26 km/h 1654 m -6.4 m/s 403.004 MHz Bosanski Petrovac (BA) 0.00 km UNKNOWN
MEA500928 M20 2023-03-28 05:57:05 45.3297 15.2536 175 ° 30 km/h 1535 m -11.0 m/s 403.004 MHz Ogulin (HR) 0.00 km UNKNOWN
MEA500929 M20 2023-03-27 05:48:03 45.8825 15.1638 170 ° 44 km/h 1502 m -10.0 m/s 403.004 MHz Šmarješke Toplice (SI) 0.00 km FOUND
MEA500930 M20 2023-03-26 06:16:44 45.3842 16.7306 352 ° 13 km/h 219 m -6.3 m/s 403.002 MHz Kutina (HR) 0.00 km UNKNOWN
MEA500931 M20 2023-03-25 06:15:00 46.2477 15.7637 135 ° 17 km/h 750 m -9.0 m/s 403.001 MHz Žetale (SI) 0.00 km UNKNOWN
MEA500932 M20 2023-03-24 06:18:35 46.063 15.5482 55 ° 30 km/h 715 m -3.8 m/s 403.002 MHz Kozje (SI) 0.00 km UNKNOWN
MEA500937 M20 2023-03-23 06:45:23 45.4544 14.9493 98 ° 41 km/h 1534 m -8.9 m/s 403.001 MHz Brod Moravice (HR) 0.00 km UNKNOWN
MEA500939 M20 2023-03-22 05:57:29 45.7927 14.9133 114 ° 20 km/h 1513 m -9.4 m/s 403.001 MHz Žužemberk (SI) 0.00 km FOUND
MEA500940 M20 2023-03-21 05:45:43 45.6203 14.6563 270 ° 30 km/h 1520 m -8.8 m/s 403.001 MHz Čabar (HR) 0.00 km UNKNOWN
MEA500941 M20 2023-03-20 06:41:45 46.3095 15.2654 132 ° 7 km/h 642 m -5.8 m/s 403.203 MHz Vojnik (SI) 0.00 km UNKNOWN
MEA500942 M20 2023-03-20 06:14:44 46.2837 15.2209 60 ° 17 km/h 541 m -7.7 m/s 403.004 MHz Žalec (SI) 0.00 km UNKNOWN
MEA500947 M20 2023-03-19 06:24:24 46.3246 15.4925 90 ° 30 km/h 771 m -4.6 m/s 403.001 MHz Slovenske Konjice (SI) 0.00 km FOUND
MEA500946 M20 2023-03-18 06:48:43 46.0996 15.2675 63 ° 30 km/h 1123 m -4.0 m/s 403.001 MHz Laško (SI) 0.00 km UNKNOWN
MEA500945 M20 2023-03-17 06:05:32 45.4161 14.8468 193 ° 13 km/h 1923 m -7.9 m/s 403.003 MHz Delnice (HR) 0.00 km UNKNOWN
MEA500944 M20 2023-03-16 06:04:05 45.1158 14.9997 233 ° 78 km/h 1601 m -10.9 m/s 403.002 MHz Senj (HR) 0.00 km UNKNOWN
MEA500943 M20 2023-03-15 06:05:11 46.1582 14.9934 250 ° 13 km/h 1181 m -6.1 m/s 403.004 MHz Zagorje (SI) 0.00 km UNKNOWN
MEA500948 M20 2023-03-14 06:05:46 46.5583 16.0213 9 ° 28 km/h 316 m -6.5 m/s 403.004 MHz Sveti Jurij (SI) 0.00 km NEED ATTENTION
MEA500949 M20 2023-03-13 06:12:27 45.4452 15.204 73 ° 30 km/h 1512 m -13.9 m/s 403.002 MHz Bosiljevo (HR) 0.00 km FOUND
MEA500950 M20 2023-03-12 06:02:23 45.4064 15.1314 292 ° 30 km/h 1503 m -8.3 m/s 403.003 MHz Vrbovsko (HR) 0.00 km UNKNOWN
MEA500951 M20 2023-03-11 06:11:37 45.0662 16.4921 110 ° 52 km/h 1507 m -5.9 m/s 403.001 MHz Dvor (HR) 0.00 km UNKNOWN
MEA500952 M20 2023-03-10 06:49:01 46.1445 15.9055 50 ° 13 km/h 407 m -8.8 m/s 403.001 MHz Radoboj (HR) 0.00 km UNKNOWN
MEA500955 M20 2023-03-09 06:08:54 45.9957 16.5519 40 ° 46 km/h 369 m -7.4 m/s 403.002 MHz Križevci (HR) 0.00 km UNKNOWN
MEA500958 M20 2023-03-08 05:46:45 45.6319 15.6403 69 ° 37 km/h 969 m -8.1 m/s 403.001 MHz Jastrebarsko (HR) 0.00 km FOUND
MEA500956 M20 2023-03-07 05:59:46 45.6783 15.7502 227 ° 17 km/h 311 m -7.3 m/s 403.003 MHz Klinča Sela (HR) 0.00 km FOUND
MEA500954 M20 2023-03-06 06:14:28 45.9392 15.7415 100 ° 4 km/h 338 m -6.0 m/s 403.004 MHz Dubravica (HR) 0.00 km UNKNOWN
MEA500953 M20 2023-03-05 05:59:27 45.8228 14.9114 319 ° 13 km/h 1640 m -9.4 m/s 403.003 MHz Žužemberk (SI) 0.00 km FOUND
ME9900793 M20 2023-03-04 06:18:11 45.7678 13.7434 245 ° 43 km/h 938 m -3.7 m/s 403.003 MHz Komen (SI) 0.00 km FOUND
ME9900790 M20 2023-03-03 07:01:01 45.8115 13.7239 264 ° 43 km/h 958 m -4.1 m/s 403.004 MHz Komen (SI) 0.00 km FOUND
ME9900792 M20 2023-03-02 06:30:29 46.3479 13.357 284 ° 26 km/h 2059 m -8.2 m/s 403.003 MHz Bovec (SI) 0.00 km FOUND
ME9900787 M20 2023-03-01 06:09:37 46.2811 14.4201 142 ° 4 km/h 1423 m -7.4 m/s 403.003 MHz Preddvor (SI) 0.00 km UNKNOWN
ME9900786 M20 2023-02-28 06:18:03 46.3117 14.9261 287 ° 26 km/h 1710 m -10.9 m/s 403.004 MHz Rečica (SI) 0.00 km UNKNOWN
ME9900797 M20 2023-02-27 06:17:22 46.2021 14.6841 241 ° 31 km/h 1629 m -8.6 m/s 403.004 MHz Lukovica (SI) 0.00 km FOUND
ME9900791 M20 2023-02-26 06:52:50 46.4014 16.3975 196 ° 30 km/h 388 m -3.5 m/s 403.004 MHz Šenkovec (HR) 0.00 km LOST
ME9900796 M20 2023-02-25 06:10:11 45.9519 16.2461 57 ° 20 km/h 431 m -7.3 m/s 403.003 MHz Sveti Ivan Zelina (HR) 0.00 km LOST
ME9900795 M20 2023-02-24 05:50:34 45.939 15.4684 77 ° 54 km/h 886 m -5.5 m/s 403.003 MHz Krško (SI) 0.00 km UNKNOWN
ME9900794 M20 2023-02-23 06:51:37 46.4254 15.3285 42 ° 17 km/h 1494 m -2.8 m/s 403.002 MHz Vitanje (SI) 0.00 km UNKNOWN
ME9900810 M20 2023-02-22 07:35:04 45.5828 16.0594 214 ° 4 km/h 556 m -2.5 m/s 403.002 MHz Kravarsko (HR) 0.00 km UNKNOWN
ME9900804 M20 2023-02-21 05:57:24 45.8954 15.5634 81 ° 52 km/h 822 m -11.0 m/s 403.004 MHz Brežice (SI) 0.00 km UNKNOWN
ME9900811 M20 2023-02-20 05:57:27 45.1446 15.0124 22 ° 31 km/h 2061 m -8.5 m/s 403.002 MHz Novi Vinodolski (HR) 0.00 km UNKNOWN
ME9900813 M20 2023-02-19 06:11:12 45.668 16.2369 72 ° 28 km/h 391 m -10.3 m/s 403.002 MHz Orle (HR) 0.00 km FOUND
ME9900808 M20 2023-02-18 05:54:50 45.4755 15.3141 138 ° 28 km/h 1504 m -7.1 m/s 403.002 MHz Bosiljevo (HR) 0.00 km FOUND
ME9900816 M20 2023-02-17 06:27:50 45.3314 15.066 168 ° 7 km/h 1502 m -10.2 m/s 403.003 MHz Vrbovsko (HR) 0.00 km UNKNOWN
ME9900817 M20 2023-02-16 06:06:55 45.8096 15.1366 94 ° 39 km/h 1354 m -6.6 m/s 403.003 MHz Novo Mesto (SI) 0.00 km FOUND
ME9900815 M20 2023-02-15 06:12:53 45.6179 14.8869 231 ° 24 km/h 1508 m -12.1 m/s 403.003 MHz Kočevje (SI) 0.00 km UNKNOWN
ME9900814 M20 2023-02-14 07:38:40 44.7685 13.9291 219 ° 43 km/h 2674 m -3.5 m/s 403.004 MHz Medulin (HR) 0.00 km LOST
ME9900812 M20 2023-02-13 08:12:02 44.5656 13.6394 201 ° 9 km/h 1320 m -1.9 m/s 403.003 MHz Medulin (HR) 0.00 km LOST
ME9900798 M20 2023-02-12 05:55:05 45.2606 14.2008 191 ° 37 km/h 1334 m -11.5 m/s 403.000 MHz Mošćenička Draga (HR) 0.00 km UNKNOWN
ME9900799 M20 2023-02-11 07:11:34 44.9386 14.2257 220 ° 19 km/h 3199 m -2.5 m/s 403.004 MHz Cres (HR) 0.00 km LOST
ME9900801 M20 2023-02-10 05:58:12 45.5388 14.2969 235 ° 30 km/h 2489 m -10.2 m/s 403.002 MHz Ilirska Bistrica (SI) 0.00 km FOUND
ME9900800 M20 2023-02-09 07:18:37 45.8023 12.8501 248 ° 39 km/h 1580 m -1.7 m/s 403.003 MHz Portogruaro (IT) 0.00 km FOUND
ME9900802 M20 2023-02-08 05:59:30 45.5568 13.6857 237 ° 9 km/h 2045 m -10.1 m/s 403.003 MHz Izola (SI) 0.00 km LOST
ME9900809 M20 2023-02-07 05:38:22 45.7071 13.954 209 ° 19 km/h 2344 m -10.6 m/s 403.004 MHz Divača (SI) 0.00 km UNKNOWN
ME9900807 M20 2023-02-06 07:21:29 44.3183 14.4982 183 ° 63 km/h 4434 m -1.9 m/s 403.010 MHz Mali Lošinj (HR) 0.00 km LOST
ME9900806 M20 2023-02-05 06:30:49 43.9881 14.5961 187 ° 150 km/h 5500 m -2.1 m/s 403.003 MHz Sali (HR) 0.00 km LOST
ME9900805 M20 2023-02-04 06:41:37 43.2689 15.3711 158 ° 122 km/h 5427 m -2.8 m/s 403.004 MHz Rogoznica (HR) 0.00 km LOST
ME9900803 M20 2023-02-03 05:41:17 45.1666 15.2049 149 ° 31 km/h 1621 m -10.9 m/s 403.002 MHz Josipdol (HR) 0.00 km UNKNOWN
ME9900757 M20 2023-02-02 05:59:39 45.3021 15.8987 122 ° 57 km/h 1516 m -10.9 m/s 403.004 MHz Gvozd (HR) 0.00 km UNKNOWN
ME9900759 M20 2023-02-01 06:02:24 45.4995 15.9037 88 ° 19 km/h 721 m -6.7 m/s 403.002 MHz Lasinja (HR) 0.00 km UNKNOWN
ME9900758 M20 2023-01-31 06:14:02 44.2465 14.6608 190 ° 30 km/h 930 m -3.0 m/s 403.004 MHz Vir (HR) 0.00 km LOST
ME9900760 M20 2023-01-30 05:57:44 45.5344 14.2937 166 ° 7 km/h 2015 m -11.3 m/s 403.004 MHz Ilirska Bistrica (SI) 0.00 km FOUND
ME9900764 M20 2023-01-29 06:19:54 45.5991 13.8236 209 ° 17 km/h 1982 m -7.9 m/s 403.003 MHz Múggia (IT) 0.00 km FOUND
ME9900761 M20 2023-01-28 06:41:02 45.88 13.2812 234 ° 19 km/h 820 m -2.8 m/s 403.004 MHz Cervignano del Friuli (IT) 0.00 km FOUND
ME9900762 M20 2023-01-27 05:58:28 45.8885 14.1036 251 ° 69 km/h 1182 m -6.8 m/s 403.004 MHz Logatec (SI) 0.00 km FOUND
ME9900763 M20 2023-01-26 05:59:32 46.0384 14.1656 262 ° 17 km/h 2931 m -8.8 m/s 403.003 MHz Žiri (SI) 0.00 km UNKNOWN
ME9900765 M20 2023-01-25 06:06:52 46.1277 13.5956 264 ° 65 km/h 3038 m -7.8 m/s 403.003 MHz Kanal (SI) 0.00 km FOUND
ME9900766 M20 2023-01-24 06:57:57 46.4187 13.1858 285 ° 70 km/h 5092 m -2.4 m/s 403.003 MHz Tolmezzo (IT) 0.00 km FOUND
ME9900750 M20 2023-01-23 07:33:06 46.8095 13.5782 295 ° 85 km/h 4676 m -2.5 m/s 403.004 MHz Millstatt (AT) 0.00 km UNKNOWN
ME9900745 M20 2023-01-22 06:38:06 46.3579 14.1892 275 ° 30 km/h 2552 m -3.9 m/s 403.004 MHz Radovljica (SI) 0.00 km UNKNOWN
ME9900751 M20 2023-01-21 06:54:41 46.3421 14.6374 200 ° 94 km/h 2310 m -6.8 m/s 403.003 MHz Luče (SI) 0.00 km UNKNOWN
ME9900736 M20 2023-01-20 05:38:01 46.4273 14.725 255 ° 33 km/h 2056 m -8.7 m/s 403.003 MHz Solčava (SI) 0.00 km UNKNOWN
ME9900749 M20 2023-01-19 05:32:44 46.5851 14.8282 168 ° 26 km/h 824 m -10.8 m/s 403.004 MHz Bleiburg (AT) 0.00 km UNKNOWN
ME9900755 M20 2023-01-18 05:53:30 46.795 15.6695 345 ° 6 km/h 383 m -9.3 m/s 403.004 MHz Sankt Peter am Ottersbach (AT) 0.00 km FOUND
ME9900756 M20 2023-01-17 05:50:21 46.2239 15.6605 75 ° 22 km/h 742 m -7.0 m/s 403.003 MHz Rogaška Slatina (SI) 0.00 km UNKNOWN
ME9900752 M20 2023-01-16 07:37:30 47.0275 17.0796 229 ° 30 km/h 955 m -4.5 m/s 403.004 MHz Zalaszentgrót (HU) 0.00 km UNKNOWN
ME9900754 M20 2023-01-15 06:31:05 45.699 15.5511 67 ° 30 km/h 767 m -7.1 m/s 403.004 MHz Krašić (HR) 0.00 km UNKNOWN
ME9900753 M20 2023-01-14 06:00:14 45.5691 14.9708 250 ° 28 km/h 1522 m -7.6 m/s 403.004 MHz Kostel (SI) 0.00 km FOUND
ME9900741 M20 2023-01-13 07:59:27 45.2855 16.5805 20 ° 17 km/h 422 m -1.9 m/s 403.004 MHz Majur (HR) 0.00 km UNKNOWN
ME9900744 M20 2023-01-12 06:07:07 45.767 15.1022 249 ° 33 km/h 1481 m -11.5 m/s 403.004 MHz Straža (SI) 0.00 km FOUND
ME9900743 M20 2023-01-11 06:13:14 45.1031 14.951 214 ° 35 km/h 1346 m -10.7 m/s 403.003 MHz Senj (HR) 0.00 km FOUND
ME9900746 M20 2023-01-10 06:43:13 45.6679 14.8429 178 ° 33 km/h 1506 m -9.1 m/s 403.003 MHz Kočevje (SI) 0.00 km FOUND
ME9900747 M20 2023-01-09 06:00:25 46.5421 15.5402 74 ° 9 km/h 1033 m -11.2 m/s 403.004 MHz Ruše (SI) 0.00 km UNKNOWN
ME9900742 M20 2023-01-08 07:40:15 46.1664 16.637 49 ° 33 km/h 388 m -2.7 m/s 403.004 MHz Rasinja (HR) 0.00 km FOUND
ME9900748 M20 2023-01-07 05:37:25 45.9139 15.221 116 ° 17 km/h 1456 m -11.8 m/s 403.004 MHz Škocjan (SI) 0.00 km FOUND
ME9900738 M20 2023-01-06 07:26:52 44.8115 15.9028 277 ° 2 km/h 1504 m -2.7 m/s 403.004 MHz Bihać (BA) 0.00 km UNKNOWN
ME9900739 M20 2023-01-05 05:49:53 45.5963 15.3502 114 ° 43 km/h 1533 m -12.1 m/s 403.004 MHz Žakanje (HR) 0.00 km FOUND
ME9900740 M20 2023-01-04 07:08:34 45.6216 15.8055 254 ° 7 km/h 366 m -2.8 m/s 403.004 MHz Pisarovina (HR) 0.00 km FOUND
ME9900716 M20 2023-01-03 06:18:08 46.3759 16.0905 270 ° 7 km/h 322 m -8.8 m/s 403.004 MHz Cestica (HR) 0.00 km FOUND
ME9900723 M20 2023-01-02 06:21:44 46.1863 15.845 34 ° 24 km/h 568 m -10.3 m/s 403.004 MHz Ðurmanec (HR) 0.00 km UNKNOWN
ME9900721 M20 2023-01-01 08:14:30 46.0425 17.1241 43 ° 41 km/h 366 m -2.8 m/s 403.004 MHz Kalinovac (HR) 0.00 km UNKNOWN
ME9900730 M20 2022-12-31 05:59:19 45.6373 15.1691 79 ° 43 km/h 1432 m -10.6 m/s 403.004 MHz Semič (SI) 0.00 km FOUND
ME9900725 M20 2022-12-30 05:52:52 46.1907 15.5905 65 ° 56 km/h 894 m -9.1 m/s 403.000 MHz Podčetrtek (SI) 0.00 km FOUND
ME9900727 M20 2022-12-29 06:38:13 46.2267 15.9736 59 ° 35 km/h 499 m -5.8 m/s 403.004 MHz Bednja (HR) 0.00 km UNKNOWN
ME9900719 M20 2022-12-28 07:15:14 45.1828 15.9944 309 ° 7 km/h 672 m -2.8 m/s 403.000 MHz Topusko (HR) 0.00 km UNKNOWN
ME9900724 M20 2022-12-27 06:21:41 45.9181 16.5819 75 ° 7 km/h 205 m -7.1 m/s 403.004 MHz Sveti Ivan Žabno (HR) 0.00 km FOUND
ME9900717 M20 2022-12-26 06:34:06 45.8728 16.7081 81 ° 61 km/h 1197 m -4.0 m/s 403.004 MHz Farkaševac (HR) 0.00 km FOUND
ME9900726 M20 2022-12-25 06:26:26 45.4777 16.322 26 ° 9 km/h 432 m -7.6 m/s 403.004 MHz Sisak (HR) 0.00 km FOUND
ME9900720 M20 2022-12-24 06:22:59 45.3954 16.1357 79 ° 28 km/h 512 m -8.3 m/s 403.003 MHz Glina (HR) 0.00 km UNKNOWN
ME9900729 M20 2022-12-23 05:29:09 45.666 15.2164 99 ° 56 km/h 1903 m -13.3 m/s 403.000 MHz Semič (SI) 0.00 km FOUND
ME9900728 M20 2022-12-22 05:59:47 46.0775 15.2654 69 ° 54 km/h 1262 m -10.4 m/s 403.000 MHz Radeče (SI) 0.00 km FOUND
ME9900731 M20 2022-12-21 05:46:52 46.1207 15.26 83 ° 81 km/h 1377 m -11.2 m/s 403.004 MHz Laško (SI) 0.00 km FOUND
ME9900722 M20 2022-12-20 05:55:44 45.835 15.4879 91 ° 43 km/h 1133 m -11.1 m/s 403.004 MHz Kostanjevica na Krki (SI) 0.00 km UNKNOWN
ME9900737 M20 2022-12-19 05:57:20 45.4928 15.3208 5 ° 22 km/h 1380 m -11.8 m/s 403.004 MHz Netretić (HR) 0.00 km FOUND
ME9900732 M20 2022-12-18 06:31:51 46.024 16.0143 274 ° 4 km/h 568 m -7.0 m/s 403.000 MHz Bedekovčina (HR) 0.00 km UNKNOWN
ME9900733 M20 2022-12-17 05:58:16 46.2889 15.4212 162 ° 15 km/h 1172 m -6.3 m/s 403.004 MHz Slovenske Konjice (SI) 0.00 km UNKNOWN
ME9900734 M20 2022-12-16 06:11:48 46.6705 15.7671 274 ° 7 km/h 572 m -8.7 m/s 403.004 MHz Mureck (AT) 0.00 km FOUND
ME9900735 M20 2022-12-15 06:01:12 46.1279 15.8211 25 ° 31 km/h 22486 m 6.2 m/s 403.004 MHz Petrovsko (HR) 0.00 km UNKNOWN
ME9900416 M20 2022-12-14 06:45:02 45.7053 17.2164 348 ° 19 km/h 1506 m -4.1 m/s 403.004 MHz Grubišno Polje (HR) 0.00 km FOUND
ME9900415 M20 2022-12-13 06:00:51 45.7288 15.9045 289 ° 13 km/h 835 m -11.4 m/s 403.000 MHz Gornji Stupnik (HR) 0.00 km FOUND
ME9900414 M20 2022-12-12 06:12:10 46.0816 16.2621 90 ° 13 km/h 305 m -8.6 m/s 403.004 MHz Breznica (HR) 0.00 km UNKNOWN
ME9900421 M20 2022-12-11 05:48:33 46.3517 15.1255 147 ° 31 km/h 900 m -8.8 m/s 403.000 MHz Velenje (SI) 0.00 km UNKNOWN
ME9900425 M20 2022-12-09 05:22:18 46.3535 15.1515 44 ° 31 km/h 1177 m -2.7 m/s 403.000 MHz Velenje (SI) 0.00 km UNKNOWN
ME9900426 M20 2022-12-08 06:10:47 46.1875 15.8335 236 ° 6 km/h 508 m -6.4 m/s 403.003 MHz Ðurmanec (HR) 0.00 km FOUND
ME9900422 M20 2022-12-07 05:22:19 45.9937 15.0863 322 ° 4 km/h 1526 m -11.9 m/s 403.003 MHz Šentrupert (SI) 0.00 km FOUND
ME9900419 M20 2022-12-06 06:14:51 46.0743 15.6764 169 ° 26 km/h 1277 m -9.8 m/s 403.201 MHz Kumrovec (HR) 0.00 km UNKNOWN
ME9900423 M20 2022-12-06 05:51:15 46.1059 15.8022 160 ° 4 km/h 287 m -8.8 m/s 403.000 MHz Krapinske Toplice (HR) 0.00 km UNKNOWN
ME9900424 M20 2022-12-05 07:22:23 46.1983 16.2243 128 ° 6 km/h 417 m -2.1 m/s 403.005 MHz Beretinec (HR) 0.00 km NEED ATTENTION
ME9900427 M20 2022-12-04 08:42:00 47.1119 15.2846 189 ° 4 km/h 667 m -2.5 m/s 403.003 MHz Eisbach (AT) 0.00 km FOUND
ME9900433 M20 2022-12-03 07:51:56 46.9805 15.9396 317 ° 4 km/h 439 m -2.4 m/s 403.004 MHz Riegersburg (AT) 0.00 km FOUND
ME9900434 M20 2022-12-02 06:20:16 46.4301 14.2554 307 ° 33 km/h 2266 m -9.8 m/s 403.000 MHz Tržič (SI) 0.00 km FOUND
ME9900432 M20 2022-12-01 05:51:32 46.2509 14.351 275 ° 43 km/h 1979 m -6.8 m/s 403.004 MHz Kranj (SI) 0.00 km FOUND
ME9900420 M20 2022-11-30 05:58:02 46.3338 14.2002 283 ° 28 km/h 2199 m -7.0 m/s 403.003 MHz Radovljica (SI) 0.00 km LOST
ME9900431 M20 2022-11-29 06:00:23 46.4254 14.3743 328 ° 28 km/h 2241 m -7.0 m/s 403.000 MHz Tržič (SI) 0.00 km UNKNOWN
ME9900430 M20 2022-11-28 06:02:54 45.6242 14.9587 339 ° 31 km/h 1512 m -10.0 m/s 403.005 MHz Kočevje (SI) 0.00 km FOUND
ME9900428 M20 2022-11-27 06:09:53 45.1202 14.527 251 ° 37 km/h 637 m -4.6 m/s 403.005 MHz Malinska (HR) 0.00 km FOUND
ME9900429 M20 2022-11-26 06:23:52 45.8687 15.1076 238 ° 33 km/h 1506 m -6.6 m/s 403.004 MHz Mirna Peč (SI) 0.00 km FOUND
ME9900436 M20 2022-11-25 05:45:49 45.6997 15.4234 316 ° 9 km/h 1153 m -10.7 m/s 403.004 MHz Žumberak (HR) 0.00 km UNKNOWN
ME9900442 M20 2022-11-24 05:36:55 45.7809 15.2447 154 ° 26 km/h 1337 m -11.4 m/s 403.000 MHz Novo Mesto (SI) 0.00 km FOUND
ME9900445 M20 2022-11-23 05:38:50 45.8879 14.6203 209 ° 65 km/h 2036 m -9.5 m/s 403.004 MHz Velike Lašče (SI) 0.00 km FOUND
ME9900443 M20 2022-11-22 05:47:02 46.3684 15.1115 7 ° 41 km/h 1293 m -8.9 m/s 403.004 MHz Velenje (SI) 0.00 km UNKNOWN
ME9900444 M20 2022-11-21 06:11:07 46.1268 15.1558 17 ° 28 km/h 1467 m -8.4 m/s 403.004 MHz Hrastnik (SI) 0.00 km UNKNOWN
ME9900439 M20 2022-11-20 08:03:38 46.771 16.1196 324 ° 4 km/h 365 m -2.2 m/s 403.004 MHz Grad (SI) 0.00 km FOUND
ME9900438 M20 2022-11-19 06:19:18 46.5219 16.6855 229 ° 22 km/h 406 m -5.0 m/s 403.004 MHz Letenye (HU) 0.00 km UNKNOWN
ME9900440 M20 2022-11-18 05:42:18 46.1952 15.5872 56 ° 31 km/h 938 m -10.5 m/s 403.004 MHz Podčetrtek (SI) 0.00 km FOUND
ME9900437 M20 2022-11-17 06:31:15 45.5677 16.001 60 ° 7 km/h 427 m -7.9 m/s 403.004 MHz Kravarsko (HR) 0.00 km UNKNOWN
ME9900441 M20 2022-11-16 07:49:19 45.5766 16.6413 10 ° 28 km/h 397 m -2.2 m/s 403.004 MHz Popovača (HR) 0.00 km FOUND
ME9900446 M20 2022-11-15 06:52:09 45.9373 14.9636 90 ° 20 km/h 1510 m -3.5 m/s 403.003 MHz Trebnje (SI) 0.00 km NEED ATTENTION
ME9900448 M20 2022-11-14 06:28:46 46.9226 14.4589 5 ° 7 km/h 1272 m -5.4 m/s 403.003 MHz Friesach (AT) 0.00 km UNKNOWN
ME9900450 M20 2022-11-13 05:37:28 46.0793 13.122 292 ° 137 km/h 5226 m -12.0 m/s 403.000 MHz Pasian di Prato (IT) 0.00 km FOUND
ME9900447 M20 2022-11-12 05:45:45 45.8104 13.6267 237 ° 43 km/h 3085 m -12.8 m/s 403.004 MHz Komen (SI) 0.00 km FOUND
ME9900449 M20 2022-11-11 05:42:41 45.6188 13.9627 255 ° 65 km/h 2614 m -12.0 m/s 403.005 MHz Kozina (SI) 0.00 km FOUND
ME9900456 M20 2022-11-10 05:48:41 46.1473 15.2965 135 ° 17 km/h 1168 m -11.0 m/s 403.004 MHz Laško (SI) 0.00 km FOUND
ME9900454 M20 2022-11-09 05:30:59 46.1056 15.1922 80 ° 63 km/h 1199 m -13.8 m/s 403.004 MHz Radeče (SI) 0.00 km UNKNOWN
ME9900453 M20 2022-11-08 05:55:32 45.8785 15.1851 53 ° 19 km/h 1329 m -11.6 m/s 403.000 MHz Šmarješke Toplice (SI) 0.00 km UNKNOWN
ME9900451 M20 2022-11-07 06:43:29 46.0798 15.9703 154 ° 11 km/h 744 m -4.2 m/s 403.004 MHz Zabok (HR) 0.00 km UNKNOWN
ME9900452 M20 2022-11-06 06:06:18 45.6154 14.6032 239 ° 54 km/h 1792 m -11.0 m/s 403.004 MHz Čabar (HR) 0.00 km FOUND
ME9900461 M20 2022-11-05 05:38:27 46.4059 14.774 196 ° 44 km/h 2204 m -10.2 m/s 403.000 MHz Luče (SI) 0.00 km UNKNOWN
ME9900459 M20 2022-11-04 06:57:00 46.7851 15.9551 141 ° 4 km/h 336 m -4.6 m/s 403.004 MHz Sankt Anna am Aigen (AT) 0.00 km FOUND
ME9900457 M20 2022-11-03 06:30:13 45.9634 15.3936 311 ° 19 km/h 961 m -7.3 m/s 403.000 MHz Krško (SI) 0.00 km FOUND
ME9900458 M20 2022-11-02 06:33:53 46.0342 15.7304 142 ° 4 km/h 700 m -10.8 m/s 403.000 MHz Klanjec (HR) 0.00 km FOUND
ME9900455 M20 2022-11-01 06:00:10 46.0607 15.0772 78 ° 52 km/h 1470 m -9.2 m/s 403.004 MHz Radeče (SI) 0.00 km UNKNOWN
ME9900460 M20 2022-10-31 05:58:24 46.0255 14.8935 77 ° 26 km/h 1510 m -8.2 m/s 403.004 MHz Litija (SI) 0.00 km UNKNOWN
ME9900463 M20 2022-10-30 06:07:11 45.7831 14.7501 140 ° 9 km/h 1519 m -8.8 m/s 403.005 MHz Videm (SI) 0.00 km FOUND
ME9900462 M20 2022-10-28 06:24:32 45.6943 14.85 139 ° 9 km/h 1670 m -6.5 m/s 403.000 MHz Kočevje (SI) 0.00 km UNKNOWN
ME9900465 M20 2022-10-27 07:21:44 45.5275 15.2582 293 ° 11 km/h 1160 m -2.4 m/s 403.004 MHz Črnomelj (SI) 0.00 km FOUND
ME9900678 M20 2022-10-26 05:57:38 45.8667 15.4384 83 ° 19 km/h 1158 m -7.6 m/s 403.000 MHz Kostanjevica na Krki (SI) 0.00 km UNKNOWN
ME9900677 M20 2022-10-25 06:25:30 46.1264 16.3682 124 ° 7 km/h 529 m -7.3 m/s 403.004 MHz Gornja Rijeka (HR) 0.00 km UNKNOWN
ME9900679 M20 2022-10-24 06:07:43 46.1826 16.1151 140 ° 7 km/h 803 m -5.4 m/s 403.003 MHz Zlatar (HR) 0.00 km UNKNOWN
ME9900681 M20 2022-10-22 07:21:30 46.3846 17.5384 28 ° 31 km/h 303 m -3.7 m/s 403.004 MHz Nagybajom (HU) 0.00 km UNKNOWN
ME9900685 M20 2022-10-21 05:56:35 46.0181 15.4903 65 ° 39 km/h 853 m -10.0 m/s 403.004 MHz Krško (SI) 0.00 km UNKNOWN
ME9900686 M20 2022-10-20 05:45:09 45.7011 15.1225 245 ° 11 km/h 1512 m -9.4 m/s 403.003 MHz Semič (SI) 0.00 km FOUND
ME9900684 M20 2022-10-19 06:01:28 45.6525 15.2446 197 ° 22 km/h 1915 m -10.3 m/s 403.002 MHz Semič (SI) 0.00 km FOUND
ME9900682 M20 2022-10-18 05:55:59 46.0345 14.9176 47 ° 9 km/h 1541 m -9.3 m/s 403.002 MHz Litija (SI) 0.00 km NEED ATTENTION
ME9900683 M20 2022-10-17 06:03:28 46.1205 14.7678 348 ° 24 km/h 1528 m -11.3 m/s 403.002 MHz Moravče (SI) 0.00 km FOUND
ME9900672 M20 2022-10-16 06:56:26 45.9417 15.5958 82 ° 22 km/h 678 m -4.8 m/s 403.002 MHz Brežice (SI) 0.00 km FOUND
ME9900673 M20 2022-10-15 06:50:50 44.9634 15.7978 60 ° 15 km/h 1512 m -3.3 m/s 403.002 MHz Cazin (BA) 0.00 km UNKNOWN
ME9900674 M20 2022-10-12 06:41:51 45.9673 15.5599 256 ° 11 km/h 821 m -2.9 m/s 403.003 MHz Krško (SI) 0.00 km UNKNOWN
ME9900676 M20 2022-10-11 06:06:32 45.9363 14.9378 235 ° 41 km/h 1637 m -7.4 m/s 403.002 MHz Trebnje (SI) 0.00 km UNKNOWN
ME9900668 M20 2022-10-10 06:23:04 46.243 14.9568 357 ° 15 km/h 1850 m -10.0 m/s 403.002 MHz Vransko (SI) 0.00 km UNKNOWN
ME9900667 M20 2022-10-09 06:21:00 46.1261 15.2093 280 ° 19 km/h 836 m -6.2 m/s 403.002 MHz Laško (SI) 0.00 km FOUND
ME9900669 M20 2022-10-08 05:54:48 46.2543 14.9891 87 ° 2 km/h 888 m -9.6 m/s 403.002 MHz Tabor (SI) 0.00 km UNKNOWN
ME9900675 M20 2022-10-07 06:10:30 46.2873 14.983 300 ° 15 km/h 1284 m -9.4 m/s 403.003 MHz Braslovče (SI) 0.00 km UNKNOWN
ME9900670 M20 2022-10-06 05:59:35 46.2912 14.4902 220 ° 11 km/h 1883 m -9.8 m/s 403.002 MHz Cerklje na Gorenjskem (SI) 0.00 km UNKNOWN
ME9900671 M20 2022-10-05 06:04:15 45.5623 14.1605 175 ° 15 km/h 2501 m -11.4 m/s 403.002 MHz Ilirska Bistrica (SI) 0.00 km FOUND
ME9900709 M20 2022-10-04 06:30:14 44.7066 15.0441 130 ° 24 km/h 1676 m -4.0 m/s 403.003 MHz Perušić (HR) 0.00 km UNKNOWN
ME9900707 M20 2022-10-03 06:16:22 45.247 15.8074 249 ° 20 km/h 883 m -7.2 m/s 403.002 MHz Velika Kladuša (BA) 0.00 km UNKNOWN
ME9900708 M20 2022-10-02 06:25:19 44.8722 16.945 154 ° 17 km/h 1504 m -3.4 m/s 403.003 MHz Prijedor (BA) 0.00 km UNKNOWN
ME9900713 M20 2022-10-01 06:00:30 46.5777 15.6082 108 ° 2 km/h 435 m -8.7 m/s 403.002 MHz Maribor (SI) 0.00 km FOUND
ME9900714 M20 2022-09-30 05:31:58 46.3708 15.0074 71 ° 13 km/h 1306 m -10.4 m/s 403.002 MHz Šoštanj (SI) 0.00 km UNKNOWN
ME9900718 M20 2022-09-29 06:27:30 46.542 15.7642 218 ° 9 km/h 446 m -10.9 m/s 403.003 MHz Spodnji Duplek (SI) 0.00 km NEED ATTENTION
ME9900715 M20 2022-09-28 06:19:14 46.2807 16.1539 267 ° 4 km/h 287 m -5.6 m/s 403.003 MHz Maruševec (HR) 0.00 km FOUND
ME9900711 M20 2022-09-27 06:03:16 46.2599 15.5373 45 ° 35 km/h 1202 m -6.1 m/s 403.002 MHz Šmarje (SI) 0.00 km UNKNOWN
ME9900712 M20 2022-09-26 05:53:24 46.4453 16.0917 180 ° 7 km/h 393 m -8.9 m/s 403.002 MHz Tomaž pri Ormožu (SI) 0.00 km FOUND
ME9900710 M20 2022-09-25 07:26:54 46.8974 16.9925 71 ° 31 km/h 960 m -1.7 m/s 403.002 MHz Zalaszentgrót (HU) 0.00 km FOUND
ME9900697 M20 2022-09-24 07:05:24 45.896 16.5866 1 ° 17 km/h 221 m -3.3 m/s 403.004 MHz Farkaševac (HR) 0.00 km UNKNOWN
ME9900698 M20 2022-09-23 06:36:56 44.8264 14.467 202 ° 7 km/h 1149 m -3.6 m/s 403.003 MHz Cres (HR) 0.00 km LOST
ME9900699 M20 2022-09-22 05:40:12 45.3352 14.8794 155 ° 43 km/h 5301 m -2.2 m/s 403.003 MHz Mrkopalj (HR) 0.00 km UNKNOWN
ME9900700 M20 2022-09-21 05:56:54 45.393 15.2184 226 ° 39 km/h 1532 m -8.6 m/s 403.003 MHz Bosiljevo (HR) 0.00 km UNKNOWN
ME9900701 M20 2022-09-20 06:20:05 44.9889 16.172 259 ° 11 km/h 1282 m -2.7 m/s 403.003 MHz Bosanska Krupa (BA) 0.00 km UNKNOWN
ME9900702 M20 2022-09-19 05:50:44 45.8193 15.9055 270 ° 20 km/h 557 m -11.2 m/s 403.002 MHz Zagreb (HR) 0.00 km UNKNOWN
ME9900703 M20 2022-09-18 06:04:57 45.6035 16.0707 78 ° 22 km/h 395 m -9.8 m/s 403.002 MHz Kravarsko (HR) 0.00 km UNKNOWN
ME9900704 M20 2022-09-17 06:24:46 46.5873 16.1667 64 ° 6 km/h 245 m -9.3 m/s 403.003 MHz Veržej (SI) 0.00 km FOUND
ME9900706 M20 2022-09-16 06:29:59 46.2295 15.8894 262 ° 39 km/h 909 m -13.7 m/s 403.002 MHz Gornje Jesenje (HR) 0.00 km UNKNOWN
ME9900705 M20 2022-09-15 07:28:32 46.5712 18.6618 89 ° 30 km/h 724 m -2.6 m/s 403.002 MHz Nagydorog (HU) 0.00 km LOST
ME9900688 M20 2022-09-14 07:42:57 45.6239 17.1827 34 ° 30 km/h 392 m -1.9 m/s 403.004 MHz Končanica (HR) 0.00 km FOUND
ME9900687 M20 2022-09-13 06:40:52 45.0899 15.2081 128 ° 31 km/h 2420 m -2.7 m/s 403.003 MHz Brinje (HR) 0.00 km UNKNOWN
ME9900689 M20 2022-09-12 06:03:55 45.4622 15.135 228 ° 26 km/h 1569 m -10.6 m/s 403.002 MHz Vrbovsko (HR) 0.00 km FOUND
ME9900695 M20 2022-09-11 06:50:25 45.8652 16.7887 31 ° 6 km/h 181 m -3.3 m/s 403.000 MHz Bjelovar (HR) 0.00 km FOUND
ME9900696 M20 2022-09-10 06:20:30 46.2597 15.8351 169 ° 9 km/h 610 m -10.9 m/s 403.002 MHz Žetale (SI) 0.00 km UNKNOWN
ME9900694 M20 2022-09-09 06:53:03 46.3953 16.7806 196 ° 6 km/h 275 m -3.4 m/s 403.002 MHz Kotoriba (HR) 0.00 km FOUND
ME9900691 M20 2022-09-09 06:42:58 46.3628 15.9932 301 ° 2 km/h 521 m -8.9 m/s 403.202 MHz Cirkulane (SI) 0.00 km FOUND
ME9900690 M20 2022-09-08 06:16:42 46.2611 15.5459 63 ° 37 km/h 1061 m -7.6 m/s 403.002 MHz Šmarje (SI) 0.00 km FOUND
ME9900693 M20 2022-09-07 06:09:05 45.9158 15.3218 85 ° 13 km/h 891 m -11.0 m/s 403.002 MHz Škocjan (SI) 0.00 km UNKNOWN
ME9900692 M20 2022-09-06 06:17:45 45.7574 15.3016 67 ° 19 km/h 1517 m -7.6 m/s 403.002 MHz Šentjernej (SI) 0.00 km UNKNOWN
ME9900612 M20 2022-09-05 06:12:18 45.8938 15.1585 9 ° 4 km/h 1601 m -9.4 m/s 403.001 MHz Mokronog (SI) 0.00 km FOUND
ME9900611 M20 2022-09-04 06:05:11 45.9797 15.3325 98 ° 20 km/h 1512 m -11.2 m/s 403.002 MHz Sevnica (SI) 0.00 km UNKNOWN
ME9900605 M20 2022-09-03 06:19:54 46.0457 15.3628 1 ° 15 km/h 1288 m -12.1 m/s 403.002 MHz Sevnica (SI) 0.00 km FOUND
ME9900616 M20 2022-09-02 06:06:03 46.0183 15.1408 241 ° 35 km/h 1339 m -8.4 m/s 403.002 MHz Šentrupert (SI) 0.00 km FOUND
ME9900615 M20 2022-09-01 05:48:09 46.1045 14.9706 231 ° 43 km/h 1661 m -11.3 m/s 403.002 MHz Zagorje (SI) 0.00 km FOUND
ME9900619 M20 2022-08-31 06:07:00 46.2359 14.8789 241 ° 19 km/h 1204 m -5.4 m/s 403.001 MHz Vransko (SI) 0.00 km UNKNOWN
ME9900603 M20 2022-08-30 05:54:16 45.962 14.8028 185 ° 13 km/h 2243 m -11.1 m/s 403.000 MHz Ivančna Gorica (SI) 0.00 km FOUND
ME9900597 M20 2022-08-29 05:49:55 46.1049 14.6953 193 ° 19 km/h 2066 m -8.9 m/s 403.000 MHz Moravče (SI) 0.00 km FOUND
ME9900614 M20 2022-08-28 06:02:02 46.3287 14.8208 68 ° 22 km/h 2075 m -10.4 m/s 403.000 MHz Ljubno (SI) 0.00 km UNKNOWN
ME9900617 M20 2022-08-27 06:13:54 46.188 14.6041 316 ° 15 km/h 2195 m -9.5 m/s 403.000 MHz Mengeš (SI) 0.00 km FOUND
ME9900593 M20 2022-08-26 06:19:07 46.1299 14.4623 278 ° 26 km/h 2357 m -10.5 m/s 403.000 MHz Medvode (SI) 0.00 km FOUND
ME9900598 M20 2022-08-25 06:17:35 45.9937 14.2592 244 ° 20 km/h 2947 m -10.2 m/s 403.000 MHz Vrhnika (SI) 0.00 km UNKNOWN
ME9900599 M20 2022-08-24 05:50:58 45.9254 14.2025 249 ° 26 km/h 3004 m -10.0 m/s 403.000 MHz Logatec (SI) 0.00 km NEED ATTENTION
ME9900606 M20 2022-08-23 05:48:44 45.7888 14.3163 243 ° 30 km/h 2138 m -11.3 m/s 403.000 MHz Cerknica (SI) 0.00 km FOUND
ME9900604 M20 2022-08-22 05:57:55 45.8622 14.3847 185 ° 37 km/h 2063 m -7.5 m/s 403.000 MHz Borovnica (SI) 0.00 km FOUND
ME9900602 M20 2022-08-21 06:06:33 45.8592 14.6618 166 ° 26 km/h 2158 m -9.7 m/s 403.000 MHz Videm (SI) 0.00 km UNKNOWN
ME9900596 M20 2022-08-20 06:23:07 46.0882 14.5311 170 ° 9 km/h 1708 m -10.9 m/s 403.003 MHz Ljubljana (SI) 0.00 km UNKNOWN
ME9900608 M20 2022-08-19 05:53:19 46.776 14.5785 75 ° 19 km/h 1559 m -12.3 m/s 403.002 MHz Brückl (AT) 0.00 km UNKNOWN
ME9900607 M20 2022-08-18 06:08:55 46.3889 15.3718 85 ° 30 km/h 1375 m -10.6 m/s 403.001 MHz Zreče (SI) 0.00 km NEED ATTENTION
ME9900613 M20 2022-08-17 05:30:03 46.0389 14.7898 68 ° 11 km/h 2115 m -7.6 m/s 403.002 MHz Litija (SI) 0.00 km FOUND
ME9900577 M20 2022-08-16 05:58:38 46.152 14.7754 353 ° 9 km/h 1897 m -12.3 m/s 403.002 MHz Moravče (SI) 0.00 km FOUND
ME9900579 M20 2022-08-15 05:55:22 46.1329 14.8294 99 ° 43 km/h 1670 m -10.3 m/s 403.002 MHz Moravče (SI) 0.00 km FOUND
ME9900578 M20 2022-08-14 06:24:06 45.7158 14.4866 227 ° 11 km/h 2919 m -12.9 m/s 403.002 MHz Stari Trg (SI) 0.00 km FOUND
ME9900581 M20 2022-08-13 05:48:20 46.0465 14.2811 233 ° 35 km/h 2815 m -10.7 m/s 403.002 MHz Horjul (SI) 0.00 km FOUND
ME9900584 M20 2022-08-12 05:48:39 45.9772 14.614 284 ° 24 km/h 1896 m -12.1 m/s 403.001 MHz Škofljica (SI) 0.00 km FOUND
ME9900588 M20 2022-08-11 05:59:03 45.8799 14.4099 259 ° 30 km/h 2206 m -13.2 m/s 403.002 MHz Borovnica (SI) 0.00 km UNKNOWN
ME9900586 M20 2022-08-10 05:41:19 45.9122 14.6141 264 ° 26 km/h 2353 m -10.2 m/s 403.001 MHz Grosuplje (SI) 0.00 km FOUND
ME9900583 M20 2022-08-09 05:56:01 46.0149 14.6129 247 ° 31 km/h 1599 m -12.6 m/s 403.002 MHz Škofljica (SI) 0.00 km UNKNOWN
ME9900582 M20 2022-08-08 05:55:30 46.3148 14.839 330 ° 24 km/h 2198 m -13.5 m/s 403.002 MHz Gornji Grad (SI) 0.00 km UNKNOWN
ME9900585 M20 2022-08-07 05:53:23 46.288 14.894 269 ° 33 km/h 1826 m -8.9 m/s 403.002 MHz Rečica (SI) 0.00 km UNKNOWN
ME9900587 M20 2022-08-06 06:30:07 46.2488 14.773 267 ° 19 km/h 1969 m -12.7 m/s 403.003 MHz Gornji Grad (SI) 0.00 km UNKNOWN
ME9900592 M20 2022-08-05 05:55:25 46.1562 14.6627 108 ° 17 km/h 1808 m -12.8 m/s 403.001 MHz Lukovica (SI) 0.00 km FOUND
ME9900590 M20 2022-08-04 05:37:52 45.8504 14.4463 168 ° 6 km/h 2559 m -10.4 m/s 403.001 MHz Cerknica (SI) 0.00 km FOUND
ME9900589 M20 2022-08-03 05:58:26 45.6113 14.2277 285 ° 19 km/h 2202 m -11.9 m/s 403.002 MHz Ilirska Bistrica (SI) 0.00 km FOUND
ME9900594 M20 2022-08-02 05:41:37 46.0447 14.8881 119 ° 6 km/h 2177 m -11.2 m/s 403.002 MHz Litija (SI) 0.00 km FOUND
ME9900600 M20 2022-08-01 05:46:47 45.7569 15.251 124 ° 6 km/h 1446 m -9.0 m/s 403.002 MHz Novo Mesto (SI) 0.00 km FOUND
ME9900601 M20 2022-07-31 05:50:31 45.5446 15.3688 156 ° 26 km/h 1321 m -12.9 m/s 403.002 MHz Ribnik (HR) 0.00 km FOUND
ME9900591 M20 2022-07-30 05:49:17 46.286 15.1912 282 ° 11 km/h 989 m -11.4 m/s 403.003 MHz Žalec (SI) 0.00 km FOUND
ME9900595 M20 2022-07-29 06:08:17 46.2453 15.2073 125 ° 11 km/h 647 m -11.2 m/s 403.003 MHz Žalec (SI) 0.00 km FOUND
ME9900574 M20 2022-07-28 05:48:30 45.9258 14.9709 296 ° 28 km/h 1610 m -8.4 m/s 403.002 MHz Trebnje (SI) 0.00 km FOUND
ME9900573 M20 2022-07-27 05:53:45 46.2587 15.1281 234 ° 6 km/h 753 m -9.8 m/s 403.002 MHz Žalec (SI) 0.00 km FOUND
ME9900572 M20 2022-07-26 05:47:45 46.2612 15.5044 225 ° 13 km/h 891 m -10.2 m/s 403.002 MHz Šmarje (SI) 0.00 km FOUND
ME9900576 M20 2022-07-25 06:00:45 45.7413 14.8866 325 ° 28 km/h 1515 m -8.2 m/s 403.001 MHz Žužemberk (SI) 0.00 km UNKNOWN
ME9900571 M20 2022-07-24 06:14:48 45.854 15.1889 267 ° 11 km/h 1271 m -10.6 m/s 403.002 MHz Šmarješke Toplice (SI) 0.00 km FOUND
ME9900569 M20 2022-07-23 06:03:01 46.2479 15.3289 64 ° 19 km/h 585 m -11.0 m/s 403.002 MHz Štore (SI) 0.00 km FOUND
ME9900568 M20 2022-07-22 05:53:47 45.9163 14.8416 336 ° 15 km/h 1972 m -10.0 m/s 403.002 MHz Ivančna Gorica (SI) 0.00 km FOUND
ME9900570 M20 2022-07-21 05:53:31 46.051 14.6493 268 ° 11 km/h 1794 m -10.8 m/s 403.001 MHz Dol (SI) 0.00 km FOUND
ME9900566 M20 2022-07-20 05:53:11 45.8442 14.4389 257 ° 15 km/h 2840 m -7.7 m/s 403.002 MHz Cerknica (SI) 0.00 km UNKNOWN
ME9900621 M20 2022-07-19 06:09:17 45.5288 14.2614 213 ° 19 km/h 2604 m -11.4 m/s 403.001 MHz Ilirska Bistrica (SI) 0.00 km UNKNOWN
ME9900620 M20 2022-07-18 06:06:35 45.6773 14.9739 285 ° 26 km/h 1418 m -9.9 m/s 403.002 MHz Kočevje (SI) 0.00 km UNKNOWN
ME9900618 M20 2022-07-17 06:05:10 45.6871 15.2268 291 ° 30 km/h 1688 m -8.8 m/s 403.002 MHz Semič (SI) 0.00 km FOUND
ME9900610 M20 2022-07-16 06:07:30 45.7596 15.377 330 ° 19 km/h 1307 m -8.9 m/s 403.000 MHz Žumberak (HR) 0.00 km UNKNOWN
ME9900624 M20 2022-07-15 06:28:31 45.8571 15.4854 265 ° 39 km/h 1071 m -10.2 m/s 403.004 MHz Kostanjevica na Krki (SI) 0.00 km UNKNOWN
ME9900609 M20 2022-07-14 06:01:22 45.8895 15.2451 68 ° 13 km/h 1155 m -11.1 m/s 403.000 MHz Šmarješke Toplice (SI) 0.00 km FOUND
ME9900575 M20 2022-07-13 06:00:01 45.2476 14.3808 197 ° 37 km/h 1544 m -11.8 m/s 403.004 MHz Lovran (HR) 0.00 km LOST
ME9900625 M20 2022-07-12 05:55:25 45.3767 15.1864 263 ° 9 km/h 1536 m -9.9 m/s 403.004 MHz Vrbovsko (HR) 0.00 km UNKNOWN
ME9900622 M20 2022-07-11 05:17:14 45.7295 14.8223 320 ° 19 km/h 1525 m -10.6 m/s 403.004 MHz Kočevje (SI) 0.00 km NEED ATTENTION
ME9900626 M20 2022-07-10 06:02:18 45.3538 14.8977 260 ° 9 km/h 1512 m -12.3 m/s 403.004 MHz Ravna Gora (HR) 0.00 km FOUND
ME9900623 M20 2022-07-09 05:56:57 45.3239 14.764 224 ° 56 km/h 1655 m -9.9 m/s 403.004 MHz Lokve (HR) 0.00 km FOUND
ME9900631 M20 2022-07-08 06:05:58 45.2541 14.3486 205 ° 78 km/h 1927 m -10.4 m/s 403.000 MHz Lovran (HR) 0.00 km LOST
ME9900627 M20 2022-07-07 06:59:00 46.0168 15.7374 57 ° 19 km/h 377 m -9.0 m/s 403.000 MHz Klanjec (HR) 0.00 km UNKNOWN
ME9900629 M20 2022-07-07 06:38:55 46.0251 15.3028 65 ° 19 km/h 1594 m -10.6 m/s 403.203 MHz Sevnica (SI) 0.00 km UNKNOWN
ME9900630 M20 2022-07-06 05:59:12 45.999 15.2593 191 ° 19 km/h 1416 m -12.2 m/s 403.004 MHz Sevnica (SI) 0.00 km FOUND
ME9900628 M20 2022-07-05 05:57:01 46.1882 15.0847 171 ° 19 km/h 1145 m -10.2 m/s 403.004 MHz Trbovlje (SI) 0.00 km FOUND
ME9900638 M20 2022-07-04 05:58:55 46.151 15.0022 334 ° 28 km/h 1567 m -12.2 m/s 403.000 MHz Zagorje (SI) 0.00 km FOUND
ME9900633 M20 2022-07-03 05:44:50 46.2992 14.8887 265 ° 6 km/h 1701 m -10.6 m/s 403.004 MHz Rečica (SI) 0.00 km UNKNOWN
ME9900632 M20 2022-07-02 06:06:09 45.8875 14.9128 309 ° 17 km/h 1970 m -12.1 m/s 403.000 MHz Žužemberk (SI) 0.00 km FOUND
ME9900634 M20 2022-07-01 05:53:34 46.3403 14.9546 95 ° 19 km/h 1588 m -12.3 m/s 403.004 MHz Mozirje (SI) 0.00 km UNKNOWN
ME9900641 M20 2022-06-30 06:01:38 46.119 14.8074 313 ° 9 km/h 2062 m -11.8 m/s 403.000 MHz Moravče (SI) 0.00 km FOUND
ME9900639 M20 2022-06-29 06:10:39 46.5747 14.4797 307 ° 39 km/h 1597 m -9.4 m/s 403.000 MHz Grafenstein (AT) 0.00 km UNKNOWN
ME9900642 M20 2022-06-28 06:02:23 46.2044 15.1169 236 ° 22 km/h 935 m -9.5 m/s 403.000 MHz Prebold (SI) 0.00 km UNKNOWN
ME9900635 M20 2022-06-27 06:05:45 46.0315 15.2787 74 ° 33 km/h 1429 m -11.4 m/s 403.000 MHz Sevnica (SI) 0.00 km UNKNOWN
ME9900636 M20 2022-06-26 06:09:41 46.0178 15.1688 124 ° 22 km/h 1589 m -12.7 m/s 403.000 MHz Radeče (SI) 0.00 km FOUND
ME9900644 M20 2022-06-25 06:04:38 46.1386 15.6171 287 ° 4 km/h 440 m -10.1 m/s 403.000 MHz Podčetrtek (SI) 0.00 km UNKNOWN
ME9900646 M20 2022-06-24 06:12:04 45.9485 15.4552 326 ° 11 km/h 786 m -10.7 m/s 403.000 MHz Krško (SI) 0.00 km UNKNOWN
ME9900643 M20 2022-06-23 05:55:17 45.7451 15.5202 219 ° 11 km/h 777 m -10.8 m/s 403.000 MHz Žumberak (HR) 0.00 km UNKNOWN
ME9900645 M20 2022-06-22 05:56:36 45.8309 15.6102 201 ° 6 km/h 660 m -7.5 m/s 403.000 MHz Brežice (SI) 0.00 km UNKNOWN
ME9900640 M20 2022-06-21 06:04:35 45.9042 15.7041 136 ° 6 km/h 348 m -11.6 m/s 403.000 MHz Marija Gorica (HR) 0.00 km UNKNOWN
ME9900651 M20 2022-06-20 06:09:00 46.0715 14.9909 100 ° 35 km/h 1752 m -13.2 m/s 403.000 MHz Zagorje (SI) 0.00 km FOUND
ME9900649 M20 2022-06-19 06:02:05 46.037 14.6221 320 ° 7 km/h 2547 m -8.3 m/s 403.000 MHz Dol (SI) 0.00 km FOUND
ME9900648 M20 2022-06-18 05:57:53 45.4549 14.2973 182 ° 46 km/h 1942 m -11.3 m/s 403.000 MHz Klana (HR) 0.00 km FOUND
ME9900647 M20 2022-06-17 05:45:15 45.5596 15.0256 179 ° 44 km/h 2539 m -12.7 m/s 403.000 MHz Kostel (SI) 0.00 km FOUND
ME9900656 M20 2022-06-16 05:59:20 45.71 14.8021 152 ° 31 km/h 3042 m -10.2 m/s 403.004 MHz Kočevje (SI) 0.00 km UNKNOWN
ME9900655 M20 2022-06-15 05:52:13 45.83 15.0427 84 ° 11 km/h 1823 m -6.9 m/s 403.000 MHz Mirna Peč (SI) 0.00 km FOUND
ME9900653 M20 2022-06-14 06:01:59 45.7102 14.9651 278 ° 30 km/h 1664 m -11.0 m/s 403.000 MHz Dolenjske Toplice (SI) 0.00 km UNKNOWN
ME9900654 M20 2022-06-13 05:10:32 45.9911 14.7055 121 ° 44 km/h 9860 m 4.8 m/s 403.004 MHz Grosuplje (SI) 0.00 km UNKNOWN
ME9900650 M20 2022-06-12 06:07:34 45.6129 14.5103 224 ° 37 km/h 1590 m -11.6 m/s 403.000 MHz Čabar (HR) 0.00 km UNKNOWN
ME9900652 M20 2022-06-11 06:21:05 45.5186 14.397 239 ° 63 km/h 1278 m -13.7 m/s 403.000 MHz Klana (HR) 0.00 km UNKNOWN
ME9900657 M20 2022-06-10 06:01:53 45.8405 14.237 211 ° 63 km/h 1579 m -10.5 m/s 403.000 MHz Postojna (SI) 0.00 km FOUND
ME9900658 M20 2022-06-09 05:45:47 46.1085 14.5207 242 ° 26 km/h 2512 m -10.7 m/s 403.000 MHz Trzin (SI) 0.00 km FOUND
ME9900659 M20 2022-06-08 06:00:12 46.132 14.4804 233 ° 37 km/h 2369 m -7.4 m/s 403.003 MHz Medvode (SI) 0.00 km UNKNOWN
ME9900660 M20 2022-06-07 06:22:34 46.2072 14.8546 294 ° 15 km/h 1439 m -10.1 m/s 403.003 MHz Vransko (SI) 0.00 km UNKNOWN
ME9900666 M20 2022-06-06 06:00:47 45.7285 15.1111 226 ° 31 km/h 1321 m -11.4 m/s 403.003 MHz Dolenjske Toplice (SI) 0.00 km FOUND
ME9900664 M20 2022-06-05 05:55:52 45.923 15.432 321 ° 13 km/h 760 m -10.0 m/s 403.003 MHz Krško (SI) 0.00 km FOUND
ME9900665 M20 2022-06-04 06:17:58 45.8483 15.4369 117 ° 44 km/h 1079 m -11.6 m/s 403.003 MHz Kostanjevica na Krki (SI) 0.00 km FOUND
ME9900663 M20 2022-06-03 06:07:14 45.8153 15.4723 320 ° 7 km/h 1084 m -11.7 m/s 403.003 MHz Kostanjevica na Krki (SI) 0.00 km UNKNOWN
ME9900661 M20 2022-06-02 05:55:18 45.9962 15.6887 187 ° 13 km/h 354 m -7.8 m/s 403.003 MHz Kraljevec na Sutli (HR) 0.00 km UNKNOWN
ME9900662 M20 2022-06-01 05:48:18 45.8888 15.7236 191 ° 6 km/h 335 m -8.0 m/s 403.003 MHz Marija Gorica (HR) 0.00 km UNKNOWN
ME9700266 M20 2022-05-31 06:01:30 46.2192 15.4743 20 ° 15 km/h 1322 m -11.6 m/s 403.000 MHz Šmarje (SI) 0.00 km FOUND
ME9700265 M20 2022-05-30 06:00:30 46.4039 15.6397 233 ° 13 km/h 476 m -10.9 m/s 403.003 MHz Slovenska Bistrica (SI) 0.00 km FOUND
ME9700271 M20 2022-05-29 06:00:38 46.3073 15.1246 303 ° 43 km/h 1601 m -11.9 m/s 403.003 MHz Polzela (SI) 0.00 km UNKNOWN
ME9700270 M20 2022-05-28 06:05:14 46.1084 15.37 270 ° 35 km/h 1039 m -11.4 m/s 403.003 MHz Dobje (SI) 0.00 km FOUND
ME9700272 M20 2022-05-27 06:09:32 46.0628 15.1177 321 ° 6 km/h 1356 m -9.1 m/s 403.202 MHz Radeče (SI) 0.00 km FOUND
ME9700273 M20 2022-05-26 06:03:18 45.978 14.9613 66 ° 20 km/h 1999 m -10.3 m/s 403.003 MHz Mirna (SI) 0.00 km FOUND
ME9700262 M20 2022-05-25 05:59:17 46.4093 15.4459 85 ° 7 km/h 1120 m -8.7 m/s 403.003 MHz Oplotnica (SI) 0.00 km FOUND
ME9700275 M20 2022-05-24 06:05:15 46.1236 15.4014 71 ° 19 km/h 926 m -7.3 m/s 403.003 MHz Dobje (SI) 0.00 km FOUND
ME9700277 M20 2022-05-23 06:01:48 45.5918 15.229 358 ° 9 km/h 1503 m -10.5 m/s 403.003 MHz Črnomelj (SI) 0.00 km FOUND
ME9700260 M20 2022-05-22 05:45:11 45.7531 15.1114 290 ° 31 km/h 1578 m -11.7 m/s 403.003 MHz Dolenjske Toplice (SI) 0.00 km FOUND
ME9700261 M20 2022-05-21 06:25:52 45.8292 15.1647 294 ° 7 km/h 1532 m -12.5 m/s 403.003 MHz Novo Mesto (SI) 0.00 km FOUND
ME9700257 M20 2022-05-20 06:28:40 45.8439 14.8027 153 ° 31 km/h 4830 m -12.9 m/s 403.203 MHz Videm (SI) 0.00 km FOUND
ME9700259 M20 2022-05-20 05:47:06 45.9001 14.8034 196 ° 11 km/h 2127 m -7.9 m/s 403.003 MHz Ivančna Gorica (SI) 0.00 km FOUND
ME9700258 M20 2022-05-19 06:07:22 45.5496 14.4433 17 ° 11 km/h 1680 m -11.3 m/s 403.000 MHz Klana (HR) 0.00 km UNKNOWN
ME9700263 M20 2022-05-18 05:41:07 45.5179 14.801 203 ° 56 km/h 2366 m -12.5 m/s 403.003 MHz Osilnica (SI) 0.00 km UNKNOWN
ME9700264 M20 2022-05-17 05:58:54 45.9769 14.8676 183 ° 37 km/h 1806 m -6.5 m/s 403.003 MHz Ivančna Gorica (SI) 0.00 km FOUND
ME9700268 M20 2022-05-16 05:46:29 45.8612 14.8427 72 ° 22 km/h 2590 m -12.0 m/s 403.003 MHz Žužemberk (SI) 0.00 km UNKNOWN
ME9700269 M20 2022-05-15 06:21:44 45.7544 14.9362 349 ° 11 km/h 1729 m -12.1 m/s 403.003 MHz Žužemberk (SI) 0.00 km UNKNOWN
ME9700267 M20 2022-05-14 05:52:46 45.9824 15.0316 175 ° 19 km/h 2102 m -7.3 m/s 403.003 MHz Mirna (SI) 0.00 km FOUND
ME9700251 M20 2022-05-13 06:00:30 45.9838 15.2152 241 ° 26 km/h 1463 m -9.5 m/s 403.003 MHz Sevnica (SI) 0.00 km FOUND
ME9700250 M20 2022-05-12 05:46:49 45.9928 14.8476 184 ° 6 km/h 2075 m -8.3 m/s 403.003 MHz Ivančna Gorica (SI) 0.00 km FOUND
ME9700248 M20 2022-05-11 05:55:54 45.733 14.2999 78 ° 20 km/h 1200 m -12.9 m/s 403.003 MHz Postojna (SI) 0.00 km NEED ATTENTION
ME9700249 M20 2022-05-10 06:03:23 45.7075 14.3717 284 ° 19 km/h 1284 m -8.5 m/s 403.003 MHz Stari Trg (SI) 0.00 km NEED ATTENTION
ME9700247 M20 2022-05-09 05:46:48 46.0013 14.2775 268 ° 35 km/h 1624 m -7.7 m/s 403.000 MHz Horjul (SI) 0.00 km FOUND
ME9700252 M20 2022-05-08 05:52:51 46.0596 14.1135 275 ° 52 km/h 2040 m -7.6 m/s 403.003 MHz Žiri (SI) 0.00 km FOUND
ME9700253 M20 2022-05-07 05:53:07 46.1567 14.3661 279 ° 22 km/h 1266 m -9.9 m/s 403.003 MHz Škofja Loka (SI) 0.00 km FOUND
ME9700244 M20 2022-05-06 05:39:29 46.2783 14.6901 333 ° 26 km/h 2143 m -9.9 m/s 403.003 MHz Kamnik (SI) 0.00 km UNKNOWN
ME9700254 M20 2022-05-05 06:05:00 46.0454 15.2195 88 ° 17 km/h 1323 m -8.8 m/s 403.003 MHz Radeče (SI) 0.00 km FOUND
ME9700256 M20 2022-05-04 05:58:36 46.0333 14.7918 101 ° 11 km/h 2057 m -10.5 m/s 403.003 MHz Litija (SI) 0.00 km FOUND
ME9700255 M20 2022-05-03 05:59:37 46.0187 14.5566 253 ° 17 km/h 1603 m -7.7 m/s 403.003 MHz Škofljica (SI) 0.00 km FOUND
ME9700241 M20 2022-05-02 05:50:29 46.2246 14.4206 262 ° 31 km/h 1663 m -7.4 m/s 403.003 MHz Šenčur (SI) 0.00 km FOUND
ME9700239 M20 2022-05-01 06:05:13 46.3135 14.6738 299 ° 39 km/h 2878 m -13.2 m/s 403.003 MHz Luče (SI) 0.00 km UNKNOWN
ME9700240 M20 2022-04-30 06:14:25 45.9837 14.833 241 ° 22 km/h 2710 m -6.6 m/s 403.003 MHz Ivančna Gorica (SI) 0.00 km FOUND
ME9700237 M20 2022-04-29 06:09:53 45.7133 14.5612 239 ° 48 km/h 2082 m -11.7 m/s 403.003 MHz Hrib-Loški Potok (SI) 0.00 km UNKNOWN
ME9700238 M20 2022-04-28 06:02:15 45.7887 14.7914 187 ° 30 km/h 2621 m -11.9 m/s 403.003 MHz Videm (SI) 0.00 km FOUND
ME9700243 M20 2022-04-27 05:46:42 46.2023 15.3537 234 ° 9 km/h 696 m -9.6 m/s 403.003 MHz Štore (SI) 0.00 km UNKNOWN
ME9700246 M20 2022-04-26 06:05:24 46.0445 15.0409 74 ° 19 km/h 1827 m -10.0 m/s 403.003 MHz Šentrupert (SI) 0.00 km UNKNOWN
ME9700242 M20 2022-04-25 06:19:31 46.0321 15.1505 90 ° 30 km/h 1352 m -11.2 m/s 403.003 MHz Radeče (SI) 0.00 km FOUND
ME9700245 M20 2022-04-24 05:57:56 46.8528 15.3949 74 ° 11 km/h 458 m -9.6 m/s 403.003 MHz Sankt Nikolai im Sausal (AT) 0.00 km FOUND
ME9700230 M20 2022-04-23 06:15:38 46.0944 15.2421 53 ° 17 km/h 1582 m -10.2 m/s 403.003 MHz Radeče (SI) 0.00 km FOUND
ME9700232 M20 2022-04-22 06:03:46 46.4046 14.2679 292 ° 28 km/h 2086 m -10.6 m/s 403.003 MHz Tržič (SI) 0.00 km UNKNOWN
ME9700228 M20 2022-04-21 06:11:20 46.1747 15.2666 42 ° 30 km/h 1965 m -7.5 m/s 403.003 MHz Laško (SI) 0.00 km UNKNOWN
ME9700229 M20 2022-04-20 06:06:30 45.4953 15.0388 164 ° 24 km/h 2319 m -12.3 m/s 403.003 MHz Brod Moravice (HR) 0.00 km FOUND
ME9700226 M20 2022-04-19 05:38:40 45.323 15.0004 104 ° 37 km/h 1574 m -11.6 m/s 403.003 MHz Ravna Gora (HR) 0.00 km UNKNOWN
ME9700231 M20 2022-04-18 05:47:23 45.4899 14.3839 221 ° 48 km/h 2082 m -9.2 m/s 403.003 MHz Klana (HR) 0.00 km UNKNOWN
ME9700233 M20 2022-04-17 05:58:16 45.5641 13.7883 225 ° 41 km/h 657 m -8.0 m/s 403.000 MHz Ankaran (SI) 0.00 km FOUND
ME9700234 M20 2022-04-16 05:55:09 45.562 15.305 197 ° 28 km/h 2277 m -11.1 m/s 403.003 MHz Ribnik (HR) 0.00 km FOUND
ME9700235 M20 2022-04-15 06:10:36 45.8797 14.987 151 ° 6 km/h 2224 m -11.0 m/s 403.003 MHz Trebnje (SI) 0.00 km FOUND
ME9700236 M20 2022-04-14 06:15:00 45.9785 14.664 350 ° 9 km/h 2816 m -11.2 m/s 403.003 MHz Grosuplje (SI) 0.00 km FOUND
ME8A01067 M20 2022-04-13 05:58:52 45.9248 14.7113 294 ° 13 km/h 2922 m -7.5 m/s 403.003 MHz Grosuplje (SI) 0.00 km FOUND
ME8A01070 M20 2022-04-12 05:54:30 45.67 15.2625 57 ° 13 km/h 1986 m -8.0 m/s 403.000 MHz Metlika (SI) 0.00 km FOUND
ME8A01069 M20 2022-04-11 06:09:30 45.3033 15.8783 48 ° 2 km/h 1109 m -10.1 m/s 403.003 MHz Gvozd (HR) 0.00 km UNKNOWN
ME8A01066 M20 2022-04-10 05:44:57 45.8405 15.0625 208 ° 44 km/h 2434 m -8.7 m/s 403.003 MHz Mirna Peč (SI) 0.00 km FOUND
ME8A01097 M20 2022-04-09 06:07:00 46.4336 16.3892 353 ° 4 km/h 260 m -8.8 m/s 403.003 MHz Lopatinec (HR) 0.00 km FOUND
ME8A01065 M20 2022-04-08 06:16:12 45.7189 16.4299 23 ° 11 km/h 301 m -8.7 m/s 403.003 MHz Kloštar Ivanić (HR) 0.00 km FOUND
ME8A01063 M20 2022-04-07 05:51:36 45.9524 14.9421 219 ° 37 km/h 2459 m -5.8 m/s 403.003 MHz Trebnje (SI) 0.00 km FOUND
ME8A01064 M20 2022-04-06 05:33:56 46.0362 15.3883 41 ° 13 km/h 1080 m -10.2 m/s 403.003 MHz Sevnica (SI) 0.00 km UNKNOWN
ME8A01100 M20 2022-04-05 05:46:30 45.7798 15.3136 92 ° 56 km/h 1468 m -12.5 m/s 403.003 MHz Šentjernej (SI) 0.00 km FOUND
ME8A01098 M20 2022-04-04 06:07:30 45.9615 15.1792 358 ° 19 km/h 1694 m -2.9 m/s 403.003 MHz Mokronog (SI) 0.00 km UNKNOWN
ME8A01060 M20 2022-04-03 05:55:18 45.9343 15.0023 219 ° 44 km/h 2236 m -10.7 m/s 403.003 MHz Trebnje (SI) 0.00 km FOUND
ME8A01034 M20 2022-04-02 06:01:30 46.4131 14.7319 45 ° 13 km/h 2019 m -7.4 m/s 403.003 MHz Solčava (SI) 0.00 km UNKNOWN
ME8A01033 M20 2022-04-01 05:53:00 46.5379 15.1514 252 ° 4 km/h 1237 m -6.5 m/s 403.003 MHz Slovenj Gradec (SI) 0.00 km UNKNOWN
ME8A01030 M20 2022-03-30 06:18:00 46.0249 16.334 53 ° 2 km/h 288 m -9.6 m/s 403.000 MHz Bedenica (HR) 0.00 km FOUND
ME8A01028 M20 2022-03-29 05:55:41 45.7928 15.3004 96 ° 43 km/h 1186 m -10.2 m/s 403.000 MHz Šentjernej (SI) 0.00 km UNKNOWN
ME8A01061 M20 2022-03-28 05:40:42 46.0967 14.4288 171 ° 4 km/h 1167 m -6.8 m/s 403.000 MHz Medvode (SI) 0.00 km FOUND
ME8A00797 M20 2022-03-27 06:09:34 45.9506 14.4812 292 ° 28 km/h 1038 m -7.5 m/s 403.000 MHz Ig (SI) 0.00 km UNKNOWN
ME8A01062 M20 2022-03-26 06:34:50 45.8863 14.7293 262 ° 11 km/h 728 m -8.9 m/s 403.003 MHz Videm (SI) 0.00 km FOUND
ME8A01002 M20 2022-03-25 06:32:00 45.9953 14.8749 334 ° 11 km/h 886 m -9.0 m/s 403.003 MHz Litija (SI) 0.00 km FOUND
ME8A01059 M20 2022-03-24 06:21:24 46.0107 14.6372 109 ° 9 km/h 1939 m -10.6 m/s 403.003 MHz Škofljica (SI) 0.00 km UNKNOWN
ME8A01053 M20 2022-03-23 06:16:32 46.1201 14.1718 213 ° 17 km/h 912 m -11.7 m/s 403.003 MHz Gorenja Vas (SI) 0.00 km FOUND
ME8A01056 M20 2022-03-22 06:25:00 46.0581 13.9587 271 ° 30 km/h 1268 m -10.5 m/s 403.003 MHz Cerkno (SI) 0.00 km UNKNOWN
ME8A01047 M20 2022-03-21 06:33:27 46.0493 13.8507 283 ° 35 km/h 1320 m -9.7 m/s 403.003 MHz Cerkno (SI) 0.00 km UNKNOWN
ME8A01052 M20 2022-03-20 06:16:26 45.9956 14.1413 241 ° 22 km/h 866 m -8.6 m/s 403.003 MHz Žiri (SI) 0.00 km FOUND
ME8A01049 M20 2022-03-19 06:13:43 45.7991 14.4095 314 ° 37 km/h 925 m -8.0 m/s 403.003 MHz Cerknica (SI) 0.00 km FOUND
ME8A01050 M20 2022-03-18 06:08:43 45.9075 14.4904 259 ° 37 km/h 984 m -9.7 m/s 403.003 MHz Ig (SI) 0.00 km UNKNOWN
ME8A01055 M20 2022-03-17 06:10:52 45.6702 14.7717 181 ° 69 km/h 4709 m -9.2 m/s 403.003 MHz Kočevje (SI) 0.00 km FOUND
ME8A01018 M20 2022-03-16 06:07:30 45.6173 15.3115 105 ° 63 km/h 1736 m -10.5 m/s 403.003 MHz Žakanje (HR) 0.00 km UNKNOWN
ME8A01057 M20 2022-03-15 06:24:00 45.7946 15.5259 96 ° 11 km/h 1300 m -9.6 m/s 403.003 MHz Žumberak (HR) 0.00 km UNKNOWN
ME8A01054 M20 2022-03-13 05:54:17 46.0542 14.4285 141 ° 6 km/h 449 m -10.8 m/s 403.003 MHz Dobrova (SI) 0.00 km FOUND
ME8A01058 M20 2022-03-11 06:28:39 45.5475 14.646 287 ° 19 km/h 1395 m -6.9 m/s 403.000 MHz Osilnica (SI) 0.00 km FOUND
ME8A01043 M20 2022-03-09 06:28:37 45.6232 14.2193 215 ° 31 km/h 841 m -10.3 m/s 403.006 MHz Pivka (SI) 0.00 km FOUND
ME8A01045 M20 2022-03-07 06:28:11 45.8058 14.2778 246 ° 28 km/h 700 m -10.7 m/s 403.004 MHz Postojna (SI) 0.00 km FOUND
ME8A01044 M20 2022-03-05 06:22:39 45.6781 14.2432 246 ° 41 km/h 1041 m -11.6 m/s 403.004 MHz Pivka (SI) 0.00 km FOUND
ME8A01040 M20 2022-03-03 06:32:01 45.7034 14.6006 272 ° 2 km/h 1134 m -9.6 m/s 403.005 MHz Hrib-Loški Potok (SI) 0.00 km FOUND
ME8A01042 M20 2022-03-02 06:20:42 45.3537 14.3728 271 ° 7 km/h 967 m -9.4 m/s 403.000 MHz Viškovo (HR) 0.00 km UNKNOWN
ME8A01041 M20 2022-03-01 06:24:03 45.5633 13.7909 231 ° 44 km/h 826 m -11.4 m/s 403.000 MHz Ankaran (SI) 0.00 km FOUND
ME8A01039 M20 2022-02-28 05:45:00 45.3956 13.9461 190 ° 24 km/h 1792 m -8.8 m/s 403.006 MHz Buzet (HR) 0.00 km UNKNOWN
ME8A01048 M20 2022-02-27 05:55:45 45.8811 14.1706 253 ° 61 km/h 1081 m -7.3 m/s 403.000 MHz Logatec (SI) 0.00 km FOUND
ME8A01046 M20 2022-02-26 05:54:50 45.9034 14.8068 271 ° 28 km/h 812 m -12.1 m/s 403.000 MHz Ivančna Gorica (SI) 0.00 km UNKNOWN
ME8A01031 M20 2022-02-25 05:54:30 46.0554 15.5845 72 ° 6 km/h 716 m -7.5 m/s 403.000 MHz Kozje (SI) 0.00 km UNKNOWN
ME8A01068 M20 2022-02-24 05:59:00 45.769 15.3901 36 ° 26 km/h 1331 m -9.3 m/s 403.000 MHz Žumberak (HR) 0.00 km UNKNOWN
ME8A01091 M20 2022-02-23 05:51:41 45.3031 15.1401 179 ° 96 km/h 2094 m -10.7 m/s 403.000 MHz Ogulin (HR) 0.00 km UNKNOWN
ME8A01094 M20 2022-02-22 06:03:00 45.1874 14.7785 198 ° 70 km/h 1940 m -8.7 m/s 403.000 MHz Bribir (HR) 0.00 km FOUND
ME8A01099 M20 2022-02-21 06:03:00 46.1312 15.8842 21 ° 11 km/h 241 m -10.4 m/s 403.000 MHz Krapina (HR) 0.00 km UNKNOWN
ME8A01088 M20 2022-02-20 05:52:23 45.8775 15.66 339 ° 17 km/h 717 m -8.5 m/s 403.000 MHz Brežice (SI) 0.00 km UNKNOWN
ME8A01106 M20 2022-02-19 05:59:30 46.255 16.4759 83 ° 20 km/h 274 m -9.6 m/s 403.000 MHz Jalžabet (HR) 0.00 km FOUND
ME8A01107 M20 2022-02-18 06:00:12 45.0971 15.7332 298 ° 31 km/h 1643 m -11.0 m/s 403.000 MHz Cetingrad (HR) 0.00 km UNKNOWN
ME8A01101 M20 2022-02-17 05:55:44 45.2092 15.3605 119 ° 24 km/h 2165 m -7.7 m/s 403.000 MHz Tounj (HR) 0.00 km UNKNOWN
ME8A01105 M20 2022-02-16 05:52:30 45.5976 14.6717 51 ° 22 km/h 3190 m -13.1 m/s 403.000 MHz Čabar (HR) 0.00 km UNKNOWN
ME8A01133 M20 2022-02-15 05:41:20 46.3217 15.0974 63 ° 24 km/h 916 m -8.7 m/s 403.000 MHz Polzela (SI) 0.00 km UNKNOWN
ME8A01093 M20 2022-02-14 05:57:59 46.0778 15.078 81 ° 67 km/h 1028 m -10.1 m/s 403.000 MHz Radeče (SI) 0.00 km UNKNOWN
ME8A01136 M20 2022-02-13 05:52:02 45.8075 14.541 240 ° 13 km/h 936 m -5.7 m/s 403.001 MHz Nova Vas (SI) 0.00 km FOUND
ME8A01132 M20 2022-02-12 06:19:16 45.9227 14.8795 152 ° 2 km/h 444 m -6.4 m/s 403.000 MHz Ivančna Gorica (SI) 0.00 km UNKNOWN
ME8A01130 M20 2022-02-11 05:48:00 46.3375 15.8399 69 ° 13 km/h 467 m -8.9 m/s 403.000 MHz Podlehnik (SI) 0.00 km FOUND
ME8A01131 M20 2022-02-10 06:00:47 46.0183 15.3383 135 ° 13 km/h 379 m -10.1 m/s 403.000 MHz Sevnica (SI) 0.00 km FOUND
ME8A01134 M20 2022-02-09 06:02:00 45.4395 14.9284 289 ° 13 km/h 1780 m -9.9 m/s 403.000 MHz Skrad (HR) 0.00 km UNKNOWN
ME8A01138 M20 2022-02-08 05:50:00 44.8919 14.4902 170 ° 31 km/h 1089 m -10.0 m/s 403.000 MHz Cres (HR) 0.00 km LOST
ME8A01135 M20 2022-02-07 05:41:00 45.8298 15.5037 108 ° 59 km/h 1337 m -7.0 m/s 403.000 MHz Kostanjevica na Krki (SI) 0.00 km UNKNOWN
ME8A01139 M20 2022-02-06 06:01:33 45.7292 15.4929 68 ° 43 km/h 1303 m -10.8 m/s 403.001 MHz Žumberak (HR) 0.00 km UNKNOWN
ME8A01141 M20 2022-02-05 06:01:00 45.8821 15.8266 90 ° 11 km/h 572 m -10.6 m/s 403.000 MHz Zaprešić (HR) 0.00 km UNKNOWN
ME8A01126 M20 2022-02-04 05:38:32 45.6666 15.0981 145 ° 15 km/h 2754 m -8.5 m/s 403.003 MHz Semič (SI) 0.00 km FOUND
ME8A01116 M20 2022-02-03 05:34:30 45.1606 14.8857 6 ° 15 km/h 931 m -7.2 m/s 403.004 MHz Novi Vinodolski (HR) 0.00 km FOUND
ME8A01129 M20 2022-02-02 05:34:00 44.7995 15.0118 153 ° 76 km/h 3698 m -12.5 m/s 403.004 MHz Otočac (HR) 0.00 km UNKNOWN
ME8A01125 M20 2022-02-01 05:40:30 45.0016 14.3952 207 ° 54 km/h 1408 m -10.5 m/s 403.004 MHz Cres (HR) 0.00 km UNKNOWN
ME8A01127 M20 2022-01-31 05:31:44 45.6774 15.7085 6 ° 19 km/h 1216 m -10.2 m/s 403.000 MHz Klinča Sela (HR) 0.00 km UNKNOWN
ME8A01120 M20 2022-01-30 05:34:30 45.2959 15.3514 108 ° 33 km/h 3218 m -9.1 m/s 403.000 MHz Tounj (HR) 0.00 km UNKNOWN
ME8A01128 M20 2022-01-29 05:34:00 45.0888 14.1719 168 ° 19 km/h 1242 m -8.5 m/s 403.001 MHz Labin (HR) 0.00 km NEED ATTENTION
ME8A01123 M20 2022-01-28 05:32:00 45.8865 15.5564 216 ° 26 km/h 1155 m -6.5 m/s 403.000 MHz Brežice (SI) 0.00 km UNKNOWN
ME8A01124 M20 2022-01-27 05:50:00 45.3626 14.3215 155 ° 20 km/h 1657 m -9.6 m/s 403.003 MHz Matulji (HR) 0.00 km UNKNOWN
ME8A01122 M20 2022-01-26 05:39:20 45.5129 14.9437 168 ° 61 km/h 3409 m -7.7 m/s 403.004 MHz Kostel (SI) 0.00 km UNKNOWN
ME8A01113 M20 2022-01-25 06:02:00 45.324 14.0397 205 ° 65 km/h 3709 m -8.3 m/s 403.001 MHz Cerovlje (HR) 0.00 km UNKNOWN
ME8A01114 M20 2022-01-24 05:45:00 45.2246 14.0165 199 ° 72 km/h 3481 m -10.9 m/s 403.003 MHz Gračišće (HR) 0.00 km UNKNOWN
ME8A01112 M20 2022-01-23 05:32:30 45.473 14.5031 152 ° 20 km/h 1487 m -10.0 m/s 403.004 MHz Klana (HR) 0.00 km UNKNOWN
ME8A01109 M20 2022-01-22 05:40:00 44.9156 14.8471 106 ° 31 km/h 1904 m -10.4 m/s 403.003 MHz Senj (HR) 0.00 km LOST
ME8A01115 M20 2022-01-21 05:37:00 45.336 15.2266 149 ° 89 km/h 5224 m -12.9 m/s 403.004 MHz Ogulin (HR) 0.00 km UNKNOWN
ME8A01117 M20 2022-01-20 06:00:30 46.0997 16.0181 109 ° 31 km/h 412 m -8.3 m/s 403.000 MHz Mače (HR) 0.00 km UNKNOWN
ME8A01118 M20 2022-01-19 06:03:30 45.4736 14.874 169 ° 44 km/h 8101 m -9.2 m/s 403.000 MHz Kostel (SI) 0.00 km UNKNOWN
ME8A01119 M20 2022-01-18 05:57:30 45.2023 14.5307 321 ° 11 km/h 616 m -6.8 m/s 403.000 MHz Omišalj (HR) 0.00 km LOST
ME8A01110 M20 2022-01-17 06:07:30 45.3326 15.003 154 ° 35 km/h 2619 m -11.1 m/s 403.001 MHz Ravna Gora (HR) 0.00 km UNKNOWN
ME8A00836 M20 2022-01-16 05:49:55 45.8925 15.1944 70 ° 24 km/h 1982 m -11.1 m/s 403.003 MHz Šmarješke Toplice (SI) 0.00 km UNKNOWN
ME8A00835 M20 2022-01-15 06:16:33 45.1528 15.1357 161 ° 44 km/h 2709 m -11.1 m/s 403.003 MHz Josipdol (HR) 0.00 km FOUND
ME8A00816 M20 2022-01-14 06:24:00 45.2915 14.3757 197 ° 22 km/h 3015 m -11.7 m/s 403.007 MHz Rijeka (HR) 0.00 km LOST
ME8A00832 M20 2022-01-13 05:46:30 45.3811 13.1853 235 ° 113 km/h 4046 m -6.9 m/s 403.003 MHz Umag (HR) 0.00 km LOST
ME8A00809 M20 2022-01-12 06:14:54 45.4622 13.8497 243 ° 37 km/h 1125 m -15.2 m/s 403.003 MHz Oprtalj (HR) 0.00 km FOUND
ME8A00805 M20 2022-01-11 06:25:00 45.5021 14.1595 208 ° 50 km/h 782 m -5.4 m/s 403.000 MHz Ilirska Bistrica (SI) 0.00 km FOUND
ME8A00794 M20 2022-01-10 06:14:54 45.8946 14.634 264 ° 33 km/h 822 m -8.7 m/s 403.003 MHz Videm (SI) 0.00 km UNKNOWN
ME8A00795 M20 2022-01-09 05:56:17 46.1039 15.3531 34 ° 31 km/h 896 m -9.6 m/s 403.000 MHz Dobje (SI) 0.00 km UNKNOWN
ME8A00800 M20 2022-01-08 06:16:59 46.389 15.4278 257 ° 2 km/h 1018 m -8.4 m/s 403.000 MHz Oplotnica (SI) 0.00 km FOUND
ME8A00796 M20 2022-01-07 06:06:26 45.7571 14.5696 91 ° 2 km/h 4773 m -12.1 m/s 403.004 MHz Sodražica (SI) 0.00 km UNKNOWN
ME8A00793 M20 2022-01-06 06:12:18 46.3826 15.6312 76 ° 15 km/h 352 m -4.5 m/s 403.003 MHz Slovenska Bistrica (SI) 0.00 km FOUND
ME8A00831 M20 2022-01-05 08:30:30 47.134 20.0231 29 ° 24 km/h 142 m -2.1 m/s 403.001 MHz Abony (HU) 0.00 km FOUND
ME8A00798 M20 2022-01-04 05:33:30 45.7429 15.7145 105 ° 76 km/h 2510 m -13.0 m/s 403.001 MHz Samobor (HR) 0.00 km UNKNOWN
ME8A00802 M20 2022-01-03 05:51:30 45.7944 16.0882 75 ° 46 km/h 402 m -9.6 m/s 403.002 MHz Velika Gorica (HR) 0.00 km FOUND
ME8A00803 M20 2022-01-02 07:05:33 45.542 15.6313 31 ° 13 km/h 838 m -3.8 m/s 403.001 MHz Draganići (HR) 0.00 km UNKNOWN
ME8A00804 M20 2022-01-01 05:58:52 45.1824 15.1808 113 ° 28 km/h 2565 m -9.3 m/s 403.001 MHz Josipdol (HR) 0.00 km UNKNOWN
ME8A00830 M20 2021-12-31 05:56:28 45.2973 15.1941 171 ° 59 km/h 4321 m -8.0 m/s 403.000 MHz Ogulin (HR) 0.00 km UNKNOWN
ME8A00829 M20 2021-12-30 05:57:00 44.8803 14.9593 176 ° 115 km/h 3682 m -8.8 m/s 403.004 MHz Senj (HR) 0.00 km UNKNOWN
ME8A00801 M20 2021-12-29 06:07:50 45.1671 15.4959 161 ° 52 km/h 3650 m -7.6 m/s 403.000 MHz Slunj (HR) 0.00 km UNKNOWN
ME8A00828 M20 2021-12-28 05:47:30 45.9911 15.326 29 ° 248 km/h 6311 m -78.6 m/s 403.000 MHz Sevnica (SI) 0.00 km NEED ATTENTION
ME8A00784 M20 2021-12-27 06:11:30 45.6657 15.6077 231 ° 17 km/h 1300 m -8.2 m/s 403.000 MHz Jastrebarsko (HR) 0.00 km FOUND
ME8A00827 M20 2021-12-26 07:26:37 45.9153 16.9808 216 ° 28 km/h 571 m -2.9 m/s 403.000 MHz Šandrovac (HR) 0.00 km UNKNOWN
ME8A00808 M20 2021-12-25 05:43:00 46.0934 15.9233 86 ° 59 km/h 937 m -9.2 m/s 403.000 MHz Sveti Križ Začretje (HR) 0.00 km UNKNOWN
ME8A00813 M20 2021-12-24 07:39:39 45.0815 17.6319 88 ° 67 km/h 1529 m -3.2 m/s 403.000 MHz Srbac (BA) 0.00 km UNKNOWN
ME8A00822 M20 2021-12-23 07:44:39 44.2278 16.3305 129 ° 30 km/h 2631 m -2.9 m/s 403.000 MHz Bosansko Grahovo (BA) 0.00 km LOST
ME8A00823 M20 2021-12-22 07:15:17 44.6742 15.9838 277 ° 6 km/h 1429 m -2.0 m/s 403.000 MHz Donji Lapac (HR) 0.00 km UNKNOWN
ME8A00824 M20 2021-12-21 06:34:06 45.1269 16.1727 267 ° 24 km/h 935 m -10.5 m/s 403.000 MHz Bužim (BA) 0.00 km UNKNOWN
ME8A00826 M20 2021-12-20 06:11:09 45.2696 15.7389 249 ° 7 km/h 778 m -8.5 m/s 403.002 MHz Vojnić (HR) 0.00 km UNKNOWN
ME8A00825 M20 2021-12-19 06:18:32 45.5557 14.6588 174 ° 41 km/h 2088 m -9.5 m/s 403.005 MHz Osilnica (SI) 0.00 km UNKNOWN
ME8A00814 M20 2021-12-18 06:05:00 45.1494 13.7532 197 ° 46 km/h 1183 m -9.0 m/s 403.004 MHz Sveti Lovreč Pazenatički (HR) 0.00 km FOUND
ME8A00821 M20 2021-12-17 05:37:54 45.5464 14.1932 200 ° 70 km/h 10872 m -13.6 m/s 403.006 MHz Ilirska Bistrica (SI) 0.00 km UNKNOWN
ME8A00819 M20 2021-12-16 06:35:00 45.151 14.0613 211 ° 50 km/h 4037 m -8.0 m/s 403.004 MHz Nedeščina (HR) 0.00 km UNKNOWN
ME8A00820 M20 2021-12-15 07:25:00 44.469 12.6079 266 ° 17 km/h 630 m -2.5 m/s 403.006 MHz Cervia (IT) 0.00 km LOST
ME8A00818 M20 2021-12-14 06:16:00 45.2932 14.8055 209 ° 61 km/h 1652 m -10.5 m/s 403.004 MHz Mrkopalj (HR) 0.00 km NEED ATTENTION
ME8A00807 M20 2021-12-13 06:18:00 45.1891 14.5969 243 ° 9 km/h 517 m -9.5 m/s 403.005 MHz Omišalj (HR) 0.00 km FOUND
ME8A00806 M20 2021-12-12 06:06:30 45.5908 14.4015 231 ° 69 km/h 3364 m -11.7 m/s 403.006 MHz Ilirska Bistrica (SI) 0.00 km UNKNOWN
ME8A00810 M20 2021-12-11 05:52:16 46.1384 14.5765 210 ° 61 km/h 2544 m -12.6 m/s 403.000 MHz Trzin (SI) 0.00 km UNKNOWN
ME8A00817 M20 2021-12-10 06:49:06 46.2386 15.2946 354 ° 20 km/h 1399 m -10.8 m/s 403.000 MHz Štore (SI) 0.00 km FOUND
ME8A00815 M20 2021-12-09 06:27:21 47.4973 14.7453 186 ° 15 km/h 2178 m -4.5 m/s 403.000 MHz Eisenerz (AT) 0.00 km UNKNOWN
ME8A00812 M20 2021-12-08 05:59:30 45.9111 15.4732 84 ° 46 km/h 2205 m -6.1 m/s 403.000 MHz Krško (SI) 0.00 km FOUND
ME8A00811 M20 2021-12-07 06:09:30 45.853 14.8338 156 ° 20 km/h 2197 m -2.0 m/s 403.005 MHz Žužemberk (SI) 0.00 km FOUND
ME8A00842 M20 2021-12-06 05:48:00 46.2206 14.933 231 ° 26 km/h 2061 m -10.6 m/s 403.003 MHz Vransko (SI) 0.00 km FOUND
ME8A00843 M20 2021-12-05 06:05:28 46.5721 15.7143 37 ° 4 km/h 535 m -8.4 m/s 403.005 MHz Pesnica (SI) 0.00 km FOUND
ME8A00833 M20 2021-12-04 06:26:00 45.4563 16.1064 348 ° 22 km/h 486 m -9.9 m/s 403.004 MHz Pokupsko (HR) 0.00 km UNKNOWN
ME8A00839 M20 2021-12-03 06:57:30 46.2746 16.5852 232 ° 13 km/h 324 m -10.2 m/s 402.998 MHz Sveti Ðurđ (HR) 0.00 km FOUND
ME8A00841 M20 2021-12-02 06:51:33 46.7861 16.9092 93 ° 19 km/h 527 m -10.0 m/s 402.999 MHz Zalaegerszeg (HU) 0.00 km UNKNOWN
ME8A00838 M20 2021-12-01 05:34:59 45.7376 15.241 115 ° 43 km/h 2242 m -9.5 m/s 403.003 MHz Novo Mesto (SI) 0.00 km FOUND
ME8A00837 M20 2021-11-30 05:39:22 45.5224 15.0149 141 ° 48 km/h 3744 m -10.1 m/s 403.004 MHz Brod Moravice (HR) 0.00 km FOUND
ME8A00840 M20 2021-11-29 05:57:04 46.3411 15.1904 187 ° 20 km/h 2281 m -6.0 m/s 403.002 MHz Dobrna (SI) 0.00 km NEED ATTENTION
ME8A00656 M20 2021-11-28 06:21:00 47.0385 16.1011 177 ° 6 km/h 472 m -8.3 m/s 403.005 MHz Fürstenfeld (AT) 0.00 km FOUND
ME8A00627 M20 2021-11-27 05:52:00 46.4298 15.6089 356 ° 9 km/h 724 m -9.7 m/s 403.004 MHz Slovenska Bistrica (SI) 0.00 km FOUND
ME8A00657 M20 2021-11-26 06:22:30 46.8866 15.1293 210 ° 7 km/h 1195 m -9.5 m/s 403.002 MHz Deutschlandsberg (AT) 0.00 km FOUND
ME8A00659 M20 2021-11-25 06:39:30 46.1836 15.627 12 ° 11 km/h 628 m -9.9 m/s 403.005 MHz Podčetrtek (SI) 0.00 km FOUND
ME8A00655 M20 2021-11-24 06:17:15 46.0276 14.5979 229 ° 11 km/h 648 m -9.9 m/s 403.005 MHz Škofljica (SI) 0.00 km FOUND
ME8A00660 M20 2021-11-23 06:21:36 45.9215 15.1094 266 ° 35 km/h 688 m -7.9 m/s 403.004 MHz Mokronog (SI) 0.00 km FOUND
ME8A00658 M20 2021-11-22 06:10:54 46.3409 15.1208 82 ° 15 km/h 1223 m -7.3 m/s 403.004 MHz Velenje (SI) 0.00 km UNKNOWN
ME8A00662 M20 2021-11-21 06:55:30 46.2796 15.5797 22 ° 22 km/h 755 m -8.6 m/s 403.001 MHz Poljčane (SI) 0.00 km UNKNOWN
ME8A00626 M20 2021-11-20 05:58:43 45.7131 14.5868 159 ° 22 km/h 2542 m -10.8 m/s 403.001 MHz Hrib-Loški Potok (SI) 0.00 km FOUND
ME8A00663 M20 2021-11-19 06:57:40 44.7069 13.6387 205 ° 59 km/h 6293 m -3.3 m/s 403.002 MHz Pula (HR) 0.00 km LOST
ME8A00665 M20 2021-11-18 06:47:44 45.7368 14.8171 167 ° 15 km/h 3740 m -12.1 m/s 403.002 MHz Kočevje (SI) 0.00 km UNKNOWN
ME8A00625 M20 2021-11-17 06:34:28 46.2513 14.6547 64 ° 7 km/h 3144 m -11.4 m/s 403.001 MHz Kamnik (SI) 0.00 km UNKNOWN
ME8A00641 M20 2021-11-16 06:03:00 46.3012 14.5257 329 ° 24 km/h 3276 m -11.2 m/s 403.000 MHz Cerklje na Gorenjskem (SI) 0.00 km UNKNOWN
ME8A00643 M20 2021-11-15 05:51:42 46.1969 14.4823 305 ° 37 km/h 2687 m -11.7 m/s 403.006 MHz Vodice (SI) 0.00 km UNKNOWN
ME8A00642 M20 2021-11-14 07:51:03 46.599 14.5282 171 ° 7 km/h 486 m -3.1 m/s 403.000 MHz Grafenstein (AT) 0.00 km FOUND
ME8A00654 M20 2021-11-13 06:16:05 46.2592 14.6764 82 ° 61 km/h 1793 m -10.2 m/s 403.001 MHz Kamnik (SI) 0.00 km UNKNOWN
ME8A00649 M20 2021-11-12 06:36:58 46.2588 14.4765 302 ° 30 km/h 3658 m -11.6 m/s 403.000 MHz Cerklje na Gorenjskem (SI) 0.00 km FOUND
ME8A00651 M20 2021-11-11 06:31:53 46.5424 14.6923 1 ° 15 km/h 922 m -6.5 m/s 403.000 MHz Bistrica nad Pliberkom (AT) 0.00 km UNKNOWN
ME8A00653 M20 2021-11-10 05:50:28 46.3218 14.5546 358 ° 11 km/h 2638 m -9.9 m/s 403.002 MHz Cerklje na Gorenjskem (SI) 0.00 km UNKNOWN
ME8A00650 M20 2021-11-09 06:26:04 46.004 14.5625 242 ° 15 km/h 4574 m -14.3 m/s 403.005 MHz Škofljica (SI) 0.00 km UNKNOWN
ME8A00622 M20 2021-11-08 05:30:40 46.3709 15.1011 221 ° 26 km/h 1796 m -11.0 m/s 403.002 MHz Velenje (SI) 0.00 km LOST
ME8A00645 M20 2021-11-07 06:26:00 46.3739 15.844 52 ° 6 km/h 306 m -7.7 m/s 403.000 MHz Spodnja Hajdina (SI) 0.00 km FOUND
ME8A00624 M20 2021-11-06 06:48:50 46.6953 15.7317 114 ° 13 km/h 361 m -9.6 m/s 403.001 MHz Mureck (AT) 0.00 km FOUND
ME8A00644 M20 2021-11-05 06:02:00 46.9464 15.5257 159 ° 6 km/h 510 m -9.1 m/s 403.002 MHz Kalsdorf bei Graz (AT) 0.00 km FOUND
ME8A00608 M20 2021-11-04 05:52:43 47.2714 15.6757 354 ° 20 km/h 951 m -10.8 m/s 403.004 MHz Anger (AT) 0.00 km FOUND
ME8A00623 M20 2021-11-03 06:20:48 46.494 16.2022 329 ° 17 km/h 348 m -8.9 m/s 403.003 MHz Ljutomer (SI) 0.00 km FOUND
ME8A00617 M20 2021-11-02 06:16:37 46.6277 15.5263 172 ° 22 km/h 869 m -10.6 m/s 403.001 MHz Zgornja Kungota (SI) 0.00 km FOUND
ME8A00638 M20 2021-11-01 06:12:30 46.0485 15.1864 54 ° 61 km/h 1904 m -11.7 m/s 403.001 MHz Radeče (SI) 0.00 km UNKNOWN
ME8A00639 M20 2021-10-31 06:19:23 46.2804 15.0841 80 ° 33 km/h 1825 m -10.7 m/s 403.000 MHz Polzela (SI) 0.00 km UNKNOWN
ME8A00640 M20 2021-10-30 06:00:09 46.599 14.857 113 ° 6 km/h 1056 m -8.7 m/s 403.001 MHz Bleiburg (AT) 0.00 km FOUND
ME8A00619 M20 2021-10-29 06:03:15 46.6902 14.3354 325 ° 15 km/h 1761 m -9.0 m/s 403.003 MHz Maria Saal (AT) 0.00 km FOUND
ME8A00637 M20 2021-10-28 06:19:47 46.4502 13.8844 331 ° 15 km/h 2159 m -8.0 m/s 403.001 MHz Kranjska Gora (SI) 0.00 km UNKNOWN
ME8A00615 M20 2021-10-27 06:12:27 46.0171 14.5443 253 ° 26 km/h 2547 m -11.5 m/s 403.002 MHz Ljubljana (SI) 0.00 km FOUND
ME8A00648 M20 2021-10-26 06:24:25 46.533 15.6237 120 ° 35 km/h 498 m -9.5 m/s 403.002 MHz Maribor (SI) 0.00 km FOUND
ME8A00614 M20 2021-10-25 06:42:28 46.3197 15.2006 252 ° 7 km/h 1353 m -9.1 m/s 403.001 MHz Dobrna (SI) 0.00 km NEED ATTENTION
ME8A00603 M20 2021-10-24 05:57:18 45.7391 14.6185 283 ° 35 km/h 1109 m -6.8 m/s 403.001 MHz Sodražica (SI) 0.00 km UNKNOWN
ME8A00629 M20 2021-10-23 05:59:30 46.0672 15.5099 266 ° 24 km/h 871 m -11.1 m/s 403.004 MHz Kozje (SI) 0.00 km UNKNOWN
ME8A00647 M20 2021-10-22 06:19:30 46.5046 16.4691 297 ° 19 km/h 271 m -9.7 m/s 403.002 MHz Mursko Središće (HR) 0.00 km FOUND
ME8A00616 M20 2021-10-21 06:15:33 46.4401 16.1053 60 ° 74 km/h 467 m -11.7 m/s 403.002 MHz Ormož (SI) 0.00 km LOST
ME8A00620 M20 2021-10-20 06:37:27 45.4888 15.08 193 ° 7 km/h 2736 m -8.6 m/s 403.000 MHz Brod Moravice (HR) 0.00 km FOUND
ME8A00630 M20 2021-10-19 06:39:08 45.1069 14.8028 134 ° 6 km/h 536 m -10.4 m/s 403.002 MHz Novi Vinodolski (HR) 0.00 km LOST
ME8A00606 M20 2021-10-18 06:32:25 45.6842 15.2521 254 ° 20 km/h 2177 m -10.6 m/s 403.001 MHz Metlika (SI) 0.00 km FOUND
ME8A00595 M20 2021-10-17 06:14:47 45.8462 14.6639 283 ° 24 km/h 1464 m -9.8 m/s 403.003 MHz Videm (SI) 0.00 km UNKNOWN
ME8A00592 M20 2021-10-16 06:24:02 46.0518 15.0327 249 ° 41 km/h 2719 m -11.2 m/s 403.004 MHz Šentrupert (SI) 0.00 km UNKNOWN
ME8A00621 M20 2021-10-15 06:07:22 45.7013 14.5212 211 ° 61 km/h 4973 m -10.5 m/s 403.002 MHz Stari Trg (SI) 0.00 km UNKNOWN
ME8A00602 M20 2021-10-14 06:47:15 45.1716 14.2992 211 ° 70 km/h 2464 m -11.9 m/s 403.001 MHz Mošćenička Draga (HR) 0.00 km LOST
ME8A00636 M20 2021-10-13 06:18:33 45.6855 15.1764 181 ° 19 km/h 1707 m -9.6 m/s 403.000 MHz Semič (SI) 0.00 km FOUND
ME8A00646 M20 2021-10-12 06:11:40 45.5643 15.2202 210 ° 48 km/h 1953 m -10.6 m/s 403.001 MHz Črnomelj (SI) 0.00 km FOUND
ME8A00618 M20 2021-10-11 06:06:42 45.8709 14.3446 244 ° 72 km/h 2754 m -12.9 m/s 403.001 MHz Borovnica (SI) 0.00 km FOUND
ME8A00496 M20 2021-10-10 06:05:31 45.8386 14.1094 236 ° 76 km/h 1186 m -8.1 m/s 403.001 MHz Postojna (SI) 0.00 km FOUND
ME8A00483 M20 2021-10-09 06:35:54 45.6463 14.5181 212 ° 31 km/h 3782 m -11.5 m/s 403.001 MHz Stari Trg (SI) 0.00 km UNKNOWN
ME8A00485 M20 2021-10-08 06:23:53 45.8238 13.707 240 ° 74 km/h 974 m -7.6 m/s 403.001 MHz Komen (SI) 0.00 km UNKNOWN
ME8A00476 M20 2021-10-07 06:13:20 46.0965 14.1987 198 ° 56 km/h 972 m -10.2 m/s 403.001 MHz Gorenja Vas (SI) 0.00 km NEED ATTENTION
ME8A00346 M20 2021-10-06 06:06:39 46.3628 15.0525 59 ° 19 km/h 1092 m -8.5 m/s 403.002 MHz Šoštanj (SI) 0.00 km UNKNOWN
ME8A00493 M20 2021-10-05 06:10:56 46.5375 15.1005 2 ° 37 km/h 995 m -11.0 m/s 403.000 MHz Slovenj Gradec (SI) 0.00 km UNKNOWN
ME8A00492 M20 2021-10-04 06:18:50 46.3164 15.0973 53 ° 31 km/h 881 m -11.8 m/s 403.000 MHz Polzela (SI) 0.00 km UNKNOWN
ME8A00495 M20 2021-10-03 07:01:46 45.8915 15.2079 36 ° 41 km/h 726 m -9.4 m/s 403.001 MHz Šmarješke Toplice (SI) 0.00 km UNKNOWN
ME8A00489 M20 2021-10-02 06:10:17 46.2543 15.1459 331 ° 6 km/h 1272 m -10.4 m/s 403.001 MHz Žalec (SI) 0.00 km UNKNOWN
ME8A00480 M20 2021-10-01 07:05:40 45.652 15.1735 270 ° 30 km/h 2278 m -11.3 m/s 403.001 MHz Semič (SI) 0.00 km FOUND
ME8A00477 M20 2021-09-30 06:31:09 45.9718 15.2124 250 ° 35 km/h 1884 m -10.1 m/s 403.001 MHz Mokronog (SI) 0.00 km UNKNOWN
ME8A00486 M20 2021-09-29 06:22:07 46.2223 15.2615 27 ° 15 km/h 911 m -9.3 m/s 403.000 MHz Celje (SI) 0.00 km FOUND
ME8A00487 M20 2021-09-28 06:20:16 45.5732 15.0951 204 ° 48 km/h 2558 m -9.7 m/s 403.000 MHz Črnomelj (SI) 0.00 km FOUND
ME8A00479 M20 2021-09-27 06:48:34 46.0598 15.1502 97 ° 35 km/h 971 m -7.0 m/s 403.000 MHz Radeče (SI) 0.00 km FOUND
ME8A00455 M20 2021-09-26 06:18:04 46.1952 15.2279 86 ° 63 km/h 5236 m -7.7 m/s 403.000 MHz Laško (SI) 0.00 km UNKNOWN
ME8A00484 M20 2021-09-25 06:32:39 45.8406 15.0188 103 ° 17 km/h 2389 m -11.8 m/s 403.000 MHz Mirna Peč (SI) 0.00 km UNKNOWN
ME8A00456 M20 2021-09-24 06:07:35 45.5728 15.1576 134 ° 11 km/h 1415 m -9.5 m/s 403.001 MHz Črnomelj (SI) 0.00 km FOUND
ME8A00482 M20 2021-09-23 05:53:29 45.3979 14.8117 187 ° 44 km/h 2601 m -8.5 m/s 403.001 MHz Delnice (HR) 0.00 km UNKNOWN
ME8A00475 M20 2021-09-22 06:09:02 45.1836 15.0578 160 ° 52 km/h 2929 m -9.9 m/s 403.000 MHz Ogulin (HR) 0.00 km UNKNOWN
ME8A00478 M20 2021-09-21 06:06:36 45.8978 14.7851 271 ° 22 km/h 835 m -8.7 m/s 403.001 MHz Ivančna Gorica (SI) 0.00 km UNKNOWN
ME8A00452 M20 2021-09-20 06:30:43 45.9204 15.334 90 ° 7 km/h 1558 m -10.0 m/s 403.001 MHz Škocjan (SI) 0.00 km FOUND
ME8A00468 M20 2021-09-19 06:33:42 45.9098 15.4839 12 ° 17 km/h 1046 m -10.8 m/s 403.000 MHz Krško (SI) 0.00 km FOUND
ME8A00454 M20 2021-09-18 06:26:29 45.7901 15.3684 343 ° 28 km/h 902 m -9.5 m/s 403.000 MHz Šentjernej (SI) 0.00 km UNKNOWN
ME8A00466 M20 2021-09-17 06:30:30 46.1348 15.5493 153 ° 13 km/h 755 m -8.4 m/s 403.000 MHz Podčetrtek (SI) 0.00 km UNKNOWN
ME8A00472 M20 2021-09-16 06:25:49 45.9252 15.607 99 ° 37 km/h 530 m -9.7 m/s 403.000 MHz Brežice (SI) 0.00 km FOUND
ME8A00467 M20 2021-09-15 06:09:30 45.7365 15.127 104 ° 22 km/h 917 m -12.1 m/s 403.000 MHz Dolenjske Toplice (SI) 0.00 km FOUND
ME8A00453 M20 2021-09-14 06:14:36 45.7926 14.9788 33 ° 4 km/h 690 m -7.9 m/s 403.001 MHz Žužemberk (SI) 0.00 km FOUND
ME8A00457 M20 2021-09-13 06:18:26 45.761 14.8569 101 ° 7 km/h 689 m -10.2 m/s 403.000 MHz Žužemberk (SI) 0.00 km FOUND
ME8A00474 M20 2021-09-12 06:26:40 45.8054 14.7345 265 ° 19 km/h 963 m -9.3 m/s 403.000 MHz Videm (SI) 0.00 km UNKNOWN
ME8A00473 M20 2021-09-11 06:37:30 45.923 14.9148 82 ° 7 km/h 524 m -10.2 m/s 403.000 MHz Trebnje (SI) 0.00 km FOUND
ME8A00435 M20 2021-09-10 06:39:32 46.0329 14.6783 288 ° 6 km/h 870 m -11.3 m/s 403.001 MHz Dol (SI) 0.00 km FOUND
ME8A00471 M20 2021-09-09 06:09:59 46.1994 14.1703 259 ° 15 km/h 1301 m -8.8 m/s 403.000 MHz Železniki (SI) 0.00 km NEED ATTENTION
ME8A00449 M20 2021-09-08 06:28:37 46.0443 14.0047 11 ° 7 km/h 794 m -9.0 m/s 403.001 MHz Idrija (SI) 0.00 km UNKNOWN
ME8A00469 M20 2021-09-07 06:29:08 45.6633 14.4241 286 ° 31 km/h 1303 m -9.8 m/s 403.001 MHz Stari Trg (SI) 0.00 km UNKNOWN
ME8A00470 M20 2021-09-06 06:39:16 45.6543 14.8543 248 ° 28 km/h 3027 m -11.4 m/s 403.000 MHz Kočevje (SI) 0.00 km FOUND
ME8A00439 M20 2021-09-05 06:18:44 45.8164 14.916 246 ° 31 km/h 2537 m -10.0 m/s 403.002 MHz Žužemberk (SI) 0.00 km FOUND
ME8A00458 M20 2021-09-04 05:56:05 45.9909 14.9056 185 ° 22 km/h 2875 m -12.6 m/s 403.002 MHz Litija (SI) 0.00 km UNKNOWN
ME8A00461 M20 2021-09-03 06:19:13 45.8494 14.9465 164 ° 9 km/h 2298 m -11.0 m/s 403.000 MHz Žužemberk (SI) 0.00 km UNKNOWN
ME8A00450 M20 2021-09-02 06:10:14 45.829 14.7857 164 ° 24 km/h 3623 m -8.8 m/s 403.000 MHz Videm (SI) 0.00 km UNKNOWN
ME8A00460 M20 2021-09-01 05:49:40 45.7066 14.7569 137 ° 35 km/h 3451 m -9.4 m/s 403.001 MHz Kočevje (SI) 0.00 km FOUND
ME8A00441 M20 2021-08-31 06:01:11 45.8244 15.5248 161 ° 20 km/h 1464 m -6.3 m/s 403.001 MHz Kostanjevica na Krki (SI) 0.00 km UNKNOWN
ME8A00447 M20 2021-08-30 06:08:41 45.8594 15.105 155 ° 30 km/h 2973 m -9.1 m/s 403.001 MHz Mirna Peč (SI) 0.00 km NEED ATTENTION
ME8A00459 M20 2021-08-29 06:16:32 46.178 14.8498 190 ° 31 km/h 2482 m -8.7 m/s 403.001 MHz Moravče (SI) 0.00 km UNKNOWN
ME8A00462 M20 2021-08-28 06:25:33 46.3446 15.6035 248 ° 9 km/h 731 m -10.9 m/s 403.000 MHz Poljčane (SI) 0.00 km LOST
ME8A00448 M20 2021-08-27 06:10:00 45.8477 15.8718 212 ° 20 km/h 1736 m -8.6 m/s 403.001 MHz Zaprešić (HR) 0.00 km UNKNOWN
ME8A00446 M20 2021-08-26 06:19:32 45.852 14.9688 130 ° 22 km/h 2264 m -11.3 m/s 403.000 MHz Žužemberk (SI) 0.00 km FOUND
ME8A00444 M20 2021-08-25 06:05:26 46.0858 14.7534 148 ° 7 km/h 4817 m -11.6 m/s 403.001 MHz Moravče (SI) 0.00 km UNKNOWN
ME8A00443 M20 2021-08-24 06:17:17 46.07 15.2047 214 ° 30 km/h 2042 m -8.9 m/s 403.001 MHz Radeče (SI) 0.00 km UNKNOWN
ME8A00440 M20 2021-08-23 06:14:51 46.1767 15.3122 203 ° 39 km/h 1360 m -12.4 m/s 403.001 MHz Štore (SI) 0.00 km UNKNOWN
ME8A00442 M20 2021-08-22 06:20:56 46.0448 15.3248 17 ° 17 km/h 1591 m -12.1 m/s 403.000 MHz Sevnica (SI) 0.00 km UNKNOWN
ME8A00857 M20 2021-08-21 06:09:11 45.7962 15.131 250 ° 11 km/h 2152 m -8.3 m/s 403.000 MHz Novo Mesto (SI) 0.00 km FOUND
ME8A00858 M20 2021-08-20 06:18:24 46.253 15.1493 9 ° 6 km/h 999 m -11.9 m/s 403.001 MHz Žalec (SI) 0.00 km UNKNOWN
ME8A00854 M20 2021-08-19 06:20:10 45.9516 15.2009 295 ° 19 km/h 1818 m -10.0 m/s 403.001 MHz Mokronog (SI) 0.00 km FOUND
ME8A00856 M20 2021-08-18 06:33:45 45.8754 15.737 288 ° 22 km/h 1122 m -11.2 m/s 403.001 MHz Brdovec (HR) 0.00 km UNKNOWN
ME8A00855 M20 2021-08-17 06:17:45 46.4469 15.7671 334 ° 7 km/h 332 m -6.1 m/s 403.000 MHz Starše (SI) 0.00 km FOUND
ME8A00862 M20 2021-08-16 06:32:46 46.0543 15.435 34 ° 17 km/h 1265 m -11.2 m/s 403.000 MHz Dobje (SI) 0.00 km UNKNOWN
ME8A00861 M20 2021-08-15 06:16:44 45.9141 15.1023 78 ° 19 km/h 1932 m -10.8 m/s 403.002 MHz Mokronog (SI) 0.00 km UNKNOWN
ME8A00863 M20 2021-08-14 06:34:52 45.6884 14.8342 174 ° 4 km/h 2858 m -11.5 m/s 403.005 MHz Kočevje (SI) 0.00 km FOUND
ME8A00859 M20 2021-08-13 06:28:26 45.9148 15.0798 346 ° 22 km/h 2045 m -12.0 m/s 403.001 MHz Mirna (SI) 0.00 km UNKNOWN
ME8A00860 M20 2021-08-12 06:17:46 45.7856 15.0343 94 ° 4 km/h 2248 m -13.3 m/s 403.001 MHz Straža (SI) 0.00 km FOUND
ME8A00869 M20 2021-08-11 06:00:25 45.8946 15.4368 244 ° 13 km/h 1131 m -12.8 m/s 403.001 MHz Kostanjevica na Krki (SI) 0.00 km UNKNOWN
ME8A00871 M20 2021-08-10 06:23:24 45.9843 15.8612 340 ° 7 km/h 618 m -14.5 m/s 403.001 MHz Veliko Trgovišće (HR) 0.00 km UNKNOWN
ME8A00870 M20 2021-08-09 06:21:39 46.2143 15.5631 249 ° 22 km/h 792 m -11.3 m/s 403.001 MHz Šmarje (SI) 0.00 km UNKNOWN
ME8A00873 M20 2021-08-08 06:00:16 46.5802 15.7156 195 ° 13 km/h 452 m -8.5 m/s 403.000 MHz Pesnica (SI) 0.00 km FOUND
ME8A00872 M20 2021-08-07 06:42:23 45.9988 15.6841 41 ° 26 km/h 1227 m -13.7 m/s 403.005 MHz Kraljevec na Sutli (HR) 0.00 km UNKNOWN
ME8A00875 M20 2021-08-06 06:24:51 45.8375 15.4979 49 ° 6 km/h 1494 m -12.3 m/s 403.002 MHz Kostanjevica na Krki (SI) 0.00 km UNKNOWN
ME8A00867 M20 2021-08-05 06:34:43 46.691 15.2497 208 ° 7 km/h 500 m -11.7 m/s 403.000 MHz Eibiswald (AT) 0.00 km FOUND
ME8A00868 M20 2021-08-04 06:45:20 46.3474 15.9678 268 ° 6 km/h 393 m -10.1 m/s 403.000 MHz Cirkulane (SI) 0.00 km FOUND
ME8A00866 M20 2021-08-03 06:53:56 46.4033 15.7335 318 ° 9 km/h 693 m -10.3 m/s 403.205 MHz Kidričevo (SI) 0.00 km FOUND
ME8A00880 M20 2021-08-02 07:37:32 46.8996 16.6539 128 ° 6 km/h 568 m -10.6 m/s 403.002 MHz Zalalövő (HU) 0.00 km UNKNOWN
ME8A00888 M20 2021-08-01 05:57:00 46.6976 15.3905 219 ° 11 km/h 638 m -8.5 m/s 403.001 MHz Großklein (AT) 0.00 km FOUND
ME8A00882 M20 2021-07-31 06:34:26 46.3533 15.6975 281 ° 4 km/h 389 m -12.2 m/s 403.000 MHz Majšperk (SI) 0.00 km FOUND
ME8A00881 M20 2021-07-30 06:02:05 46.1099 15.4386 120 ° 13 km/h 963 m -14.4 m/s 403.000 MHz Dobje (SI) 0.00 km UNKNOWN
ME8A00894 M20 2021-07-29 06:21:03 46.1718 15.3738 241 ° 13 km/h 995 m -9.2 m/s 403.000 MHz Dobje (SI) 0.00 km FOUND
ME8A00878 M20 2021-07-28 06:25:08 46.354 15.4112 69 ° 43 km/h 1353 m -11.9 m/s 403.000 MHz Slovenske Konjice (SI) 0.00 km UNKNOWN
ME8A00895 M20 2021-07-27 06:31:19 46.5978 15.7895 80 ° 7 km/h 402 m -10.1 m/s 403.000 MHz Jurovski Dol (SI) 0.00 km FOUND
ME8A00879 M20 2021-07-26 06:17:44 46.3745 15.2769 30 ° 11 km/h 974 m -13.4 m/s 403.000 MHz Vitanje (SI) 0.00 km UNKNOWN
ME8A00893 M20 2021-07-25 06:34:00 46.3096 15.3277 55 ° 31 km/h 1474 m -10.6 m/s 403.000 MHz Vojnik (SI) 0.00 km LOST
ME8A00876 M20 2021-07-24 06:37:17 45.7367 15.1242 1 ° 24 km/h 1071 m -11.0 m/s 403.000 MHz Dolenjske Toplice (SI) 0.00 km FOUND
ME8A00920 M20 2021-07-23 06:19:31 45.8698 15.1194 11 ° 6 km/h 476 m -10.7 m/s 403.001 MHz Mirna Peč (SI) 0.00 km FOUND
ME8A00921 M20 2021-07-22 06:14:01 45.9252 14.9548 276 ° 13 km/h 450 m -8.9 m/s 403.001 MHz Trebnje (SI) 0.00 km UNKNOWN
ME8A00916 M20 2021-07-21 06:30:31 45.8551 15.133 306 ° 13 km/h 716 m -10.4 m/s 403.000 MHz Mirna Peč (SI) 0.00 km FOUND
ME8A00917 M20 2021-07-20 06:29:54 46.0161 15.1321 180 ° 28 km/h 2191 m -10.5 m/s 403.005 MHz Šentrupert (SI) 0.00 km UNKNOWN
ME8A00918 M20 2021-07-19 06:35:34 45.8489 14.2567 222 ° 37 km/h 937 m -9.5 m/s 403.001 MHz Logatec (SI) 0.00 km FOUND
ME8A00903 M20 2021-07-18 06:24:03 45.4863 13.6436 244 ° 48 km/h 1939 m -3.9 m/s 403.000 MHz Izola (SI) 0.00 km UNKNOWN
ME8A00904 M20 2021-07-17 06:43:48 45.6807 13.5053 227 ° 46 km/h 3892 m -12.2 m/s 403.001 MHz Ronchi dei Legionari (IT) 0.00 km LOST
ME8A00919 M20 2021-07-16 06:13:43 46.4099 14.5519 287 ° 26 km/h 1838 m -9.2 m/s 403.000 MHz Zgornje Jezersko (SI) 0.00 km UNKNOWN
ME8A00913 M20 2021-07-15 06:05:44 46.4427 15.3247 289 ° 4 km/h 1501 m -8.5 m/s 403.000 MHz Vitanje (SI) 0.00 km FOUND
ME8A00877 M20 2021-07-14 06:45:08 47.2385 14.5399 57 ° 13 km/h 1683 m -11.8 m/s 403.002 MHz Pöls (AT) 0.00 km UNKNOWN
ME8A00845 M20 2021-07-13 06:31:35 46.5352 15.0649 16 ° 13 km/h 1024 m -9.9 m/s 403.000 MHz Slovenj Gradec (SI) 0.00 km FOUND
ME8A00851 M20 2021-07-12 06:40:00 45.9628 15.1339 250 ° 4 km/h 433 m -10.3 m/s 403.000 MHz Mokronog (SI) 0.00 km FOUND
ME8A00848 M20 2021-07-11 06:25:02 46.2361 14.6146 279 ° 6 km/h 492 m -10.8 m/s 403.001 MHz Kamnik (SI) 0.00 km UNKNOWN
ME8A00850 M20 2021-07-10 06:24:54 46.0377 14.8803 311 ° 24 km/h 713 m -9.1 m/s 403.001 MHz Litija (SI) 0.00 km FOUND
ME8A00852 M20 2021-07-09 05:41:32 46.7622 14.9533 262 ° 26 km/h 18454 m -3.1 m/s 403.000 MHz Sankt Paul im Levanttal (AT) 0.00 km LOST
ME8A00853 M20 2021-07-08 06:32:00 46.5699 15.173 13 ° 7 km/h 904 m -11.2 m/s 403.001 MHz Vuzenica (SI) 0.00 km FOUND
ME8A00847 M20 2021-07-07 06:16:00 46.3801 14.933 62 ° 54 km/h 2383 m -11.5 m/s 403.000 MHz Mozirje (SI) 0.00 km UNKNOWN
ME8A00844 M20 2021-07-06 06:23:39 45.9868 14.9288 306 ° 4 km/h 789 m -10.2 m/s 403.001 MHz Trebnje (SI) 0.00 km UNKNOWN
ME8A00846 M20 2021-07-05 06:24:42 45.5139 15.0369 197 ° 24 km/h 2505 m -10.5 m/s 403.001 MHz Brod Moravice (HR) 0.00 km FOUND
ME8A00849 M20 2021-07-04 06:24:15 46.0621 14.9927 187 ° 9 km/h 1091 m -12.5 m/s 403.000 MHz Zagorje (SI) 0.00 km UNKNOWN
ME8A01162 M20 2021-07-03 06:35:46 45.3862 15.1944 186 ° 33 km/h 1860 m -8.7 m/s 403.000 MHz Bosiljevo (HR) 0.00 km UNKNOWN
ME8A01160 M20 2021-07-02 06:07:36 45.7308 15.3047 256 ° 9 km/h 924 m -4.0 m/s 403.000 MHz Metlika (SI) 0.00 km FOUND
ME8A01156 M20 2021-07-01 06:18:40 46.1966 15.2661 285 ° 19 km/h 1152 m -7.4 m/s 403.000 MHz Celje (SI) 0.00 km UNKNOWN
ME8A01157 M20 2021-06-30 06:19:26 46.4584 15.2672 85 ° 17 km/h 1456 m -5.8 m/s 403.000 MHz Mislinja (SI) 0.00 km UNKNOWN
ME8A01164 M20 2021-06-29 06:13:30 46.4346 15.0597 60 ° 20 km/h 1638 m -8.5 m/s 403.001 MHz Šoštanj (SI) 0.00 km UNKNOWN
ME8A01168 M20 2021-06-28 06:15:09 46.056 15.0214 128 ° 4 km/h 921 m -8.6 m/s 403.000 MHz Zagorje (SI) 0.00 km UNKNOWN
ME8A01169 M20 2021-06-27 06:03:37 45.9977 14.9816 201 ° 7 km/h 642 m -12.4 m/s 403.000 MHz Mirna (SI) 0.00 km UNKNOWN
ME8A01171 M20 2021-06-26 06:22:36 46.0683 14.9156 259 ° 7 km/h 764 m -12.0 m/s 403.001 MHz Litija (SI) 0.00 km UNKNOWN
ME8A01166 M20 2021-06-25 06:18:07 46.5725 15.2125 235 ° 11 km/h 1103 m -10.1 m/s 403.000 MHz Vuzenica (SI) 0.00 km LOST
ME8A01170 M20 2021-06-24 06:20:14 46.5869 15.187 52 ° 7 km/h 987 m -14.0 m/s 403.000 MHz Vuzenica (SI) 0.00 km LOST
ME8A01143 M20 2021-06-23 06:09:07 46.4395 15.0724 311 ° 2 km/h 1288 m -9.7 m/s 403.000 MHz Šoštanj (SI) 0.00 km UNKNOWN
ME8A01145 M20 2021-06-22 06:18:23 46.3853 15.0617 71 ° 33 km/h 1074 m -9.1 m/s 403.005 MHz Šoštanj (SI) 0.00 km UNKNOWN
ME8A01144 M20 2021-06-21 06:10:15 46.256 15.0135 75 ° 44 km/h 857 m -17.6 m/s 403.000 MHz Tabor (SI) 0.00 km UNKNOWN
ME8A01146 M20 2021-06-20 06:32:07 45.6687 14.9123 36 ° 13 km/h 1196 m -11.3 m/s 403.000 MHz Kočevje (SI) 0.00 km FOUND
ME8A01147 M20 2021-06-19 06:05:45 45.7426 14.7844 90 ° 28 km/h 1003 m -13.9 m/s 403.002 MHz Sodražica (SI) 0.00 km NEED ATTENTION
ME8A01148 M20 2021-06-18 06:13:24 46.0479 13.9556 338 ° 6 km/h 1045 m -7.9 m/s 403.001 MHz Idrija (SI) 0.00 km FOUND
ME8A01149 M20 2021-06-17 06:24:27 45.8924 13.7877 327 ° 2 km/h 641 m -10.4 m/s 403.001 MHz Volčja Draga (SI) 0.00 km FOUND
ME8A01151 M20 2021-06-16 05:50:22 45.59 14.4834 305 ° 11 km/h 1266 m -8.2 m/s 403.000 MHz Čabar (HR) 0.00 km UNKNOWN
ME8A01142 M20 2021-06-15 05:58:34 45.5346 14.2776 101 ° 9 km/h 947 m -11.8 m/s 403.000 MHz Ilirska Bistrica (SI) 0.00 km FOUND
ME8A01140 M20 2021-06-14 06:09:54 45.188 14.6223 140 ° 48 km/h 2136 m -8.9 m/s 403.001 MHz Omišalj (HR) 0.00 km FOUND
ME8A01007 M20 2021-06-13 06:24:42 45.2363 14.8666 219 ° 31 km/h 1692 m -8.6 m/s 403.001 MHz Mrkopalj (HR) 0.00 km UNKNOWN
ME8A01032 M20 2021-06-12 06:23:21 45.4458 14.0821 208 ° 26 km/h 1137 m -11.9 m/s 403.002 MHz Lanišće (HR) 0.00 km UNKNOWN
ME8A01004 M20 2021-06-11 06:20:50 45.6389 14.4962 289 ° 24 km/h 1136 m -9.1 m/s 403.000 MHz Stari Trg (SI) 0.00 km UNKNOWN
ME8A01003 M20 2021-06-10 06:21:33 45.7084 14.5149 247 ° 20 km/h 846 m -11.1 m/s 403.000 MHz Stari Trg (SI) 0.00 km UNKNOWN
ME8A01010 M20 2021-06-09 06:22:45 45.8711 14.5255 257 ° 13 km/h 937 m -10.7 m/s 403.001 MHz Velike Lašče (SI) 0.00 km UNKNOWN
ME8A01023 M20 2021-06-08 06:00:36 46.022 14.5389 215 ° 20 km/h 1028 m -11.5 m/s 403.001 MHz Ljubljana (SI) 0.00 km FOUND
ME8A01000 M20 2021-06-07 06:06:09 46.0998 14.0337 258 ° 35 km/h 1119 m -1.7 m/s 403.000 MHz Cerkno (SI) 0.00 km FOUND
ME8A01006 M20 2021-06-06 06:04:20 46.0276 14.9822 200 ° 15 km/h 889 m -12.1 m/s 403.000 MHz Mirna (SI) 0.00 km UNKNOWN
ME8A01016 M20 2021-06-05 06:11:09 45.8703 15.0435 102 ° 11 km/h 492 m -7.7 m/s 403.000 MHz Mirna Peč (SI) 0.00 km FOUND
ME8A00994 M20 2021-06-04 06:44:51 45.8259 14.8901 325 ° 6 km/h 622 m -10.6 m/s 403.000 MHz Žužemberk (SI) 0.00 km FOUND
ME8A00997 M20 2021-06-03 05:57:20 45.5712 14.83 136 ° 11 km/h 1369 m -10.4 m/s 403.006 MHz Kočevje (SI) 0.00 km UNKNOWN
ME8A01029 M20 2021-06-02 06:01:22 45.7356 14.8957 315 ° 17 km/h 908 m -8.0 m/s 403.006 MHz Kočevje (SI) 0.00 km NEED ATTENTION
ME8A01008 M20 2021-06-01 05:42:26 45.6128 14.6657 217 ° 15 km/h 1832 m -11.6 m/s 403.006 MHz Čabar (HR) 0.00 km UNKNOWN
ME8A01013 M20 2021-05-31 05:37:23 45.7127 14.5592 266 ° 30 km/h 1421 m -9.9 m/s 403.006 MHz Hrib-Loški Potok (SI) 0.00 km UNKNOWN
ME8A01005 M20 2021-05-30 05:33:06 45.7321 14.5837 156 ° 56 km/h 5289 m -12.8 m/s 403.008 MHz Hrib-Loški Potok (SI) 0.00 km FOUND
ME8A01017 M20 2021-05-29 05:55:12 45.7953 15.4191 336 ° 9 km/h 1114 m -9.8 m/s 403.004 MHz Žumberak (HR) 0.00 km UNKNOWN
ME8A01021 M20 2021-05-28 05:43:33 45.5319 15.0515 177 ° 24 km/h 2767 m -12.4 m/s 403.004 MHz Brod Moravice (HR) 0.00 km FOUND
ME8A00991 M20 2021-05-27 06:01:56 46.1762 15.1638 32 ° 7 km/h 1267 m -9.8 m/s 403.004 MHz Laško (SI) 0.00 km UNKNOWN
ME8A01022 M20 2021-05-26 05:59:06 46.2577 15.3844 4 ° 24 km/h 1044 m -10.0 m/s 403.005 MHz Šentjur (SI) 0.00 km UNKNOWN
ME8A01015 M20 2021-05-25 05:43:28 46.543 15.4733 94 ° 24 km/h 785 m -11.0 m/s 403.008 MHz Selnica ob Dravi (SI) 0.00 km FOUND
ME8A00996 M20 2021-05-24 05:47:42 46.3484 15.6373 36 ° 7 km/h 405 m -6.4 m/s 403.005 MHz Makole (SI) 0.00 km UNKNOWN
ME8A01019 M20 2021-05-23 05:53:31 46.3468 16.1177 324 ° 13 km/h 401 m -11.7 m/s 403.004 MHz Cestica (HR) 0.00 km FOUND
ME8A01025 M20 2021-05-22 05:54:58 46.2802 16.0354 45 ° 31 km/h 609 m -12.2 m/s 403.004 MHz Klenovnik (HR) 0.00 km UNKNOWN
ME8A00995 M20 2021-05-21 05:38:00 45.6662 15.3053 114 ° 65 km/h 13705 m -23.4 m/s 403.005 MHz Metlika (SI) 0.00 km UNKNOWN
ME8A01027 M20 2021-05-20 05:29:16 45.8615 14.6982 199 ° 44 km/h 3755 m -11.0 m/s 403.003 MHz Videm (SI) 0.00 km FOUND
ME8A00992 M20 2021-05-19 05:55:58 46.1619 15.0691 180 ° 39 km/h 1112 m -9.4 m/s 403.005 MHz Trbovlje (SI) 0.00 km UNKNOWN
ME8A00976 M20 2021-05-18 05:53:50 45.8771 15.4664 162 ° 13 km/h 1691 m -7.5 m/s 403.005 MHz Kostanjevica na Krki (SI) 0.00 km FOUND
ME8A00993 M20 2021-05-17 06:06:25 46.1686 15.7618 172 ° 46 km/h 810 m -8.9 m/s 403.004 MHz Pregrada (HR) 0.00 km FOUND
ME8A00999 M20 2021-05-16 06:02:56 45.7519 15.8561 90 ° 31 km/h 818 m -12.6 m/s 403.004 MHz Gornji Stupnik (HR) 0.00 km FOUND
ME8A00998 M20 2021-05-15 05:49:19 46.2007 14.879 247 ° 7 km/h 992 m -8.5 m/s 403.006 MHz Vransko (SI) 0.00 km UNKNOWN
ME8A00978 M20 2021-05-14 05:50:08 46.1539 14.7064 108 ° 7 km/h 1317 m -7.7 m/s 403.001 MHz Lukovica (SI) 0.00 km NEED ATTENTION
ME8A00981 M20 2021-05-13 05:56:56 46.1444 14.6337 33 ° 7 km/h 749 m -10.2 m/s 403.001 MHz Domžale (SI) 0.00 km UNKNOWN
ME8A01001 M20 2021-05-12 06:06:36 46.3994 14.251 312 ° 74 km/h 6410 m -13.1 m/s MHz Tržič (SI) 0.00 km UNKNOWN
ME8A00986 M20 2021-05-11 06:04:00 46.5023 15.0426 16 ° 9 km/h 906 m -8.4 m/s 403.000 MHz Slovenj Gradec (SI) 0.00 km UNKNOWN
ME8A00987 M20 2021-05-10 05:48:36 46.293 15.1175 80 ° 56 km/h 1372 m -9.8 m/s 403.000 MHz Polzela (SI) 0.00 km NEED ATTENTION
ME8A00980 M20 2021-05-09 05:47:51 46.006 15.0444 77 ° 11 km/h 719 m -9.5 m/s 403.003 MHz Šentrupert (SI) 0.00 km UNKNOWN
ME8A00982 M20 2021-05-08 05:45:47 45.5538 15.5604 315 ° 20 km/h 1188 m -8.8 m/s 403.004 MHz Draganići (HR) 0.00 km UNKNOWN
ME8A00979 M20 2021-05-07 05:57:50 46.2606 16.3485 120 ° 19 km/h 319 m -9.0 m/s 403.003 MHz Sveti Ilija (HR) 0.00 km FOUND
ME8A00984 M20 2021-05-06 06:02:53 46.0104 16.3029 350 ° 19 km/h 647 m -8.2 m/s 403.001 MHz Bedenica (HR) 0.00 km FOUND
ME8A01011 M20 2021-05-05 06:06:52 46.2465 16.0057 51 ° 37 km/h 677 m -7.2 m/s 403.001 MHz Bednja (HR) 0.00 km FOUND
ME8A01037 M20 2021-05-04 06:13:16 46.0449 15.4394 104 ° 31 km/h 8006 m -15.6 m/s 403.005 MHz Kozje (SI) 0.00 km UNKNOWN
ME8A01009 M20 2021-05-03 05:29:40 46.1759 15.4566 103 ° 6 km/h 983 m -8.4 m/s 403.001 MHz Dobje (SI) 0.00 km NEED ATTENTION
ME8A01038 M20 2021-05-02 05:53:15 46.5999 15.9885 25 ° 39 km/h 348 m -11.3 m/s 403.000 MHz Sveti Jurij (SI) 0.00 km FOUND
ME8A01012 M20 2021-05-01 06:05:01 46.4749 16.2575 80 ° 13 km/h 344 m -9.4 m/s 403.001 MHz Štrigova (HR) 0.00 km FOUND
ME8A01026 M20 2021-04-30 05:59:36 46.2311 15.9966 59 ° 28 km/h 713 m -5.3 m/s 403.000 MHz Bednja (HR) 0.00 km FOUND
ME8A01024 M20 2021-04-29 05:59:05 46.2942 15.7139 51 ° 63 km/h 862 m -10.3 m/s 403.004 MHz Makole (SI) 0.00 km FOUND
ME8A01036 M20 2021-04-28 05:44:00 46.2215 15.0983 325 ° 7 km/h 1130 m -9.0 m/s 403.001 MHz Prebold (SI) 0.00 km FOUND
ME8A01014 M20 2021-04-27 05:51:26 46.0992 15.3411 265 ° 17 km/h 936 m -10.3 m/s 403.001 MHz Dobje (SI) 0.00 km NEED ATTENTION
ME8A01035 M20 2021-04-26 05:48:40 45.8495 15.8188 291 ° 37 km/h 905 m -9.7 m/s 403.001 MHz Zaprešić (HR) 0.00 km FOUND
ME8A00958 M20 2021-04-25 05:50:13 45.8216 15.4153 54 ° 6 km/h 1220 m -9.1 m/s 403.001 MHz Kostanjevica na Krki (SI) 0.00 km FOUND
ME8A00959 M20 2021-04-24 05:42:32 45.7369 14.899 150 ° 61 km/h 8558 m -4.3 m/s 403.005 MHz Kočevje (SI) 0.00 km UNKNOWN
ME8A00955 M20 2021-04-23 05:47:48 45.7251 14.8263 160 ° 35 km/h 3661 m -10.8 m/s 403.002 MHz Kočevje (SI) 0.00 km FOUND
ME8A00961 M20 2021-04-22 05:08:10 46.035 14.6421 75 ° 20 km/h 634 m -7.6 m/s 403.001 MHz Dol (SI) 0.00 km FOUND
ME8A00966 M20 2021-04-21 05:51:38 45.9127 14.745 116 ° 19 km/h 2580 m -7.4 m/s 403.001 MHz Ivančna Gorica (SI) 0.00 km FOUND
ME8A00957 M20 2021-04-20 06:06:06 45.8532 14.4901 158 ° 15 km/h 1572 m -8.6 m/s 403.000 MHz Nova Vas (SI) 0.00 km UNKNOWN
ME8A00967 M20 2021-04-19 06:25:38 46.0145 14.4457 229 ° 22 km/h 1869 m -9.8 m/s 403.001 MHz Brezovica (SI) 0.00 km FOUND
ME8A00965 M20 2021-04-18 05:51:27 46.2159 14.478 239 ° 37 km/h 2857 m -9.9 m/s 403.002 MHz Vodice (SI) 0.00 km FOUND
ME8A00960 M20 2021-04-17 05:58:46 46.2651 14.9465 55 ° 30 km/h 12696 m -18.8 m/s 403.002 MHz Vransko (SI) 0.00 km FOUND
ME8A00953 M20 2021-04-16 05:49:10 46.0606 15.0925 100 ° 41 km/h 6249 m -11.8 m/s 403.002 MHz Radeče (SI) 0.00 km FOUND
ME8A00968 M20 2021-04-15 05:38:07 46.0122 15.0252 153 ° 33 km/h 3942 m -9.5 m/s 403.003 MHz Šentrupert (SI) 0.00 km FOUND
ME8A00969 M20 2021-04-14 05:49:01 45.9776 14.9371 138 ° 22 km/h 4773 m -12.1 m/s 403.002 MHz Trebnje (SI) 0.00 km NEED ATTENTION
ME8A00970 M20 2021-04-13 05:43:35 46.3872 14.6032 2 ° 37 km/h 3615 m -7.5 m/s 403.003 MHz Solčava (SI) 0.00 km UNKNOWN
ME8A00971 M20 2021-04-12 05:54:27 46.4513 15.2855 33 ° 31 km/h 4940 m -14.3 m/s 403.001 MHz Mislinja (SI) 0.00 km UNKNOWN
ME0923516 M10 2021-04-11 06:09:30 46.4113 15.5919 63 ° 30 km/h 427 m -13.4 m/s 403.000 MHz Slovenska Bistrica (SI) 0.00 km FOUND
ME09234FE M10 2021-04-10 06:04:30 46.0875 15.5056 83 ° 24 km/h 735 m -12.3 m/s 403.000 MHz Kozje (SI) 0.00 km UNKNOWN
ME0923512 M10 2021-04-09 06:23:31 45.6084 15.7043 54 ° 28 km/h 986 m -12.4 m/s 403.000 MHz Jastrebarsko (HR) 0.00 km UNKNOWN
ME092350C M10 2021-04-08 05:15:25 45.6686 14.9948 117 ° 76 km/h 13543 m 5.1 m/s MHz Kočevje (SI) 0.00 km UNKNOWN
ME0923599 M10 2021-04-07 06:05:00 46.0435 15.983 92 ° 11 km/h 643 m -14.0 m/s 403.001 MHz Zabok (HR) 0.00 km FOUND
ME09234FB M10 2021-04-06 06:42:00 46.3553 16.731 51 ° 85 km/h 4104 m -14.7 m/s 402.999 MHz Sveta Marija (HR) 0.00 km FOUND
ME092350B M10 2021-04-05 06:17:39 45.8255 15.1212 99 ° 41 km/h 842 m -9.6 m/s 403.000 MHz Novo Mesto (SI) 0.00 km FOUND
ME0923511 M10 2021-04-04 06:02:30 45.447 14.5159 218 ° 52 km/h 1406 m -11.8 m/s 403.001 MHz Jelenje (HR) 0.00 km UNKNOWN
ME092336F M10 2021-04-03 06:00:18 45.8117 15.4576 300 ° 31 km/h 1015 m -8.8 m/s 403.000 MHz Kostanjevica na Krki (SI) 0.00 km UNKNOWN
ME0923497 M10 2021-04-02 06:27:28 45.635 14.96 122 ° 43 km/h 3838 m -15.3 m/s 403.001 MHz Kočevje (SI) 0.00 km FOUND
ME092335E M10 2021-04-01 05:53:09 45.8942 14.7549 126 ° 11 km/h 2494 m -8.5 m/s 403.000 MHz Ivančna Gorica (SI) 0.00 km UNKNOWN
ME092344A M10 2021-03-31 06:33:42 45.8237 14.1945 209 ° 20 km/h 2961 m -14.7 m/s 403.000 MHz Postojna (SI) 0.00 km FOUND
ME09233F6 M10 2021-03-30 06:28:41 45.5163 14.2501 209 ° 26 km/h 1865 m -13.9 m/s 403.000 MHz Ilirska Bistrica (SI) 0.00 km UNKNOWN
ME09233FB M10 2021-03-29 06:06:00 45.4179 14.601 160 ° 15 km/h 2440 m -17.0 m/s 403.000 MHz Čavle (HR) 0.00 km UNKNOWN
ME09234FD M10 2021-03-27 06:10:56 46.0236 15.3462 87 ° 43 km/h 1924 m -14.8 m/s 403.000 MHz Sevnica (SI) 0.00 km UNKNOWN
ME09234FF M10 2021-03-26 06:14:36 45.9295 14.8862 354 ° 30 km/h 8566 m -21.0 m/s 403.000 MHz Ivančna Gorica (SI) 0.00 km FOUND
ME09234FA M10 2021-03-25 06:27:58 45.4409 14.6273 196 ° 50 km/h 4207 m -16.6 m/s 403.000 MHz Osilnica (SI) 0.00 km UNKNOWN
ME09234A8 M10 2021-03-24 06:24:00 45.5411 14.5249 198 ° 59 km/h 3354 m -15.6 m/s 403.001 MHz Čabar (HR) 0.00 km UNKNOWN
ME0923486 M10 2021-03-23 05:59:38 45.5631 14.383 206 ° 85 km/h 11577 m -25.9 m/s MHz Ilirska Bistrica (SI) 0.00 km FOUND
ME092344F M10 2021-03-22 06:03:08 45.4287 14.1535 213 ° 81 km/h 2125 m -9.8 m/s 403.001 MHz Lanišće (HR) 0.00 km UNKNOWN
ME0923490 M10 2021-03-21 05:55:44 45.6315 13.9743 234 ° 89 km/h 2991 m -13.1 m/s 403.001 MHz Kozina (SI) 0.00 km FOUND
ME0923360 M10 2021-03-20 06:04:34 45.7926 14.6891 245 ° 15 km/h 2708 m -15.5 m/s 403.001 MHz Sodražica (SI) 0.00 km FOUND
ME0923448 M10 2021-03-19 06:20:20 45.7763 14.8542 114 ° 35 km/h 8518 m -19.9 m/s 403.000 MHz Žužemberk (SI) 0.00 km FOUND
ME0923447 M10 2021-03-18 06:13:14 45.7504 14.7677 177 ° 13 km/h 6187 m -17.9 m/s 403.001 MHz Sodražica (SI) 0.00 km FOUND
ME0923451 M10 2021-03-17 05:56:46 45.5197 14.8135 168 ° 46 km/h 2821 m -12.9 m/s 403.000 MHz Kostel (SI) 0.00 km UNKNOWN
ME092344D M10 2021-03-16 06:13:03 45.6124 14.8926 189 ° 30 km/h 1408 m -14.5 m/s 403.000 MHz Kočevje (SI) 0.00 km FOUND
ME092343D M10 2021-03-15 05:46:18 45.8402 14.8656 182 ° 63 km/h 2314 m -13.7 m/s 403.000 MHz Žužemberk (SI) 0.00 km UNKNOWN
ME0923449 M10 2021-03-14 06:07:29 46.2566 16.1846 38 ° 26 km/h 493 m -12.6 m/s 403.000 MHz Maruševec (HR) 0.00 km FOUND
ME09234A9 M10 2021-03-13 06:05:22 45.773 15.7403 13 ° 9 km/h 1051 m -11.6 m/s 403.001 MHz Samobor (HR) 0.00 km UNKNOWN
ME092344C M10 2021-03-12 06:30:30 45.8793 17.1389 60 ° 44 km/h 910 m -13.5 m/s 403.000 MHz Šandrovac (HR) 0.00 km UNKNOWN
ME092344E M10 2021-03-11 06:13:51 45.0901 15.2518 145 ° 41 km/h 2540 m -11.6 m/s 403.001 MHz Plaški (HR) 0.00 km UNKNOWN
ME0923474 M10 2021-03-10 06:05:29 45.7348 15.3107 240 ° 35 km/h 1781 m -15.5 m/s 403.000 MHz Žumberak (HR) 0.00 km FOUND
ME09233DC M10 2021-03-09 06:07:41 45.9395 15.697 284 ° 19 km/h 1280 m -14.1 m/s 403.000 MHz Dubravica (HR) 0.00 km UNKNOWN
ME8A00972 M20 2021-03-08 06:34:10 45.6691 15.8651 108 ° 61 km/h 4432 m -10.4 m/s 403.005 MHz Klinča Sela (HR) 0.00 km NEED ATTENTION
ME092343F M10 2021-03-07 06:40:11 45.7845 15.7542 340 ° 15 km/h 1423 m -12.1 m/s 403.000 MHz Sveta Nedjelja (HR) 0.00 km UNKNOWN
ME09233DB M10 2021-03-06 06:26:47 45.649 15.2691 211 ° 43 km/h 2439 m -13.3 m/s 403.000 MHz Metlika (SI) 0.00 km FOUND
ME092350E M10 2021-03-05 06:25:00 46.1694 16.1107 64 ° 24 km/h 899 m -10.1 m/s 403.000 MHz Zlatar (HR) 0.00 km FOUND
ME0923500 M10 2021-03-04 06:04:50 46.0653 15.1484 90 ° 41 km/h 4753 m -12.8 m/s 403.000 MHz Radeče (SI) 0.00 km UNKNOWN
ME09233EF M10 2021-03-03 06:20:40 46.0408 14.8197 60 ° 28 km/h 6065 m -18.5 m/s 403.000 MHz Litija (SI) 0.00 km UNKNOWN
ME09234A2 M10 2021-03-02 06:07:14 45.8571 14.3396 263 ° 31 km/h 4471 m -14.6 m/s 403.000 MHz Cerknica (SI) 0.00 km FOUND
ME092347B M10 2021-03-01 06:07:37 45.7347 14.5992 265 ° 28 km/h 1211 m -11.9 m/s 403.000 MHz Hrib-Loški Potok (SI) 0.00 km FOUND
ME09233E1 M10 2021-02-28 06:02:22 45.7656 14.2024 250 ° 59 km/h 1167 m -11.3 m/s 403.000 MHz Postojna (SI) 0.00 km FOUND
ME092348E M10 2021-02-27 06:42:14 45.9394 15.4343 217 ° 46 km/h 1129 m -9.7 m/s 403.000 MHz Krško (SI) 0.00 km FOUND
ME092348F M10 2021-02-26 06:14:14 46.1286 14.8504 62 ° 37 km/h 6283 m -18.8 m/s 403.000 MHz Litija (SI) 0.00 km UNKNOWN
ME09233F0 M10 2021-02-24 06:10:30 45.6388 14.4051 276 ° 30 km/h 2333 m -11.8 m/s 403.000 MHz Stari Trg (SI) 0.00 km UNKNOWN
ME09234BC M10 2021-02-23 05:55:16 46.0876 14.7933 90 ° 22 km/h 5549 m -12.0 m/s 403.000 MHz Litija (SI) 0.00 km UNKNOWN
ME0923496 M10 2021-02-22 06:07:53 46.3532 14.7964 63 ° 37 km/h 2956 m -16.4 m/s 403.000 MHz Ljubno (SI) 0.00 km UNKNOWN
ME09234A4 M10 2021-02-21 06:21:10 45.703 14.7271 229 ° 30 km/h 5378 m -17.0 m/s 403.000 MHz Sodražica (SI) 0.00 km FOUND
ME09233EE M10 2021-02-20 05:57:44 45.5765 14.8686 144 ° 24 km/h 2873 m -15.9 m/s 403.000 MHz Kočevje (SI) 0.00 km UNKNOWN
ME0923480 M10 2021-02-19 06:08:30 45.9573 15.556 96 ° 61 km/h 742 m -12.4 m/s 403.000 MHz Krško (SI) 0.00 km UNKNOWN
ME0923495 M10 2021-02-18 06:22:29 45.4505 15.3642 81 ° 15 km/h 1714 m -16.4 m/s 403.000 MHz Bosiljevo (HR) 0.00 km FOUND
ME09234A1 M10 2021-02-17 06:28:42 45.8855 15.6621 114 ° 9 km/h 2825 m -14.9 m/s 403.000 MHz Brežice (SI) 0.00 km UNKNOWN
ME09234A5 M10 2021-02-16 06:15:32 45.2347 15.0986 137 ° 52 km/h 14812 m -33.2 m/s 403.000 MHz Ogulin (HR) 0.00 km UNKNOWN
ME09234A6 M10 2021-02-15 06:06:30 44.7992 14.6227 181 ° 63 km/h 3847 m -9.8 m/s 403.000 MHz Lopar (HR) 0.00 km LOST
ME09233E0 M10 2021-02-14 06:08:00 45.3616 14.5485 227 ° 20 km/h 694 m -12.8 m/s 403.000 MHz Bakar (HR) 0.00 km UNKNOWN
ME0923476 M10 2021-02-13 06:17:00 45.7885 15.837 236 ° 35 km/h 739 m -8.8 m/s 403.000 MHz Gornji Stupnik (HR) 0.00 km UNKNOWN
ME09233EC M10 2021-02-12 06:07:59 45.4046 16.1112 207 ° 19 km/h 1107 m -12.5 m/s 403.000 MHz Glina (HR) 0.00 km UNKNOWN
ME09233F5 M10 2021-02-11 05:38:26 45.8714 15.1996 103 ° 46 km/h 4895 m -12.9 m/s 403.000 MHz Šmarješke Toplice (SI) 0.00 km UNKNOWN
ME0923400 M10 2021-02-10 05:53:58 46.4712 15.8582 304 ° 6 km/h 413 m -13.0 m/s 403.000 MHz Destrnik (SI) 0.00 km FOUND
ME09233F9 M10 2021-02-09 05:57:35 46.4496 15.7153 249 ° 39 km/h 268 m -11.0 m/s 403.000 MHz Rače (SI) 0.00 km FOUND
ME09233F4 M10 2021-02-08 05:51:35 46.5474 15.2074 49 ° 56 km/h 1980 m -13.7 m/s 403.000 MHz Ribnica (SI) 0.00 km UNKNOWN
ME09233EA M10 2021-02-07 06:16:01 46.6914 16.2371 10 ° 6 km/h 265 m -13.0 m/s 403.000 MHz Moravske-Toplice (SI) 0.00 km LOST
ME09233F7 M10 2021-02-06 06:07:20 46.1145 16.0552 46 ° 17 km/h 395 m -13.6 m/s 403.000 MHz Mače (HR) 0.00 km UNKNOWN
ME09233EB M10 2021-02-05 06:00:30 46.0473 16.1675 60 ° 31 km/h 658 m -10.0 m/s 403.000 MHz Konjšćina (HR) 0.00 km FOUND
ME0923328 M10 2021-02-04 06:03:00 45.8683 16.6247 62 ° 37 km/h 253 m -10.0 m/s 403.000 MHz Farkaševac (HR) 0.00 km FOUND
ME09233AD M10 2021-02-03 06:07:42 45.6319 16.0995 67 ° 31 km/h 994 m -9.5 m/s 403.000 MHz Kravarsko (HR) 0.00 km UNKNOWN
ME0923401 M10 2021-02-02 05:50:45 45.5832 15.0033 90 ° 35 km/h 1264 m -13.9 m/s 403.000 MHz Kostel (SI) 0.00 km FOUND
ME09233FD M10 2021-02-01 05:12:00 46.0728 14.6096 209 ° 6 km/h 1054 m -14.6 m/s 403.000 MHz Dol (SI) 0.00 km FOUND
ME0923322 M10 2021-01-31 05:40:17 46.2571 14.9113 216 ° 13 km/h 1132 m -10.0 m/s 403.000 MHz Vransko (SI) 0.00 km UNKNOWN
ME09233ED M10 2021-01-30 06:08:06 44.9841 15.6683 104 ° 17 km/h 2149 m -9.8 m/s 403.000 MHz Rakovica (HR) 0.00 km UNKNOWN
ME09233FE M10 2021-01-29 05:55:03 45.5228 15.8053 82 ° 57 km/h 1169 m -13.5 m/s 403.000 MHz Lasinja (HR) 0.00 km UNKNOWN
ME09233D1 M10 2021-01-28 05:50:56 44.6449 15.2154 159 ° 107 km/h 4850 m -13.5 m/s 403.000 MHz Perušić (HR) 0.00 km UNKNOWN
ME09233CF M10 2021-01-27 05:53:07 44.9767 15.1287 176 ° 33 km/h 2476 m -14.7 m/s 403.000 MHz Brinje (HR) 0.00 km UNKNOWN
ME092333A M10 2021-01-26 05:46:24 45.6768 15.264 176 ° 52 km/h 3570 m -9.2 m/s 403.000 MHz Metlika (SI) 0.00 km FOUND
ME0923327 M10 2021-01-25 05:45:30 45.9082 15.5909 4 ° 11 km/h 637 m -12.7 m/s 403.000 MHz Brežice (SI) 0.00 km FOUND
P4920491 RS41 2021-01-24 15:18:19 46.8474 16.1202 169 ° 7 km/h 401 m -2.0 m/s 403.98 MHz Kuzma (SI) 0.00 km FOUND
ME0923385 M10 2021-01-24 06:03:40 46.1353 15.927 319 ° 4 km/h 398 m -9.7 m/s 403.000 MHz Radoboj (HR) 0.00 km UNKNOWN
ME092338B M10 2021-01-23 05:34:26 46.5886 14.9451 12 ° 30 km/h 1319 m -13.8 m/s 403.000 MHz Prevalje (SI) 0.00 km UNKNOWN
ME092347C M10 2021-01-22 06:07:35 46.6578 15.9276 31 ° 37 km/h 463 m -15.6 m/s 403.000 MHz Apače (SI) 0.00 km LOST
ME0923404 M10 2021-01-21 06:05:00 46.2512 15.5392 61 ° 43 km/h 543 m -11.1 m/s 403.000 MHz Šmarje (SI) 0.00 km UNKNOWN
ME09231EA M10 2021-01-20 06:17:00 45.7021 16.4023 68 ° 57 km/h 1014 m -14.7 m/s 403.000 MHz Ivanić-Grad (HR) 0.00 km FOUND
ME092323B M10 2021-01-19 06:02:10 45.0425 15.393 130 ° 44 km/h 2669 m -12.0 m/s 403.000 MHz Plaški (HR) 0.00 km UNKNOWN
ME0923387 M10 2021-01-18 05:52:22 45.6672 14.9906 176 ° 85 km/h 2753 m -13.2 m/s 403.000 MHz Kočevje (SI) 0.00 km FOUND
ME0923383 M10 2021-01-17 05:57:30 45.1713 15.4676 124 ° 30 km/h 2224 m -15.6 m/s 403.000 MHz Slunj (HR) 0.00 km UNKNOWN
ME0923392 M10 2021-01-16 06:08:12 45.0853 15.0408 173 ° 56 km/h 3743 m -16.4 m/s 403.000 MHz Brinje (HR) 0.00 km UNKNOWN
ME092337E M10 2021-01-15 06:09:41 45.3975 15.7898 236 ° 22 km/h 1357 m -11.0 m/s 403.000 MHz Gvozd (HR) 0.00 km UNKNOWN
ME092338A M10 2021-01-14 06:01:19 44.807 16.506 122 ° 81 km/h 2956 m -12.7 m/s 403.000 MHz Sanski Most (BA) 0.00 km UNKNOWN
ME09234BF M10 2021-01-13 05:52:00 45.4429 15.3882 235 ° 31 km/h 1369 m -4.1 m/s 403.000 MHz Netretić (HR) 0.00 km UNKNOWN
ME0923380 M10 2021-01-12 06:03:34 45.7813 15.4097 192 ° 65 km/h 5176 m -17.6 m/s 403.000 MHz Žumberak (HR) 0.00 km UNKNOWN
ME0923381 M10 2021-01-11 05:41:34 46.1501 15.1381 82 ° 133 km/h 20743 m -36.7 m/s 403.000 MHz Hrastnik (SI) 0.00 km LOST
ME0923364 M10 2021-01-10 07:45:35 46.504 17.8998 247 ° 19 km/h 485 m -3.7 m/s 403.000 MHz Kaposvár (HU) 0.00 km FOUND
ME092337F M10 2021-01-09 06:00:00 45.9997 16.4174 302 ° 19 km/h 853 m -10.5 m/s 403.001 MHz Preseka (HR) 0.00 km UNKNOWN
ME092338D M10 2021-01-08 05:56:01 46.3335 15.9248 184 ° 11 km/h 414 m -9.6 m/s 403.002 MHz Podlehnik (SI) 0.00 km FOUND
ME09234B1 M10 2021-01-07 06:20:00 46.0802 16.0336 93 ° 13 km/h 503 m -8.1 m/s 403.001 MHz Mače (HR) 0.00 km UNKNOWN
ME0923370 M10 2021-01-06 05:57:05 46.3375 15.0041 52 ° 41 km/h 2862 m -10.6 m/s 403.002 MHz Šmartno (SI) 0.00 km UNKNOWN
ME0923388 M10 2021-01-05 05:49:44 46.3379 14.8312 46 ° 37 km/h 14333 m -15.8 m/s 403.201 MHz Ljubno (SI) 0.00 km UNKNOWN
ME092335F M10 2021-01-04 05:45:03 46.3551 14.5255 318 ° 15 km/h 2871 m -9.0 m/s 403.002 MHz Zgornje Jezersko (SI) 0.00 km UNKNOWN
ME092338E M10 2021-01-03 05:50:39 46.5191 14.9661 143 ° 6 km/h 952 m -10.1 m/s 403.001 MHz Ravne na Koroškem (SI) 0.00 km UNKNOWN
ME09233DA M10 2021-01-02 05:27:15 46.3022 14.6374 35 ° 28 km/h 2118 m -2.7 m/s 403.000 MHz Kamnik (SI) 0.00 km UNKNOWN
ME09233F3 M10 2021-01-01 06:03:47 46.1407 15.6443 79 ° 33 km/h 787 m -10.6 m/s 403.000 MHz Desinić (HR) 0.00 km UNKNOWN
ME0923433 M10 2020-12-31 05:56:48 46.3805 15.2349 256 ° 35 km/h 1773 m -9.7 m/s 403.000 MHz Vitanje (SI) 0.00 km UNKNOWN
ME092342F M10 2020-12-30 06:18:17 47.2607 16.0245 39 ° 9 km/h 547 m -12.1 m/s 403.000 MHz Hartberg (AT) 0.00 km FOUND
ME0923481 M10 2020-12-29 06:40:30 47.0357 17.288 33 ° 70 km/h 368 m -3.1 m/s 403.000 MHz Csabrendek (HU) 0.00 km FOUND
ME0923475 M10 2020-12-28 05:41:35 46.552 15.5989 81 ° 4 km/h 333 m -13.7 m/s 403.000 MHz Maribor (SI) 0.00 km FOUND
ME092342E M10 2020-12-27 06:08:20 46.1361 14.8335 349 ° 35 km/h 3494 m -15.5 m/s 403.000 MHz Moravče (SI) 0.00 km FOUND
ME092342C M10 2020-12-26 05:36:22 46.1108 14.7407 218 ° 46 km/h 1755 m -10.4 m/s 403.000 MHz Moravče (SI) 0.00 km UNKNOWN
ME0923407 M10 2020-12-25 05:51:30 46.431 16.1225 85 ° 7 km/h 365 m -11.8 m/s 403.000 MHz Ormož (SI) 0.00 km LOST
ME09234C0 M10 2020-12-24 06:07:00 46.1735 16.2826 90 ° 20 km/h 611 m -14.4 m/s 403.000 MHz Novi Marof (HR) 0.00 km UNKNOWN
ME0923427 M10 2020-12-23 06:31:00 45.5874 16.3993 66 ° 30 km/h 536 m -15.0 m/s 403.000 MHz Martinska Ves (HR) 0.00 km FOUND
ME0923414 M10 2020-12-22 06:09:45 45.3998 15.3453 174 ° 30 km/h 2375 m -16.2 m/s 403.000 MHz Bosiljevo (HR) 0.00 km UNKNOWN
ME0923402 M10 2020-12-21 06:13:30 45.9997 15.2212 129 ° 20 km/h 1969 m -10.1 m/s 403.000 MHz Sevnica (SI) 0.00 km UNKNOWN
ME0923405 M10 2020-12-20 05:53:30 45.9691 14.954 96 ° 44 km/h 2063 m -12.6 m/s 403.000 MHz Trebnje (SI) 0.00 km UNKNOWN
ME0923428 M10 2020-12-19 06:01:29 46.1941 14.6807 61 ° 35 km/h 1986 m -8.9 m/s 403.000 MHz Lukovica (SI) 0.00 km UNKNOWN
ME0923424 M10 2020-12-18 07:12:00 46.1598 15.4629 129 ° 2 km/h 471 m -3.0 m/s 403.000 MHz Dobje (SI) 0.00 km UNKNOWN
ME0923403 M10 2020-12-17 06:50:30 45.4259 15.7863 95 ° 44 km/h 1376 m -3.7 m/s 403.000 MHz Gvozd (HR) 0.00 km UNKNOWN
ME092347A M10 2020-12-16 06:00:01 46.4555 15.1571 52 ° 11 km/h 1316 m -13.7 m/s 403.000 MHz Mislinja (SI) 0.00 km UNKNOWN
ME022230C M10 2020-12-15 06:15:47 45.9912 15.1381 75 ° 7 km/h 555 m -13.3 m/s 403.000 MHz Šentrupert (SI) 0.00 km FOUND
ME0222392 M10 2020-12-14 05:44:10 45.2783 14.8976 169 ° 133 km/h 9943 m -11.9 m/s 403.000 MHz Mrkopalj (HR) 0.00 km UNKNOWN
ME0222391 M10 2020-12-13 06:15:05 45.75 14.7501 212 ° 48 km/h 2850 m -9.3 m/s 403.000 MHz Sodražica (SI) 0.00 km UNKNOWN
ME0222376 M10 2020-12-12 06:16:01 46.1828 15.0478 49 ° 37 km/h 2058 m -15.4 m/s 403.000 MHz Trbovlje (SI) 0.00 km FOUND
ME02222F7 M10 2020-12-11 06:06:06 45.6593 14.9085 188 ° 63 km/h 6885 m -11.5 m/s 403.000 MHz Kočevje (SI) 0.00 km LOST
ME022238C M10 2020-12-10 07:50:11 46.231 14.9222 357 ° 9 km/h 1004 m -3.2 m/s 403.001 MHz Vransko (SI) 0.00 km UNKNOWN
ME022238D M10 2020-12-09 05:40:46 46.5138 14.3663 266 ° 26 km/h 1508 m -12.9 m/s 403.000 MHz Ferlach (AT) 0.00 km UNKNOWN
ME02222F6 M10 2020-12-08 05:33:53 46.4155 14.8483 357 ° 26 km/h 1711 m -7.5 m/s 403.000 MHz Črna na Koroškem (SI) 0.00 km UNKNOWN
ME022231C M10 2020-12-07 06:26:05 47.0163 14.7274 23 ° 33 km/h 2438 m -16.6 m/s 403.000 MHz Obdach (AT) 0.00 km UNKNOWN
ME0222307 M10 2020-12-06 06:08:37 47.2302 14.927 351 ° 52 km/h 1786 m -16.0 m/s 403.000 MHz Sankt Margarethen bei Knittelfeld (AT) 0.00 km FOUND
ME02222F8 M10 2020-12-05 06:16:27 47.2159 15.4204 12 ° 46 km/h 1197 m -14.3 m/s 403.000 MHz Semriach (AT) 0.00 km FOUND
ME022238E M10 2020-12-04 06:35:05 46.6575 15.3715 60 ° 30 km/h 1032 m -12.9 m/s 403.000 MHz Podvelka (SI) 0.00 km FOUND
ME02222F4 M10 2020-12-03 07:09:41 47.4545 15.0629 282 ° 9 km/h 1396 m -3.0 m/s 403.000 MHz Trofaiach (AT) 0.00 km FOUND
ME02222F3 M10 2020-12-02 05:51:54 46.3585 14.5884 325 ° 26 km/h 2206 m -13.8 m/s 403.000 MHz Zgornje Jezersko (SI) 0.00 km UNKNOWN
ME0222386 M10 2020-12-01 06:10:48 46.1686 14.9865 250 ° 6 km/h 843 m -14.1 m/s 403.000 MHz Zagorje (SI) 0.00 km UNKNOWN
ME022238A M10 2020-11-30 06:08:08 45.562 14.6242 287 ° 30 km/h 1191 m -9.5 m/s 403.000 MHz Čabar (HR) 0.00 km UNKNOWN
ME022240C M10 2020-11-29 06:14:28 45.786 14.7992 269 ° 22 km/h 856 m -8.3 m/s 403.000 MHz Videm (SI) 0.00 km FOUND
ME0222431 M10 2020-11-28 06:12:19 46.0234 14.9173 91 ° 6 km/h 728 m -8.9 m/s 403.000 MHz Litija (SI) 0.00 km UNKNOWN
ME022230B M10 2020-11-27 06:23:44 46.0986 15.1653 89 ° 24 km/h 966 m -12.3 m/s 403.000 MHz Radeče (SI) 0.00 km UNKNOWN
ME022230A M10 2020-11-26 06:43:03 46.2317 14.9314 72 ° 19 km/h 890 m -10.2 m/s 403.000 MHz Vransko (SI) 0.00 km UNKNOWN
ME0222379 M10 2020-11-25 05:54:31 46.1824 14.3997 96 ° 7 km/h 556 m -11.9 m/s 403.000 MHz Medvode (SI) 0.00 km UNKNOWN
ME0222374 M10 2020-11-24 06:34:38 45.625 14.9822 266 ° 20 km/h 1054 m -13.7 m/s 403.000 MHz Kočevje (SI) 0.00 km FOUND
ME0222414 M10 2020-11-23 06:15:27 45.8811 15.4618 58 ° 17 km/h 525 m -12.0 m/s 403.000 MHz Kostanjevica na Krki (SI) 0.00 km FOUND
ME0222480 M10 2020-11-22 06:26:45 45.383 14.2056 264 ° 48 km/h 1413 m -12.9 m/s 403.000 MHz Lanišće (HR) 0.00 km NEED ATTENTION
ME022249E M10 2020-11-21 06:21:02 44.9171 13.5481 223 ° 119 km/h 5912 m -11.7 m/s 403.000 MHz Rovinj (HR) 0.00 km LOST
ME022243B M10 2020-11-20 06:26:26 46.3918 15.4536 206 ° 22 km/h 1070 m -8.5 m/s 403.000 MHz Oplotnica (SI) 0.00 km UNKNOWN
ME02223F9 M10 2020-11-19 05:55:32 45.7957 14.6998 310 ° 4 km/h 756 m -13.0 m/s 403.000 MHz Videm (SI) 0.00 km FOUND
ME02223EC M10 2020-11-18 06:18:06 45.0763 14.2075 219 ° 54 km/h 5122 m -10.7 m/s 403.000 MHz Labin (HR) 0.00 km LOST
ME0222434 M10 2020-11-17 05:44:14 45.6021 14.5655 282 ° 43 km/h 1305 m -13.8 m/s 403.000 MHz Čabar (HR) 0.00 km UNKNOWN
ME0222441 M10 2020-11-16 06:16:48 45.9605 15.3675 98 ° 63 km/h 2335 m -15.6 m/s 403.000 MHz Sevnica (SI) 0.00 km FOUND
ME0222458 M10 2020-11-15 06:14:13 45.8113 14.6764 355 ° 6 km/h 737 m -8.8 m/s 403.000 MHz Velike Lašče (SI) 0.00 km FOUND
ME0222435 M10 2020-11-14 06:09:15 45.9979 15.2252 33 ° 4 km/h 462 m -10.2 m/s 403.000 MHz Sevnica (SI) 0.00 km UNKNOWN
ME0222455 M10 2020-11-13 06:12:39 45.7648 15.0573 105 ° 19 km/h 961 m -11.8 m/s 403.000 MHz Dolenjske Toplice (SI) 0.00 km FOUND
ME02223E5 M10 2020-11-12 06:14:00 46.0964 15.1312 92 ° 17 km/h 1040 m -11.3 m/s 403.000 MHz Radeče (SI) 0.00 km UNKNOWN
ME0222439 M10 2020-11-11 06:33:41 46.1414 14.7702 279 ° 19 km/h 958 m -12.8 m/s 403.000 MHz Moravče (SI) 0.00 km UNKNOWN
ME0222451 M10 2020-11-10 06:22:14 46.0421 14.8025 288 ° 9 km/h 885 m -11.1 m/s 403.000 MHz Litija (SI) 0.00 km UNKNOWN
ME022245F M10 2020-11-09 06:28:43 46.2503 15.0594 271 ° 7 km/h 1352 m -6.2 m/s 403.000 MHz Prebold (SI) 0.00 km UNKNOWN
ME022247C M10 2020-11-08 06:35:08 46.3353 14.9182 154 ° 4 km/h 1193 m -11.4 m/s 403.000 MHz Rečica (SI) 0.00 km FOUND
ME022247E M10 2020-11-07 06:03:43 46.4978 13.9961 353 ° 26 km/h 1780 m -11.4 m/s 403.000 MHz Sankt Jakob (AT) 0.00 km UNKNOWN
ME0222457 M10 2020-11-06 06:02:33 46.0547 14.0677 266 ° 22 km/h 980 m -8.8 m/s 403.000 MHz Žiri (SI) 0.00 km UNKNOWN
ME022234D M10 2020-11-05 06:08:22 46.1376 14.6845 243 ° 20 km/h 946 m -12.2 m/s 403.000 MHz Lukovica (SI) 0.00 km UNKNOWN
ME02223C9 M10 2020-11-04 06:57:05 47.0459 15.2364 196 ° 15 km/h 628 m -4.0 m/s 403.000 MHz Stallhofen (AT) 0.00 km FOUND
ME022236C M10 2020-11-03 06:44:51 46.2558 14.5215 129 ° 4 km/h 679 m -11.7 m/s 403.000 MHz Cerklje na Gorenjskem (SI) 0.00 km UNKNOWN
ME02223CB M10 2020-11-02 06:33:03 45.0642 14.2573 190 ° 104 km/h 10537 m -3.5 m/s 403.000 MHz Labin (HR) 0.00 km LOST
ME0222353 M10 2020-11-01 06:25:08 45.5667 15.2116 291 ° 11 km/h 949 m -10.4 m/s 403.000 MHz Črnomelj (SI) 0.00 km FOUND
ME02223C7 M10 2020-10-31 05:56:38 45.2892 14.9745 168 ° 7 km/h 1402 m -10.8 m/s 403.000 MHz Ravna Gora (HR) 0.00 km UNKNOWN
ME02223C2 M10 2020-10-30 06:04:33 45.0703 15.1476 172 ° 141 km/h 11339 m -11.6 m/s 403.000 MHz Brinje (HR) 0.00 km UNKNOWN
ME02223C6 M10 2020-10-29 06:03:28 46.0281 15.4526 86 ° 0 km/h 548 m -9.0 m/s 403.000 MHz Krško (SI) 0.00 km FOUND
ME0222357 M10 2020-10-28 06:20:28 46.3714 14.9511 52 ° 28 km/h 3853 m -14.1 m/s 403.000 MHz Mozirje (SI) 0.00 km UNKNOWN
ME0222355 M10 2020-10-27 05:32:19 46.8254 14.9492 359 ° 37 km/h 1872 m -9.9 m/s 403.000 MHz Wolfsberg (AT) 0.00 km UNKNOWN
ME022234E M10 2020-10-26 06:15:49 46.5086 15.8361 37 ° 44 km/h 472 m -11.9 m/s 403.000 MHz Destrnik (SI) 0.00 km LOST
ME022234B M10 2020-10-25 06:26:44 45.5222 14.764 247 ° 17 km/h 2499 m -5.9 m/s 403.000 MHz Osilnica (SI) 0.00 km UNKNOWN
ME02223C3 M10 2020-10-24 07:13:35 46.9557 17.3818 178 ° 35 km/h 959 m -3.4 m/s 403.000 MHz Sümeg (HU) 0.00 km NEED ATTENTION
ME02223C4 M10 2020-10-23 06:18:31 46.2897 15.983 63 ° 48 km/h 506 m -11.5 m/s 403.000 MHz Cirkulane (SI) 0.00 km UNKNOWN
ME0222397 M10 2020-10-22 06:22:30 46.3356 15.8162 52 ° 11 km/h 430 m -13.6 m/s 403.000 MHz Podlehnik (SI) 0.00 km FOUND
ME0222393 M10 2020-10-21 06:03:39 45.9658 15.3394 83 ° 48 km/h 564 m -10.8 m/s 403.000 MHz Sevnica (SI) 0.00 km FOUND
ME0222399 M10 2020-10-20 05:51:47 45.3444 14.7698 80 ° 24 km/h 1427 m -11.4 m/s 403.000 MHz Lokve (HR) 0.00 km UNKNOWN
ME022239A M10 2020-10-19 05:48:44 46.0199 15.0939 236 ° 6 km/h 835 m -14.0 m/s 403.000 MHz Šentrupert (SI) 0.00 km UNKNOWN
ME0222395 M10 2020-10-18 06:10:30 45.7034 15.0112 275 ° 9 km/h 784 m -10.9 m/s 403.000 MHz Dolenjske Toplice (SI) 0.00 km FOUND
ME0222394 M10 2020-10-17 06:19:10 45.8866 15.0883 104 ° 11 km/h 657 m -12.3 m/s 403.000 MHz Mirna Peč (SI) 0.00 km FOUND
ME02223AA M10 2020-10-16 06:09:25 46.2146 14.6064 82 ° 0 km/h 532 m -8.1 m/s 403.001 MHz Kamnik (SI) 0.00 km FOUND
ME022239F M10 2020-10-15 06:57:15 47.0257 15.2782 289 ° 15 km/h 895 m -4.5 m/s 403.000 MHz Hitzendorf (AT) 0.00 km FOUND
ME022239C M10 2020-10-14 06:24:05 46.2079 15.1195 86 ° 44 km/h 1174 m -15.0 m/s 403.000 MHz Prebold (SI) 0.00 km UNKNOWN
ME02223A4 M10 2020-10-13 06:11:42 46.1814 14.5677 329 ° 6 km/h 479 m -9.7 m/s 403.002 MHz Mengeš (SI) 0.00 km UNKNOWN
ME0222339 M10 2020-10-12 05:55:59 46.6326 14.836 214 ° 26 km/h 718 m -7.3 m/s 403.000 MHz Bleiburg (AT) 0.00 km NEED ATTENTION
ME02223C5 M10 2020-10-11 06:30:11 46.7762 15.5631 144 ° 6 km/h 388 m -9.0 m/s 403.000 MHz Wagna (AT) 0.00 km FOUND
ME02223B2 M10 2020-10-10 06:28:39 46.2818 15.7145 12 ° 13 km/h 454 m -5.3 m/s 403.000 MHz Makole (SI) 0.00 km UNKNOWN
ME022237F M10 2020-10-09 05:59:11 45.8955 15.3773 57 ° 15 km/h 448 m -12.1 m/s 403.000 MHz Kostanjevica na Krki (SI) 0.00 km FOUND
ME02223B1 M10 2020-10-08 05:55:02 45.0849 15.1897 168 ° 113 km/h 4176 m -14.2 m/s 403.000 MHz Brinje (HR) 0.00 km UNKNOWN
ME02223B8 M10 2020-10-07 05:40:32 46.2801 15.1372 221 ° 24 km/h 2555 m -11.5 m/s 403.000 MHz Žalec (SI) 0.00 km FOUND
ME02223B9 M10 2020-10-06 05:42:28 46.1686 15.2174 70 ° 33 km/h 944 m -11.8 m/s 403.001 MHz Laško (SI) 0.00 km NEED ATTENTION
ME02223B7 M10 2020-10-05 06:16:00 47.2283 15.5918 37 ° 0 km/h 766 m -5.0 m/s 403.000 MHz Mortantsch (AT) 0.00 km FOUND
ME02223AB M10 2020-10-04 06:14:00 46.4365 15.7101 5 ° 20 km/h 399 m -14.0 m/s 403.000 MHz Rače (SI) 0.00 km UNKNOWN
ME02223AD M10 2020-10-03 06:11:30 46.7997 15.3439 38 ° 69 km/h 2067 m -9.2 m/s 403.000 MHz Groß Sankt Florian (AT) 0.00 km FOUND
ME022239E M10 2020-10-02 06:20:40 46.1616 15.3052 59 ° 41 km/h 1230 m -13.5 m/s 403.000 MHz Laško (SI) 0.00 km LOST
ME02223A1 M10 2020-10-01 06:12:55 45.751 14.8959 107 ° 24 km/h 900 m -12.2 m/s 403.000 MHz Žužemberk (SI) 0.00 km FOUND
ME02223B3 M10 2020-09-30 06:37:48 45.525 15.2741 205 ° 6 km/h 1677 m -12.9 m/s 403.000 MHz Ribnik (HR) 0.00 km FOUND
ME0222398 M10 2020-09-29 06:25:09 45.5431 15.1264 187 ° 22 km/h 1647 m -14.1 m/s 403.000 MHz Črnomelj (SI) 0.00 km FOUND
ME02223BB M10 2020-09-28 06:12:15 46.5369 14.409 172 ° 9 km/h 1128 m -10.8 m/s 403.000 MHz Ferlach (AT) 0.00 km FOUND
ME02223BE M10 2020-09-27 06:24:43 46.4284 14.6805 17 ° 6 km/h 2027 m -14.7 m/s 403.000 MHz Solčava (SI) 0.00 km UNKNOWN
ME022230D M10 2020-09-26 05:52:26 46.3547 14.4728 205 ° 35 km/h 1400 m -11.6 m/s 403.000 MHz Zgornje Jezersko (SI) 0.00 km UNKNOWN
ME0222302 M10 2020-09-25 06:56:00 47.3405 15.8578 350 ° 30 km/h 921 m -5.5 m/s 403.000 MHz Pöllau (AT) 0.00 km FOUND
ME0222312 M10 2020-09-24 06:18:29 45.9341 15.5038 75 ° 20 km/h 518 m -10.2 m/s 403.000 MHz Krško (SI) 0.00 km FOUND
ME02222F9 M10 2020-09-23 06:05:04 46.4313 14.8677 76 ° 9 km/h 1592 m -13.6 m/s 403.000 MHz Črna na Koroškem (SI) 0.00 km UNKNOWN
ME02222F5 M10 2020-09-22 06:28:05 46.3373 14.5618 49 ° 13 km/h 2060 m -13.6 m/s 403.000 MHz Zgornje Jezersko (SI) 0.00 km UNKNOWN
ME022237E M10 2020-09-21 05:53:38 46.1709 14.6204 178 ° 0 km/h 512 m -9.8 m/s 403.000 MHz Mengeš (SI) 0.00 km FOUND
ME022230F M10 2020-09-20 06:10:07 46.1311 14.7719 1 ° 0 km/h 863 m -14.3 m/s 403.000 MHz Moravče (SI) 0.00 km UNKNOWN
ME022230E M10 2020-09-19 05:54:21 46.2168 14.4689 93 ° 6 km/h 572 m -10.5 m/s 403.000 MHz Vodice (SI) 0.00 km FOUND
ME0222389 M10 2020-09-18 06:41:18 46.0014 14.2351 275 ° 24 km/h 706 m -14.6 m/s 403.000 MHz Horjul (SI) 0.00 km FOUND
ME0222390 M10 2020-09-17 05:59:25 46.0979 14.5971 333 ° 2 km/h 386 m -9.7 m/s 403.000 MHz Dol (SI) 0.00 km UNKNOWN
ME0222318 M10 2020-09-16 06:08:14 46.3173 14.403 343 ° 4 km/h 631 m -2.1 m/s 403.000 MHz Preddvor (SI) 0.00 km FOUND
ME0222314 M10 2020-09-15 06:05:57 46.2155 13.8662 244 ° 26 km/h 1296 m -16.7 m/s 403.000 MHz Bohinjska Bistrica (SI) 0.00 km UNKNOWN
ME0222310 M10 2020-09-14 06:01:39 46.1503 13.7597 269 ° 37 km/h 1129 m -11.7 m/s 403.000 MHz Tolmin (SI) 0.00 km FOUND
ME0222311 M10 2020-09-13 06:23:36 45.8648 14.2009 239 ° 22 km/h 2549 m -15.2 m/s 403.000 MHz Logatec (SI) 0.00 km FOUND
ME0222377 M10 2020-09-12 06:26:14 46.1647 14.6489 112 ° 2 km/h 454 m -12.1 m/s 403.000 MHz Lukovica (SI) 0.00 km FOUND
ME0222303 M10 2020-09-11 06:27:15 46.2083 14.9147 233 ° 15 km/h 910 m -15.1 m/s 403.000 MHz Vransko (SI) 0.00 km UNKNOWN
ME022237C M10 2020-09-10 06:23:16 46.2905 15.0142 57 ° 39 km/h 27257 m -60.7 m/s 403.000 MHz Braslovče (SI) 0.00 km LOST
ME022236D M10 2020-09-09 06:12:11 46.2708 14.4474 357 ° 2 km/h 521 m -8.5 m/s 403.000 MHz Šenčur (SI) 0.00 km FOUND
ME02222FA M10 2020-09-08 06:30:09 45.9873 14.6084 266 ° 2 km/h 643 m -13.3 m/s 403.000 MHz Škofljica (SI) 0.00 km UNKNOWN
ME0222315 M10 2020-09-07 06:21:25 46.5458 15.6549 184 ° 15 km/h 466 m -10.4 m/s 403.000 MHz Maribor (SI) 0.00 km UNKNOWN
ME0222396 M10 2020-09-06 06:41:55 46.3205 15.8475 214 ° 4 km/h 491 m -12.0 m/s 403.000 MHz Podlehnik (SI) 0.00 km FOUND
ME0222388 M10 2020-09-05 06:19:39 45.8922 15.1822 107 ° 17 km/h 3797 m -16.3 m/s 403.000 MHz Šmarješke Toplice (SI) 0.00 km UNKNOWN
ME02223E3 M10 2020-09-04 06:13:52 45.4903 15.0084 190 ° 13 km/h 1445 m -9.6 m/s 403.000 MHz Brod Moravice (HR) 0.00 km UNKNOWN
ME02223A5 M10 2020-09-03 06:05:40 46.1472 15.3448 231 ° 6 km/h 858 m -8.6 m/s 403.000 MHz Dobje (SI) 0.00 km UNKNOWN
ME0222338 M10 2020-09-02 06:13:34 46.4407 15.4973 21 ° 22 km/h 1207 m -10.8 m/s 403.000 MHz Oplotnica (SI) 0.00 km UNKNOWN
ME022233B M10 2020-09-01 06:06:31 46.1582 15.0028 124 ° 13 km/h 938 m -12.3 m/s 403.000 MHz Zagorje (SI) 0.00 km UNKNOWN
ME022233F M10 2020-08-31 06:30:04 46.8942 15.7289 240 ° 15 km/h 602 m -15.2 m/s 403.000 MHz Sankt Stefan im Rosental (AT) 0.00 km FOUND
ME0222340 M10 2020-08-30 06:01:01 46.8684 15.3974 1 ° 19 km/h 892 m -10.9 m/s 403.000 MHz Sankt Nikolai im Sausal (AT) 0.00 km FOUND
ME022233E M10 2020-08-29 06:09:02 46.6012 15.4556 42 ° 17 km/h 1007 m -13.1 m/s 402.999 MHz Selnica ob Dravi (SI) 0.00 km FOUND
ME0222347 M10 2020-08-27 06:10:17 45.6983 15.5324 278 ° 39 km/h 964 m -13.7 m/s 403.000 MHz Krašić (HR) 0.00 km UNKNOWN
ME0222343 M10 2020-08-26 06:21:32 45.8043 15.812 69 ° 9 km/h 849 m -14.4 m/s 403.000 MHz Sveta Nedjelja (HR) 0.00 km UNKNOWN
ME022233A M10 2020-08-25 06:09:10 45.4193 15.1523 129 ° 46 km/h 4693 m -15.7 m/s 403.201 MHz Vrbovsko (HR) 0.00 km UNKNOWN
ME022233D M10 2020-08-24 06:02:11 46.1348 15.1225 238 ° 30 km/h 1161 m -11.8 m/s 403.000 MHz Hrastnik (SI) 0.00 km UNKNOWN
ME0222344 M10 2020-08-23 06:12:07 45.9646 15.0932 292 ° 7 km/h 395 m -13.9 m/s 403.000 MHz Šentrupert (SI) 0.00 km UNKNOWN
ME0222341 M10 2020-08-22 05:56:17 46.0987 14.9486 83 ° 9 km/h 812 m -13.2 m/s 403.000 MHz Zagorje (SI) 0.00 km UNKNOWN
ME0222348 M10 2020-08-21 06:16:35 46.0782 14.8614 115 ° 6 km/h 613 m -11.5 m/s 403.000 MHz Litija (SI) 0.00 km FOUND
ME022233C M10 2020-08-20 06:03:33 45.6087 14.947 71 ° 13 km/h 1491 m -14.6 m/s 403.000 MHz Kočevje (SI) 0.00 km UNKNOWN
ME0222336 M10 2020-08-19 06:11:37 45.9021 15.0299 151 ° 19 km/h 3623 m -15.4 m/s 402.999 MHz Trebnje (SI) 0.00 km FOUND
ME022243F M10 2020-08-18 06:01:31 46.0949 15.2813 86 ° 17 km/h 2223 m -12.8 m/s 403.000 MHz Laško (SI) 0.00 km UNKNOWN
ME02223FB M10 2020-08-17 06:07:22 46.1925 15.0408 75 ° 31 km/h 2620 m -14.0 m/s 403.000 MHz Trbovlje (SI) 0.00 km UNKNOWN
ME022239B M10 2020-08-16 06:20:58 45.9365 14.9708 115 ° 22 km/h 4860 m -18.6 m/s 403.000 MHz Trebnje (SI) 0.00 km UNKNOWN
ME02223A3 M10 2020-08-15 05:53:01 45.948 14.6667 192 ° 30 km/h 3910 m -13.4 m/s 403.000 MHz Grosuplje (SI) 0.00 km UNKNOWN
ME02223C0 M10 2020-08-14 06:02:38 46.1241 15.0751 98 ° 15 km/h 1286 m -7.5 m/s 403.000 MHz Hrastnik (SI) 0.00 km UNKNOWN
ME0222470 M10 2020-08-13 06:19:20 45.9137 14.8973 91 ° 2 km/h 598 m -14.2 m/s 403.000 MHz Ivančna Gorica (SI) 0.00 km FOUND
ME022241E M10 2020-08-12 06:11:08 45.8546 14.9581 279 ° 6 km/h 629 m -13.7 m/s 403.000 MHz Žužemberk (SI) 0.00 km FOUND
ME022246F M10 2020-08-11 06:05:18 45.9641 14.8147 352 ° 0 km/h 675 m -11.8 m/s 403.000 MHz Ivančna Gorica (SI) 0.00 km UNKNOWN
ME022248A M10 2020-08-10 06:18:53 45.8757 14.5027 170 ° 6 km/h 953 m -13.4 m/s 403.000 MHz Ig (SI) 0.00 km UNKNOWN
ME02223BC M10 2020-08-09 06:07:28 45.6408 14.3457 279 ° 30 km/h 1213 m -11.7 m/s 403.000 MHz Ilirska Bistrica (SI) 0.00 km FOUND
ME02223F3 M10 2020-08-08 06:03:42 45.765 14.1459 243 ° 17 km/h 639 m -10.7 m/s 403.000 MHz Postojna (SI) 0.00 km FOUND
ME022248E M10 2020-08-07 06:06:01 45.7922 14.0172 253 ° 65 km/h 1439 m -14.4 m/s 403.000 MHz Vipava (SI) 0.00 km FOUND
ME02223EF M10 2020-08-06 06:27:02 45.6538 13.8577 251 ° 44 km/h 1220 m -9.1 m/s 403.000 MHz Sežana (SI) 0.00 km NEED ATTENTION
ME0222469 M10 2020-08-05 06:11:20 46.049 13.528 213 ° 26 km/h 1466 m -8.8 m/s 403.000 MHz Dobrovo (SI) 0.00 km UNKNOWN
ME0222490 M10 2020-08-04 06:00:15 46.8044 14.9464 22 ° 31 km/h 1980 m -12.0 m/s 403.000 MHz Wolfsberg (AT) 0.00 km UNKNOWN
ME02224A1 M10 2020-08-03 05:30:08 46.3938 15.1256 327 ° 33 km/h 1074 m -10.5 m/s 403.000 MHz Velenje (SI) 0.00 km LOST
ME02223EE M10 2020-08-02 05:58:26 46.1041 14.8864 230 ° 31 km/h 2067 m -10.3 m/s 403.000 MHz Litija (SI) 0.00 km NEED ATTENTION
ME02223D5 M10 2020-08-01 06:12:25 45.6827 14.9079 308 ° 9 km/h 1202 m -11.5 m/s 403.000 MHz Kočevje (SI) 0.00 km FOUND
ME02224E3 M10 2020-07-31 06:23:43 45.8853 14.8984 127 ° 2 km/h 714 m -14.7 m/s 403.000 MHz Žužemberk (SI) 0.00 km FOUND
ME02224BB M10 2020-07-30 05:59:28 46.0247 15.1898 44 ° 6 km/h 575 m -3.5 m/s 403.000 MHz Radeče (SI) 0.00 km FOUND
ME02224BF M10 2020-07-29 06:18:37 46.0351 15.4462 237 ° 2 km/h 640 m -11.3 m/s 403.000 MHz Krško (SI) 0.00 km FOUND
ME0222487 M10 2020-07-28 06:18:11 45.7971 15.1476 97 ° 24 km/h 728 m -14.7 m/s 403.000 MHz Novo Mesto (SI) 0.00 km UNKNOWN
ME02224D2 M10 2020-07-27 06:28:56 45.4249 15.2727 259 ° 17 km/h 1764 m -12.8 m/s 403.000 MHz Bosiljevo (HR) 0.00 km FOUND
ME02224A3 M10 2020-07-26 06:26:43 45.867 15.3467 102 ° 6 km/h 579 m -13.7 m/s 403.000 MHz Šentjernej (SI) 0.00 km FOUND
ME02224CF M10 2020-07-25 06:15:52 45.8256 14.6298 155 ° 11 km/h 764 m -9.1 m/s 403.000 MHz Velike Lašče (SI) 0.00 km FOUND
ME02224CE M10 2020-07-24 09:08:34 46.2278 15.3937 329 ° 17 km/h 1644 m -8.2 m/s 403.200 MHz Šentjur (SI) 0.00 km FOUND
ME0222436 M10 2020-07-24 07:57:18 46.2812 16.2465 337 ° 2 km/h 245 m -9.2 m/s 403.000 MHz Vidovec (HR) 0.00 km FOUND
ME0222463 M10 2020-07-23 06:13:07 45.9922 15.523 316 ° 4 km/h 511 m -14.0 m/s 403.000 MHz Krško (SI) 0.00 km UNKNOWN
ME02224CD M10 2020-07-22 06:12:15 46.1329 15.4428 215 ° 2 km/h 799 m -15.2 m/s 403.000 MHz Dobje (SI) 0.00 km UNKNOWN
ME02224D1 M10 2020-07-21 06:09:05 45.9575 15.603 63 ° 9 km/h 470 m -12.4 m/s 403.000 MHz Brežice (SI) 0.00 km UNKNOWN
ME022246E M10 2020-07-20 06:04:06 45.8552 15.0843 106 ° 9 km/h 530 m -7.7 m/s 403.000 MHz Mirna Peč (SI) 0.00 km FOUND
ME02224D0 M10 2020-07-19 06:30:14 45.6551 14.3199 146 ° 4 km/h 928 m -12.6 m/s 403.000 MHz Pivka (SI) 0.00 km FOUND
ME02224A7 M10 2020-07-18 06:26:05 45.6402 14.3735 256 ° 20 km/h 1314 m -11.9 m/s 403.000 MHz Stari Trg (SI) 0.00 km FOUND
ME02224C0 M10 2020-07-17 06:22:37 45.884 15.3412 236 ° 22 km/h 529 m -7.8 m/s 403.000 MHz Škocjan (SI) 0.00 km FOUND
ME02224B8 M10 2020-07-16 06:44:20 45.6349 15.1897 123 ° 13 km/h 1129 m -11.6 m/s 403.000 MHz Semič (SI) 0.00 km FOUND
ME02224CB M10 2020-07-15 06:19:09 46.1953 15.1016 358 ° 2 km/h 1215 m -10.9 m/s 403.000 MHz Prebold (SI) 0.00 km UNKNOWN
ME9C22968 M10 2020-07-14 06:08:59 46.105 14.8472 243 ° 9 km/h 699 m -11.3 m/s 403.000 MHz Litija (SI) 0.00 km FOUND
ME02224A8 M10 2020-07-13 06:06:00 45.7703 15.1476 246 ° 22 km/h 842 m -10.0 m/s 403.000 MHz Novo Mesto (SI) 0.00 km FOUND
ME02224B9 M10 2020-07-12 06:34:12 45.9534 15.6636 233 ° 7 km/h 507 m -13.5 m/s 403.000 MHz Dubravica (HR) 0.00 km UNKNOWN
ME170484 M10 2020-07-12 06:30:43 45.9666 15.6685 108 ° 37 km/h 3438 m -15.4 m/s MHz Kraljevec na Sutli (HR) 0.00 km UNKNOWN
ME02224A0 M10 2020-07-11 06:28:53 46.225 15.0833 263 ° 37 km/h 1152 m -13.3 m/s 403.000 MHz Prebold (SI) 0.00 km NEED ATTENTION
ME164068 M10 2020-07-11 06:27:48 46.225 15.087 293 ° 22 km/h 1524 m -14.2 m/s MHz Prebold (SI) 0.00 km UNKNOWN
ME0222491 M10 2020-07-10 06:02:41 46.1296 15.0296 68 ° 6 km/h 897 m -10.4 m/s 403.000 MHz Zagorje (SI) 0.00 km UNKNOWN
ME0222465 M10 2020-07-09 06:15:05 45.9347 15.246 209 ° 6 km/h 648 m -12.0 m/s 403.000 MHz Škocjan (SI) 0.00 km FOUND
ME0222453 M10 2020-07-08 06:15:20 45.8418 15.5953 356 ° 11 km/h 876 m -12.5 m/s 403.000 MHz Brežice (SI) 0.00 km UNKNOWN
ME160740 M10 2020-07-08 05:56:46 45.8848 15.419 251 ° 30 km/h 23471 m 5.3 m/s MHz Kostanjevica na Krki (SI) 0.00 km UNKNOWN
ME0222483 M10 2020-07-07 06:06:08 45.6121 15.5039 222 ° 24 km/h 1203 m -13.3 m/s 403.000 MHz Ozalj (HR) 0.00 km UNKNOWN
ME022242D M10 2020-07-06 06:23:24 45.957 14.3927 232 ° 2 km/h 455 m -11.8 m/s 403.000 MHz Borovnica (SI) 0.00 km FOUND
ME022248F M10 2020-07-05 05:42:31 45.5847 14.2126 287 ° 20 km/h 1147 m -10.7 m/s 403.000 MHz Ilirska Bistrica (SI) 0.00 km FOUND
ME02223F7 M10 2020-07-04 06:14:26 46.2657 14.8176 225 ° 19 km/h 1615 m -10.6 m/s 403.000 MHz Gornji Grad (SI) 0.00 km UNKNOWN
ME0222485 M10 2020-07-03 06:02:22 46.3374 15.4438 198 ° 24 km/h 1100 m -10.7 m/s 403.000 MHz Slovenske Konjice (SI) 0.00 km UNKNOWN
ME022242E M10 2020-07-02 05:40:31 46.0474 14.8938 149 ° 15 km/h 797 m -10.2 m/s 403.000 MHz Litija (SI) 0.00 km FOUND
ME022245D M10 2020-07-01 06:08:13 46.2604 15.3447 79 ° 15 km/h 1066 m -13.8 m/s 403.000 MHz Vojnik (SI) 0.00 km FOUND
ME0222448 M10 2020-06-30 06:13:48 46.0322 15.8398 310 ° 0 km/h 401 m -12.2 m/s 403.000 MHz Veliko Trgovišće (HR) 0.00 km FOUND
ME02223F8 M10 2020-06-29 06:23:19 46.1824 15.5589 78 ° 22 km/h 707 m -11.5 m/s 403.000 MHz Podčetrtek (SI) 0.00 km UNKNOWN
ME0222489 M10 2020-06-28 06:22:07 46.1708 14.7019 85 ° 9 km/h 939 m -13.5 m/s 403.000 MHz Lukovica (SI) 0.00 km UNKNOWN
ME0122DA3 M10 2020-06-27 06:09:15 46.2181 14.9387 79 ° 28 km/h 833 m -16.0 m/s 403.000 MHz Vransko (SI) 0.00 km UNKNOWN
ME0122DCE M10 2020-06-26 05:59:13 46.0292 15.2873 60 ° 7 km/h 675 m -12.7 m/s 403.000 MHz Sevnica (SI) 0.00 km LOST
ME022248B M10 2020-06-25 06:08:38 46.0977 14.9453 234 ° 28 km/h 691 m -15.1 m/s 403.000 MHz Zagorje (SI) 0.00 km UNKNOWN
ME0222437 M10 2020-06-24 06:04:43 45.7692 14.8175 261 ° 11 km/h 932 m -13.6 m/s 403.000 MHz Žužemberk (SI) 0.00 km FOUND
ME0122D20 M10 2020-06-23 06:09:17 45.5777 14.2938 231 ° 35 km/h 1070 m -12.8 m/s 403.000 MHz Ilirska Bistrica (SI) 0.00 km FOUND
ME0122D68 M10 2020-06-22 06:24:00 45.6825 14.1385 197 ° 19 km/h 1033 m -14.7 m/s 403.000 MHz Pivka (SI) 0.00 km FOUND
ME022248C M10 2020-06-21 06:37:55 45.7022 14.3127 172 ° 22 km/h 1153 m -11.4 m/s 403.000 MHz Pivka (SI) 0.00 km FOUND
ME0222492 M10 2020-06-20 06:32:44 45.9806 14.563 199 ° 2 km/h 1092 m -13.9 m/s 403.000 MHz Škofljica (SI) 0.00 km FOUND
ME022244E M10 2020-06-19 06:06:02 46.1453 15.0271 96 ° 20 km/h 801 m -14.2 m/s 403.000 MHz Trbovlje (SI) 0.00 km NEED ATTENTION
ME022247B M10 2020-06-18 06:34:51 46.2459 14.4822 53 ° 4 km/h 554 m -15.0 m/s 403.000 MHz Cerklje na Gorenjskem (SI) 0.00 km FOUND
ME9C222B9 M10 2020-06-17 06:26:42 46.2565 14.239 72 ° 2 km/h 1075 m -13.8 m/s 403.000 MHz Železniki (SI) 0.00 km FOUND
ME0122B34 M10 2020-06-16 06:18:59 46.1167 14.0682 218 ° 19 km/h 1058 m -13.9 m/s 403.000 MHz Gorenja Vas (SI) 0.00 km FOUND
ME0122B27 M10 2020-06-15 05:55:59 45.9146 14.1982 98 ° 7 km/h 620 m -12.4 m/s 403.000 MHz Logatec (SI) 0.00 km FOUND
ME0122B36 M10 2020-06-14 05:56:57 46.3002 14.0586 217 ° 6 km/h 1829 m -12.9 m/s 403.000 MHz Bohinjska Bistrica (SI) 0.00 km FOUND
ME0122B2B M10 2020-06-13 06:28:13 46.049 14.5262 63 ° 7 km/h 568 m -13.5 m/s 403.000 MHz Ljubljana (SI) 0.00 km FOUND
ME0122AD4 M10 2020-06-12 06:09:16 46.1895 14.3753 198 ° 4 km/h 473 m -10.2 m/s 403.000 MHz Kranj (SI) 0.00 km FOUND
ME0122B43 M10 2020-06-11 06:23:11 46.4135 13.9688 31 ° 9 km/h 1949 m -15.0 m/s 402.999 MHz Jesenice (SI) 0.00 km UNKNOWN
ME086651 M10 2020-06-11 06:08:20 46.36 14.0347 252 ° 44 km/h 26620 m 5.3 m/s MHz Zgornje Gorje (SI) 0.00 km UNKNOWN
ME0122B44 M10 2020-06-10 06:24:54 46.4592 14.0207 129 ° 2 km/h 1727 m -10.4 m/s 403.001 MHz Jesenice (SI) 0.00 km FOUND
ME087419 M10 2020-06-10 06:03:03 46.3732 14.1376 275 ° 26 km/h 19421 m -23.2 m/s MHz Bled (SI) 0.00 km FOUND
ME0122ACE M10 2020-06-09 07:26:34 46.793 14.2802 329 ° 35 km/h 4157 m -12.5 m/s 403.000 MHz Liebenfels (AT) 0.00 km FOUND
ME122730 M10 2020-06-09 07:17:56 46.7396 14.3112 353 ° 56 km/h 11851 m -17.1 m/s MHz Liebenfels (AT) 0.00 km UNKNOWN
ME0122ADD M10 2020-06-08 06:45:14 46.5245 14.9615 258 ° 19 km/h 919 m -10.7 m/s 403.000 MHz Ravne na Koroškem (SI) 0.00 km UNKNOWN
ME0122B29 M10 2020-06-07 06:02:30 46.1966 15.3292 80 ° 31 km/h 1320 m -10.6 m/s 403.000 MHz Štore (SI) 0.00 km UNKNOWN
ME079995 M10 2020-06-07 05:41:37 46.1626 15.1407 43 ° 56 km/h 16368 m 3.5 m/s MHz Hrastnik (SI) 0.00 km LOST
ME0122B32 M10 2020-06-06 06:28:15 46.2358 14.9842 81 ° 13 km/h 935 m -14.5 m/s 403.000 MHz Tabor (SI) 0.00 km UNKNOWN
ME074619 M10 2020-06-06 06:11:01 46.2046 14.9126 245 ° 26 km/h 25905 m -14.1 m/s MHz Vransko (SI) 0.00 km LOST
ME0122ACD M10 2020-06-05 05:47:29 46.5433 15.2357 54 ° 41 km/h 1627 m -14.5 m/s 403.001 MHz Ribnica (SI) 0.00 km UNKNOWN
ME0122B2A M10 2020-06-04 06:09:44 45.9816 15.2253 68 ° 19 km/h 550 m -12.2 m/s 403.000 MHz Sevnica (SI) 0.00 km FOUND
ME0122B50 M10 2020-06-03 06:17:06 45.5083 14.8108 111 ° 30 km/h 1307 m -13.8 m/s 403.001 MHz Kostel (SI) 0.00 km UNKNOWN
ME0122AD7 M10 2020-06-02 06:27:00 45.4957 14.6064 250 ° 7 km/h 1370 m -13.1 m/s 403.000 MHz Osilnica (SI) 0.00 km UNKNOWN
ME0122ADB M10 2020-06-01 05:37:00 45.6507 14.2664 221 ° 9 km/h 953 m -15.2 m/s 403.000 MHz Pivka (SI) 0.00 km FOUND
ME0122ADC M10 2020-05-31 05:56:01 45.7954 13.9837 236 ° 11 km/h 1378 m -11.4 m/s 403.001 MHz Vipava (SI) 0.00 km FOUND
ME0122B39 M10 2020-05-30 06:50:01 45.7057 13.9324 280 ° 26 km/h 551 m -9.1 m/s 403.000 MHz Divača (SI) 0.00 km LOST
ME075899 M10 2020-05-30 06:27:12 45.7707 14.0108 270 ° 43 km/h 22794 m -24.2 m/s MHz Vipava (SI) 0.00 km UNKNOWN
ME0122B51 M10 2020-05-29 06:00:14 45.9991 14.146 275 ° 11 km/h 837 m -11.7 m/s 403.001 MHz Žiri (SI) 0.00 km FOUND
ME0122A34 M10 2020-05-28 05:54:20 45.5619 14.6349 181 ° 26 km/h 1383 m -12.0 m/s 403.001 MHz Čabar (HR) 0.00 km UNKNOWN
ME0122A35 M10 2020-05-27 06:18:53 45.3149 13.9355 216 ° 30 km/h 3138 m -15.5 m/s 403.000 MHz Cerovlje (HR) 0.00 km FOUND
ME01229D7 M10 2020-05-26 06:07:55 44.9765 14.6691 181 ° 50 km/h 2449 m -15.0 m/s 403.000 MHz Punat (HR) 0.00 km UNKNOWN
ME0122A18 M10 2020-05-25 06:27:10 45.214 15.3569 91 ° 4 km/h 1576 m -14.6 m/s 403.000 MHz Tounj (HR) 0.00 km UNKNOWN
ME0122A1C M10 2020-05-24 06:46:01 46.0651 16.3978 162 ° 15 km/h 635 m -8.5 m/s 403.000 MHz Sveti Petar Orehovec (HR) 0.00 km FOUND
ME068970 M10 2020-05-24 06:44:30 46.0741 16.3951 168 ° 46 km/h 1483 m -8.8 m/s MHz Gornja Rijeka (HR) 0.00 km UNKNOWN
ME0122A20 M10 2020-05-23 05:54:15 45.504 15.1094 149 ° 17 km/h 2017 m -11.9 m/s 403.000 MHz Črnomelj (SI) 0.00 km FOUND
ME0122A24 M10 2020-05-22 06:25:44 45.352 15.0195 357 ° 9 km/h 1318 m -9.9 m/s 403.000 MHz Vrbovsko (HR) 0.00 km UNKNOWN
ME0122A43 M10 2020-05-21 06:48:48 45.3234 14.4498 221 ° 78 km/h 1425 m -10.4 m/s 403.001 MHz Rijeka (HR) 0.00 km UNKNOWN
ME0122A3A M10 2020-05-20 06:26:35 45.9407 14.3024 249 ° 50 km/h 814 m -11.3 m/s 403.001 MHz Vrhnika (SI) 0.00 km NEED ATTENTION
ME0122A48 M10 2020-05-19 06:44:01 46.6067 15.058 297 ° 20 km/h 1537 m -11.9 m/s 403.000 MHz Dravograd (SI) 0.00 km UNKNOWN
ME088426 M10 2020-05-19 06:22:35 46.4954 14.9395 223 ° 17 km/h 23825 m -25.6 m/s MHz Ravne na Koroškem (SI) 0.00 km LOST
ME0122A40 M10 2020-05-18 06:04:38 46.1926 15.184 285 ° 13 km/h 1095 m -11.2 m/s 403.000 MHz Laško (SI) 0.00 km FOUND
ME086378 M10 2020-05-18 05:45:55 46.1625 15.0575 306 ° 7 km/h 22787 m 5.6 m/s MHz Trbovlje (SI) 0.00 km LOST
ME0122A31 M10 2020-05-17 06:26:59 46.6816 16.2167 164 ° 9 km/h 448 m -13.1 m/s 402.999 MHz Moravske-Toplice (SI) 0.00 km FOUND
ME073834 M10 2020-05-17 06:25:11 46.6834 16.2095 99 ° 22 km/h 1871 m -12.7 m/s MHz Moravske-Toplice (SI) 0.00 km LOST
ME0122A2D M10 2020-05-16 06:05:35 46.459 16.291 255 ° 4 km/h 444 m -8.5 m/s 402.999 MHz Štrigova (HR) 0.00 km FOUND
ME081002 M10 2020-05-16 06:05:19 46.4591 16.2905 108 ° 7 km/h 580 m -8.1 m/s MHz Štrigova (HR) 0.00 km UNKNOWN
ME0122A2E M10 2020-05-15 06:13:46 46.8414 16.0672 206 ° 7 km/h 579 m -10.2 m/s 402.999 MHz Kuzma (SI) 0.00 km FOUND
ME0122A26 M10 2020-05-14 06:33:53 46.5317 16.1464 249 ° 15 km/h 259 m -12.2 m/s 403.000 MHz Ljutomer (SI) 0.00 km FOUND
ME079722 M10 2020-05-14 06:33:02 46.5317 16.1466 56 ° 19 km/h 893 m -13.1 m/s MHz Ljutomer (SI) 0.00 km LOST
ME0122A41 M10 2020-05-13 06:08:40 46.313 15.8271 97 ° 0 km/h 495 m -11.7 m/s 403.000 MHz Podlehnik (SI) 0.00 km FOUND
ME086122 M10 2020-05-13 06:05:36 46.3016 15.7974 76 ° 57 km/h 2722 m -13.5 m/s MHz Žetale (SI) 0.00 km FOUND
ME0122A25 M10 2020-05-12 05:54:42 46.1639 15.2376 279 ° 26 km/h 1327 m -11.2 m/s 403.001 MHz Laško (SI) 0.00 km FOUND
ME01229C9 M10 2020-05-11 06:19:06 46.5624 15.2589 76 ° 37 km/h 1870 m -11.8 m/s 403.001 MHz Ribnica (SI) 0.00 km UNKNOWN
ME0122A1B M10 2020-05-10 06:16:14 46.0659 15.6683 58 ° 46 km/h 559 m -9.4 m/s 403.000 MHz Bistrica ob Sotli (SI) 0.00 km FOUND
ME0122A3E M10 2020-05-09 06:22:41 45.846 15.4587 81 ° 28 km/h 693 m -13.0 m/s 403.001 MHz Kostanjevica na Krki (SI) 0.00 km FOUND
ME0122A71 M10 2020-05-08 06:45:32 45.4935 15.4721 69 ° 20 km/h 1472 m -9.9 m/s 403.001 MHz Netretić (HR) 0.00 km UNKNOWN
ME0122A67 M10 2020-05-07 06:15:19 45.046 14.4649 183 ° 54 km/h 3440 m -13.6 m/s 403.000 MHz Krk (HR) 0.00 km UNKNOWN
ME01229B3 M10 2020-05-06 06:10:14 45.4701 16.043 205 ° 28 km/h 1547 m -11.5 m/s 403.000 MHz Pokupsko (HR) 0.00 km UNKNOWN
ME0122A33 M10 2020-05-05 06:17:01 45.4771 16.0178 126 ° 17 km/h 1782 m -9.7 m/s 403.000 MHz Pokupsko (HR) 0.00 km LOST
ME0122A69 M10 2020-05-04 05:59:27 45.1147 15.4921 189 ° 31 km/h 2079 m -9.2 m/s 402.999 MHz Slunj (HR) 0.00 km UNKNOWN
ME0122A72 M10 2020-05-03 06:27:25 45.3608 15.4979 223 ° 44 km/h 1515 m -9.7 m/s 403.001 MHz Barilović (HR) 0.00 km UNKNOWN
ME0122A49 M10 2020-05-02 05:53:42 45.8636 15.0265 246 ° 2 km/h 591 m -7.7 m/s 403.000 MHz Mirna Peč (SI) 0.00 km FOUND
ME01229FB M10 2020-05-01 07:47:03 46.1683 15.661 206 ° 19 km/h 713 m -13.2 m/s 403.000 MHz Desinić (HR) 0.00 km UNKNOWN
ME0122A82 M10 2020-04-30 06:33:17 45.7747 15.0461 171 ° 4 km/h 805 m -13.4 m/s 403.001 MHz Dolenjske Toplice (SI) 0.00 km FOUND
ME0122A5D M10 2020-04-29 06:20:22 46.1198 15.1738 61 ° 19 km/h 922 m -8.8 m/s 403.000 MHz Radeče (SI) 0.00 km FOUND
ME0122A80 M10 2020-04-28 06:29:44 45.9901 15.1973 66 ° 26 km/h 552 m -13.4 m/s 403.001 MHz Mokronog (SI) 0.00 km FOUND
ME0122A7D M10 2020-04-27 06:33:09 45.957 14.9443 31 ° 4 km/h 534 m -14.0 m/s 403.000 MHz Trebnje (SI) 0.00 km FOUND
ME0122A00 M10 2020-04-26 06:24:38 45.752 15.2646 313 ° 9 km/h 918 m -10.1 m/s 403.001 MHz Novo Mesto (SI) 0.00 km FOUND
ME01229BE M10 2020-04-25 06:54:06 45.6049 15.0783 131 ° 59 km/h 6749 m -20.4 m/s 403.000 MHz Semič (SI) 0.00 km FOUND
ME0122A32 M10 2020-04-24 06:39:26 45.6323 14.5875 136 ° 22 km/h 1561 m -9.6 m/s 403.001 MHz Čabar (HR) 0.00 km FOUND
ME0122A84 M10 2020-04-23 06:37:12 45.6286 14.1645 215 ° 17 km/h 593 m -11.9 m/s 403.001 MHz Pivka (SI) 0.00 km FOUND
ME01229D4 M10 2020-04-22 06:32:21 45.8091 13.9234 263 ° 15 km/h 791 m -13.4 m/s 403.000 MHz Vipava (SI) 0.00 km FOUND
ME012299E M10 2020-04-21 07:27:26 45.7235 14.9901 250 ° 28 km/h 891 m -4.5 m/s 403.001 MHz Dolenjske Toplice (SI) 0.00 km FOUND
ME01229B4 M10 2020-04-20 06:30:36 45.8981 15.6045 259 ° 24 km/h 586 m -12.8 m/s 403.000 MHz Brežice (SI) 0.00 km FOUND
ME01229FF M10 2020-04-19 06:02:03 45.7822 15.3876 39 ° 17 km/h 1438 m -14.3 m/s 403.000 MHz Žumberak (HR) 0.00 km UNKNOWN
ME8A22BC6 M10 2020-04-18 06:19:22 45.7279 15.4834 122 ° 9 km/h 1006 m -9.4 m/s 403.001 MHz Žumberak (HR) 0.00 km UNKNOWN
ME8A22BCB M10 2020-04-17 06:24:19 45.7195 15.4938 232 ° 17 km/h 1851 m -14.4 m/s 403.001 MHz Žumberak (HR) 0.00 km UNKNOWN
ME8B22044 M10 2020-04-16 06:11:31 46.1788 15.0032 135 ° 15 km/h 3650 m -12.3 m/s 403.000 MHz Trbovlje (SI) 0.00 km FOUND
ME8A22BFC M10 2020-04-15 05:57:07 45.5425 14.4831 220 ° 48 km/h 1949 m -14.0 m/s 403.000 MHz Klana (HR) 0.00 km UNKNOWN
ME8A22BF6 M10 2020-04-14 05:54:05 46.0052 15.9168 230 ° 24 km/h 489 m -8.4 m/s 403.000 MHz Oroslavje (HR) 0.00 km UNKNOWN
ME8A22BE4 M10 2020-04-13 06:07:52 46.0163 16.0117 62 ° 35 km/h 432 m -12.8 m/s 403.001 MHz Bedekovčina (HR) 0.00 km UNKNOWN
ME8A22BF8 M10 2020-04-12 06:26:35 46.0847 15.2663 33 ° 11 km/h 838 m -9.1 m/s 403.001 MHz Radeče (SI) 0.00 km UNKNOWN
ME8B2202E M10 2020-04-11 06:01:58 45.7087 14.9663 176 ° 19 km/h 2399 m -14.1 m/s 403.000 MHz Dolenjske Toplice (SI) 0.00 km FOUND
ME8A22BCD M10 2020-04-10 05:59:26 45.8152 14.7004 189 ° 13 km/h 3545 m -10.7 m/s 403.001 MHz Videm (SI) 0.00 km UNKNOWN
ME8A22BFA M10 2020-04-09 06:26:49 46.0301 14.4645 233 ° 17 km/h 2213 m -12.6 m/s 403.001 MHz Dobrova (SI) 0.00 km FOUND
ME8A22BF4 M10 2020-04-08 06:30:19 45.9583 14.2711 238 ° 24 km/h 821 m -13.2 m/s 403.001 MHz Vrhnika (SI) 0.00 km FOUND
ME8B2202D M10 2020-04-07 06:32:21 45.9582 14.4821 252 ° 39 km/h 1302 m -11.6 m/s 403.001 MHz Ig (SI) 0.00 km UNKNOWN
ME8A22C04 M10 2020-04-06 06:32:50 46.1298 14.5318 315 ° 24 km/h 3208 m -15.2 m/s 403.001 MHz Trzin (SI) 0.00 km UNKNOWN
ME173532 M10 2020-04-06 06:20:02 46.1237 14.546 85 ° 122 km/h 26049 m 4.0 m/s MHz Trzin (SI) 0.00 km LOST
ME8A22BC8 M10 2020-04-05 05:54:58 45.8351 14.1023 255 ° 70 km/h 1702 m -12.8 m/s 403.002 MHz Vipava (SI) 0.00 km FOUND
ME8A22BEC M10 2020-04-04 06:05:41 45.8379 15.0154 183 ° 43 km/h 3032 m -15.4 m/s 403.003 MHz Mirna Peč (SI) 0.00 km FOUND
ME8A22C11 M10 2020-04-03 06:02:39 46.0197 15.0211 198 ° 39 km/h 2466 m -11.8 m/s 403.001 MHz Šentrupert (SI) 0.00 km UNKNOWN
ME176348 M10 2020-04-03 05:59:29 46.0255 15.0175 81 ° 13 km/h 4945 m -14.0 m/s 403.000 MHz Šentrupert (SI) 0.00 km FOUND
ME8A22BFE M10 2020-04-02 06:43:52 45.9805 15.1137 237 ° 20 km/h 2299 m -13.8 m/s 403.003 MHz Šentrupert (SI) 0.00 km FOUND
ME155611 M10 2020-04-02 06:41:29 45.9835 15.1133 92 ° 11 km/h 4484 m -16.2 m/s 403.000 MHz Šentrupert (SI) 0.00 km UNKNOWN
ME8A22BF5 M10 2020-04-01 06:32:58 45.3273 14.3794 200 ° 70 km/h 3184 m -15.8 m/s 403.002 MHz Viškovo (HR) 0.00 km LOST
ME152795 M10 2020-04-01 06:18:59 45.4355 14.4115 122 ° 39 km/h 26873 m -42.6 m/s 403.000 MHz Klana (HR) 0.00 km UNKNOWN
ME153819 M10 2020-03-31 06:36:30 45.778 15.3545 217 ° 20 km/h 3233 m -15.3 m/s 403.000 MHz Žumberak (HR) 0.00 km UNKNOWN
ME8A22BF9 M10 2020-03-31 06:36:23 45.7779 15.3541 224 ° 20 km/h 3187 m -15.3 m/s 403.003 MHz Žumberak (HR) 0.00 km UNKNOWN
ME8A22BC7 M10 2020-03-30 06:27:30 46.0611 15.3734 246 ° 17 km/h 898 m -9.4 m/s 403.001 MHz Sevnica (SI) 0.00 km UNKNOWN
ME8A22B59 M10 2020-03-29 05:56:51 45.735 14.6659 202 ° 41 km/h 3400 m -16.6 m/s 403.000 MHz Sodražica (SI) 0.00 km FOUND
ME8A22B54 M10 2020-03-28 06:42:35 45.8938 14.39 301 ° 30 km/h 2736 m -15.8 m/s 403.001 MHz Borovnica (SI) 0.00 km FOUND
ME8A22B58 M10 2020-03-27 06:11:46 46.2722 13.8611 284 ° 65 km/h 2414 m -10.1 m/s 403.002 MHz Bohinjska Bistrica (SI) 0.00 km UNKNOWN
ME195035 M10 2020-03-27 05:54:33 46.2209 13.9894 11 ° 9 km/h 19901 m -25.4 m/s MHz Bohinjska Bistrica (SI) 0.00 km UNKNOWN
ME8A22B53 M10 2020-03-26 05:43:47 46.422 14.077 298 ° 70 km/h 2449 m -10.0 m/s 403.002 MHz Jesenice (SI) 0.00 km FOUND
ME8A22B4C M10 2020-03-25 05:42:29 45.9241 13.5019 224 ° 41 km/h 1312 m -11.0 m/s 403.001 MHz Dobrovo (SI) 0.00 km FOUND
ME8A22B8E M10 2020-03-24 06:04:26 45.6992 13.866 222 ° 26 km/h 461 m -10.4 m/s 403.003 MHz Sežana (SI) 0.00 km LOST
ME8A22B5E M10 2020-03-23 05:25:49 45.5396 14.5409 226 ° 65 km/h 1738 m -5.3 m/s 403.002 MHz Čabar (HR) 0.00 km UNKNOWN
ME8A22B5C M10 2020-03-22 06:12:52 45.9529 15.1174 115 ° 56 km/h 6171 m -18.0 m/s 403.001 MHz Mokronog (SI) 0.00 km FOUND
ME8A22B4E M10 2020-03-21 06:28:06 46.2557 15.5211 92 ° 26 km/h 905 m -10.8 m/s 403.001 MHz Šmarje (SI) 0.00 km FOUND
ME8A22B46 M10 2020-03-20 06:27:58 46.4108 14.9824 102 ° 13 km/h 3288 m -11.1 m/s 403.001 MHz Šoštanj (SI) 0.00 km UNKNOWN
ME8A22B8B M10 2020-03-19 06:28:09 46.0184 14.1189 285 ° 15 km/h 979 m -12.4 m/s 403.001 MHz Žiri (SI) 0.00 km FOUND
ME142043 M10 2020-03-19 06:18:37 46.0084 14.1649 285 ° 52 km/h 10299 m -21.9 m/s 403.000 MHz Žiri (SI) 0.00 km FOUND
ME8A22B48 M10 2020-03-18 06:33:46 45.6412 13.864 214 ° 17 km/h 1950 m -14.0 m/s 403.000 MHz Kozina (SI) 0.00 km UNKNOWN
ME190939 M10 2020-03-18 06:19:23 45.7017 13.9674 244 ° 30 km/h 25543 m -13.4 m/s 403.000 MHz Divača (SI) 0.00 km UNKNOWN
ME8A22B62 M10 2020-03-17 06:03:29 45.8516 14.7899 165 ° 43 km/h 8657 m -17.6 m/s 403.000 MHz Videm (SI) 0.00 km FOUND
ME180699 M10 2020-03-16 05:55:24 45.993 14.8307 148 ° 19 km/h 5966 m -15.2 m/s 403.000 MHz Ivančna Gorica (SI) 0.00 km FOUND
ME8A22B60 M10 2020-03-16 05:53:49 45.9959 14.8271 108 ° 13 km/h 7281 m -16.1 m/s 403.000 MHz Ivančna Gorica (SI) 0.00 km FOUND
ME8A22B5A M10 2020-03-15 06:04:06 45.4396 14.8272 182 ° 44 km/h 3540 m -12.8 m/s 403.001 MHz Delnice (HR) 0.00 km UNKNOWN
ME8A22B51 M10 2020-03-14 06:13:39 46.1962 16.2248 182 ° 2 km/h 586 m -9.6 m/s 403.001 MHz Budinšćina (HR) 0.00 km UNKNOWN
ME192731 M10 2020-03-14 06:09:55 46.1981 16.2332 228 ° 2 km/h 2764 m -10.1 m/s 403.000 MHz Beretinec (HR) 0.00 km UNKNOWN
ME145627 M10 2020-03-13 06:25:12 46.1272 16.4079 152 ° 30 km/h 637 m -12.9 m/s 403.000 MHz Gornja Rijeka (HR) 0.00 km UNKNOWN
ME8A22B99 M10 2020-03-13 06:25:12 46.1272 16.4079 152 ° 30 km/h 637 m -12.9 m/s 403.001 MHz Gornja Rijeka (HR) 0.00 km UNKNOWN
ME8A22B9E M10 2020-03-12 06:32:41 45.6837 15.8391 88 ° 39 km/h 2125 m -11.2 m/s 403.001 MHz Klinča Sela (HR) 0.00 km UNKNOWN
ME147419 M10 2020-03-12 06:32:10 45.684 15.8344 90 ° 44 km/h 2484 m -11.4 m/s 403.000 MHz Klinča Sela (HR) 0.00 km UNKNOWN
ME8A22BEF M10 2020-03-11 05:55:57 45.1805 15.0677 158 ° 126 km/h 8353 m -11.0 m/s 403.001 MHz Ogulin (HR) 0.00 km UNKNOWN
ME151259 M10 2020-03-11 05:42:26 45.3589 14.9818 125 ° 17 km/h 18704 m 5.6 m/s 403.000 MHz Ravna Gora (HR) 0.00 km UNKNOWN
ME8A22BF3 M10 2020-03-10 06:23:13 45.4536 14.6321 167 ° 19 km/h 4626 m -16.0 m/s 403.001 MHz Osilnica (SI) 0.00 km UNKNOWN
ME152283 M10 2020-03-10 06:11:09 45.5613 14.6226 246 ° 19 km/h 24072 m -35.8 m/s 403.000 MHz Čabar (HR) 0.00 km UNKNOWN
ME8A22AA4 M10 2020-03-09 06:32:19 45.9197 14.7594 189 ° 22 km/h 3246 m -16.9 m/s 403.001 MHz Ivančna Gorica (SI) 0.00 km FOUND
ME132554 M10 2020-03-09 06:28:39 45.9313 14.7566 155 ° 24 km/h 7166 m -20.6 m/s 403.000 MHz Ivančna Gorica (SI) 0.00 km FOUND
ME8A22A9A M10 2020-03-08 06:31:34 45.7581 14.3995 225 ° 39 km/h 3271 m -13.5 m/s 403.001 MHz Cerknica (SI) 0.00 km FOUND
ME146378 M10 2020-03-08 06:26:40 45.7901 14.4168 203 ° 98 km/h 8224 m -19.0 m/s 403.000 MHz Cerknica (SI) 0.00 km UNKNOWN
ME8A22A99 M10 2020-03-07 06:12:00 46.269 14.8904 219 ° 31 km/h 1048 m -2.5 m/s 403.001 MHz Vransko (SI) 0.00 km FOUND
ME145610 M10 2020-03-07 06:01:13 46.3125 14.8738 74 ° 35 km/h 3641 m -4.2 m/s 403.000 MHz Rečica (SI) 0.00 km FOUND
ME8A22A42 M10 2020-03-06 06:08:25 46.5187 15.5619 65 ° 9 km/h 975 m -13.4 m/s 403.001 MHz Ruše (SI) 0.00 km FOUND
ME189386 M10 2020-03-06 06:04:15 46.4937 15.5243 39 ° 63 km/h 4472 m -15.7 m/s 403.000 MHz Ruše (SI) 0.00 km FOUND
ME8A22A9E M10 2020-03-05 06:11:39 45.148 15.308 155 ° 70 km/h 14394 m -26.8 m/s 403.004 MHz Josipdol (HR) 0.00 km UNKNOWN
ME8A22A82 M10 2020-03-04 05:51:17 45.9708 14.8794 317 ° 9 km/h 3591 m -13.6 m/s 403.001 MHz Ivančna Gorica (SI) 0.00 km FOUND
ME140234 M10 2020-03-04 05:48:40 45.969 14.8784 131 ° 11 km/h 5866 m -14.4 m/s 403.000 MHz Ivančna Gorica (SI) 0.00 km FOUND
ME8A22A41 M10 2020-03-03 06:13:28 46.9507 15.3278 26 ° 98 km/h 3773 m -10.2 m/s 403.001 MHz Lannach (AT) 0.00 km FOUND
ME188618 M10 2020-03-03 06:09:58 46.8952 15.3152 2 ° 143 km/h 5956 m -10.6 m/s 403.000 MHz Stainz (AT) 0.00 km LOST
ME8A22A80 M10 2020-03-02 06:30:56 46.1539 16.1236 83 ° 37 km/h 703 m -13.2 m/s 403.001 MHz Zlatar (HR) 0.00 km UNKNOWN
ME139722 M10 2020-03-02 06:23:05 46.1452 16.0021 107 ° 107 km/h 7261 m -17.1 m/s MHz Mihovljan (HR) 0.00 km UNKNOWN
ME8A22A7E M10 2020-03-01 06:03:07 46.1255 16.3296 50 ° 30 km/h 579 m -9.8 m/s 403.001 MHz Visoko (HR) 0.00 km FOUND
ME8A22AA0 M10 2020-02-29 05:59:54 45.5275 15.9719 92 ° 57 km/h 2118 m -10.1 m/s 403.001 MHz Pokupsko (HR) 0.00 km UNKNOWN
ME8A229F6 M10 2020-02-28 07:56:36 44.7004 17.7231 100 ° 85 km/h 7925 m -2.1 m/s 403.001 MHz Stanari (BA) 0.00 km UNKNOWN
ME153593 M10 2020-02-28 06:21:41 45.3265 16.0274 104 ° 67 km/h 19911 m -1.4 m/s MHz Glina (HR) 0.00 km UNKNOWN
ME154105 M10 2020-02-27 06:07:11 45.5125 15.4141 130 ° 50 km/h 4903 m -10.7 m/s 403.000 MHz Netretić (HR) 0.00 km UNKNOWN
ME8A229F8 M10 2020-02-27 06:04:27 45.5108 15.3925 83 ° 39 km/h 6406 m -6.4 m/s 403.001 MHz Netretić (HR) 0.00 km UNKNOWN
ME8A229E3 M10 2020-02-26 06:45:54 46.6045 16.6776 93 ° 19 km/h 395 m -4.6 m/s 403.001 MHz Lenti (HU) 0.00 km UNKNOWN
ME148217 M10 2020-02-26 06:45:02 46.6039 16.6735 81 ° 26 km/h 660 m -5.1 m/s 403.000 MHz Lenti (HU) 0.00 km UNKNOWN
ME8A229DC M10 2020-02-25 06:39:57 46.0675 16.8489 44 ° 37 km/h 491 m -8.6 m/s 403.002 MHz Novigrad Podravski (HR) 0.00 km UNKNOWN
ME163321 M10 2020-02-25 06:39:54 46.0679 16.8494 43 ° 37 km/h 438 m -9.0 m/s 403.000 MHz Novigrad Podravski (HR) 0.00 km FOUND
ME8A22A9B M10 2020-02-24 06:51:41 44.674 16.9382 142 ° 102 km/h 4957 m -4.6 m/s 403.001 MHz Ključ (BA) 0.00 km UNKNOWN
ME146122 M10 2020-02-24 06:23:57 45.0513 16.3781 128 ° 150 km/h 11655 m -4.2 m/s 403.000 MHz Novi Grad (BA) 0.00 km UNKNOWN
ME8A22A6C M10 2020-02-23 05:51:16 45.3087 15.6166 125 ° 54 km/h 3556 m -12.0 m/s 403.001 MHz Krnjak (HR) 0.00 km UNKNOWN
ME183754 M10 2020-02-23 05:35:27 45.4866 15.403 105 ° 19 km/h 19399 m -16.8 m/s 403.000 MHz Netretić (HR) 0.00 km UNKNOWN
ME8A22A08 M10 2020-02-22 04:58:12 45.9083 14.5257 185 ° 87 km/h 5424 m 3.4 m/s MHz Ig (SI) 0.00 km UNKNOWN
ME175354 M10 2020-02-21 06:01:12 45.8362 16.0402 58 ° 22 km/h 456 m -8.9 m/s 403.000 MHz Zagreb (HR) 0.00 km UNKNOWN
ME8A22A0D M10 2020-02-21 06:00:14 45.8347 16.0355 66 ° 31 km/h 938 m -8.6 m/s 403.001 MHz Zagreb (HR) 0.00 km UNKNOWN
ME8A229CC M10 2020-02-20 05:59:05 44.9336 14.8978 207 ° 43 km/h 3174 m -12.3 m/s 403.002 MHz Senj (HR) 0.00 km LOST
ME8A229C4 M10 2020-02-19 06:09:30 46.0054 15.6474 321 ° 30 km/h 803 m -11.1 m/s 403.002 MHz Bistrica ob Sotli (SI) 0.00 km UNKNOWN
ME157177 M10 2020-02-19 06:07:43 45.9972 15.6533 2 ° 22 km/h 2169 m -11.9 m/s 403.000 MHz Kraljevec na Sutli (HR) 0.00 km UNKNOWN
ME8A22A12 M10 2020-02-18 05:54:28 46.4566 16.3108 272 ° 13 km/h 497 m -11.0 m/s 403.001 MHz Gornji Mihaljevec (HR) 0.00 km FOUND
ME177146 M10 2020-02-18 05:53:22 46.4573 16.3104 162 ° 31 km/h 1262 m -12.1 m/s 403.000 MHz Gornji Mihaljevec (HR) 0.00 km UNKNOWN
ME8A22A11 M10 2020-02-17 06:15:28 46.0033 15.8261 61 ° 26 km/h 450 m -8.9 m/s 403.001 MHz Veliko Trgovišće (HR) 0.00 km UNKNOWN
ME8A229E5 M10 2020-02-16 06:23:00 45.3471 15.073 61 ° 9 km/h 3559 m -10.3 m/s 403.002 MHz Vrbovsko (HR) 0.00 km FOUND
ME8A229E2 M10 2020-02-15 05:57:30 45.4385 15.3302 207 ° 63 km/h 3379 m -15.0 m/s 403.000 MHz Bosiljevo (HR) 0.00 km UNKNOWN
ME148473 M10 2020-02-15 05:44:28 45.5478 15.2135 90 ° 46 km/h 22326 m -34.0 m/s 403.000 MHz Črnomelj (SI) 0.00 km UNKNOWN
ME147146 M10 2020-02-14 07:00:59 45.5978 16.3925 179 ° 13 km/h 657 m -5.1 m/s 403.000 MHz Martinska Ves (HR) 0.00 km FOUND
ME8A22A9F M10 2020-02-14 06:59:58 45.5996 16.3921 167 ° 22 km/h 940 m -5.3 m/s 403.003 MHz Martinska Ves (HR) 0.00 km UNKNOWN
ME8A22A9D M10 2020-02-13 06:35:13 45.4703 17.3129 49 ° 11 km/h 1678 m -10.6 m/s 403.000 MHz Sirač (HR) 0.00 km FOUND
ME146634 M10 2020-02-13 06:34:52 45.4701 17.3121 103 ° 11 km/h 1911 m -11.3 m/s 403.000 MHz Sirač (HR) 0.00 km UNKNOWN
ME8A22AA2 M10 2020-02-12 06:51:02 45.5686 18.2465 162 ° 15 km/h 323 m -12.2 m/s 403.001 MHz Koška (HR) 0.00 km FOUND
ME132042 M10 2020-02-12 06:46:06 45.5885 18.2044 111 ° 128 km/h 4818 m -16.6 m/s 403.000 MHz Koška (HR) 0.00 km UNKNOWN
ME8A22A7F M10 2020-02-11 06:29:41 45.1623 17.9271 103 ° 109 km/h 2097 m -14.6 m/s 403.000 MHz Sibinj (HR) 0.00 km FOUND
ME188106 M10 2020-02-11 06:25:45 45.1801 17.8513 121 ° 122 km/h 5560 m -14.2 m/s 403.000 MHz Brodski Stupnik (HR) 0.00 km UNKNOWN
ME8A229D1 M10 2020-02-10 06:13:40 45.5448 16.3067 72 ° 94 km/h 2148 m -14.0 m/s 403.001 MHz Martinska Ves (HR) 0.00 km UNKNOWN
ME159993 M10 2020-02-10 06:12:56 45.5433 16.2909 90 ° 76 km/h 2888 m -16.4 m/s 403.000 MHz Lekenik (HR) 0.00 km UNKNOWN
ME8A22A0B M10 2020-02-09 05:59:03 46.0688 15.2877 77 ° 31 km/h 2012 m -13.7 m/s 403.001 MHz Sevnica (SI) 0.00 km UNKNOWN
ME174842 M10 2020-02-09 05:56:57 46.0671 15.2752 90 ° 26 km/h 3876 m -14.2 m/s 403.000 MHz Sevnica (SI) 0.00 km UNKNOWN
ME8A229F7 M10 2020-02-08 05:55:37 45.7522 14.6372 179 ° 22 km/h 3247 m -15.1 m/s 403.002 MHz Sodražica (SI) 0.00 km UNKNOWN
ME153337 M10 2020-02-08 05:52:57 45.7596 14.6376 186 ° 24 km/h 5917 m -15.8 m/s 403.000 MHz Sodražica (SI) 0.00 km UNKNOWN
ME8A22AA3 M10 2020-02-07 06:34:10 45.1659 14.5121 187 ° 94 km/h 7642 m -14.5 m/s 403.002 MHz Malinska (HR) 0.00 km LOST
ME131786 M10 2020-02-07 06:23:12 45.2607 14.518 55 ° 7 km/h 22244 m -29.0 m/s 403.000 MHz Kraljevica (HR) 0.00 km LOST
ME8A22A0C M10 2020-02-06 06:27:14 44.9926 14.0908 221 ° 85 km/h 3334 m -13.4 m/s 403.001 MHz Raša (HR) 0.00 km UNKNOWN
ME8A22A09 M10 2020-02-05 06:25:57 44.9417 14.8171 197 ° 76 km/h 4620 m -11.6 m/s 403.000 MHz Baška (HR) 0.00 km LOST
ME174330 M10 2020-02-05 05:40:58 45.2292 14.6055 165 ° 65 km/h 16211 m 4.4 m/s 403.000 MHz Omišalj (HR) 0.00 km LOST
ME173818 M10 2020-02-04 06:57:31 45.393 19.2552 97 ° 113 km/h 7285 m -3.4 m/s MHz Bač (RS) 0.00 km UNKNOWN
ME8A22A07 M10 2020-02-04 06:34:54 45.4704 18.5218 99 ° 193 km/h 10563 m -1.1 m/s 403.000 MHz Vladislavci (HR) 0.00 km UNKNOWN
ME8A22A10 M10 2020-02-03 07:05:05 44.5491 17.09 126 ° 63 km/h 4671 m -3.9 m/s 403.001 MHz Mrkonjić Grad (BA) 0.00 km UNKNOWN
ME8A229DF M10 2020-02-02 06:34:51 44.876 15.8633 132 ° 24 km/h 2122 m -11.6 m/s 403.001 MHz Bihać (BA) 0.00 km UNKNOWN
ME8A229E4 M10 2020-02-01 06:39:28 45.671 15.5674 78 ° 46 km/h 994 m -10.1 m/s 403.001 MHz Krašić (HR) 0.00 km UNKNOWN
ME148985 M10 2020-02-01 06:39:14 45.6706 15.5641 81 ° 48 km/h 1194 m -9.4 m/s 403.000 MHz Krašić (HR) 0.00 km UNKNOWN
ME8A229D8 M10 2020-01-31 06:11:18 45.2922 15.542 161 ° 35 km/h 3447 m -12.2 m/s 403.002 MHz Krnjak (HR) 0.00 km UNKNOWN
ME162297 M10 2020-01-31 05:55:59 45.4331 15.3951 129 ° 122 km/h 21627 m -12.4 m/s 403.000 MHz Duga Resa (HR) 0.00 km UNKNOWN
ME8A22A0E M10 2020-01-30 06:15:44 44.8168 16.1622 98 ° 131 km/h 24131 m -41.5 m/s 403.000 MHz Bosanska Krupa (BA) 0.00 km UNKNOWN
ME8A229E9 M10 2020-01-29 05:43:31 45.5686 16.2595 347 ° 37 km/h 614 m -7.9 m/s 403.001 MHz Lekenik (HR) 0.00 km UNKNOWN
ME149753 M10 2020-01-29 05:43:29 45.5683 16.2597 338 ° 37 km/h 653 m -7.6 m/s 403.000 MHz Lekenik (HR) 0.00 km UNKNOWN
ME8A229EA M10 2020-01-28 05:42:30 46.006 15.8993 38 ° 35 km/h 453 m -11.6 m/s 403.001 MHz Oroslavje (HR) 0.00 km FOUND
ME150521 M10 2020-01-28 05:26:43 46.0123 15.5912 98 ° 100 km/h 15296 m -15.8 m/s MHz Kozje (SI) 0.00 km LOST
ME8A2298E M10 2020-01-27 06:17:15 45.8527 15.4228 162 ° 15 km/h 2101 m -9.2 m/s 403.002 MHz Kostanjevica na Krki (SI) 0.00 km LOST
ME8A22989 M10 2020-01-26 05:46:16 46.2604 15.0534 64 ° 39 km/h 1692 m -12.5 m/s 403.001 MHz Polzela (SI) 0.00 km FOUND
ME8A22982 M10 2020-01-25 06:03:08 46.3566 15.2921 83 ° 31 km/h 1751 m -15.8 m/s 403.001 MHz Vitanje (SI) 0.00 km UNKNOWN
ME140281 M10 2020-01-25 06:00:55 46.3514 15.2888 336 ° 22 km/h 4031 m -17.8 m/s 403.000 MHz Vitanje (SI) 0.00 km UNKNOWN
ME8A22984 M10 2020-01-24 06:32:21 46.2301 15.5905 61 ° 48 km/h 1088 m -12.8 m/s 403.002 MHz Rogaška Slatina (SI) 0.00 km NEED ATTENTION
ME140793 M10 2020-01-24 06:30:10 46.2258 15.5724 75 ° 28 km/h 3097 m -14.6 m/s 403.000 MHz Šmarje (SI) 0.00 km UNKNOWN
ME187129 M10 2020-01-23 06:43:10 45.5856 14.9533 171 ° 17 km/h 3058 m -9.2 m/s 403.000 MHz Kostel (SI) 0.00 km FOUND
ME8A2297B M10 2020-01-23 06:41:48 45.5894 14.953 192 ° 19 km/h 3789 m -9.3 m/s 403.000 MHz Kočevje (SI) 0.00 km UNKNOWN
ME8A22987 M10 2020-01-22 06:27:43 45.9651 15.4749 81 ° 35 km/h 1293 m -10.0 m/s 403.002 MHz Krško (SI) 0.00 km NEED ATTENTION
ME141049 M10 2020-01-22 06:25:41 45.9631 15.4605 69 ° 28 km/h 2618 m -10.5 m/s 403.000 MHz Krško (SI) 0.00 km UNKNOWN
ME8A22983 M10 2020-01-21 06:34:19 46.14 14.0994 326 ° 19 km/h 2496 m -13.2 m/s 403.000 MHz Gorenja Vas (SI) 0.00 km FOUND
ME140025 M10 2020-01-21 06:26:56 46.1194 14.1395 300 ° 115 km/h 10157 m -22.8 m/s 403.000 MHz Gorenja Vas (SI) 0.00 km FOUND
ME8A22981 M10 2020-01-20 06:00:24 46.0335 14.6303 237 ° 39 km/h 2481 m -12.6 m/s 403.000 MHz Dol (SI) 0.00 km FOUND
ME139513 M10 2020-01-20 05:54:41 46.0157 14.6074 84 ° 89 km/h 7095 m -14.0 m/s 403.000 MHz Škofljica (SI) 0.00 km FOUND
ME8A229E8 M10 2020-01-19 06:14:03 46.0323 14.9627 87 ° 20 km/h 4144 m -12.7 m/s 403.000 MHz Litija (SI) 0.00 km FOUND
ME150009 M10 2020-01-19 06:12:41 46.0337 14.9499 99 ° 56 km/h 5220 m -12.3 m/s 403.000 MHz Litija (SI) 0.00 km FOUND
ME8A2297D M10 2020-01-18 06:11:24 46.678 14.959 135 ° 9 km/h 1192 m -10.4 m/s 403.001 MHz Lavamünd (AT) 0.00 km UNKNOWN
ME187641 M10 2020-01-18 06:09:35 46.6819 14.9635 223 ° 31 km/h 2302 m -9.4 m/s 403.000 MHz Lavamünd (AT) 0.00 km UNKNOWN
ME8A229DE M10 2020-01-17 06:18:20 46.3569 15.134 37 ° 31 km/h 3205 m -14.8 m/s 403.002 MHz Velenje (SI) 0.00 km UNKNOWN
ME163833 M10 2020-01-17 06:15:27 46.3409 15.1259 13 ° 37 km/h 6264 m -16.5 m/s 403.000 MHz Velenje (SI) 0.00 km UNKNOWN
ME8A229EC M10 2020-01-16 06:22:05 46.2212 15.1 219 ° 15 km/h 948 m -10.1 m/s 403.003 MHz Prebold (SI) 0.00 km UNKNOWN
ME151033 M10 2020-01-16 06:01:05 46.1953 14.9927 88 ° 44 km/h 19856 m -18.3 m/s 403.000 MHz Tabor (SI) 0.00 km LOST
ME8A2297F M10 2020-01-15 06:37:17 45.914 15.0679 352 ° 11 km/h 2777 m -12.5 m/s 403.002 MHz Trebnje (SI) 0.00 km UNKNOWN
ME187897 M10 2020-01-14 06:50:12 45.8741 15.6728 100 ° 44 km/h 1775 m -14.7 m/s 403.000 MHz Marija Gorica (HR) 0.00 km UNKNOWN
ME8A2297C M10 2020-01-14 06:49:25 45.8742 15.6676 92 ° 22 km/h 2431 m -14.7 m/s 403.001 MHz Brežice (SI) 0.00 km FOUND
ME8A229E6 M10 2020-01-13 06:26:07 46.0055 15.0098 83 ° 11 km/h 3331 m -11.5 m/s 403.001 MHz Mirna (SI) 0.00 km FOUND
ME149497 M10 2020-01-13 06:24:28 46.0034 15.0067 50 ° 2 km/h 4689 m -11.9 m/s 403.000 MHz Mirna (SI) 0.00 km FOUND
ME8A229F3 M10 2020-01-12 06:49:55 45.533 13.6524 232 ° 31 km/h 1213 m -8.1 m/s 402.997 MHz Izola (SI) 0.00 km LOST
ME152313 M10 2020-01-12 06:35:13 45.5909 13.8046 227 ° 100 km/h 9740 m -21.6 m/s 403.000 MHz Múggia (IT) 0.00 km UNKNOWN
ME8B22079 M10 2020-01-11 06:00:39 46.1048 15.0056 324 ° 15 km/h 1012 m -8.2 m/s 403.001 MHz Zagorje (SI) 0.00 km UNKNOWN
ME248176 M10 2020-01-11 05:53:13 46.1143 14.995 94 ° 54 km/h 5133 m -9.6 m/s 403.000 MHz Zagorje (SI) 0.00 km UNKNOWN
ME8B22010 M10 2020-01-10 06:31:27 46.3898 15.2831 113 ° 30 km/h 1260 m -10.6 m/s 403.002 MHz Vitanje (SI) 0.00 km NEED ATTENTION
ME237680 M10 2020-01-10 06:27:13 46.3885 15.252 38 ° 46 km/h 4080 m -11.4 m/s 403.000 MHz Vitanje (SI) 0.00 km UNKNOWN
ME8B2201C M10 2020-01-09 07:08:58 45.4958 14.378 85 ° 30 km/h 1761 m -6.6 m/s 403.002 MHz Klana (HR) 0.00 km UNKNOWN
ME240752 M10 2020-01-09 06:59:44 45.5044 14.4019 217 ° 17 km/h 5406 m -5.4 m/s 403.000 MHz Klana (HR) 0.00 km UNKNOWN
ME8B22082 M10 2020-01-08 06:21:32 45.3107 13.8495 242 ° 20 km/h 2256 m -6.9 m/s 403.000 MHz Karojba (HR) 0.00 km UNKNOWN
ME209520 M10 2020-01-08 06:01:29 45.3942 13.9531 209 ° 48 km/h 9472 m -6.6 m/s 403.000 MHz Buzet (HR) 0.00 km UNKNOWN
ME8A229E7 M10 2020-01-07 06:37:32 45.5012 14.8937 163 ° 30 km/h 3427 m -11.1 m/s 403.001 MHz Kostel (SI) 0.00 km UNKNOWN
ME8A229EB M10 2020-01-06 06:33:03 44.8675 14.2406 198 ° 67 km/h 10495 m -21.8 m/s MHz Cres (HR) 0.00 km LOST
ME8B22026 M10 2020-01-05 05:49:16 44.7144 14.6811 174 ° 200 km/h 6928 m -15.5 m/s MHz Rab (HR) 0.00 km LOST
ME8B22047 M10 2020-01-04 06:35:53 45.756 15.5491 301 ° 24 km/h 919 m -14.5 m/s 403.002 MHz Žumberak (HR) 0.00 km UNKNOWN
ME8B22025 M10 2020-01-03 06:01:20 45.9863 15.1578 87 ° 44 km/h 2321 m -8.7 m/s 403.000 MHz Šentrupert (SI) 0.00 km FOUND
ME8B2203A M10 2020-01-02 06:28:07 45.7539 14.5131 273 ° 20 km/h 1254 m -9.2 m/s 403.001 MHz Nova Vas (SI) 0.00 km FOUND
ME8B2203B M10 2020-01-01 06:22:33 45.2236 14.9526 183 ° 63 km/h 2975 m -12.3 m/s 403.000 MHz Mrkopalj (HR) 0.00 km UNKNOWN
ME8B22046 M10 2019-12-31 06:21:38 45.4249 14.6855 221 ° 37 km/h 3674 m -11.2 m/s 403.001 MHz Lokve (HR) 0.00 km UNKNOWN
ME8B22007 M10 2019-12-30 06:43:14 44.3957 12.6832 200 ° 20 km/h 611 m -5.7 m/s MHz Cervia (IT) 0.00 km LOST
ME8B22011 M10 2019-12-29 06:14:08 44.8309 14.199 206 ° 98 km/h 4405 m -15.8 m/s MHz Ližnjan (HR) 0.00 km LOST
ME8B22049 M10 2019-12-28 06:33:51 44.517 14.5847 188 ° 161 km/h 6578 m -19.5 m/s MHz Mali Lošinj (HR) 0.00 km LOST
ME8B22031 M10 2019-12-27 06:05:24 45.6417 15.2172 166 ° 52 km/h 4296 m -14.3 m/s 403.003 MHz Semič (SI) 0.00 km FOUND
ME229744 M10 2019-12-27 06:04:10 45.652 15.2122 144 ° 57 km/h 5432 m -15.1 m/s 403.000 MHz Semič (SI) 0.00 km UNKNOWN
ME238192 M10 2019-12-26 06:46:01 44.345 15.8296 200 ° 63 km/h 2320 m -9.0 m/s 403.000 MHz Gračac (HR) 0.00 km UNKNOWN
ME8B22012 M10 2019-12-26 06:39:57 44.4027 15.8017 157 ° 169 km/h 5990 m -10.8 m/s MHz Lovinac (HR) 0.00 km UNKNOWN
ME8B2201D M10 2019-12-25 06:05:48 45.0329 15.5679 170 ° 63 km/h 3347 m -11.9 m/s MHz Rakovica (HR) 0.00 km UNKNOWN
ME241008 M10 2019-12-25 05:47:26 45.2581 15.3328 108 ° 28 km/h 22130 m -8.4 m/s 403.000 MHz Tounj (HR) 0.00 km UNKNOWN
ME8B22030 M10 2019-12-24 06:37:22 44.7563 15.3993 190 ° 63 km/h 3116 m -9.5 m/s 403.000 MHz Vrhovine (HR) 0.00 km UNKNOWN
ME229488 M10 2019-12-24 06:32:57 44.7969 15.3842 162 ° 100 km/h 5637 m -10.1 m/s 403.000 MHz Vrhovine (HR) 0.00 km UNKNOWN
ME8B2202F M10 2019-12-23 06:54:58 45.742 15.6181 160 ° 50 km/h 899 m -10.6 m/s 403.001 MHz Jastrebarsko (HR) 0.00 km UNKNOWN
ME237424 M10 2019-12-23 06:54:26 45.7464 15.6152 152 ° 59 km/h 1263 m -11.2 m/s 403.000 MHz Jastrebarsko (HR) 0.00 km UNKNOWN
ME8B2204A M10 2019-12-22 06:49:41 46.5862 16.2934 15 ° 6 km/h 225 m -2.6 m/s 403.001 MHz Odranci (SI) 0.00 km FOUND
ME260720 M10 2019-12-22 06:23:26 46.4675 16.1666 49 ° 39 km/h 5118 m -4.2 m/s 403.000 MHz Ljutomer (SI) 0.00 km LOST
ME8B22027 M10 2019-12-21 06:53:55 46.7966 16.7733 351 ° 30 km/h 343 m -9.1 m/s 403.001 MHz Zalaegerszeg (HU) 0.00 km FOUND
ME235376 M10 2019-12-21 06:52:44 46.7886 16.7681 35 ° 63 km/h 921 m -7.9 m/s 403.000 MHz Zalaegerszeg (HU) 0.00 km UNKNOWN
ME8A22B02 M10 2019-12-20 06:38:12 46.2045 15.4483 41 ° 43 km/h 913 m -8.5 m/s 403.001 MHz Šentjur (SI) 0.00 km FOUND
ME173003 M10 2019-12-20 06:33:57 46.1815 15.4137 32 ° 52 km/h 3579 m -11.1 m/s 403.000 MHz Šentjur (SI) 0.00 km UNKNOWN
ME8A22B21 M10 2019-12-19 05:56:52 46.6246 14.941 88 ° 17 km/h 1434 m -13.0 m/s 403.001 MHz Lavamünd (AT) 0.00 km FOUND
ME164059 M10 2019-12-19 05:49:42 46.5687 14.9008 30 ° 52 km/h 8099 m -18.2 m/s 403.000 MHz Prevalje (SI) 0.00 km UNKNOWN
ME8A22B88 M10 2019-12-18 06:29:37 46.6931 15.6117 39 ° 120 km/h 10876 m -23.2 m/s 403.002 MHz Šentilj (SI) 0.00 km LOST
ME141787 M10 2019-12-18 06:26:42 46.6643 15.569 30 ° 46 km/h 16189 m -36.1 m/s 403.000 MHz Zgornja Kungota (SI) 0.00 km LOST
ME8A22B2C M10 2019-12-17 06:03:27 46.5023 15.6499 50 ° 24 km/h 443 m -13.1 m/s 403.000 MHz Spodnje Hoče (SI) 0.00 km FOUND
ME167387 M10 2019-12-17 06:01:25 46.4915 15.6223 57 ° 52 km/h 1984 m -13.7 m/s 403.000 MHz Spodnje Hoče (SI) 0.00 km FOUND
ME8A22C22 M10 2019-12-16 06:17:51 46.1409 15.9464 45 ° 26 km/h 418 m -12.2 m/s 403.000 MHz Mihovljan (HR) 0.00 km NEED ATTENTION
ME164828 M10 2019-12-16 06:16:07 46.1344 15.9267 69 ° 76 km/h 1706 m -12.9 m/s 403.000 MHz Mihovljan (HR) 0.00 km UNKNOWN
ME174044 M10 2019-12-15 06:49:07 45.9118 16.403 49 ° 9 km/h 258 m -11.4 m/s 403.000 MHz Vrbovec (HR) 0.00 km FOUND
ME8A22C06 M10 2019-12-15 06:48:31 45.9108 16.4014 60 ° 35 km/h 536 m -11.6 m/s 403.001 MHz Vrbovec (HR) 0.00 km UNKNOWN
ME8B2204C M10 2019-12-14 06:10:19 45.1912 15.5527 196 ° 35 km/h 1884 m -9.7 m/s 403.001 MHz Slunj (HR) 0.00 km UNKNOWN
ME8B2203D M10 2019-12-13 06:08:26 45.9934 15.5861 54 ° 46 km/h 1420 m -12.0 m/s 403.001 MHz Krško (SI) 0.00 km UNKNOWN
ME8B22034 M10 2019-12-12 06:01:30 46.4032 14.7338 251 ° 26 km/h 2115 m -13.6 m/s 403.002 MHz Solčava (SI) 0.00 km UNKNOWN
ME8B2204E M10 2019-12-11 06:27:00 45.2453 14.0367 224 ° 43 km/h 2663 m -9.7 m/s 403.000 MHz Gračišće (HR) 0.00 km FOUND
ME8A22B22 M10 2019-12-10 06:39:31 45.7911 14.8099 213 ° 43 km/h 1693 m -9.5 m/s 403.001 MHz Žužemberk (SI) 0.00 km FOUND
ME132810 M10 2019-12-09 06:36:54 46.4119 15.93 77 ° 67 km/h 1804 m -13.5 m/s 403.000 MHz Dornava (SI) 0.00 km FOUND
ME8A22AA7 M10 2019-12-09 06:35:33 46.4104 15.9157 60 ° 43 km/h 3157 m -15.9 m/s 403.000 MHz Ptuj (SI) 0.00 km FOUND
ME8A22BA0 M10 2019-12-08 05:56:38 45.3534 15.0122 147 ° 52 km/h 4663 m -15.5 m/s 403.002 MHz Vrbovsko (HR) 0.00 km UNKNOWN
ME131547 M10 2019-12-08 05:44:39 45.4742 14.9502 127 ° 117 km/h 20581 m -26.7 m/s 403.000 MHz Brod Moravice (HR) 0.00 km UNKNOWN
ME132059 M10 2019-12-07 06:51:39 45.7175 16.2047 121 ° 13 km/h 370 m -13.4 m/s 403.000 MHz Rugvica (HR) 0.00 km FOUND
ME8A22BA2 M10 2019-12-07 06:50:03 45.7167 16.1931 97 ° 52 km/h 1519 m -14.5 m/s 403.001 MHz Rugvica (HR) 0.00 km FOUND
ME138459 M10 2019-12-06 06:57:09 46.2519 15.6551 101 ° 28 km/h 3887 m -15.3 m/s 403.000 MHz Rogaška Slatina (SI) 0.00 km LOST
ME8A22BBD M10 2019-12-06 06:55:16 46.2504 15.6494 32 ° 65 km/h 5471 m -15.4 m/s 403.001 MHz Rogaška Slatina (SI) 0.00 km LOST
ME8A22C16 M10 2019-12-05 07:38:04 46.5828 14.6346 67 ° 9 km/h 686 m -3.9 m/s 403.001 MHz Eberndorf (AT) 0.00 km FOUND
ME8A22C1C M10 2019-12-04 07:23:34 45.3098 14.6709 159 ° 15 km/h 2924 m -3.9 m/s 403.000 MHz Fužine (HR) 0.00 km UNKNOWN
ME8B22040 M10 2019-12-03 06:18:01 45.6433 15.5816 210 ° 26 km/h 2500 m -13.3 m/s 403.002 MHz Draganići (HR) 0.00 km UNKNOWN
ME258416 M10 2019-12-02 06:24:48 46.2888 16.9009 71 ° 74 km/h 2237 m -11.5 m/s MHz Legrad (HR) 0.00 km UNKNOWN
ME8B22041 M10 2019-12-02 06:23:21 46.287 16.8788 95 ° 72 km/h 3294 m -11.8 m/s 403.002 MHz Legrad (HR) 0.00 km UNKNOWN
ME8A22AAA M10 2019-12-01 07:05:39 45.3883 17.2805 310 ° 9 km/h 1288 m -9.6 m/s 403.000 MHz Pakrac (HR) 0.00 km UNKNOWN
ME8A22B7C M10 2019-11-30 06:31:08 45.7365 16.0966 198 ° 46 km/h 1008 m -10.0 m/s 403.001 MHz Velika Gorica (HR) 0.00 km UNKNOWN
ME8A22AA5 M10 2019-11-29 06:38:32 45.8882 16.4728 23 ° 7 km/h 1671 m -10.7 m/s 403.001 MHz Gradec (HR) 0.00 km FOUND
ME8A22AA8 M10 2019-11-28 06:17:38 46.229 16.2088 49 ° 35 km/h 841 m -13.1 m/s 403.001 MHz Vidovec (HR) 0.00 km FOUND
ME133578 M10 2019-11-28 06:13:19 46.2199 16.1748 68 ° 44 km/h 4579 m -15.5 m/s MHz Ivanec (HR) 0.00 km UNKNOWN
ME8A22AE6 M10 2019-11-27 06:18:34 45.8599 15.8738 56 ° 57 km/h 1133 m -13.5 m/s 403.002 MHz Poljanica Bistranska (HR) 0.00 km UNKNOWN
ME8A22B7A M10 2019-11-26 06:14:48 45.8619 15.2964 319 ° 6 km/h 2276 m -14.7 m/s 403.000 MHz Šentjernej (SI) 0.00 km FOUND
ME8A22AEC M10 2019-11-25 06:33:42 45.7743 15.247 133 ° 37 km/h 14562 m -3.9 m/s MHz Novo Mesto (SI) 0.00 km UNKNOWN
ME8A22AE4 M10 2019-11-24 06:30:22 46.3101 15.1289 20 ° 50 km/h 2899 m -14.4 m/s 403.001 MHz Polzela (SI) 0.00 km FOUND
ME148938 M10 2019-11-24 06:15:42 46.281 15.0398 88 ° 107 km/h 22901 m 3.1 m/s MHz Braslovče (SI) 0.00 km LOST
ME8A22BAD M10 2019-11-23 06:43:49 46.1025 15.4394 13 ° 26 km/h 1447 m -8.5 m/s 403.000 MHz Dobje (SI) 0.00 km UNKNOWN
ME8A22BB5 M10 2019-11-22 06:12:44 46.286 15.0143 32 ° 28 km/h 2324 m -10.8 m/s 403.002 MHz Braslovče (SI) 0.00 km UNKNOWN
ME8A22BB2 M10 2019-11-21 06:18:03 46.5565 15.3853 75 ° 37 km/h 3462 m -7.3 m/s 403.001 MHz Lovrenc na Pohorju (SI) 0.00 km UNKNOWN
ME8A22BB7 M10 2019-11-20 06:33:23 46.4563 14.5782 186 ° 9 km/h 1454 m -13.1 m/s 403.001 MHz Bad Eisenkappel (AT) 0.00 km UNKNOWN
ME136923 M10 2019-11-20 06:16:16 46.3878 14.5893 105 ° 74 km/h 22978 m -17.3 m/s MHz Solčava (SI) 0.00 km UNKNOWN
ME8A22AE9 M10 2019-11-19 05:57:51 46.6648 14.898 330 ° 11 km/h 903 m -8.9 m/s 403.002 MHz Lavamünd (AT) 0.00 km FOUND
ME8A22B23 M10 2019-11-18 05:58:34 46.9246 14.2801 55 ° 48 km/h 2426 m -11.9 m/s 403.000 MHz Friesach (AT) 0.00 km UNKNOWN
ME164571 M10 2019-11-18 05:43:38 46.751 14.339 64 ° 50 km/h 17711 m -24.2 m/s MHz Sankt Veit an der Glan (AT) 0.00 km NEED ATTENTION
ME8A22BBB M10 2019-11-17 06:07:38 47.3861 14.8993 294 ° 30 km/h 1348 m -13.2 m/s 403.000 MHz Trofaiach (AT) 0.00 km UNKNOWN
ME8A22B4F M10 2019-11-16 06:05:47 47.6091 15.5558 353 ° 33 km/h 1411 m -8.0 m/s 403.000 MHz Neuberg an der Mürz (AT) 0.00 km LOST
ME8A22B7D M10 2019-11-15 06:25:49 47.0653 15.2074 303 ° 15 km/h 956 m -8.4 m/s 403.001 MHz Stallhofen (AT) 0.00 km FOUND
ME8A22AE8 M10 2019-11-14 06:48:18 46.8415 15.5249 9 ° 46 km/h 727 m -11.6 m/s 403.002 MHz Kaindorf an der Sulm (AT) 0.00 km FOUND
ME8A22BBA M10 2019-11-13 06:39:52 47.2175 14.626 346 ° 70 km/h 3007 m -10.2 m/s 403.002 MHz Pöls (AT) 0.00 km UNKNOWN
ME8A22BB3 M10 2019-11-12 05:51:59 46.5151 14.4068 291 ° 2 km/h 1293 m -2.9 m/s MHz Ferlach (AT) 0.00 km NEED ATTENTION
ME8A22BB6 M10 2019-11-11 06:14:31 46.4401 15.2997 40 ° 39 km/h 2106 m -10.2 m/s 403.000 MHz Vitanje (SI) 0.00 km UNKNOWN
ME8A22BB4 M10 2019-11-10 08:28:29 46.7565 14.8087 97 ° 9 km/h 1714 m -8.0 m/s 403.001 MHz Sankt Andrä (AT) 0.00 km UNKNOWN
ME8A22B49 M10 2019-11-08 06:02:38 46.8379 15.2033 208 ° 2 km/h 570 m -11.5 m/s 403.000 MHz Deutschlandsberg (AT) 0.00 km FOUND
ME8A22B50 M10 2019-11-07 06:22:10 46.4276 15.6005 17 ° 26 km/h 1115 m -11.3 m/s 403.002 MHz Slovenska Bistrica (SI) 0.00 km LOST
ME8A22B45 M10 2019-11-06 06:20:48 46.8167 16.1341 355 ° 2 km/h 524 m -12.7 m/s 403.001 MHz Grad (SI) 0.00 km FOUND
ME139227 M10 2019-11-05 06:09:57 46.6604 16.4294 8 ° 56 km/h 535 m -14.1 m/s 403.000 MHz Kobilje (SI) 0.00 km FOUND
ME8A22BBE M10 2019-11-05 06:08:54 46.6507 16.4243 29 ° 67 km/h 1453 m -14.8 m/s 402.999 MHz Kobilje (SI) 0.00 km UNKNOWN
ME8A22B5B M10 2019-11-04 06:12:03 46.7105 15.3507 99 ° 19 km/h 2265 m -13.0 m/s 403.001 MHz Gleinstätten (AT) 0.00 km FOUND
ME8A22B69 M10 2019-11-03 06:10:55 46.5628 15.6239 326 ° 22 km/h 495 m -10.4 m/s 403.000 MHz Maribor (SI) 0.00 km UNKNOWN
ME8A22B55 M10 2019-11-02 06:51:58 45.9824 16.2022 56 ° 57 km/h 849 m -9.0 m/s 403.001 MHz Sveti Ivan Zelina (HR) 0.00 km UNKNOWN
ME8B2203E M10 2019-11-01 05:57:07 45.7857 14.9059 323 ° 17 km/h 1997 m -10.9 m/s 403.001 MHz Žužemberk (SI) 0.00 km FOUND
ME8B22029 M10 2019-10-31 05:48:21 45.7808 15.2916 259 ° 17 km/h 992 m -9.8 m/s 403.002 MHz Šentjernej (SI) 0.00 km FOUND
ME8A22C01 M10 2019-10-30 06:09:49 45.9454 15.5996 255 ° 19 km/h 1024 m -12.1 m/s 403.000 MHz Brežice (SI) 0.00 km UNKNOWN
ME8A22C0F M10 2019-10-29 07:19:00 46.0983 16.4354 244 ° 15 km/h 575 m -3.0 m/s 403.001 MHz Sveti Petar Orehovec (HR) 0.00 km UNKNOWN
ME8B22001 M10 2019-10-28 05:47:47 45.9528 15.0817 90 ° 44 km/h 5240 m -17.6 m/s 403.000 MHz Mirna (SI) 0.00 km FOUND
ME8B22043 M10 2019-10-27 06:27:24 46.0706 14.5279 94 ° 30 km/h 1189 m -9.0 m/s 403.001 MHz Ljubljana (SI) 0.00 km FOUND
ME258928 M10 2019-10-27 06:01:00 46.0659 14.5217 88 ° 33 km/h 20543 m -14.8 m/s 403.000 MHz Ljubljana (SI) 0.00 km FOUND
ME8B22035 M10 2019-10-26 06:29:24 45.9825 14.4739 202 ° 6 km/h 834 m -4.5 m/s 403.001 MHz Ig (SI) 0.00 km FOUND
ME230768 M10 2019-10-26 05:56:00 45.9744 14.5015 208 ° 17 km/h 12862 m -6.4 m/s 403.000 MHz Ig (SI) 0.00 km FOUND
ME8B2202C M10 2019-10-25 06:42:50 46.2509 14.8121 260 ° 13 km/h 1518 m -10.1 m/s 403.001 MHz Gornji Grad (SI) 0.00 km UNKNOWN
ME8A22BC5 M10 2019-10-24 06:13:37 46.3897 14.8099 56 ° 31 km/h 1790 m -10.6 m/s 403.001 MHz Ljubno (SI) 0.00 km UNKNOWN
ME8A22C0E M10 2019-10-23 06:57:35 46.395 15.2689 39 ° 33 km/h 2233 m -14.2 m/s 403.001 MHz Vitanje (SI) 0.00 km UNKNOWN
ME8A22C20 M10 2019-10-22 06:47:05 46.3898 15.3623 27 ° 7 km/h 1772 m -13.3 m/s 403.000 MHz Zreče (SI) 0.00 km UNKNOWN
ME164316 M10 2019-10-22 06:30:24 46.35 15.2725 82 ° 48 km/h 22937 m -37.0 m/s 403.000 MHz Dobrna (SI) 0.00 km LOST
ME8B2201F M10 2019-10-21 05:56:06 46.4231 15.2515 109 ° 33 km/h 1436 m -13.2 m/s 403.000 MHz Mislinja (SI) 0.00 km FOUND
ME8B22036 M10 2019-10-20 06:15:29 46.2843 15.5994 59 ° 61 km/h 1196 m -12.0 m/s 403.000 MHz Poljčane (SI) 0.00 km UNKNOWN
ME231024 M10 2019-10-20 05:59:40 46.2505 15.4242 78 ° 43 km/h 23866 m 5.8 m/s 403.000 MHz Šentjur (SI) 0.00 km LOST
ME8A22C02 M10 2019-10-19 06:41:53 46.3136 15.8895 40 ° 33 km/h 461 m -4.6 m/s 403.000 MHz Podlehnik (SI) 0.00 km FOUND
ME173020 M10 2019-10-19 06:41:06 46.3109 15.8845 59 ° 46 km/h 714 m -5.1 m/s 403.000 MHz Podlehnik (SI) 0.00 km FOUND
ME8A22C1F M10 2019-10-18 07:07:41 46.715 15.8003 74 ° 7 km/h 316 m -3.0 m/s 403.000 MHz Mureck (AT) 0.00 km LOST
ME8A22C0D M10 2019-10-17 06:02:02 46.133 14.8754 95 ° 24 km/h 2901 m -12.8 m/s 403.001 MHz Zagorje (SI) 0.00 km FOUND
ME8A22BFB M10 2019-10-16 06:07:12 46.7063 15.2642 56 ° 72 km/h 2079 m -13.1 m/s 403.000 MHz Wies (AT) 0.00 km FOUND
ME8A22C1B M10 2019-10-15 06:42:25 46.5318 15.2006 84 ° 28 km/h 1783 m -13.2 m/s 403.001 MHz Ribnica (SI) 0.00 km UNKNOWN
ME8A22C0C M10 2019-10-14 06:47:42 46.337 15.3865 117 ° 11 km/h 1040 m -9.4 m/s 403.001 MHz Slovenske Konjice (SI) 0.00 km UNKNOWN
ME175580 M10 2019-10-14 06:42:00 46.3257 15.3663 41 ° 31 km/h 4948 m -12.3 m/s 403.000 MHz Slovenske Konjice (SI) 0.00 km UNKNOWN
ME180188 M10 2019-10-13 07:00:00 46.0043 15.9404 67 ° 43 km/h 623 m -13.6 m/s 403.000 MHz Oroslavje (HR) 0.00 km UNKNOWN
ME8A22C1E M10 2019-10-13 06:58:30 46.0033 15.9271 88 ° 13 km/h 1872 m -15.7 m/s 403.000 MHz Oroslavje (HR) 0.00 km UNKNOWN
ME8A22C21 M10 2019-10-12 06:25:46 46.0913 15.431 87 ° 61 km/h 1445 m -14.1 m/s 403.000 MHz Dobje (SI) 0.00 km FOUND
ME164060 M10 2019-10-12 06:10:30 46.0823 15.313 102 ° 52 km/h 24439 m 0.8 m/s 403.000 MHz Sevnica (SI) 0.00 km FOUND
ME8B22015 M10 2019-10-11 06:06:10 45.5564 15.7077 316 ° 33 km/h 1098 m -9.9 m/s 403.001 MHz Draganići (HR) 0.00 km UNKNOWN
ME8B22016 M10 2019-10-10 05:55:30 46.3766 16.1595 300 ° 17 km/h 917 m -11.6 m/s 403.000 MHz Cestica (HR) 0.00 km LOST
ME8B2200A M10 2019-10-09 06:06:24 46.2555 15.9285 42 ° 46 km/h 491 m -12.6 m/s 403.003 MHz Bednja (HR) 0.00 km LOST
ME244336 M10 2019-10-09 06:06:00 46.2529 15.9187 77 ° 91 km/h 1013 m -13.0 m/s 403.000 MHz Gornje Jesenje (HR) 0.00 km LOST
ME8B22021 M10 2019-10-08 06:44:29 45.0132 14.902 179 ° 85 km/h 13812 m -29.8 m/s 403.000 MHz Senj (HR) 0.00 km UNKNOWN
ME8B22020 M10 2019-10-07 06:02:13 45.6465 14.971 185 ° 33 km/h 2706 m -10.9 m/s 403.000 MHz Kočevje (SI) 0.00 km FOUND
ME8A22C17 M10 2019-10-06 06:28:37 45.2459 16.6791 178 ° 41 km/h 1452 m -4.2 m/s MHz Hrvatska Dubica (HR) 0.00 km UNKNOWN
ME8A22C09 M10 2019-10-05 06:16:52 45.6493 15.7938 146 ° 7 km/h 1005 m -9.6 m/s 403.001 MHz Klinča Sela (HR) 0.00 km FOUND
ME174300 M10 2019-10-05 06:08:00 45.6617 15.7399 110 ° 78 km/h 6733 m -12.4 m/s 403.000 MHz Klinča Sela (HR) 0.00 km FOUND
ME8A22C07 M10 2019-10-04 06:06:41 45.5054 15.3288 256 ° 35 km/h 1651 m -11.2 m/s 403.000 MHz Netretić (HR) 0.00 km FOUND
ME8A22C00 M10 2019-10-03 05:32:34 46.3382 14.9415 181 ° 9 km/h 2937 m -8.7 m/s MHz Mozirje (SI) 0.00 km UNKNOWN
ME8A22A19 M10 2019-10-02 06:07:16 46.5485 15.4096 66 ° 41 km/h 1166 m -12.5 m/s MHz Lovrenc na Pohorju (SI) 0.00 km UNKNOWN
ME8A22A15 M10 2019-10-01 06:18:01 46.0946 15.6554 90 ° 35 km/h 2469 m -12.3 m/s MHz Zagorska Sela (HR) 0.00 km UNKNOWN
ME177402 M10 2019-10-01 06:02:08 46.0902 15.4755 76 ° 50 km/h 23596 m 6.0 m/s 403.000 MHz Kozje (SI) 0.00 km LOST
ME8A22A18 M10 2019-09-30 06:08:38 45.6937 15.9558 87 ° 63 km/h 1398 m -14.8 m/s MHz Velika Gorica (HR) 0.00 km FOUND
ME178682 M10 2019-09-30 06:08:30 45.6937 15.9536 89 ° 63 km/h 1545 m -14.9 m/s 403.000 MHz Velika Gorica (HR) 0.00 km FOUND
ME8A22A1D M10 2019-09-29 05:50:50 45.8677 15.6372 11 ° 9 km/h 855 m -9.2 m/s MHz Brežice (SI) 0.00 km UNKNOWN
ME179450 M10 2019-09-29 05:46:00 45.8595 15.6136 90 ° 24 km/h 3665 m -10.8 m/s 403.000 MHz Brežice (SI) 0.00 km UNKNOWN
ME8B22019 M10 2019-09-28 06:08:45 46.1272 16.0391 131 ° 6 km/h 1063 m -13.1 m/s MHz Lobor (HR) 0.00 km UNKNOWN
ME239984 M10 2019-09-28 06:05:00 46.1235 16.0283 81 ° 61 km/h 4282 m -14.4 m/s 403.000 MHz Mače (HR) 0.00 km UNKNOWN
ME234608 M10 2019-09-27 06:37:00 45.405 15.8279 133 ° 52 km/h 4664 m -19.1 m/s 403.000 MHz Gvozd (HR) 0.00 km UNKNOWN
ME8B22024 M10 2019-09-27 06:34:57 45.4138 15.8129 135 ° 61 km/h 6555 m -19.8 m/s MHz Gvozd (HR) 0.00 km UNKNOWN
ME245616 M10 2019-09-26 06:41:00 45.435 15.8967 222 ° 19 km/h 1289 m -10.6 m/s 403.000 MHz Gvozd (HR) 0.00 km UNKNOWN
ME8B2200F M10 2019-09-26 06:40:24 45.4364 15.8978 203 ° 26 km/h 1597 m -10.7 m/s MHz Pokupsko (HR) 0.00 km UNKNOWN
ME236400 M10 2019-09-25 06:32:00 45.9953 16.0976 86 ° 17 km/h 776 m -11.4 m/s 403.000 MHz Marija Bistrica (HR) 0.00 km UNKNOWN
ME8B2202B M10 2019-09-25 06:31:46 45.9952 16.0972 88 ° 15 km/h 833 m -11.0 m/s MHz Marija Bistrica (HR) 0.00 km UNKNOWN
ME8B22042 M10 2019-09-24 06:49:47 45.2711 15.412 222 ° 48 km/h 1860 m -10.6 m/s MHz Tounj (HR) 0.00 km UNKNOWN
ME258672 M10 2019-09-24 06:46:00 45.2827 15.427 141 ° 15 km/h 4753 m -13.2 m/s 403.000 MHz Generalski Stol (HR) 0.00 km UNKNOWN
ME8B2200D M10 2019-09-23 06:52:03 46.1541 15.6947 72 ° 37 km/h 751 m -13.7 m/s MHz Desinić (HR) 0.00 km LOST
ME245104 M10 2019-09-23 06:42:38 46.1451 15.6198 73 ° 78 km/h 11351 m -24.5 m/s 403.000 MHz Podčetrtek (SI) 0.00 km UNKNOWN
ME133066 M10 2019-09-22 05:54:30 45.9681 15.2702 80 ° 24 km/h 3623 m -13.3 m/s 403.000 MHz Sevnica (SI) 0.00 km UNKNOWN
ME8A22AA6 M10 2019-09-22 05:53:51 45.9677 15.2678 75 ° 28 km/h 3985 m -13.8 m/s MHz Sevnica (SI) 0.00 km UNKNOWN
ME156362 M10 2019-09-21 06:33:30 45.9017 14.9945 124 ° 24 km/h 5014 m -17.1 m/s 403.000 MHz Trebnje (SI) 0.00 km FOUND
ME8A22AC3 M10 2019-09-21 06:25:26 45.9124 14.9574 149 ° 35 km/h 15897 m -34.9 m/s MHz Trebnje (SI) 0.00 km FOUND
ME8A22B78 M10 2019-09-20 05:56:19 45.5167 14.7996 233 ° 50 km/h 2220 m -11.3 m/s MHz Osilnica (SI) 0.00 km UNKNOWN
ME186843 M10 2019-09-20 05:53:00 45.5378 14.795 162 ° 56 km/h 4737 m -13.3 m/s 403.000 MHz Osilnica (SI) 0.00 km UNKNOWN
ME183003 M10 2019-09-19 06:15:30 45.8083 15.4203 304 ° 24 km/h 2077 m -12.8 m/s 403.000 MHz Kostanjevica na Krki (SI) 0.00 km UNKNOWN
ME8A22B6B M10 2019-09-19 06:14:12 45.8084 15.4215 173 ° 20 km/h 2762 m -13.3 m/s MHz Kostanjevica na Krki (SI) 0.00 km UNKNOWN
ME8A22B68 M10 2019-09-18 06:17:41 45.7193 15.8702 252 ° 33 km/h 1087 m -7.0 m/s MHz Gornji Stupnik (HR) 0.00 km UNKNOWN
ME8A22B63 M10 2019-09-17 05:58:04 45.7178 15.2456 88 ° 17 km/h 2198 m -12.9 m/s MHz Semič (SI) 0.00 km FOUND
ME180955 M10 2019-09-17 05:50:00 45.7414 15.178 128 ° 59 km/h 9015 m -13.2 m/s 403.000 MHz Novo Mesto (SI) 0.00 km UNKNOWN
ME8A22AD4 M10 2019-09-16 05:57:13 45.9645 14.7116 4 ° 15 km/h 2744 m -11.5 m/s MHz Grosuplje (SI) 0.00 km LOST
ME161226 M10 2019-09-16 05:52:30 45.9658 14.6898 118 ° 30 km/h 6311 m -11.9 m/s 403.000 MHz Grosuplje (SI) 0.00 km LOST
ME8A22B6C M10 2019-09-15 06:48:23 45.6416 14.8676 232 ° 17 km/h 1737 m -9.4 m/s MHz Kočevje (SI) 0.00 km FOUND
ME183771 M10 2019-09-15 06:45:30 45.6472 14.8646 153 ° 26 km/h 3642 m -10.9 m/s 403.000 MHz Kočevje (SI) 0.00 km UNKNOWN
ME181723 M10 2019-09-14 06:24:00 45.7116 15.3022 186 ° 9 km/h 3007 m -15.6 m/s 403.000 MHz Metlika (SI) 0.00 km UNKNOWN
ME8A22B64 M10 2019-09-14 06:23:04 45.7126 15.3016 164 ° 20 km/h 3474 m -16.3 m/s MHz Metlika (SI) 0.00 km UNKNOWN
ME8A22B7B M10 2019-09-13 06:37:56 45.4176 14.6822 212 ° 30 km/h 4202 m -11.3 m/s MHz Lokve (HR) 0.00 km UNKNOWN
ME187099 M10 2019-09-13 06:33:30 45.4477 14.6848 174 ° 56 km/h 7970 m -16.0 m/s 403.000 MHz Osilnica (SI) 0.00 km UNKNOWN
ME8A22AFD M10 2019-09-12 06:01:03 45.3464 14.4719 184 ° 63 km/h 14595 m -17.0 m/s MHz Čavle (HR) 0.00 km UNKNOWN
ME154826 M10 2019-09-12 05:55:00 45.3701 14.4636 166 ° 11 km/h 20693 m 4.5 m/s 403.000 MHz Jelenje (HR) 0.00 km UNKNOWN
ME8A22B79 M10 2019-09-11 06:35:09 46.311 14.7207 349 ° 19 km/h 2790 m -12.4 m/s MHz Luče (SI) 0.00 km UNKNOWN
ME186587 M10 2019-09-11 06:30:00 46.292 14.7085 13 ° 48 km/h 6875 m -13.8 m/s 403.000 MHz Gornji Grad (SI) 0.00 km UNKNOWN
ME8A22B65 M10 2019-09-10 06:30:22 46.3524 15.5044 24 ° 26 km/h 1548 m -9.7 m/s MHz Oplotnica (SI) 0.00 km FOUND
ME181467 M10 2019-09-10 06:28:30 46.3495 15.4939 67 ° 30 km/h 2962 m -12.3 m/s 403.000 MHz Oplotnica (SI) 0.00 km FOUND
ME8A22AEB M10 2019-09-09 06:45:45 46.72 15.2779 64 ° 28 km/h 495 m -10.0 m/s MHz Wies (AT) 0.00 km FOUND
ME8A22AA9 M10 2019-09-08 06:21:58 46.486 15.3062 17 ° 15 km/h 1870 m -13.3 m/s MHz Ribnica (SI) 0.00 km UNKNOWN
ME133322 M10 2019-09-08 06:20:30 46.4818 15.301 36 ° 33 km/h 3316 m -14.2 m/s 403.000 MHz Ribnica (SI) 0.00 km FOUND
ME8A22B25 M10 2019-09-07 06:17:01 46.7626 14.8187 323 ° 7 km/h 1842 m -14.7 m/s MHz Sankt Andrä (AT) 0.00 km UNKNOWN
ME8A22B76 M10 2019-09-06 06:05:47 46.5779 14.7027 223 ° 22 km/h 1035 m -8.8 m/s MHz Eberndorf (AT) 0.00 km FOUND
ME8A22B6D M10 2019-09-05 06:08:24 46.2373 14.87 251 ° 7 km/h 3495 m -14.6 m/s MHz Vransko (SI) 0.00 km UNKNOWN
ME8A22BD5 M10 2019-09-04 06:23:38 45.877 14.5876 226 ° 20 km/h 2836 m -15.7 m/s MHz Velike Lašče (SI) 0.00 km NEED ATTENTION
ME8A22BAB M10 2019-09-03 06:24:36 45.9757 15.0396 19 ° 7 km/h 3530 m -15.0 m/s MHz Mirna (SI) 0.00 km FOUND
ME133851 M10 2019-09-03 06:11:00 45.9828 14.9508 296 ° 6 km/h 24502 m -38.0 m/s 403.000 MHz Mirna (SI) 0.00 km UNKNOWN
ME8A22BB0 M10 2019-09-02 06:26:04 46.1304 14.8521 15 ° 9 km/h 3145 m -15.4 m/s MHz Moravče (SI) 0.00 km FOUND
ME8A22BA4 M10 2019-09-01 06:27:43 46.1027 14.7096 137 ° 7 km/h 3683 m -15.5 m/s MHz Moravče (SI) 0.00 km FOUND
ME8A22BD7 M10 2019-08-31 06:14:16 46.1654 14.3683 278 ° 20 km/h 1377 m -11.8 m/s MHz Škofja Loka (SI) 0.00 km FOUND
ME161499 M10 2019-08-31 06:04:00 46.145 14.4021 309 ° 37 km/h 9790 m -15.6 m/s 403.000 MHz Medvode (SI) 0.00 km UNKNOWN
ME8A22BE2 M10 2019-08-30 05:54:13 46.0381 14.5604 313 ° 9 km/h 2348 m -13.0 m/s MHz Ljubljana (SI) 0.00 km FOUND
ME8A229CE M10 2019-08-29 06:09:54 46.2337 14.5964 169 ° 11 km/h 809 m -11.9 m/s MHz Kamnik (SI) 0.00 km FOUND
ME8A229CF M10 2019-08-27 05:56:14 46.0701 14.8321 18 ° 13 km/h 2780 m -10.3 m/s MHz Litija (SI) 0.00 km FOUND
ME8A229BD M10 2019-08-26 06:14:04 46.1014 14.3621 301 ° 15 km/h 2847 m -14.5 m/s MHz Medvode (SI) 0.00 km FOUND
ME8A229C9 M10 2019-08-25 06:44:29 46.2057 14.2198 285 ° 19 km/h 1288 m -10.5 m/s MHz Železniki (SI) 0.00 km FOUND
ME8A229CD M10 2019-08-24 06:14:17 46.3595 14.3309 302 ° 24 km/h 1932 m -11.6 m/s MHz Tržič (SI) 0.00 km FOUND
ME158969 M10 2019-08-24 05:54:26 46.2978 14.3829 289 ° 37 km/h 25006 m 5.0 m/s MHz Preddvor (SI) 0.00 km FOUND
ME8A229CB M10 2019-08-23 06:30:54 46.4516 14.779 320 ° 17 km/h 1995 m -13.6 m/s MHz Črna na Koroškem (SI) 0.00 km UNKNOWN
ME157689 M10 2019-08-22 06:45:30 46.4642 15.3538 348 ° 26 km/h 1974 m -14.5 m/s 403.000 MHz Lovrenc na Pohorju (SI) 0.00 km UNKNOWN
ME8A229C6 M10 2019-08-22 06:37:28 46.4377 15.3022 64 ° 98 km/h 10241 m -22.4 m/s MHz Vitanje (SI) 0.00 km UNKNOWN
ME8A22BC2 M10 2019-08-21 06:58:24 46.9682 15.4469 169 ° 30 km/h 394 m -9.3 m/s MHz Kalsdorf bei Graz (AT) 0.00 km FOUND
ME156635 M10 2019-08-21 06:56:00 46.9787 15.443 159 ° 6 km/h 1805 m -8.7 m/s 403.000 MHz Kalsdorf bei Graz (AT) 0.00 km FOUND
ME134875 M10 2019-08-20 06:50:30 46.3838 15.5333 229 ° 11 km/h 819 m -17.2 m/s 403.000 MHz Slovenska Bistrica (SI) 0.00 km FOUND
ME8A22BAF M10 2019-08-20 06:48:50 46.3821 15.5324 37 ° 33 km/h 2218 m -15.9 m/s MHz Slovenska Bistrica (SI) 0.00 km FOUND
ME8A22BA7 M10 2019-08-19 06:50:39 46.5556 15.4021 98 ° 43 km/h 2113 m -14.6 m/s MHz Lovrenc na Pohorju (SI) 0.00 km FOUND
ME132827 M10 2019-08-19 06:49:30 46.5528 15.3978 30 ° 33 km/h 3429 m -15.7 m/s 403.000 MHz Lovrenc na Pohorju (SI) 0.00 km FOUND
ME8A22BAE M10 2019-08-18 06:20:53 45.765 15.3287 143 ° 13 km/h 2645 m -10.1 m/s MHz Šentjernej (SI) 0.00 km NEED ATTENTION
ME135131 M10 2019-08-18 06:06:00 45.8357 15.1867 122 ° 50 km/h 13770 m -16.2 m/s 403.000 MHz Šmarješke Toplice (SI) 0.00 km UNKNOWN
ME8A22BAC M10 2019-08-17 05:52:11 45.5494 15.072 136 ° 41 km/h 4470 m -14.3 m/s MHz Črnomelj (SI) 0.00 km UNKNOWN
ME134619 M10 2019-08-17 05:37:00 45.6595 14.9672 231 ° 2 km/h 21687 m 5.5 m/s 403.000 MHz Kočevje (SI) 0.00 km UNKNOWN
ME8A22BD8 M10 2019-08-16 06:14:06 45.9321 15.1339 119 ° 59 km/h 9003 m -20.3 m/s MHz Mokronog (SI) 0.00 km FOUND
ME162267 M10 2019-08-16 06:07:30 45.9449 15.0657 252 ° 26 km/h 22802 m -57.3 m/s 403.000 MHz Mirna (SI) 0.00 km FOUND
ME8A22BD2 M10 2019-08-15 06:09:12 45.8652 15.1124 171 ° 56 km/h 2874 m -12.4 m/s MHz Mirna Peč (SI) 0.00 km FOUND
ME160731 M10 2019-08-15 05:53:00 45.9105 14.9989 263 ° 24 km/h 21666 m -28.7 m/s 403.000 MHz Trebnje (SI) 0.00 km UNKNOWN
ME8A22BB9 M10 2019-08-14 05:57:21 46.7103 15.1895 84 ° 6 km/h 731 m -12.1 m/s MHz Eibiswald (AT) 0.00 km FOUND
ME157915 M10 2019-08-13 06:07:30 46.9038 15.7008 211 ° 4 km/h 575 m -10.6 m/s 403.000 MHz Sankt Stefan im Rosental (AT) 0.00 km FOUND
ME8A22BC9 M10 2019-08-13 06:07:05 46.9038 15.7008 185 ° 4 km/h 510 m -10.7 m/s MHz Sankt Stefan im Rosental (AT) 0.00 km FOUND
ME149723 M10 2019-08-12 05:53:30 46.5392 15.3684 66 ° 4 km/h 737 m -13.3 m/s 403.000 MHz Lovrenc na Pohorju (SI) 0.00 km UNKNOWN
ME8A22BE9 M10 2019-08-12 05:52:52 46.5392 15.3678 85 ° 7 km/h 1005 m -14.0 m/s MHz Lovrenc na Pohorju (SI) 0.00 km FOUND
ME8A229D0 M10 2019-08-11 06:43:09 46.2948 15.3917 15 ° 7 km/h 2362 m -14.8 m/s MHz Slovenske Konjice (SI) 0.00 km UNKNOWN
ME160249 M10 2019-08-11 06:41:00 46.2927 15.3742 80 ° 61 km/h 4839 m -17.1 m/s 403.000 MHz Vojnik (SI) 0.00 km UNKNOWN
ME8A229D5 M10 2019-08-10 05:57:24 45.9979 15.1827 255 ° 9 km/h 2387 m -11.5 m/s MHz Šentrupert (SI) 0.00 km UNKNOWN
ME161017 M10 2019-08-10 05:42:00 46.0127 15.0574 95 ° 11 km/h 21158 m -34.5 m/s 403.000 MHz Šentrupert (SI) 0.00 km LOST
ME8A229C2 M10 2019-08-09 06:20:38 45.642 15.3232 298 ° 4 km/h 1674 m -11.4 m/s MHz Metlika (SI) 0.00 km UNKNOWN
ME156665 M10 2019-08-09 06:19:00 45.6435 15.3208 112 ° 11 km/h 3590 m -13.2 m/s 403.000 MHz Metlika (SI) 0.00 km UNKNOWN
ME161785 M10 2019-08-08 06:22:00 46.1408 15.6382 44 ° 26 km/h 1706 m -14.4 m/s 403.000 MHz Desinić (HR) 0.00 km FOUND
ME8A229D6 M10 2019-08-08 06:07:52 46.1252 15.4676 160 ° 4 km/h 21097 m -47.9 m/s MHz Dobje (SI) 0.00 km LOST
ME8A229D4 M10 2019-08-07 06:26:54 46.0919 15.4293 82 ° 63 km/h 1347 m -14.8 m/s MHz Dobje (SI) 0.00 km UNKNOWN
ME161273 M10 2019-08-07 06:26:00 46.0925 15.4166 103 ° 31 km/h 2503 m -15.9 m/s 403.000 MHz Dobje (SI) 0.00 km UNKNOWN
ME8A229D3 M10 2019-08-06 06:36:22 45.8229 15.4298 98 ° 20 km/h 1590 m -15.1 m/s MHz Kostanjevica na Krki (SI) 0.00 km UNKNOWN
ME160505 M10 2019-08-06 06:31:22 45.8272 15.3961 110 ° 56 km/h 6625 m -19.7 m/s 403.000 MHz Kostanjevica na Krki (SI) 0.00 km UNKNOWN
ME8A229D9 M10 2019-08-05 06:33:20 45.6395 15.365 138 ° 33 km/h 2868 m -15.3 m/s MHz Kamanje (HR) 0.00 km UNKNOWN
ME162041 M10 2019-08-05 06:24:00 45.6943 15.2709 118 ° 74 km/h 14101 m -29.6 m/s 403.000 MHz Metlika (SI) 0.00 km UNKNOWN
ME8A229D2 M10 2019-08-04 05:59:07 45.7267 15.4581 177 ° 26 km/h 2541 m -13.8 m/s MHz Žumberak (HR) 0.00 km UNKNOWN
ME160761 M10 2019-08-04 05:44:00 45.7938 15.2813 49 ° 15 km/h 20703 m -17.8 m/s 403.000 MHz Šentjernej (SI) 0.00 km UNKNOWN
ME8A22BD9 M10 2019-08-03 06:10:26 45.9057 15.4658 206 ° 22 km/h 1017 m -13.1 m/s MHz Krško (SI) 0.00 km FOUND
ME155867 M10 2019-08-02 06:23:00 46.1351 15.7364 322 ° 7 km/h 699 m -11.6 m/s 403.000 MHz Pregrada (HR) 0.00 km UNKNOWN
ME8A22BC1 M10 2019-08-02 06:22:16 46.1348 15.7365 359 ° 11 km/h 873 m -11.6 m/s MHz Pregrada (HR) 0.00 km UNKNOWN
ME8A229E1 M10 2019-08-01 06:16:44 46.0185 15.5568 136 ° 7 km/h 2161 m -14.3 m/s MHz Kozje (SI) 0.00 km UNKNOWN
ME147705 M10 2019-08-01 06:11:22 46.0191 15.5285 100 ° 63 km/h 6671 m -15.5 m/s 403.000 MHz Kozje (SI) 0.00 km UNKNOWN
ME8A229DA M10 2019-07-31 06:26:49 46.3141 15.0098 124 ° 24 km/h 3840 m -15.8 m/s MHz Šmartno (SI) 0.00 km UNKNOWN
ME8A229DD M10 2019-07-30 06:15:40 45.8148 14.645 207 ° 20 km/h 2857 m -15.1 m/s MHz Velike Lašče (SI) 0.00 km UNKNOWN
ME163065 M10 2019-07-30 06:08:00 45.8398 14.6327 167 ° 65 km/h 11413 m -23.2 m/s 403.000 MHz Velike Lašče (SI) 0.00 km UNKNOWN
ME8A229E0 M10 2019-07-29 06:10:48 45.6529 14.3268 195 ° 50 km/h 3986 m -10.8 m/s MHz Pivka (SI) 0.00 km FOUND
ME147961 M10 2019-07-29 06:09:00 45.6731 14.3347 194 ° 52 km/h 5852 m -12.3 m/s 403.000 MHz Pivka (SI) 0.00 km UNKNOWN
ME8A22BDC M10 2019-07-28 06:01:09 46.5485 14.6026 312 ° 17 km/h 1535 m -12.0 m/s MHz Eberndorf (AT) 0.00 km LOST
ME8A22BF2 M10 2019-07-27 06:08:42 46.13 15.0609 90 ° 57 km/h 1844 m -14.3 m/s MHz Hrastnik (SI) 0.00 km UNKNOWN
ME152539 M10 2019-07-27 06:03:44 46.1371 15.0075 110 ° 50 km/h 6183 m -15.3 m/s 403.000 MHz Zagorje (SI) 0.00 km UNKNOWN
ME8A22B80 M10 2019-07-26 06:27:01 45.951 14.7623 104 ° 26 km/h 2420 m -15.4 m/s MHz Ivančna Gorica (SI) 0.00 km UNKNOWN
ME140251 M10 2019-07-25 06:10:00 45.8529 14.6692 172 ° 35 km/h 3147 m -11.5 m/s 403.000 MHz Videm (SI) 0.00 km UNKNOWN
ME8A22B82 M10 2019-07-25 06:08:21 45.8586 14.6668 166 ° 28 km/h 3958 m -11.1 m/s MHz Videm (SI) 0.00 km UNKNOWN
ME8B22045 M10 2019-07-24 06:11:28 45.787 14.5618 174 ° 31 km/h 4293 m -14.5 m/s MHz Nova Vas (SI) 0.00 km LOST
ME259440 M10 2019-07-24 06:10:00 45.7936 14.5593 169 ° 19 km/h 6061 m -16.1 m/s 403.000 MHz Nova Vas (SI) 0.00 km LOST
ME8B22005 M10 2019-07-23 06:05:49 45.6076 14.2659 192 ° 30 km/h 4064 m -14.0 m/s MHz Ilirska Bistrica (SI) 0.00 km UNKNOWN
ME243056 M10 2019-07-23 05:58:00 45.6643 14.2787 201 ° 52 km/h 12222 m -22.3 m/s 403.000 MHz Pivka (SI) 0.00 km UNKNOWN
ME8B2201A M10 2019-07-22 06:11:04 45.6958 14.8131 137 ° 37 km/h 4527 m -15.0 m/s MHz Kočevje (SI) 0.00 km UNKNOWN
ME240240 M10 2019-07-22 06:06:00 45.7388 14.7765 156 ° 80 km/h 10421 m -21.2 m/s 403.000 MHz Sodražica (SI) 0.00 km UNKNOWN
ME8B22080 M10 2019-07-21 06:24:53 45.9063 15.0044 74 ° 28 km/h 4031 m -14.6 m/s MHz Trebnje (SI) 0.00 km FOUND
ME209008 M10 2019-07-21 06:20:00 45.9203 14.9537 111 ° 69 km/h 10151 m -20.1 m/s 403.000 MHz Trebnje (SI) 0.00 km FOUND
ME8B22023 M10 2019-07-20 06:03:38 45.859 14.8771 146 ° 41 km/h 4763 m -16.9 m/s MHz Žužemberk (SI) 0.00 km LOST
ME234352 M10 2019-07-20 05:59:04 45.8778 14.8475 136 ° 48 km/h 9955 m -21.4 m/s 403.000 MHz Ivančna Gorica (SI) 0.00 km UNKNOWN
ME8B2201B M10 2019-07-19 06:20:42 45.7567 14.7561 203 ° 4 km/h 3529 m -12.8 m/s MHz Sodražica (SI) 0.00 km UNKNOWN
ME240496 M10 2019-07-19 06:18:00 45.7621 14.7526 144 ° 20 km/h 6125 m -13.5 m/s 403.000 MHz Sodražica (SI) 0.00 km FOUND
ME8B22004 M10 2019-07-18 06:15:48 45.9238 14.8588 181 ° 6 km/h 2753 m -14.2 m/s MHz Ivančna Gorica (SI) 0.00 km FOUND
ME242800 M10 2019-07-18 06:14:00 45.9261 14.8577 113 ° 20 km/h 4606 m -14.9 m/s 403.000 MHz Ivančna Gorica (SI) 0.00 km FOUND
ME8B2200E M10 2019-07-17 06:06:09 45.8121 14.7495 165 ° 22 km/h 4838 m -14.5 m/s MHz Videm (SI) 0.00 km FOUND
ME245360 M10 2019-07-17 06:04:00 45.8225 14.7471 161 ° 13 km/h 7558 m -17.9 m/s 403.000 MHz Videm (SI) 0.00 km FOUND
ME8B22039 M10 2019-07-16 05:51:11 45.5533 14.3387 241 ° 9 km/h 3952 m -11.5 m/s MHz Ilirska Bistrica (SI) 0.00 km UNKNOWN
ME231792 M10 2019-07-16 05:50:00 45.5593 14.3426 200 ° 31 km/h 5156 m -10.3 m/s 403.000 MHz Ilirska Bistrica (SI) 0.00 km UNKNOWN
ME8B2202A M10 2019-07-15 05:50:53 45.7938 15.0215 247 ° 24 km/h 2353 m -13.1 m/s MHz Straža (SI) 0.00 km UNKNOWN
ME236144 M10 2019-07-15 05:33:00 45.8613 14.8805 139 ° 39 km/h 17686 m -18.9 m/s 403.000 MHz Žužemberk (SI) 0.00 km UNKNOWN
ME8B22018 M10 2019-07-14 06:06:12 45.6319 14.9598 148 ° 48 km/h 8489 m -18.8 m/s MHz Kočevje (SI) 0.00 km UNKNOWN
ME8B22022 M10 2019-07-13 06:13:11 45.6999 15.7959 144 ° 22 km/h 1719 m -13.9 m/s MHz Klinča Sela (HR) 0.00 km FOUND
ME8B2207B M10 2019-07-12 06:14:50 45.5679 15.4751 278 ° 50 km/h 26546 m -28.6 m/s MHz Ozalj (HR) 0.00 km UNKNOWN
ME248688 M10 2019-07-12 06:12:41 45.5647 15.4963 263 ° 39 km/h 25926 m 4.5 m/s 403.000 MHz Ozalj (HR) 0.00 km UNKNOWN
ME8B22083 M10 2019-07-11 06:18:34 45.5279 15.2865 142 ° 46 km/h 3769 m -12.5 m/s MHz Ribnik (HR) 0.00 km UNKNOWN
ME209776 M10 2019-07-11 06:03:13 45.6232 15.141 239 ° 39 km/h 23126 m -28.7 m/s 403.000 MHz Semič (SI) 0.00 km UNKNOWN
ME8A22A16 M10 2019-07-10 06:12:06 45.8282 15.6628 212 ° 39 km/h 1755 m -14.3 m/s MHz Samobor (HR) 0.00 km UNKNOWN
ME178170 M10 2019-07-10 05:56:30 45.8649 15.4502 239 ° 11 km/h 22031 m -14.6 m/s 403.000 MHz Kostanjevica na Krki (SI) 0.00 km UNKNOWN
ME8A229A7 M10 2019-07-09 06:28:47 45.8809 15.9127 311 ° 20 km/h 1491 m -13.2 m/s MHz Poljanica Bistranska (HR) 0.00 km UNKNOWN
ME132857 M10 2019-07-09 06:11:43 45.9089 15.6776 280 ° 43 km/h 26570 m 5.1 m/s 403.000 MHz Marija Gorica (HR) 0.00 km UNKNOWN
ME8A229B4 M10 2019-07-08 06:19:17 45.8561 15.8786 342 ° 15 km/h 1342 m -11.8 m/s MHz Poljanica Bistranska (HR) 0.00 km UNKNOWN
ME136697 M10 2019-07-08 06:02:00 45.8959 15.6468 261 ° 35 km/h 22261 m -24.1 m/s 403.000 MHz Brežice (SI) 0.00 km UNKNOWN
ME180218 M10 2019-07-07 06:16:00 46.0261 15.6606 110 ° 19 km/h 1354 m -15.2 m/s 403.000 MHz Bistrica ob Sotli (SI) 0.00 km UNKNOWN
ME8A22A1E M10 2019-07-07 06:15:54 46.0259 15.6612 106 ° 24 km/h 1202 m -15.0 m/s MHz Bistrica ob Sotli (SI) 0.00 km UNKNOWN
ME8A229A3 M10 2019-07-06 06:17:26 45.8712 15.4095 51 ° 20 km/h 2189 m -10.8 m/s MHz Kostanjevica na Krki (SI) 0.00 km UNKNOWN
ME131833 M10 2019-07-06 06:10:04 45.8835 15.3535 116 ° 57 km/h 7416 m -13.6 m/s 403.000 MHz Šentjernej (SI) 0.00 km FOUND
ME8A229B3 M10 2019-07-05 06:47:23 45.7174 15.1662 11 ° 67 km/h 1261 m -9.0 m/s MHz Semič (SI) 0.00 km FOUND
ME135929 M10 2019-07-05 06:34:05 45.7705 15.1034 116 ° 76 km/h 12193 m -17.7 m/s 403.000 MHz Straža (SI) 0.00 km UNKNOWN
ME8A22A1A M10 2019-07-04 06:39:54 46.0877 15.139 338 ° 13 km/h 1903 m -15.7 m/s MHz Radeče (SI) 0.00 km UNKNOWN
ME179194 M10 2019-07-04 06:39:10 46.0861 15.1388 16 ° 11 km/h 2605 m -14.2 m/s 403.000 MHz Radeče (SI) 0.00 km UNKNOWN
ME8A22A0A M10 2019-07-03 06:53:15 46.0867 15.0192 91 ° 43 km/h 5778 m -18.5 m/s MHz Zagorje (SI) 0.00 km UNKNOWN
ME8A22A03 M10 2019-07-02 06:25:40 46.1401 14.8944 42 ° 41 km/h 4841 m -15.2 m/s MHz Zagorje (SI) 0.00 km UNKNOWN
ME172794 M10 2019-07-02 06:20:55 46.133 14.8647 74 ° 39 km/h 9471 m -18.2 m/s 403.000 MHz Litija (SI) 0.00 km UNKNOWN
ME8A22A17 M10 2019-07-01 06:15:33 45.9384 14.6938 75 ° 28 km/h 9327 m -18.2 m/s MHz Grosuplje (SI) 0.00 km UNKNOWN
ME177914 M10 2019-07-01 06:08:21 45.9627 14.6751 290 ° 19 km/h 20533 m -36.7 m/s 403.000 MHz Grosuplje (SI) 0.00 km FOUND
ME8A22A25 M10 2019-06-30 06:24:56 45.8048 14.3263 314 ° 11 km/h 3612 m -14.9 m/s MHz Cerknica (SI) 0.00 km FOUND
ME165114 M10 2019-06-30 06:10:32 45.8432 14.3516 283 ° 46 km/h 26585 m 5.7 m/s 403.000 MHz Cerknica (SI) 0.00 km UNKNOWN
ME8A22A21 M10 2019-06-29 06:25:45 45.4011 14.3017 201 ° 33 km/h 1956 m -12.0 m/s MHz Matulji (HR) 0.00 km UNKNOWN
ME164090 M10 2019-06-29 06:10:30 45.5105 14.3339 155 ° 39 km/h 17428 m -26.4 m/s 403.000 MHz Klana (HR) 0.00 km UNKNOWN
ME8A22A1F M10 2019-06-28 05:54:33 45.5574 14.9366 146 ° 39 km/h 4279 m -12.6 m/s MHz Kostel (SI) 0.00 km UNKNOWN
ME179962 M10 2019-06-28 05:40:00 45.6596 14.8429 219 ° 37 km/h 20307 m -27.3 m/s 403.000 MHz Kočevje (SI) 0.00 km UNKNOWN
ME8A22A23 M10 2019-06-27 06:33:12 45.6559 14.2898 223 ° 19 km/h 1247 m -10.5 m/s MHz Pivka (SI) 0.00 km FOUND
ME164602 M10 2019-06-27 06:28:00 45.6792 14.3099 198 ° 22 km/h 5367 m -13.4 m/s 403.000 MHz Pivka (SI) 0.00 km UNKNOWN
ME8A22A27 M10 2019-06-26 06:17:06 45.6714 13.8166 265 ° 41 km/h 509 m -10.3 m/s MHz Sežana (SI) 0.00 km LOST
ME8A22A0F M10 2019-06-25 06:14:34 45.4902 14.3955 221 ° 22 km/h 3789 m -8.5 m/s MHz Klana (HR) 0.00 km FOUND
ME175866 M10 2019-06-25 05:59:43 45.5953 14.4164 182 ° 87 km/h 10971 m -3.5 m/s MHz Ilirska Bistrica (SI) 0.00 km UNKNOWN
ME8A22A3E M10 2019-06-24 05:57:04 45.6844 14.5045 184 ° 39 km/h 4792 m -13.8 m/s MHz Stari Trg (SI) 0.00 km FOUND
ME171978 M10 2019-06-24 05:40:54 45.7538 14.5171 257 ° 30 km/h 20943 m 5.9 m/s MHz Nova Vas (SI) 0.00 km FOUND
ME8A22A2F M10 2019-06-23 06:22:27 46.0359 14.2367 207 ° 7 km/h 925 m -15.3 m/s MHz Horjul (SI) 0.00 km FOUND
ME8A22A7D M10 2019-06-22 06:11:20 46.3257 15.0857 292 ° 17 km/h 1262 m -13.1 m/s MHz Šmartno (SI) 0.00 km FOUND
ME187594 M10 2019-06-22 06:07:40 46.3134 15.082 40 ° 30 km/h 4406 m -14.3 m/s 403.000 MHz Polzela (SI) 0.00 km UNKNOWN
ME8A22A6B M10 2019-06-21 06:11:04 46.2023 15.2663 256 ° 2 km/h 571 m -4.0 m/s MHz Celje (SI) 0.00 km UNKNOWN
ME182986 M10 2019-06-21 06:02:07 46.2031 15.2408 72 ° 31 km/h 3198 m -4.8 m/s 403.000 MHz Celje (SI) 0.00 km UNKNOWN
ME8A22BE1 M10 2019-06-20 05:57:59 46.1567 14.769 115 ° 22 km/h 4415 m -14.9 m/s MHz Moravče (SI) 0.00 km UNKNOWN
ME147675 M10 2019-06-20 05:43:31 46.1346 14.7327 254 ° 26 km/h 21661 m 4.7 m/s MHz Moravče (SI) 0.00 km UNKNOWN
ME8A22BD0 M10 2019-06-19 06:26:43 46.1725 14.619 147 ° 7 km/h 3406 m -14.9 m/s MHz Mengeš (SI) 0.00 km FOUND
ME8A22A33 M10 2019-06-18 06:00:56 46.2404 14.5469 247 ° 26 km/h 1928 m -11.8 m/s MHz Komenda (SI) 0.00 km FOUND
ME168650 M10 2019-06-18 05:45:00 46.2038 14.5419 8 ° 19 km/h 18478 m -26.0 m/s 403.000 MHz Komenda (SI) 0.00 km UNKNOWN
ME8A22A30 M10 2019-06-17 06:11:31 46.2181 14.3481 236 ° 15 km/h 3264 m -14.9 m/s MHz Kranj (SI) 0.00 km UNKNOWN
ME8A22A00 M10 2019-06-16 06:24:00 46.3025 14.5635 40 ° 20 km/h 2988 m -14.3 m/s MHz Cerklje na Gorenjskem (SI) 0.00 km UNKNOWN
ME172538 M10 2019-06-16 06:08:58 46.2641 14.5392 250 ° 31 km/h 27368 m -5.8 m/s 403.000 MHz Cerklje na Gorenjskem (SI) 0.00 km UNKNOWN
ME8A229FB M10 2019-06-15 06:09:46 46.4004 14.8387 68 ° 30 km/h 2343 m -13.8 m/s MHz Ljubno (SI) 0.00 km UNKNOWN
ME154361 M10 2019-06-15 05:54:30 46.334 14.7699 263 ° 46 km/h 23814 m -41.2 m/s 403.000 MHz Luče (SI) 0.00 km UNKNOWN
ME8A22BCE M10 2019-06-14 06:13:40 46.1003 15.3336 95 ° 15 km/h 1964 m -14.7 m/s MHz Dobje (SI) 0.00 km LOST
ME159707 M10 2019-06-14 06:08:25 46.1157 15.2828 100 ° 33 km/h 6024 m -12.9 m/s 403.000 MHz Laško (SI) 0.00 km UNKNOWN
ME8A22BD4 M10 2019-06-13 06:41:59 46.8048 15.0487 34 ° 35 km/h 2640 m -12.3 m/s MHz Deutschlandsberg (AT) 0.00 km FOUND
ME161243 M10 2019-06-13 06:37:38 46.7736 15.0284 30 ° 52 km/h 6005 m -14.4 m/s 403.000 MHz Sankt Paul im Levanttal (AT) 0.00 km FOUND
ME8A22BCA M10 2019-06-12 06:10:14 46.4953 14.5855 347 ° 31 km/h 1924 m -12.0 m/s MHz Bad Eisenkappel (AT) 0.00 km UNKNOWN
ME158683 M10 2019-06-12 05:50:31 46.3918 14.5556 287 ° 24 km/h 22479 m -25.8 m/s 403.000 MHz Zgornje Jezersko (SI) 0.00 km UNKNOWN
ME8A22BE6 M10 2019-06-11 06:08:48 46.6187 14.4719 215 ° 2 km/h 563 m -9.1 m/s MHz Grafenstein (AT) 0.00 km FOUND
ME8A22BD3 M10 2019-06-10 06:20:14 46.3846 14.859 10 ° 26 km/h 1757 m -6.8 m/s MHz Ljubno (SI) 0.00 km UNKNOWN
ME160475 M10 2019-06-10 06:15:04 46.3651 14.8337 28 ° 24 km/h 3833 m -7.1 m/s 403.000 MHz Ljubno (SI) 0.00 km UNKNOWN
ME8A22BD1 M10 2019-06-09 06:37:48 46.1976 14.8422 70 ° 33 km/h 6428 m -17.6 m/s MHz Vransko (SI) 0.00 km FOUND
ME159963 M10 2019-06-09 06:27:22 46.1808 14.7956 290 ° 48 km/h 23633 m -52.3 m/s 403.000 MHz Moravče (SI) 0.00 km UNKNOWN
ME8B22013 M10 2019-06-08 06:20:15 46.3482 15.2835 69 ° 24 km/h 868 m -11.7 m/s MHz Vitanje (SI) 0.00 km FOUND
ME238448 M10 2019-06-08 06:17:36 46.3446 15.2576 76 ° 74 km/h 2886 m -12.2 m/s 403.000 MHz Dobrna (SI) 0.00 km UNKNOWN
ME8B22006 M10 2019-06-07 06:11:04 46.1875 15.1251 73 ° 46 km/h 1491 m -16.3 m/s MHz Hrastnik (SI) 0.00 km UNKNOWN
ME243312 M10 2019-06-07 06:08:36 46.1856 15.1071 76 ° 52 km/h 3720 m -14.8 m/s 403.000 MHz Hrastnik (SI) 0.00 km UNKNOWN
ME8A22BFD M10 2019-06-06 06:11:41 46.0645 15.1893 85 ° 61 km/h 1639 m -10.8 m/s MHz Radeče (SI) 0.00 km UNKNOWN
ME8A22BC4 M10 2019-06-05 06:21:11 45.825 14.4175 165 ° 31 km/h 4273 m -15.8 m/s MHz Cerknica (SI) 0.00 km FOUND
ME157147 M10 2019-06-05 06:10:00 45.862 14.4317 316 ° 31 km/h 20974 m -43.6 m/s 403.000 MHz Borovnica (SI) 0.00 km UNKNOWN
ME8B22009 M10 2019-06-04 06:10:03 45.8336 14.4824 201 ° 20 km/h 3472 m -15.2 m/s MHz Nova Vas (SI) 0.00 km FOUND
ME244080 M10 2019-06-04 06:01:00 45.8768 14.4704 59 ° 6 km/h 14525 m -29.3 m/s 403.000 MHz Borovnica (SI) 0.00 km UNKNOWN
ME8B2200C M10 2019-06-03 06:40:35 45.7892 14.109 190 ° 28 km/h 2366 m -15.0 m/s MHz Postojna (SI) 0.00 km FOUND
ME244848 M10 2019-06-03 06:24:45 45.8339 14.1548 285 ° 39 km/h 28424 m -59.5 m/s 403.000 MHz Postojna (SI) 0.00 km FOUND
ME8B2201E M10 2019-06-02 06:14:49 45.6506 14.0492 236 ° 43 km/h 2535 m -13.1 m/s MHz Divača (SI) 0.00 km UNKNOWN
ME8B2200B M10 2019-06-01 06:13:26 45.809 13.8616 221 ° 46 km/h 3132 m -14.1 m/s MHz Komen (SI) 0.00 km FOUND
ME244592 M10 2019-06-01 05:58:51 45.8552 13.9719 271 ° 15 km/h 23777 m 5.4 m/s MHz Vipava (SI) 0.00 km UNKNOWN
ME8B22017 M10 2019-05-31 06:03:16 45.6102 14.2131 229 ° 44 km/h 3111 m -15.4 m/s MHz Ilirska Bistrica (SI) 0.00 km FOUND
ME239472 M10 2019-05-31 05:49:30 45.7002 14.2683 284 ° 11 km/h 23897 m -47.0 m/s 403.000 MHz Pivka (SI) 0.00 km FOUND
ME8B22008 M10 2019-05-30 06:11:34 45.9011 14.1495 222 ° 31 km/h 1691 m -10.3 m/s MHz Logatec (SI) 0.00 km FOUND
ME8A22BCF M10 2019-05-29 05:27:53 46.0241 14.1879 201 ° 22 km/h 1409 m -3.7 m/s MHz Žiri (SI) 0.00 km FOUND
ME148187 M10 2019-05-28 06:07:27 46.4067 14.577 151 ° 2 km/h 1914 m -10.1 m/s 403.000 MHz Zgornje Jezersko (SI) 0.00 km UNKNOWN
ME8A22BE3 M10 2019-05-28 06:01:11 46.3832 14.5672 29 ° 15 km/h 5358 m -10.0 m/s MHz Zgornje Jezersko (SI) 0.00 km UNKNOWN
ME173562 M10 2019-05-27 06:04:00 46.6653 14.7123 86 ° 4 km/h 890 m -11.3 m/s 403.000 MHz Griffen (AT) 0.00 km FOUND
ME8A22A04 M10 2019-05-27 05:59:21 46.6576 14.718 43 ° 26 km/h 4511 m -12.7 m/s MHz Griffen (AT) 0.00 km UNKNOWN
ME8A22A01 M10 2019-05-26 06:53:21 46.3011 15.0133 320 ° 13 km/h 3112 m -15.7 m/s MHz Braslovče (SI) 0.00 km UNKNOWN
ME172282 M10 2019-05-26 06:38:58 46.2685 14.9521 33 ° 28 km/h 28853 m 5.0 m/s 403.000 MHz Vransko (SI) 0.00 km LOST
ME8A22A34 M10 2019-05-25 06:13:52 46.0196 14.8293 160 ° 20 km/h 2861 m -12.9 m/s MHz Litija (SI) 0.00 km FOUND
ME169418 M10 2019-05-25 06:08:34 46.0265 14.8218 98 ° 20 km/h 7322 m -15.8 m/s MHz Litija (SI) 0.00 km FOUND
ME8A229FC M10 2019-05-24 06:36:27 45.6182 14.7234 166 ° 19 km/h 2943 m -14.0 m/s MHz Čabar (HR) 0.00 km UNKNOWN
ME8A22A3A M10 2019-05-23 06:02:23 45.8252 14.5481 135 ° 17 km/h 3021 m -11.2 m/s MHz Nova Vas (SI) 0.00 km UNKNOWN
ME8A22A37 M10 2019-05-22 05:50:53 45.966 14.8352 100 ° 17 km/h 11389 m -19.6 m/s MHz Ivančna Gorica (SI) 0.00 km FOUND
ME169674 M10 2019-05-22 05:43:16 45.9672 14.8216 219 ° 24 km/h 21807 m -21.3 m/s MHz Ivančna Gorica (SI) 0.00 km FOUND
ME8A22A6F M10 2019-05-21 06:03:40 45.9446 14.786 95 ° 39 km/h 2833 m -9.7 m/s MHz Ivančna Gorica (SI) 0.00 km FOUND
ME184010 M10 2019-05-21 05:43:30 45.9833 14.7411 25 ° 11 km/h 19613 m 3.6 m/s MHz Ivančna Gorica (SI) 0.00 km UNKNOWN
ME8A22AA1 M10 2019-05-20 05:50:26 46.2213 14.3562 65 ° 17 km/h 1113 m -10.0 m/s MHz Kranj (SI) 0.00 km FOUND
ME131274 M10 2019-05-20 05:40:00 46.2093 14.354 259 ° 31 km/h 8211 m -13.3 m/s 403.000 MHz Kranj (SI) 0.00 km FOUND
ME169162 M10 2019-05-19 05:36:50 46.3667 14.5542 301 ° 7 km/h 2458 m -14.6 m/s MHz Zgornje Jezersko (SI) 0.00 km UNKNOWN
ME8A22A35 M10 2019-05-19 05:33:41 46.3563 14.5619 347 ° 33 km/h 5350 m -16.9 m/s MHz Zgornje Jezersko (SI) 0.00 km UNKNOWN
ME8A22A3F M10 2019-05-18 06:32:46 46.3791 14.0768 262 ° 7 km/h 763 m -14.0 m/s MHz Zgornje Gorje (SI) 0.00 km FOUND
ME171722 M10 2019-05-18 06:17:20 46.3303 14.1267 277 ° 54 km/h 28159 m 4.6 m/s 403.000 MHz Radovljica (SI) 0.00 km FOUND
ME8A22A43 M10 2019-05-17 06:01:44 46.0141 14.5048 134 ° 91 km/h 9798 m -20.6 m/s MHz Ljubljana (SI) 0.00 km FOUND
ME8A22BE5 M10 2019-05-16 06:42:03 45.9732 14.1895 236 ° 7 km/h 823 m -10.4 m/s MHz Logatec (SI) 0.00 km FOUND
ME148699 M10 2019-05-16 06:36:03 45.9795 14.2096 201 ° 4 km/h 4687 m -10.5 m/s MHz Vrhnika (SI) 0.00 km UNKNOWN
ME8A22BEA M10 2019-05-15 06:29:40 46.1891 13.4971 250 ° 28 km/h 18884 m -42.2 m/s MHz Kobarid (SI) 0.00 km UNKNOWN
ME150491 M10 2019-05-15 06:27:44 46.1892 13.5232 277 ° 70 km/h 27130 m -38.2 m/s MHz Kobarid (SI) 0.00 km UNKNOWN
ME8A22BDA M10 2019-05-14 05:39:56 45.7799 14.3957 235 ° 19 km/h 3687 m -14.3 m/s MHz Cerknica (SI) 0.00 km FOUND
ME162779 M10 2019-05-14 05:36:52 45.7791 14.3959 106 ° 20 km/h 6457 m -15.8 m/s MHz Cerknica (SI) 0.00 km FOUND
ME151515 M10 2019-05-13 05:55:00 46.0508 13.8331 224 ° 63 km/h 1391 m -11.0 m/s MHz Cerkno (SI) 0.00 km NEED ATTENTION
ME8A22BEE M10 2019-05-13 05:51:00 46.0626 13.892 289 ° 46 km/h 4283 m -11.8 m/s MHz Cerkno (SI) 0.00 km FOUND
ME147931 M10 2019-05-12 07:19:04 46.3356 14.0631 167 ° 44 km/h 1068 m -11.4 m/s MHz Bled (SI) 0.00 km FOUND
ME8A22BE0 M10 2019-05-12 07:10:28 46.315 14.0867 6 ° 80 km/h 9422 m -21.0 m/s MHz Bled (SI) 0.00 km FOUND
ME163547 M10 2019-05-11 06:16:26 45.8804 15.1957 89 ° 30 km/h 3015 m -15.5 m/s 403.000 MHz Šmarješke Toplice (SI) 0.00 km FOUND
ME8A22BDF M10 2019-05-11 06:05:08 45.9063 15.0718 185 ° 37 km/h 18127 m -40.8 m/s MHz Trebnje (SI) 0.00 km UNKNOWN
ME8A22BDB M10 2019-05-10 06:32:53 45.8868 15.2124 33 ° 26 km/h 1616 m -13.3 m/s MHz Šmarješke Toplice (SI) 0.00 km NEED ATTENTION
ME162523 M10 2019-05-10 06:16:21 45.9152 15.0862 296 ° 61 km/h 27459 m 0.4 m/s 403.000 MHz Mokronog (SI) 0.00 km UNKNOWN
ME8A22BDE M10 2019-05-09 06:12:23 46.3974 15.7634 69 ° 44 km/h 867 m -12.1 m/s MHz Kidričevo (SI) 0.00 km FOUND
ME163803 M10 2019-05-09 06:11:00 46.392 15.7474 57 ° 52 km/h 1879 m -10.7 m/s 403.000 MHz Kidričevo (SI) 0.00 km FOUND
ME8A22BE8 M10 2019-05-08 06:13:33 45.7325 15.4428 101 ° 15 km/h 3050 m -14.0 m/s MHz Žumberak (HR) 0.00 km UNKNOWN
ME149979 M10 2019-05-08 06:00:00 45.7937 15.2966 317 ° 15 km/h 23657 m -5.0 m/s 403.000 MHz Šentjernej (SI) 0.00 km UNKNOWN
ME8A22BDD M10 2019-05-07 06:22:21 45.6346 15.0996 167 ° 41 km/h 3990 m -14.9 m/s MHz Semič (SI) 0.00 km UNKNOWN
ME163035 M10 2019-05-07 06:19:21 45.6573 15.0954 166 ° 59 km/h 6613 m -13.5 m/s MHz Semič (SI) 0.00 km UNKNOWN
ME177628 M10 2019-05-06 06:21:56 46.2364 14.3003 162 ° 41 km/h 986 m -8.8 m/s MHz Kranj (SI) 0.00 km FOUND
ME8A22C14 M10 2019-05-06 06:09:28 46.2501 14.3766 283 ° 67 km/h 9022 m -11.9 m/s MHz Kranj (SI) 0.00 km UNKNOWN
ME177372 M10 2019-05-05 07:39:00 47.0957 15.5729 212 ° 56 km/h 1963 m -16.1 m/s 403.000 MHz Lassnitzhöhe (AT) 0.00 km FOUND
ME8A22C15 M10 2019-05-05 07:30:18 47.0397 15.5563 44 ° 65 km/h 11636 m -26.8 m/s MHz Lassnitzhöhe (AT) 0.00 km UNKNOWN
ME172764 M10 2019-05-04 06:10:30 46.3735 15.8237 234 ° 22 km/h 920 m -11.8 m/s 403.000 MHz Kidričevo (SI) 0.00 km FOUND
ME8A22C03 M10 2019-05-04 05:57:29 46.3267 15.6943 72 ° 131 km/h 9378 m -11.7 m/s MHz Makole (SI) 0.00 km LOST
ME150235 M10 2019-05-03 06:34:07 46.3089 15.7883 79 ° 46 km/h 1676 m -11.5 m/s 403.000 MHz Žetale (SI) 0.00 km LOST
ME8A22BEB M10 2019-05-03 06:24:06 46.2711 15.6936 27 ° 69 km/h 8994 m -13.1 m/s MHz Rogatec (SI) 0.00 km LOST
ME145115 M10 2019-05-02 06:14:32 45.6511 14.9714 113 ° 30 km/h 1747 m -9.8 m/s MHz Kočevje (SI) 0.00 km FOUND
ME8A22B97 M10 2019-05-02 05:58:33 45.7266 14.9252 135 ° 48 km/h 13784 m -16.5 m/s MHz Kočevje (SI) 0.00 km UNKNOWN
ME8A22B5F M10 2019-05-01 06:04:38 45.8453 14.9501 115 ° 78 km/h 26117 m 6.2 m/s MHz Žužemberk (SI) 0.00 km UNKNOWN
ME196315 M10 2019-05-01 06:04:28 45.8459 14.9476 105 ° 78 km/h 26055 m 5.8 m/s MHz Žužemberk (SI) 0.00 km UNKNOWN
ME146395 M10 2019-04-30 06:22:37 45.5007 14.0766 223 ° 35 km/h 4410 m -10.8 m/s 403.000 MHz Lanišće (HR) 0.00 km FOUND
ME8A22B9A M10 2019-04-30 05:55:08 45.6989 14.3109 126 ° 11 km/h 13380 m -4.1 m/s MHz Pivka (SI) 0.00 km NEED ATTENTION
ME146139 M10 2019-04-29 06:36:00 45.9378 14.3431 283 ° 31 km/h 5392 m -17.1 m/s 403.000 MHz Borovnica (SI) 0.00 km FOUND
ME8A22B9B M10 2019-04-29 06:24:49 45.9477 14.3556 98 ° 59 km/h 25801 m 4.2 m/s MHz Borovnica (SI) 0.00 km UNKNOWN
ME151771 M10 2019-04-28 05:54:58 46.0926 14.8966 11 ° 22 km/h 2918 m -12.9 m/s 403.000 MHz Litija (SI) 0.00 km FOUND
ME8A22BF1 M10 2019-04-28 05:46:26 46.0726 14.8431 59 ° 43 km/h 10966 m -20.3 m/s MHz Litija (SI) 0.00 km UNKNOWN
ME150747 M10 2019-04-27 06:30:17 46.6092 14.8114 126 ° 9 km/h 719 m -8.5 m/s 403.000 MHz Bleiburg (AT) 0.00 km FOUND
ME8A22BED M10 2019-04-27 06:19:02 46.5549 14.784 354 ° 100 km/h 7167 m -9.8 m/s MHz Bistrica nad Pliberkom (AT) 0.00 km FOUND
ME152027 M10 2019-04-26 06:07:55 46.3703 15.295 58 ° 61 km/h 1509 m -12.0 m/s 403.000 MHz Vitanje (SI) 0.00 km FOUND
ME8A22BF0 M10 2019-04-26 05:58:35 46.3203 15.2161 50 ° 57 km/h 9110 m -14.8 m/s MHz Dobrna (SI) 0.00 km UNKNOWN
ME173276 M10 2019-04-25 05:59:24 46.3781 15.1628 73 ° 70 km/h 2075 m -13.7 m/s 403.000 MHz Velenje (SI) 0.00 km FOUND
ME8A22C05 M10 2019-04-25 05:47:59 46.3379 15.0926 36 ° 52 km/h 7562 m -3.1 m/s MHz Velenje (SI) 0.00 km UNKNOWN
ME153307 M10 2019-04-24 06:50:27 46.4569 15.8376 42 ° 54 km/h 1229 m -10.7 m/s 403.000 MHz Ptuj (SI) 0.00 km LOST
ME8A22BF7 M10 2019-04-24 06:39:31 46.4121 15.7377 66 ° 81 km/h 8782 m -13.2 m/s MHz Kidričevo (SI) 0.00 km LOST
ME175068 M10 2019-04-23 06:30:39 46.5408 14.3982 39 ° 46 km/h 4422 m -7.4 m/s 403.000 MHz Ferlach (AT) 0.00 km UNKNOWN
ME8A22C0A M10 2019-04-23 06:24:28 46.5094 14.4003 329 ° 37 km/h 6978 m -6.9 m/s MHz Ferlach (AT) 0.00 km NEED ATTENTION
ME132315 M10 2019-04-22 06:04:57 45.8925 14.9987 40 ° 15 km/h 2419 m -13.1 m/s MHz Trebnje (SI) 0.00 km FOUND
ME8A22BA5 M10 2019-04-22 05:53:46 45.9089 14.9251 119 ° 26 km/h 13792 m -24.2 m/s MHz Trebnje (SI) 0.00 km UNKNOWN
ME146651 M10 2019-04-20 06:23:37 45.6986 14.3807 256 ° 33 km/h 3178 m -15.5 m/s 403.000 MHz Stari Trg (SI) 0.00 km NEED ATTENTION
ME8A22B9D M10 2019-04-20 06:15:02 45.7091 14.4156 159 ° 33 km/h 13425 m -28.5 m/s MHz Stari Trg (SI) 0.00 km UNKNOWN
ME145883 M10 2019-04-19 06:50:50 45.7853 14.0673 257 ° 31 km/h 1396 m -10.3 m/s 403.000 MHz Vipava (SI) 0.00 km FOUND
ME8A22B98 M10 2019-04-19 06:39:16 45.784 14.1385 185 ° 30 km/h 12367 m -23.7 m/s MHz Postojna (SI) 0.00 km UNKNOWN
ME144603 M10 2019-04-18 05:55:11 45.3 14.7249 196 ° 48 km/h 5533 m -5.8 m/s 403.000 MHz Fužine (HR) 0.00 km UNKNOWN
ME145371 M10 2019-04-17 06:28:10 45.279 15.0306 170 ° 28 km/h 4866 m -15.4 m/s 403.000 MHz Vrbovsko (HR) 0.00 km UNKNOWN
ME8A22B96 M10 2019-04-17 06:16:06 45.3826 14.9555 169 ° 41 km/h 23910 m 5.5 m/s MHz Ravna Gora (HR) 0.00 km UNKNOWN
ME133339 M10 2019-04-16 06:15:13 45.5091 15.1087 192 ° 4 km/h 4800 m -15.4 m/s 403.000 MHz Črnomelj (SI) 0.00 km UNKNOWN
ME8A22BA9 M10 2019-04-16 06:03:10 45.5893 15.0265 137 ° 41 km/h 24654 m 5.4 m/s MHz Kostel (SI) 0.00 km UNKNOWN
ME147163 M10 2019-04-15 06:00:48 45.7911 14.5199 273 ° 19 km/h 5670 m -11.7 m/s MHz Nova Vas (SI) 0.00 km UNKNOWN
ME8A22B9F M10 2019-04-15 05:53:19 45.8122 14.514 142 ° 50 km/h 12966 m -19.8 m/s MHz Nova Vas (SI) 0.00 km UNKNOWN
ME133595 M10 2019-04-13 06:02:21 46.0691 14.5395 227 ° 13 km/h 4891 m -16.3 m/s MHz Ljubljana (SI) 0.00 km UNKNOWN
ME144347 M10 2019-04-12 06:28:44 46.1614 14.3117 267 ° 52 km/h 10472 m -15.5 m/s MHz Škofja Loka (SI) 0.00 km UNKNOWN
ME142811 M10 2019-04-11 05:32:10 46.135 14.1716 266 ° 31 km/h 5830 m -9.4 m/s MHz Gorenja Vas (SI) 0.00 km FOUND
ME143579 M10 2019-04-10 06:38:17 46.4492 14.6118 359 ° 41 km/h 9182 m -16.6 m/s MHz Bad Eisenkappel (AT) 0.00 km UNKNOWN
ME139483 M10 2019-04-09 06:49:04 46.0852 14.5611 239 ° 35 km/h 2810 m -15.6 m/s MHz Dol (SI) 0.00 km FOUND
ME134107 M10 2019-04-08 05:55:46 46.2056 14.2126 275 ° 28 km/h 3110 m -10.8 m/s MHz Železniki (SI) 0.00 km FOUND
ME131291 M10 2019-04-07 05:50:04 46.4781 14.6369 55 ° 24 km/h 1682 m -9.3 m/s MHz Bad Eisenkappel (AT) 0.00 km FOUND
ME136441 M10 2019-04-06 05:55:06 46.0599 15.1769 76 ° 9 km/h 1649 m -10.2 m/s MHz Radeče (SI) 0.00 km FOUND
ME137721 M10 2019-04-05 06:36:54 46.4364 14.5202 316 ° 43 km/h 8277 m -12.9 m/s MHz Zgornje Jezersko (SI) 0.00 km LOST
ME142585 M10 2019-04-04 06:10:06 46.3777 15.1884 39 ° 43 km/h 5061 m -14.5 m/s MHz Dobrna (SI) 0.00 km UNKNOWN
ME140537 M10 2019-04-03 05:57:24 46.4451 14.8757 15 ° 35 km/h 3008 m -10.3 m/s MHz Črna na Koroškem (SI) 0.00 km UNKNOWN
ME138745 M10 2019-04-02 06:02:31 46.0284 15.0177 26 ° 15 km/h 3148 m -15.8 m/s MHz Šentrupert (SI) 0.00 km UNKNOWN
ME137977 M10 2019-04-01 06:42:07 46.1285 14.9528 289 ° 17 km/h 2224 m -14.8 m/s MHz Zagorje (SI) 0.00 km UNKNOWN
ME155897 M10 2019-03-31 06:51:09 46.941 14.8855 345 ° 6 km/h 2635 m -3.3 m/s MHz Bad Sankt Leonhard im Lavanttal (AT) 0.00 km UNKNOWN
ME141817 M10 2019-03-29 06:27:42 45.8917 13.7662 244 ° 54 km/h 1495 m -13.3 m/s MHz Volčja Draga (SI) 0.00 km FOUND
ME141305 M10 2019-03-28 06:09:04 45.7433 14.1107 231 ° 39 km/h 5385 m -18.0 m/s MHz Postojna (SI) 0.00 km FOUND
ME740593 M10 2019-03-27 06:02:02 45.625 14.59 152 ° 35 km/h 13345 m -7.7 m/s MHz Čabar (HR) 0.00 km UNKNOWN
ME741361 M10 2019-03-26 06:29:15 45.8452 15.2995 266 ° 37 km/h 3110 m -14.8 m/s MHz Šentjernej (SI) 0.00 km FOUND
ME731121 M10 2019-03-25 06:12:50 45.9265 15.8774 113 ° 67 km/h 5253 m -12.8 m/s MHz Jakovlje (HR) 0.00 km FOUND
ME726001 M10 2019-03-24 06:21:49 45.9726 14.6858 137 ° 17 km/h 3658 m -10.5 m/s MHz Grosuplje (SI) 0.00 km FOUND
ME764128 M10 2019-03-23 06:00:46 45.842 13.7273 253 ° 43 km/h 1167 m -8.0 m/s MHz Komen (SI) 0.00 km FOUND
ME764640 M10 2019-03-22 06:23:17 45.7614 13.7865 271 ° 24 km/h 2016 m -9.4 m/s MHz Komen (SI) 0.00 km FOUND
ME725489 M10 2019-03-21 06:20:49 45.6851 13.4561 219 ° 22 km/h 20027 m -48.6 m/s MHz Ronchi dei Legionari (IT) 0.00 km LOST
ME732657 M10 2019-03-20 05:59:20 45.6793 14.1844 230 ° 9 km/h 5263 m -14.1 m/s MHz Pivka (SI) 0.00 km FOUND
ME726769 M10 2019-03-19 06:11:01 46.3699 15.0058 250 ° 24 km/h 1451 m -6.2 m/s MHz Šoštanj (SI) 0.00 km FOUND
ME726257 M10 2019-03-18 06:29:36 47.159 16.6193 27 ° 83 km/h 3526 m -3.5 m/s MHz Ják (HU) 0.00 km FOUND
ME749553 M10 2019-03-17 06:15:40 45.8193 15.7476 110 ° 81 km/h 6947 m -19.4 m/s MHz Sveta Nedjelja (HR) 0.00 km UNKNOWN
ME749297 M10 2019-03-16 06:10:23 45.3261 15.8143 130 ° 61 km/h 15758 m -33.7 m/s MHz Gvozd (HR) 0.00 km UNKNOWN
ME784096 M10 2019-03-15 06:27:58 44.8882 15.7199 122 ° 56 km/h 19819 m -45.7 m/s MHz Bihać (BA) 0.00 km UNKNOWN
ME784352 M10 2019-03-14 06:03:06 45.7397 15.4767 165 ° 59 km/h 2904 m -13.4 m/s MHz Žumberak (HR) 0.00 km UNKNOWN
ME741617 M10 2019-03-13 05:51:39 46.0219 15.8412 87 ° 113 km/h 11287 m -19.0 m/s MHz Veliko Trgovišće (HR) 0.00 km FOUND
ME741105 M10 2019-03-12 06:11:18 45.0546 15.0871 234 ° 11 km/h 23631 m 5.2 m/s MHz Brinje (HR) 0.00 km UNKNOWN
ME732913 M10 2019-03-11 06:06:41 46.0295 16.4514 180 ° 52 km/h 1030 m -11.3 m/s MHz Sveti Petar Orehovec (HR) 0.00 km FOUND
ME731633 M10 2019-03-10 05:20:09 45.7144 15.5216 125 ° 113 km/h 14494 m 4.6 m/s MHz Krašić (HR) 0.00 km UNKNOWN
ME746481 M10 2019-03-09 05:49:38 45.7555 15.2474 124 ° 65 km/h 12648 m -14.4 m/s MHz Novo Mesto (SI) 0.00 km UNKNOWN
ME752881 M10 2019-03-08 06:04:46 46.5939 16.1799 39 ° 41 km/h 410 m -10.3 m/s MHz Veržej (SI) 0.00 km FOUND
ME775920 M10 2019-03-07 06:02:03 46.4246 15.9215 62 ° 94 km/h 2032 m -8.7 m/s MHz Dornava (SI) 0.00 km FOUND
ME752369 M10 2019-03-06 06:30:30 45.1481 16.3104 113 ° 91 km/h 4533 m -9.6 m/s MHz Dvor (HR) 0.00 km UNKNOWN
ME776176 M10 2019-03-05 06:09:01 45.9144 16.9188 156 ° 19 km/h 1418 m -9.6 m/s MHz Veliko Trojstvo (HR) 0.00 km UNKNOWN
ME724465 M10 2019-03-04 06:07:45 45.7806 15.5797 105 ° 54 km/h 2239 m -11.3 m/s MHz Samobor (HR) 0.00 km UNKNOWN
ME770288 M10 2019-03-03 05:44:48 45.6575 14.8553 123 ° 46 km/h 14632 m -15.6 m/s MHz Kočevje (SI) 0.00 km UNKNOWN
ME760049 M10 2019-03-01 06:36:50 45.7497 15.6779 260 ° 4 km/h 2333 m -12.1 m/s MHz Samobor (HR) 0.00 km UNKNOWN
ME754161 M10 2019-02-28 06:04:40 45.4189 14.7649 156 ° 63 km/h 6841 m -17.2 m/s MHz Delnice (HR) 0.00 km UNKNOWN
ME750065 M10 2019-02-27 05:41:39 45.2512 13.8718 234 ° 31 km/h 19661 m 5.0 m/s MHz Tinjan (HR) 0.00 km UNKNOWN
ME776944 M10 2019-02-26 06:14:48 45.2512 13.6926 223 ° 113 km/h 8625 m -15.0 m/s MHz Višnjan (HR) 0.00 km UNKNOWN
ME777200 M10 2019-02-23 05:09:47 45.5562 13.9771 213 ° 157 km/h 6426 m 3.2 m/s MHz Kozina (SI) 0.00 km UNKNOWN
ME776432 M10 2019-02-22 05:52:47 45.1066 14.6926 168 ° 39 km/h 23495 m 3.8 m/s MHz Vrbnik (HR) 0.00 km LOST
ME721649 M10 2019-02-21 06:19:05 45.4811 14.4674 178 ° 43 km/h 4901 m -12.2 m/s MHz Klana (HR) 0.00 km UNKNOWN
ME723185 M10 2019-02-20 06:07:00 45.7231 14.906 102 ° 39 km/h 3848 m -11.9 m/s MHz Kočevje (SI) 0.00 km UNKNOWN
ME777456 M10 2019-02-19 06:11:36 46.1306 15.1295 95 ° 19 km/h 2896 m -12.7 m/s MHz Hrastnik (SI) 0.00 km FOUND
ME778224 M10 2019-02-18 06:03:14 45.9013 14.7709 206 ° 13 km/h 4555 m -18.2 m/s MHz Ivančna Gorica (SI) 0.00 km FOUND
ME775152 M10 2019-02-17 05:57:49 45.8453 14.4994 284 ° 9 km/h 8963 m -12.1 m/s MHz Nova Vas (SI) 0.00 km UNKNOWN
ME751857 M10 2019-02-14 05:58:16 45.1806 14.6149 189 ° 81 km/h 6959 m -9.0 m/s MHz Dobrinj (HR) 0.00 km UNKNOWN
ME772848 M10 2019-02-12 05:47:51 45.2137 14.5948 196 ° 156 km/h 8220 m -21.0 m/s MHz Omišalj (HR) 0.00 km UNKNOWN
ME773360 M10 2019-02-11 06:46:43 46.8477 17.0155 161 ° 61 km/h 2537 m -3.5 m/s MHz Zalaszentgrót (HU) 0.00 km UNKNOWN
ME733425 M10 2019-02-10 06:41:30 45.668 16.7267 114 ° 96 km/h 13011 m -1.7 m/s MHz Berek (HR) 0.00 km UNKNOWN
ME763616 M10 2019-02-09 05:55:32 45.9087 15.1198 116 ° 26 km/h 2636 m -11.6 m/s MHz Mokronog (SI) 0.00 km FOUND
ME765664 M10 2019-02-08 06:11:50 46.4432 15.2323 24 ° 78 km/h 9652 m -19.9 m/s MHz Mislinja (SI) 0.00 km LOST
ME772592 M10 2019-02-07 06:03:47 45.8602 14.8079 159 ° 13 km/h 6829 m -17.6 m/s MHz Ivančna Gorica (SI) 0.00 km UNKNOWN
ME718144 M10 2019-02-06 06:30:57 45.4521 14.3956 231 ° 24 km/h 4850 m -15.8 m/s MHz Klana (HR) 0.00 km UNKNOWN
ME763872 M10 2019-02-05 06:19:42 46.3366 14.9643 281 ° 2 km/h 3343 m -5.9 m/s MHz Mozirje (SI) 0.00 km LOST
ME760544 M10 2019-02-04 06:29:06 46.7763 15.2387 49 ° 13 km/h 2597 m -4.1 m/s MHz Deutschlandsberg (AT) 0.00 km UNKNOWN
ME774128 M10 2019-02-03 06:44:45 47.8206 14.8136 16 ° 7 km/h 1626 m -3.9 m/s MHz Weyer Markt (AT) 0.00 km UNKNOWN
ME735729 M10 2019-02-02 06:14:35 47.1758 15.6688 10 ° 56 km/h 1220 m -3.7 m/s MHz Sankt Ruprecht an der Raab (AT) 0.00 km FOUND
ME773872 M10 2019-02-01 06:52:11 45.896 16.689 94 ° 44 km/h 4179 m -3.6 m/s MHz Farkaševac (HR) 0.00 km FOUND
ME733681 M10 2019-01-31 05:54:36 46.3653 14.7722 47 ° 24 km/h 3257 m -10.5 m/s MHz Luče (SI) 0.00 km FOUND
ME773104 M10 2019-01-30 06:37:37 46.2331 15.1573 357 ° 4 km/h 702 m -11.6 m/s MHz Žalec (SI) 0.00 km FOUND
ME734961 M10 2019-01-29 05:39:59 46.1271 14.7357 184 ° 43 km/h 2180 m -5.3 m/s MHz Moravče (SI) 0.00 km FOUND
ME736241 M10 2019-01-28 06:22:20 46.9087 15.336 52 ° 7 km/h 653 m -11.2 m/s MHz Lannach (AT) 0.00 km FOUND
ME735985 M10 2019-01-27 06:07:47 45.672 15.611 111 ° 72 km/h 7821 m -4.5 m/s MHz Jastrebarsko (HR) 0.00 km UNKNOWN
ME721137 M10 2019-01-25 05:49:53 45.9629 14.5469 31 ° 35 km/h 9391 m -22.0 m/s MHz Ig (SI) 0.00 km FOUND
ME776688 M10 2019-01-24 06:11:38 46.2176 14.3475 277 ° 20 km/h 2441 m -10.6 m/s MHz Kranj (SI) 0.00 km UNKNOWN
ME749809 M10 2019-01-23 05:38:46 46.2765 14.4378 4 ° 20 km/h 3473 m -11.7 m/s MHz Preddvor (SI) 0.00 km FOUND
ME750321 M10 2019-01-22 06:16:57 46.2168 15.3259 83 ° 6 km/h 515 m -9.4 m/s MHz Štore (SI) 0.00 km FOUND
ME751601 M10 2019-01-21 05:47:04 46.0839 15.2277 20 ° 11 km/h 3113 m -13.8 m/s MHz Radeče (SI) 0.00 km FOUND
ME728817 M10 2019-01-20 06:10:22 46.1829 15.2846 109 ° 6 km/h 920 m -12.3 m/s MHz Laško (SI) 0.00 km FOUND
ME723697 M10 2019-01-19 05:44:03 46.0451 15.1589 66 ° 19 km/h 2489 m -11.2 m/s MHz Radeče (SI) 0.00 km FOUND
ME751345 M10 2019-01-18 08:03:40 47.2938 17.4398 135 ° 72 km/h 2623 m -2.4 m/s MHz Pápa (HU) 0.00 km UNKNOWN
ME751089 M10 2019-01-17 05:57:44 46.1797 15.4358 89 ° 91 km/h 2342 m -11.7 m/s MHz Dobje (SI) 0.00 km FOUND
ME721393 M10 2019-01-16 05:46:56 45.5829 15.1066 151 ° 52 km/h 19078 m 4.9 m/s MHz Črnomelj (SI) 0.00 km UNKNOWN
ME750577 M10 2019-01-14 06:17:25 45.2225 15.6843 157 ° 48 km/h 2985 m -3.9 m/s MHz Cetingrad (HR) 0.00 km UNKNOWN
ME750833 M10 2019-01-13 05:38:06 45.6381 14.9144 180 ° 56 km/h 18133 m 4.8 m/s MHz Kočevje (SI) 0.00 km UNKNOWN
ME724977 M10 2019-01-12 05:53:34 45.3764 14.2011 153 ° 37 km/h 19817 m -42.1 m/s MHz Lanišće (HR) 0.00 km UNKNOWN
ME722417 M10 2019-01-11 05:49:40 45.61 14.0112 223 ° 72 km/h 6556 m -10.8 m/s MHz Kozina (SI) 0.00 km UNKNOWN
ME725233 M10 2019-01-10 06:15:36 45.6605 14.2372 220 ° 39 km/h 4908 m -10.7 m/s MHz Pivka (SI) 0.00 km UNKNOWN
ME728305 M10 2019-01-08 07:09:49 44.2868 15.2918 168 ° 72 km/h 6921 m -2.5 m/s MHz Ražanac (HR) 0.00 km LOST
ME719168 M10 2019-01-06 06:03:18 44.9841 14.971 173 ° 91 km/h 5584 m -11.0 m/s MHz Senj (HR) 0.00 km UNKNOWN
ME705088 M10 2019-01-05 05:46:34 45.2063 14.0706 150 ° 61 km/h 19712 m 4.1 m/s MHz Pićan (HR) 0.00 km UNKNOWN
ME705600 M10 2019-01-04 06:06:55 45.1179 13.9364 118 ° 57 km/h 20926 m 4.7 m/s MHz Žminj (HR) 0.00 km UNKNOWN
ME745952 M10 2019-01-03 05:39:12 45.3705 14.4042 152 ° 41 km/h 18857 m 3.7 m/s MHz Viškovo (HR) 0.00 km UNKNOWN
ME747744 M10 2019-01-02 05:48:11 45.406 15.2839 140 ° 63 km/h 3948 m -14.9 m/s MHz Bosiljevo (HR) 0.00 km UNKNOWN
ME758240 M10 2019-01-01 05:54:38 45.0838 14.1409 202 ° 137 km/h 7826 m -11.6 m/s MHz Labin (HR) 0.00 km UNKNOWN
ME758752 M10 2018-12-31 05:14:14 45.3376 14.291 198 ° 81 km/h 13414 m 3.9 m/s MHz Opatija (HR) 0.00 km UNKNOWN
ME739040 M10 2018-12-30 05:52:47 45.6105 14.8701 147 ° 48 km/h 16227 m -35.4 m/s MHz Kočevje (SI) 0.00 km UNKNOWN
ME758496 M10 2018-12-29 05:39:58 45.6785 14.74 147 ° 57 km/h 12655 m -13.0 m/s MHz Kočevje (SI) 0.00 km UNKNOWN
ME719936 M10 2018-12-28 06:10:24 45.5954 15.0303 134 ° 30 km/h 4041 m -10.9 m/s MHz Črnomelj (SI) 0.00 km UNKNOWN
ME717376 M10 2018-12-27 05:39:39 45.654 14.7867 162 ° 35 km/h 3742 m -17.2 m/s MHz Kočevje (SI) 0.00 km UNKNOWN
ME720192 M10 2018-12-25 05:43:06 45.1235 14.5814 153 ° 78 km/h 21064 m 6.9 m/s MHz Dobrinj (HR) 0.00 km UNKNOWN
ME715584 M10 2018-12-23 06:08:14 45.1285 16.4621 106 ° 106 km/h 16894 m -2.2 m/s MHz Dvor (HR) 0.00 km UNKNOWN
ME764384 M10 2018-12-22 05:45:42 45.6834 16.1542 117 ° 113 km/h 6240 m -17.0 m/s MHz Orle (HR) 0.00 km FOUND
ME765920 M10 2018-12-21 06:01:48 45.394 15.8029 109 ° 35 km/h 2814 m -14.6 m/s MHz Gvozd (HR) 0.00 km UNKNOWN
ME706880 M10 2018-12-20 07:07:24 47.0194 16.5542 63 ° 31 km/h 2720 m -3.9 m/s MHz Körmend (HU) 0.00 km UNKNOWN
ME704832 M10 2018-12-19 06:04:14 45.601 15.2488 150 ° 46 km/h 5760 m -14.8 m/s MHz Črnomelj (SI) 0.00 km UNKNOWN
ME706624 M10 2018-12-18 05:53:44 45.7349 15.1393 136 ° 63 km/h 7729 m -17.5 m/s MHz Dolenjske Toplice (SI) 0.00 km UNKNOWN
ME706112 M10 2018-12-17 06:10:38 46.1283 15.2841 229 ° 26 km/h 1991 m -14.4 m/s MHz Laško (SI) 0.00 km FOUND
ME706368 M10 2018-12-16 05:42:12 45.4792 15.3905 78 ° 35 km/h 20632 m 5.6 m/s MHz Netretić (HR) 0.00 km UNKNOWN
ME761056 M10 2018-12-15 05:40:26 46.0388 14.9069 93 ° 56 km/h 10076 m -11.7 m/s MHz Litija (SI) 0.00 km UNKNOWN
ME760288 M10 2018-12-14 05:56:56 46.1638 15.6743 44 ° 52 km/h 4073 m -16.1 m/s MHz Desinić (HR) 0.00 km UNKNOWN
ME720704 M10 2018-12-13 06:11:50 45.9144 15.146 310 ° 15 km/h 2786 m -13.4 m/s MHz Mokronog (SI) 0.00 km FOUND
ME718656 M10 2018-12-12 05:44:44 45.5489 15.1216 133 ° 31 km/h 5073 m -15.0 m/s MHz Črnomelj (SI) 0.00 km UNKNOWN
ME718400 M10 2018-12-11 06:07:20 45.396 14.9637 160 ° 46 km/h 4803 m -12.7 m/s MHz Ravna Gora (HR) 0.00 km UNKNOWN
ME759008 M10 2018-12-09 06:15:58 45.4749 16.1815 103 ° 67 km/h 3536 m -10.1 m/s MHz Petrinja (HR) 0.00 km UNKNOWN
ME705856 M10 2018-12-08 05:38:15 46.3216 15.1792 269 ° 4 km/h 3135 m -11.3 m/s MHz Dobrna (SI) 0.00 km LOST
ME717120 M10 2018-12-07 06:33:36 44.9777 14.9534 143 ° 52 km/h 20739 m -1.8 m/s MHz Senj (HR) 0.00 km UNKNOWN
ME718912 M10 2018-12-06 06:09:15 45.7283 15.2122 95 ° 13 km/h 3103 m -10.0 m/s MHz Novo Mesto (SI) 0.00 km UNKNOWN
ME720448 M10 2018-12-04 06:19:01 45.6944 15.5082 222 ° 28 km/h 2113 m -4.6 m/s MHz Krašić (HR) 0.00 km UNKNOWN
ME760800 M10 2018-12-03 06:42:32 45.5344 15.9756 108 ° 37 km/h 1892 m -6.6 m/s MHz Pokupsko (HR) 0.00 km UNKNOWN
ME737760 M10 2018-12-02 05:44:29 45.6763 15.0302 130 ° 69 km/h 12826 m -9.5 m/s MHz Dolenjske Toplice (SI) 0.00 km UNKNOWN
ME759776 M10 2018-12-01 06:53:00 46.0235 15.6169 55 ° 6 km/h 1392 m -12.0 m/s MHz Bistrica ob Sotli (SI) 0.00 km UNKNOWN
ME759264 M10 2018-11-30 06:04:44 45.7661 15.3035 126 ° 24 km/h 3271 m -15.6 m/s MHz Šentjernej (SI) 0.00 km FOUND
ME760032 M10 2018-11-28 05:55:53 45.7539 14.6751 191 ° 20 km/h 6068 m -13.9 m/s MHz Sodražica (SI) 0.00 km UNKNOWN
ME742880 M10 2018-11-27 05:40:14 46.1325 14.7887 186 ° 4 km/h 3281 m -11.5 m/s MHz Moravče (SI) 0.00 km FOUND
ME753632 M10 2018-11-26 06:13:58 46.3834 14.638 278 ° 20 km/h 2122 m -4.6 m/s MHz Solčava (SI) 0.00 km UNKNOWN
ME747232 M10 2018-11-25 06:10:55 46.4476 15.7333 66 ° 13 km/h 1889 m -9.6 m/s MHz Starše (SI) 0.00 km LOST
ME739808 M10 2018-11-24 05:48:46 46.3328 15.5965 57 ° 81 km/h 2570 m -12.6 m/s MHz Poljčane (SI) 0.00 km UNKNOWN
ME738272 M10 2018-11-23 06:13:05 45.7135 16.2662 100 ° 48 km/h 5314 m -3.6 m/s MHz Rugvica (HR) 0.00 km UNKNOWN
ME742624 M10 2018-11-22 06:26:23 46.1574 14.9728 71 ° 20 km/h 2360 m -7.5 m/s MHz Zagorje (SI) 0.00 km FOUND
ME746464 M10 2018-11-21 05:50:13 46.082 14.7784 107 ° 7 km/h 4510 m -13.2 m/s MHz Litija (SI) 0.00 km FOUND
ME745440 M10 2018-11-20 06:58:15 47.269 14.9652 358 ° 72 km/h 3440 m -4.1 m/s MHz Sankt Michael in Obersteiermark (AT) 0.00 km UNKNOWN
ME749536 M10 2018-11-19 05:23:59 46.0721 14.6687 269 ° 6 km/h 16936 m -16.5 m/s MHz Dol (SI) 0.00 km UNKNOWN
ME743904 M10 2018-11-18 05:51:06 45.9825 13.7933 263 ° 39 km/h 6659 m -12.4 m/s MHz Nova Gorica (SI) 0.00 km UNKNOWN
ME738784 M10 2018-11-17 06:48:30 45.7861 13.1878 305 ° 35 km/h 7273 m -4.5 m/s MHz Cervignano del Friuli (IT) 0.00 km UNKNOWN
ME730336 M10 2018-11-16 06:05:01 45.1911 13.7172 211 ° 80 km/h 6319 m -10.9 m/s MHz Sveti Lovreč Pazenatički (HR) 0.00 km UNKNOWN
ME744160 M10 2018-11-15 05:58:16 45.4526 14.5185 185 ° 50 km/h 4963 m -11.8 m/s MHz Jelenje (HR) 0.00 km UNKNOWN
ME748512 M10 2018-11-14 05:56:14 45.7338 15.4478 161 ° 20 km/h 3024 m -10.5 m/s MHz Žumberak (HR) 0.00 km UNKNOWN
ME683072 M10 2018-11-12 07:34:41 45.9824 16.2052 52 ° 52 km/h 820 m -3.4 m/s MHz Sveti Ivan Zelina (HR) 0.00 km UNKNOWN
ME737248 M10 2018-11-11 06:25:04 45.8641 15.5721 62 ° 43 km/h 4869 m -4.5 m/s MHz Brežice (SI) 0.00 km FOUND
ME734432 M10 2018-11-10 06:09:14 46.3918 15.2853 46 ° 41 km/h 2176 m -10.1 m/s MHz Vitanje (SI) 0.00 km UNKNOWN
ME682816 M10 2018-11-09 06:07:17 46.1783 15.5832 30 ° 24 km/h 2231 m -10.9 m/s MHz Podčetrtek (SI) 0.00 km UNKNOWN
ME741600 M10 2018-11-08 05:51:45 46.4632 14.5918 82 ° 17 km/h 2014 m -12.1 m/s MHz Bad Eisenkappel (AT) 0.00 km UNKNOWN
ME740064 M10 2018-11-07 06:20:05 46.7829 14.6602 15 ° 59 km/h 4522 m -11.8 m/s MHz Brückl (AT) 0.00 km UNKNOWN
ME781040 M10 2018-11-06 06:03:37 46.1101 14.9836 54 ° 13 km/h 5263 m -6.5 m/s MHz Zagorje (SI) 0.00 km UNKNOWN
ME781808 M10 2018-11-05 06:25:08 46.957 13.8456 326 ° 96 km/h 5503 m -10.1 m/s MHz Tamsweg (AT) 0.00 km UNKNOWN
ME774384 M10 2018-11-04 06:00:10 46.604 14.4595 312 ° 2 km/h 850 m -11.3 m/s MHz Grafenstein (AT) 0.00 km FOUND
ME782064 M10 2018-11-03 06:15:58 46.8493 14.8339 18 ° 35 km/h 2454 m -10.5 m/s MHz Wolfsberg (AT) 0.00 km UNKNOWN
ME781296 M10 2018-11-02 05:46:45 46.8914 15.161 33 ° 120 km/h 8581 m -17.6 m/s MHz Stainz (AT) 0.00 km UNKNOWN
ME782320 M10 2018-11-01 06:00:52 47.0329 15.3347 23 ° 72 km/h 2895 m -10.2 m/s MHz Hitzendorf (AT) 0.00 km UNKNOWN
ME774896 M10 2018-10-31 06:16:52 46.7276 15.6127 62 ° 52 km/h 1924 m -8.6 m/s MHz Straß in Steiermark (AT) 0.00 km UNKNOWN
ME780784 M10 2018-10-30 05:43:26 47.3466 14.7766 19 ° 128 km/h 5195 m -14.0 m/s MHz Spielberg bei Knittelfeld (AT) 0.00 km UNKNOWN
ME781552 M10 2018-10-29 06:25:07 47.0053 15.376 37 ° 65 km/h 2376 m -9.6 m/s MHz Pirka (AT) 0.00 km UNKNOWN
ME683840 M10 2018-10-28 05:38:35 46.7204 15.1845 29 ° 100 km/h 7520 m -17.8 m/s MHz Eibiswald (AT) 0.00 km UNKNOWN
ME695616 M10 2018-10-27 06:38:20 46.702 16.8394 54 ° 74 km/h 920 m -4.4 m/s MHz Zalaegerszeg (HU) 0.00 km UNKNOWN
ME755424 M10 2018-10-26 05:59:47 45.7836 15.8105 107 ° 81 km/h 6124 m -15.0 m/s MHz Sveta Nedjelja (HR) 0.00 km FOUND
ME755936 M10 2018-10-25 06:40:59 44.6143 15.1753 153 ° 93 km/h 5301 m -14.7 m/s MHz Perušić (HR) 0.00 km UNKNOWN
ME755168 M10 2018-10-24 06:07:00 44.9467 15.1855 164 ° 120 km/h 6183 m -10.3 m/s MHz Brinje (HR) 0.00 km UNKNOWN
ME757216 M10 2018-10-23 06:11:29 45.5472 14.6991 196 ° 48 km/h 6505 m -10.6 m/s MHz Osilnica (SI) 0.00 km UNKNOWN
ME782816 M10 2018-10-22 06:00:26 45.6059 13.1608 250 ° 167 km/h 8687 m -6.3 m/s MHz Caorle (IT) 0.00 km LOST
ME736992 M10 2018-10-20 06:55:37 45.4887 15.0092 155 ° 43 km/h 5386 m -11.1 m/s MHz Brod Moravice (HR) 0.00 km UNKNOWN
ME736480 M10 2018-10-19 06:01:59 45.5443 14.9824 128 ° 35 km/h 4685 m -10.4 m/s MHz Kostel (SI) 0.00 km UNKNOWN
ME727008 M10 2018-10-18 06:28:22 45.9612 15.0774 1 ° 4 km/h 2499 m -5.1 m/s MHz Mirna (SI) 0.00 km UNKNOWN
ME735200 M10 2018-10-17 06:08:53 46.1565 14.925 60 ° 33 km/h 5709 m -9.6 m/s MHz Zagorje (SI) 0.00 km UNKNOWN
ME730592 M10 2018-10-16 06:29:28 46.0448 14.9616 36 ° 22 km/h 3620 m -16.1 m/s MHz Litija (SI) 0.00 km FOUND
ME735968 M10 2018-10-15 06:21:16 46.7662 14.2744 347 ° 74 km/h 5558 m -10.6 m/s MHz Liebenfels (AT) 0.00 km UNKNOWN
ME734944 M10 2018-10-14 05:56:48 46.4757 13.7702 315 ° 26 km/h 4595 m -3.7 m/s MHz Kranjska Gora (SI) 0.00 km UNKNOWN
ME736224 M10 2018-10-13 06:07:02 45.8008 13.9465 248 ° 20 km/h 5599 m -5.7 m/s MHz Vipava (SI) 0.00 km UNKNOWN
ME729312 M10 2018-10-12 05:35:54 46.0052 14.5744 76 ° 17 km/h 18608 m 5.5 m/s MHz Škofljica (SI) 0.00 km UNKNOWN
ME735712 M10 2018-10-11 05:58:26 46.2335 14.2477 343 ° 39 km/h 4439 m -12.3 m/s MHz Železniki (SI) 0.00 km UNKNOWN
ME729568 M10 2018-10-10 06:19:42 46.208 13.7565 281 ° 61 km/h 11250 m -16.2 m/s MHz Tolmin (SI) 0.00 km UNKNOWN
ME733664 M10 2018-10-09 06:13:43 45.8891 13.8645 266 ° 52 km/h 6536 m -11.0 m/s MHz Ajdovščina (SI) 0.00 km UNKNOWN
ME695360 M10 2018-10-08 05:42:25 45.8979 14.4336 205 ° 37 km/h 10727 m -4.1 m/s MHz Borovnica (SI) 0.00 km UNKNOWN
ME716096 M10 2018-10-07 06:43:45 46.6324 14.843 6 ° 22 km/h 6579 m -9.7 m/s MHz Bleiburg (AT) 0.00 km UNKNOWN
ME714048 M10 2018-10-06 05:58:05 46.4537 14.4953 20 ° 24 km/h 3344 m -12.7 m/s MHz Zgornje Jezersko (SI) 0.00 km UNKNOWN
ME715328 M10 2018-10-05 05:49:55 46.0538 14.2849 294 ° 20 km/h 7143 m -12.0 m/s MHz Horjul (SI) 0.00 km UNKNOWN
ME683328 M10 2018-10-04 05:58:30 45.7187 14.83 137 ° 24 km/h 3393 m -11.2 m/s MHz Kočevje (SI) 0.00 km UNKNOWN
ME774640 M10 2018-10-03 05:38:27 45.8434 14.9571 96 ° 59 km/h 12516 m -15.4 m/s MHz Žužemberk (SI) 0.00 km UNKNOWN
ME732384 M10 2018-10-02 06:07:01 46.2997 15.3638 357 ° 19 km/h 3120 m -11.3 m/s MHz Vojnik (SI) 0.00 km UNKNOWN
ME736736 M10 2018-10-01 06:06:03 46.5695 15.0132 14 ° 81 km/h 7720 m -12.9 m/s MHz Dravograd (SI) 0.00 km UNKNOWN
ME734688 M10 2018-09-30 06:12:58 45.9831 14.0324 279 ° 13 km/h 7006 m -3.9 m/s MHz Idrija (SI) 0.00 km UNKNOWN
ME726752 M10 2018-09-29 06:18:16 45.8111 15.3164 112 ° 69 km/h 7548 m -10.1 m/s MHz Šentjernej (SI) 0.00 km UNKNOWN
ME715072 M10 2018-09-28 06:31:03 45.9074 14.6268 143 ° 13 km/h 4141 m -13.1 m/s MHz Grosuplje (SI) 0.00 km UNKNOWN
ME713280 M10 2018-09-27 06:22:35 45.1675 14.0395 194 ° 70 km/h 7221 m -4.0 m/s MHz Pićan (HR) 0.00 km UNKNOWN
ME730080 M10 2018-09-25 05:53:51 45.364 15.7613 103 ° 37 km/h 20193 m -21.7 m/s MHz Vojnić (HR) 0.00 km UNKNOWN
ME730848 M10 2018-09-23 06:37:52 45.4293 15.9397 124 ° 48 km/h 4866 m -12.4 m/s MHz Pokupsko (HR) 0.00 km UNKNOWN
ME682304 M10 2018-09-22 06:09:32 45.789 15.6547 17 ° 6 km/h 1510 m -4.9 m/s MHz Samobor (HR) 0.00 km UNKNOWN
ME682048 M10 2018-09-21 05:35:14 45.9932 14.6237 131 ° 30 km/h 12060 m -3.0 m/s MHz Škofljica (SI) 0.00 km UNKNOWN
ME714560 M10 2018-09-20 06:43:54 45.9721 14.9204 44 ° 6 km/h 3007 m -17.6 m/s MHz Trebnje (SI) 0.00 km UNKNOWN
ME694848 M10 2018-09-19 06:05:39 46.0024 15.0913 94 ° 9 km/h 2398 m -10.7 m/s MHz Šentrupert (SI) 0.00 km UNKNOWN
ME714816 M10 2018-09-18 06:12:11 46.0639 14.4554 156 ° 13 km/h 21026 m -37.0 m/s MHz Dobrova (SI) 0.00 km UNKNOWN
ME714304 M10 2018-09-17 06:18:55 46.0713 15.0077 99 ° 15 km/h 2158 m -10.7 m/s MHz Zagorje (SI) 0.00 km UNKNOWN
ME684096 M10 2018-09-16 06:39:24 45.8012 14.8804 119 ° 7 km/h 3818 m -13.4 m/s MHz Žužemberk (SI) 0.00 km UNKNOWN
ME681536 M10 2018-09-15 06:04:31 45.8195 15.2996 215 ° 19 km/h 2432 m -12.3 m/s MHz Šentjernej (SI) 0.00 km UNKNOWN
ME740081 M10 2018-09-14 06:02:10 46.0969 14.9874 299 ° 9 km/h 1975 m -10.6 m/s MHz Zagorje (SI) 0.00 km FOUND
ME766449 M10 2018-09-13 05:59:10 46.1665 14.8619 65 ° 31 km/h 9980 m -12.5 m/s MHz Moravče (SI) 0.00 km UNKNOWN
ME743409 M10 2018-09-12 06:17:54 45.8427 14.5771 126 ° 22 km/h 25205 m 4.9 m/s MHz Velike Lašče (SI) 0.00 km UNKNOWN
ME748529 M10 2018-09-11 06:08:38 45.2136 14.5504 183 ° 83 km/h 7586 m -12.2 m/s MHz Omišalj (HR) 0.00 km UNKNOWN
ME713536 M10 2018-09-09 06:08:26 45.7876 15.0745 165 ° 24 km/h 2788 m -15.8 m/s MHz Straža (SI) 0.00 km UNKNOWN
ME683584 M10 2018-09-08 06:25:47 45.875 14.8496 133 ° 17 km/h 5773 m -12.6 m/s MHz Žužemberk (SI) 0.00 km UNKNOWN
ME695872 M10 2018-09-07 05:47:09 46.1405 14.9077 95 ° 15 km/h 10014 m -6.2 m/s MHz Zagorje (SI) 0.00 km UNKNOWN
ME766961 M10 2018-09-06 05:59:16 45.8543 15.1219 133 ° 33 km/h 8238 m -12.4 m/s MHz Mirna Peč (SI) 0.00 km UNKNOWN
ME738801 M10 2018-09-04 06:16:03 46.031 14.3923 193 ° 17 km/h 5247 m -11.8 m/s MHz Brezovica (SI) 0.00 km UNKNOWN
ME744177 M10 2018-09-03 06:03:46 46.2166 14.2942 249 ° 28 km/h 3883 m -10.0 m/s MHz Kranj (SI) 0.00 km UNKNOWN
ME738033 M10 2018-09-02 05:43:10 46.571 14.2371 327 ° 57 km/h 5288 m -11.1 m/s MHz Köttmannsdorf (AT) 0.00 km UNKNOWN
ME745457 M10 2018-09-01 05:55:25 46.5446 14.7763 359 ° 35 km/h 7451 m -14.2 m/s MHz Bistrica nad Pliberkom (AT) 0.00 km UNKNOWN
ME767473 M10 2018-08-31 05:57:42 46.2167 14.9448 213 ° 9 km/h 23252 m 5.0 m/s MHz Vransko (SI) 0.00 km LOST
ME745201 M10 2018-08-29 06:23:30 45.9467 14.7651 110 ° 28 km/h 12561 m -23.6 m/s MHz Ivančna Gorica (SI) 0.00 km UNKNOWN
ME738289 M10 2018-08-27 05:42:05 45.675 14.5089 160 ° 63 km/h 13273 m -5.3 m/s MHz Stari Trg (SI) 0.00 km UNKNOWN
ME744689 M10 2018-08-26 05:47:16 46.8222 15.1109 10 ° 59 km/h 3435 m -12.9 m/s MHz Deutschlandsberg (AT) 0.00 km UNKNOWN
ME742129 M10 2018-08-25 06:12:04 46.2479 15.2339 57 ° 37 km/h 2675 m -12.7 m/s MHz Celje (SI) 0.00 km UNKNOWN
ME740849 M10 2018-08-24 06:28:24 46.1609 14.6811 65 ° 13 km/h 3916 m -16.2 m/s MHz Lukovica (SI) 0.00 km UNKNOWN
ME748785 M10 2018-08-22 06:02:10 46.102 14.1872 327 ° 6 km/h 5529 m -18.3 m/s MHz Gorenja Vas (SI) 0.00 km UNKNOWN
ME745696 M10 2018-08-21 06:01:38 45.9297 14.0578 190 ° 17 km/h 4184 m -9.0 m/s MHz Idrija (SI) 0.00 km UNKNOWN
ME752608 M10 2018-08-20 06:04:27 45.9769 14.0336 234 ° 30 km/h 6999 m -16.5 m/s MHz Idrija (SI) 0.00 km UNKNOWN
ME761312 M10 2018-08-19 06:18:55 45.9651 14.3889 239 ° 13 km/h 5830 m -16.5 m/s MHz Borovnica (SI) 0.00 km UNKNOWN
ME759520 M10 2018-08-18 06:26:01 46.0632 14.6045 241 ° 22 km/h 3107 m -12.6 m/s MHz Dol (SI) 0.00 km UNKNOWN
ME763104 M10 2018-08-17 06:12:31 45.9965 14.5554 274 ° 6 km/h 3991 m -15.3 m/s MHz Škofljica (SI) 0.00 km UNKNOWN
ME762848 M10 2018-08-16 06:30:19 45.9737 14.4241 260 ° 11 km/h 3858 m -17.8 m/s MHz Log (SI) 0.00 km FOUND
ME753120 M10 2018-08-15 06:12:29 46.1135 14.8217 170 ° 4 km/h 3300 m -10.5 m/s MHz Litija (SI) 0.00 km FOUND
ME751072 M10 2018-08-13 06:26:07 46.1032 15.0206 100 ° 17 km/h 2199 m -9.3 m/s MHz Zagorje (SI) 0.00 km UNKNOWN
ME751584 M10 2018-08-12 06:31:30 45.9566 14.7423 91 ° 19 km/h 3505 m -15.8 m/s MHz Ivančna Gorica (SI) 0.00 km LOST
ME763360 M10 2018-08-11 06:28:30 46.1735 15.1557 99 ° 48 km/h 7138 m -19.5 m/s MHz Hrastnik (SI) 0.00 km UNKNOWN
ME752864 M10 2018-08-10 06:27:37 46.4787 15.0456 32 ° 22 km/h 3501 m -13.1 m/s MHz Slovenj Gradec (SI) 0.00 km UNKNOWN
ME762336 M10 2018-08-09 06:20:47 46.2637 14.7068 64 ° 24 km/h 9439 m -14.9 m/s MHz Gornji Grad (SI) 0.00 km UNKNOWN
ME764896 M10 2018-08-08 05:58:48 46.1412 14.7622 71 ° 37 km/h 11021 m -21.9 m/s MHz Moravče (SI) 0.00 km UNKNOWN
ME762592 M10 2018-08-07 06:39:07 46.055 14.7441 50 ° 19 km/h 5179 m -19.1 m/s MHz Litija (SI) 0.00 km UNKNOWN
ME748768 M10 2018-08-06 06:17:42 45.9004 14.7654 143 ° 39 km/h 4354 m -14.0 m/s MHz Ivančna Gorica (SI) 0.00 km FOUND
ME762080 M10 2018-08-05 06:20:52 45.7008 14.6548 220 ° 30 km/h 3540 m -5.6 m/s MHz Hrib-Loški Potok (SI) 0.00 km UNKNOWN
ME751328 M10 2018-08-04 06:20:04 45.8792 14.1663 229 ° 20 km/h 3555 m -5.6 m/s MHz Logatec (SI) 0.00 km UNKNOWN
ME770016 M10 2018-08-03 06:05:01 45.9003 14.1526 308 ° 30 km/h 23437 m 5.0 m/s MHz Logatec (SI) 0.00 km UNKNOWN
ME765408 M10 2018-08-02 06:35:06 45.8537 14.2932 293 ° 28 km/h 20397 m -45.9 m/s MHz Cerknica (SI) 0.00 km UNKNOWN
ME666001 M10 2018-08-01 06:27:16 45.7349 14.4367 186 ° 39 km/h 3820 m -12.2 m/s MHz Stari Trg (SI) 0.00 km UNKNOWN
ME698432 M10 2018-07-31 06:14:47 45.7856 14.4138 189 ° 35 km/h 4866 m -11.7 m/s MHz Cerknica (SI) 0.00 km UNKNOWN
ME665233 M10 2018-07-30 06:16:48 45.8837 14.5298 199 ° 22 km/h 4467 m -16.9 m/s MHz Ig (SI) 0.00 km UNKNOWN
ME697408 M10 2018-07-29 06:14:43 45.7096 14.7498 187 ° 19 km/h 4415 m -11.5 m/s MHz Sodražica (SI) 0.00 km UNKNOWN
ME696384 M10 2018-07-28 06:10:31 45.9974 14.5916 164 ° 31 km/h 3901 m -14.0 m/s MHz Škofljica (SI) 0.00 km UNKNOWN
ME667281 M10 2018-07-27 06:30:03 45.9486 14.191 255 ° 11 km/h 4377 m -14.6 m/s MHz Logatec (SI) 0.00 km UNKNOWN
ME737504 M10 2018-07-26 05:55:15 45.7799 14.8111 167 ° 24 km/h 4018 m -15.6 m/s MHz Žužemberk (SI) 0.00 km UNKNOWN
ME744928 M10 2018-07-25 06:36:53 45.7721 14.2827 190 ° 31 km/h 4666 m -16.9 m/s MHz Postojna (SI) 0.00 km UNKNOWN
ME739296 M10 2018-07-24 06:21:59 45.4284 14.5372 199 ° 28 km/h 5316 m -12.1 m/s MHz Jelenje (HR) 0.00 km UNKNOWN
ME777968 M10 2018-07-22 06:41:50 46.1996 14.8772 70 ° 20 km/h 2803 m -17.4 m/s MHz Vransko (SI) 0.00 km UNKNOWN
ME771568 M10 2018-07-21 06:35:58 46.4147 15.4389 71 ° 17 km/h 1110 m -10.5 m/s MHz Oplotnica (SI) 0.00 km UNKNOWN
ME739552 M10 2018-07-19 06:13:35 45.9517 14.8524 136 ° 31 km/h 3193 m -11.7 m/s MHz Ivančna Gorica (SI) 0.00 km FOUND
ME742112 M10 2018-07-17 06:17:12 45.9392 15.0709 168 ° 22 km/h 5321 m -16.8 m/s MHz Mirna (SI) 0.00 km UNKNOWN
ME748273 M10 2018-07-15 06:24:50 45.9262 15.5772 95 ° 11 km/h 2206 m -15.4 m/s MHz Brežice (SI) 0.00 km UNKNOWN
ME744672 M10 2018-07-14 06:01:07 45.8079 15.862 35 ° 4 km/h 861 m -11.4 m/s MHz Gornji Stupnik (HR) 0.00 km UNKNOWN
ME743136 M10 2018-07-13 06:28:03 46.0701 15.2764 72 ° 24 km/h 2923 m -16.1 m/s MHz Sevnica (SI) 0.00 km UNKNOWN
ME743648 M10 2018-07-12 05:57:26 46.1706 15.2899 274 ° 41 km/h 24714 m 5.6 m/s MHz Laško (SI) 0.00 km LOST
ME753376 M10 2018-07-11 06:26:27 46.2065 15.5175 247 ° 22 km/h 1126 m -8.9 m/s MHz Šmarje (SI) 0.00 km UNKNOWN
ME772080 M10 2018-07-10 06:03:11 45.7753 14.483 142 ° 17 km/h 6138 m -15.8 m/s MHz Nova Vas (SI) 0.00 km UNKNOWN
ME743665 M10 2018-07-09 06:22:28 45.371 14.263 281 ° 35 km/h 21204 m -52.1 m/s MHz Matulji (HR) 0.00 km UNKNOWN
ME743153 M10 2018-07-08 05:51:59 45.6504 14.4231 268 ° 46 km/h 25188 m 6.9 m/s MHz Stari Trg (SI) 0.00 km UNKNOWN
ME744945 M10 2018-07-07 06:21:44 45.9099 14.5959 282 ° 43 km/h 24671 m -47.2 m/s MHz Grosuplje (SI) 0.00 km UNKNOWN
ME738545 M10 2018-07-05 06:05:16 45.9832 15.6841 42 ° 20 km/h 1294 m -7.7 m/s MHz Kraljevec na Sutli (HR) 0.00 km UNKNOWN
ME737777 M10 2018-07-04 05:49:29 46.1139 14.9991 260 ° 41 km/h 23825 m 6.0 m/s MHz Zagorje (SI) 0.00 km LOST
ME737521 M10 2018-07-03 06:05:27 45.9494 15.1547 67 ° 6 km/h 2039 m -13.8 m/s MHz Mokronog (SI) 0.00 km LOST
ME771056 M10 2018-07-02 05:55:04 45.6073 15.5129 89 ° 31 km/h 1879 m -8.5 m/s MHz Ozalj (HR) 0.00 km UNKNOWN
ME773616 M10 2018-07-01 06:28:57 45.4983 15.3005 115 ° 57 km/h 3387 m -15.2 m/s MHz Netretić (HR) 0.00 km UNKNOWN
ME771824 M10 2018-06-30 05:57:17 45.7388 14.7133 250 ° 46 km/h 24438 m 6.1 m/s MHz Sodražica (SI) 0.00 km UNKNOWN
ME741873 M10 2018-06-28 06:09:53 45.8445 13.9376 280 ° 44 km/h 24955 m 4.8 m/s MHz Vipava (SI) 0.00 km UNKNOWN
ME748017 M10 2018-06-27 05:40:16 45.4731 14.4012 304 ° 43 km/h 22058 m -12.1 m/s MHz Klana (HR) 0.00 km UNKNOWN
ME771312 M10 2018-06-26 05:23:52 45.6134 14.1239 208 ° 52 km/h 13915 m -5.0 m/s MHz Pivka (SI) 0.00 km UNKNOWN
ME772336 M10 2018-06-25 05:36:40 45.8595 14.6409 209 ° 22 km/h 16479 m -13.9 m/s MHz Velike Lašče (SI) 0.00 km UNKNOWN
ME775873 M10 2018-06-24 05:55:45 45.638 14.7182 253 ° 54 km/h 23514 m 5.7 m/s MHz Čabar (HR) 0.00 km UNKNOWN
ME779457 M10 2018-06-19 05:40:47 45.7269 14.0686 258 ° 17 km/h 20521 m 3.6 m/s MHz Divača (SI) 0.00 km UNKNOWN
ME781505 M10 2018-06-16 06:02:25 46.0926 14.2773 319 ° 24 km/h 24870 m 5.3 m/s MHz Horjul (SI) 0.00 km UNKNOWN
ME780993 M10 2018-06-10 06:06:23 45.9067 14.8206 166 ° 15 km/h 18950 m -32.9 m/s MHz Ivančna Gorica (SI) 0.00 km UNKNOWN
ME780225 M10 2018-06-09 06:08:22 46.0309 14.3407 288 ° 31 km/h 26273 m 5.8 m/s MHz Log (SI) 0.00 km UNKNOWN
ME781249 M10 2018-06-08 12:29:00 46.3413 14.575 44 ° 28 km/h 15377 m 4.4 m/s MHz Zgornje Jezersko (SI) 0.00 km UNKNOWN
ME782273 M10 2018-06-08 05:55:47 46.259 14.5701 295 ° 17 km/h 25431 m 5.8 m/s MHz Kamnik (SI) 0.00 km UNKNOWN
ME777153 M10 2018-06-07 06:12:25 46.1728 14.7485 69 ° 17 km/h 3661 m -10.6 m/s MHz Lukovica (SI) 0.00 km UNKNOWN
ME735217 M10 2018-06-03 05:48:52 45.901 14.9199 208 ° 19 km/h 22317 m 5.2 m/s MHz Trebnje (SI) 0.00 km UNKNOWN
ME723441 M10 2018-06-01 06:14:44 46.1529 14.4639 253 ° 37 km/h 26230 m 4.1 m/s MHz Medvode (SI) 0.00 km UNKNOWN
ME728561 M10 2018-05-31 06:03:37 46.0628 14.5523 250 ° 30 km/h 25678 m 5.7 m/s MHz Ljubljana (SI) 0.00 km FOUND
ME735473 M10 2018-05-30 06:25:54 46.0238 14.6249 82 ° 13 km/h 3623 m -17.1 m/s MHz Škofljica (SI) 0.00 km UNKNOWN
ME721905 M10 2018-05-25 06:36:27 45.9225 14.7143 268 ° 35 km/h 27008 m 4.5 m/s MHz Grosuplje (SI) 0.00 km UNKNOWN
ME734705 M10 2018-05-22 06:41:44 46.3762 14.6216 27 ° 22 km/h 7628 m -15.7 m/s MHz Solčava (SI) 0.00 km UNKNOWN
ME737009 M10 2018-05-21 06:06:05 46.2439 14.6569 66 ° 22 km/h 11784 m -28.1 m/s MHz Kamnik (SI) 0.00 km UNKNOWN
ME728049 M10 2018-05-20 05:37:11 46.1051 14.7161 163 ° 11 km/h 19006 m 3.9 m/s MHz Moravče (SI) 0.00 km FOUND
ME727537 M10 2018-05-18 05:42:29 46.0718 14.5082 45 ° 22 km/h 15081 m -21.1 m/s MHz Ljubljana (SI) 0.00 km UNKNOWN
ME727025 M10 2018-05-17 05:46:29 46.1003 14.8079 95 ° 19 km/h 13298 m -4.7 m/s MHz Litija (SI) 0.00 km FOUND
ME739057 M10 2018-05-15 05:27:13 46.073 14.4836 32 ° 11 km/h 14507 m 3.9 m/s MHz Ljubljana (SI) 0.00 km UNKNOWN
ME725745 M10 2018-05-13 06:45:01 46.0079 14.523 342 ° 11 km/h 7622 m -14.6 m/s MHz Ljubljana (SI) 0.00 km UNKNOWN
ME746737 M10 2018-05-11 06:29:57 46.2003 14.5589 27 ° 15 km/h 4208 m -10.8 m/s MHz Komenda (SI) 0.00 km UNKNOWN
ME730865 M10 2018-05-10 06:25:25 46.3841 14.6762 327 ° 13 km/h 3964 m -10.8 m/s MHz Solčava (SI) 0.00 km UNKNOWN
ME753137 M10 2018-05-08 06:45:28 45.6595 14.3793 145 ° 43 km/h 7796 m -21.8 m/s MHz Stari Trg (SI) 0.00 km UNKNOWN
ME747505 M10 2018-05-07 06:06:21 46.1157 14.4376 307 ° 19 km/h 4815 m -15.7 m/s MHz Medvode (SI) 0.00 km UNKNOWN
ME731889 M10 2018-05-06 06:18:59 45.9397 14.0773 269 ° 33 km/h 6894 m -18.1 m/s MHz Idrija (SI) 0.00 km UNKNOWN
ME732145 M10 2018-05-05 05:38:28 46.1338 13.8853 283 ° 72 km/h 10021 m -11.0 m/s MHz Cerkno (SI) 0.00 km UNKNOWN
ME766705 M10 2018-05-04 06:39:35 46.1682 13.5987 279 ° 43 km/h 11401 m -26.3 m/s MHz Kobarid (SI) 0.00 km UNKNOWN
ME768497 M10 2018-05-02 06:03:54 46.6987 14.6666 9 ° 56 km/h 7718 m -11.5 m/s MHz Völkermarkt (AT) 0.00 km UNKNOWN
ME746225 M10 2018-05-01 05:43:08 46.4773 15.2269 46 ° 22 km/h 20419 m 5.1 m/s MHz Mislinja (SI) 0.00 km LOST
ME745713 M10 2018-04-30 05:57:39 46.5582 14.8934 91 ° 9 km/h 24633 m 5.5 m/s MHz Prevalje (SI) 0.00 km LOST
ME410896 M10 2018-04-26 06:32:44 46.205 15.3085 5 ° 20 km/h 2065 m -14.4 m/s MHz Štore (SI) 0.00 km UNKNOWN
ME702492 M10 2018-04-25 05:55:37 45.9394 14.6497 76 ° 15 km/h 23730 m 5.6 m/s MHz Grosuplje (SI) 0.00 km UNKNOWN
ME407312 M10 2018-04-23 06:17:05 45.9587 14.9287 165 ° 20 km/h 20979 m -35.9 m/s MHz Trebnje (SI) 0.00 km UNKNOWN
ME442225 M10 2018-03-09 05:51:37 45.7272 15.6346 150 ° 57 km/h 21210 m 6.6 m/s MHz Jastrebarsko (HR) 0.00 km UNKNOWN
L3930025 RS41 2018-03-01 00:57:09 45.8214 14.0959 275 ° 102 km/h 31549 m -34.5 m/s 404.00 MHz Postojna (SI) 0.00 km UNKNOWN
L2820177 RS41 2018-01-17 00:46:51 45.6915 15.6846 107 ° 154 km/h 33127 m -34.3 m/s 404.00 MHz Jastrebarsko (HR) 0.00 km UNKNOWN
L4020452 RS41 2017-12-14 12:57:53 46.1772 16.587 81 ° 256 km/h 32066 m -26.9 m/s 404.00 MHz Ludbreg (HR) 0.00 km UNKNOWN
L4010207 RS41 2017-12-10 12:51:54 45.8135 15.6952 70 ° 232 km/h 30609 m -22.9 m/s 404.00 MHz Samobor (HR) 0.00 km UNKNOWN
L3950625 RS41 2017-09-14 18:29:55 46.4336 14.4011 51 ° 19 km/h 26248 m -11.2 m/s 404.00 MHz Zgornje Jezersko (SI) 0.00 km UNKNOWN
L4030085 RS41 2017-07-15 01:04:54 45.5585 13.9373 7 ° 39 km/h 33508 m -19.1 m/s 404.00 MHz Kozina (SI) 0.00 km UNKNOWN